<?xml version="1.0" encoding="UTF-8" standalone="no" ?>
  <gpx version="1.0" creator="Loctome.com">
  <metadata>
  <link href="https://play.google.com/store/apps/details?id=com.loctome.app.loctome">
      <text>Loctome Live Track GPS</text>
  </link>
  <desc>File created by Loctome Android Client Oreo Edition</desc>
  <time>2019-02-23T14:22:12Z</time>
  </metadata>
  <trk>
    <name>2019-02-23T14:22:12Z</name>
    <trkseg>
      <trkpt lat="38.51299814" lon="-6.61662885"><ele>753</ele><speed>0.22</speed><time>2019-02-23T14:22:13Z</time><pdop>4.5509996</pdop><geoidheight>0.00</geoidheight><course>27.2</course><type>1</type></trkpt>
      <trkpt lat="38.51300542" lon="-6.61662573"><ele>754</ele><speed>0.00</speed><time>2019-02-23T14:23:13Z</time><pdop>4.5509996</pdop><geoidheight>0.00</geoidheight><course>0.0</course><type>1</type></trkpt>
      <trkpt lat="38.51300473" lon="-6.61662694"><ele>754</ele><speed>0.00</speed><time>2019-02-23T14:24:13Z</time><pdop>4.5509996</pdop><geoidheight>0.00</geoidheight><course>0.0</course><type>1</type></trkpt>
      <trkpt lat="38.51300408" lon="-6.61662692"><ele>754</ele><speed>0.00</speed><time>2019-02-23T14:25:13Z</time><pdop>4.5509996</pdop><geoidheight>0.00</geoidheight><course>0.0</course><type>1</type></trkpt>
      <trkpt lat="38.51300337" lon="-6.61662654"><ele>754</ele><speed>0.00</speed><time>2019-02-23T14:26:13Z</time><pdop>4.5509996</pdop><geoidheight>0.00</geoidheight><course>0.0</course><type>1</type></trkpt>
      <trkpt lat="38.51304265" lon="-6.61653389"><ele>752</ele><speed>2.40</speed><time>2019-02-23T14:26:56Z</time><pdop>4.5509996</pdop><geoidheight>0.00</geoidheight><course>43.5</course><type>1</type></trkpt>
      <trkpt lat="38.51310127" lon="-6.61646174"><ele>752</ele><speed>2.80</speed><time>2019-02-23T14:26:59Z</time><pdop>4.5509996</pdop><geoidheight>0.00</geoidheight><course>34.4</course><type>1</type></trkpt>
      <trkpt lat="38.51318433" lon="-6.61642442"><ele>750</ele><speed>3.12</speed><time>2019-02-23T14:27:03Z</time><pdop>4.5509996</pdop><geoidheight>0.00</geoidheight><course>9.3</course><type>1</type></trkpt>
      <trkpt lat="38.5132716" lon="-6.61636978"><ele>748</ele><speed>3.84</speed><time>2019-02-23T14:27:06Z</time><pdop>4.5509996</pdop><geoidheight>0.00</geoidheight><course>49.1</course><type>1</type></trkpt>
      <trkpt lat="38.5132761" lon="-6.61623153"><ele>746</ele><speed>5.98</speed><time>2019-02-23T14:27:08Z</time><pdop>4.5509996</pdop><geoidheight>0.00</geoidheight><course>80.9</course><type>1</type></trkpt>
      <trkpt lat="38.51327131" lon="-6.61609862"><ele>745</ele><speed>6.39</speed><time>2019-02-23T14:27:10Z</time><pdop>4.5509996</pdop><geoidheight>0.00</geoidheight><course>113.7</course><type>1</type></trkpt>
      <trkpt lat="38.5131979" lon="-6.61596913"><ele>742</ele><speed>5.96</speed><time>2019-02-23T14:27:12Z</time><pdop>4.5509996</pdop><geoidheight>0.00</geoidheight><course>121.4</course><type>1</type></trkpt>
      <trkpt lat="38.51316555" lon="-6.61584716"><ele>740</ele><speed>6.04</speed><time>2019-02-23T14:27:14Z</time><pdop>4.5509996</pdop><geoidheight>0.00</geoidheight><course>95.8</course><type>1</type></trkpt>
      <trkpt lat="38.51320364" lon="-6.61572446"><ele>737</ele><speed>5.53</speed><time>2019-02-23T14:27:16Z</time><pdop>6.068</pdop><geoidheight>0.00</geoidheight><course>55.3</course><type>1</type></trkpt>
      <trkpt lat="38.51327339" lon="-6.61563019"><ele>739</ele><speed>3.37</speed><time>2019-02-23T14:27:19Z</time><pdop>4.5509996</pdop><geoidheight>0.00</geoidheight><course>78.0</course><type>1</type></trkpt>
      <trkpt lat="38.51325469" lon="-6.61551585"><ele>740</ele><speed>6.39</speed><time>2019-02-23T14:27:21Z</time><pdop>4.5509996</pdop><geoidheight>0.00</geoidheight><course>96.9</course><type>1</type></trkpt>
      <trkpt lat="38.51321222" lon="-6.61538855"><ele>743</ele><speed>7.12</speed><time>2019-02-23T14:27:23Z</time><pdop>6.068</pdop><geoidheight>0.00</geoidheight><course>111.6</course><type>1</type></trkpt>
      <trkpt lat="38.51314628" lon="-6.61524239"><ele>743</ele><speed>7.81</speed><time>2019-02-23T14:27:25Z</time><pdop>6.068</pdop><geoidheight>0.00</geoidheight><course>118.8</course><type>1</type></trkpt>
      <trkpt lat="38.51306794" lon="-6.61506952"><ele>744</ele><speed>8.95</speed><time>2019-02-23T14:27:27Z</time><pdop>6.068</pdop><geoidheight>0.00</geoidheight><course>119.8</course><type>1</type></trkpt>
      <trkpt lat="38.51298224" lon="-6.61491729"><ele>745</ele><speed>7.67</speed><time>2019-02-23T14:27:29Z</time><pdop>6.068</pdop><geoidheight>0.00</geoidheight><course>117.8</course><type>1</type></trkpt>
      <trkpt lat="38.51294013" lon="-6.61474192"><ele>744</ele><speed>8.10</speed><time>2019-02-23T14:27:31Z</time><pdop>6.068</pdop><geoidheight>0.00</geoidheight><course>106.4</course><type>1</type></trkpt>
      <trkpt lat="38.51290393" lon="-6.61455645"><ele>745</ele><speed>8.36</speed><time>2019-02-23T14:27:33Z</time><pdop>6.068</pdop><geoidheight>0.00</geoidheight><course>109.1</course><type>1</type></trkpt>
      <trkpt lat="38.51285311" lon="-6.61440407"><ele>745</ele><speed>7.34</speed><time>2019-02-23T14:27:35Z</time><pdop>6.068</pdop><geoidheight>0.00</geoidheight><course>109.1</course><type>1</type></trkpt>
      <trkpt lat="38.51280899" lon="-6.61424137"><ele>748</ele><speed>6.32</speed><time>2019-02-23T14:27:37Z</time><pdop>6.068</pdop><geoidheight>0.00</geoidheight><course>100.0</course><type>1</type></trkpt>
      <trkpt lat="38.51274386" lon="-6.61407136"><ele>748</ele><speed>6.59</speed><time>2019-02-23T14:27:40Z</time><pdop>4.5509996</pdop><geoidheight>0.00</geoidheight><course>121.5</course><type>1</type></trkpt>
      <trkpt lat="38.51270598" lon="-6.61399123"><ele>748</ele><speed>7.21</speed><time>2019-02-23T14:27:41Z</time><pdop>4.5509996</pdop><geoidheight>0.00</geoidheight><course>120.2</course><type>1</type></trkpt>
      <trkpt lat="38.5126498" lon="-6.61383992"><ele>749</ele><speed>7.31</speed><time>2019-02-23T14:27:43Z</time><pdop>6.068</pdop><geoidheight>0.00</geoidheight><course>116.4</course><type>1</type></trkpt>
      <trkpt lat="38.51260664" lon="-6.61368595"><ele>749</ele><speed>6.53</speed><time>2019-02-23T14:27:45Z</time><pdop>6.068</pdop><geoidheight>0.00</geoidheight><course>120.0</course><type>1</type></trkpt>
      <trkpt lat="38.51252657" lon="-6.61351974"><ele>755</ele><speed>6.43</speed><time>2019-02-23T14:27:48Z</time><pdop>6.068</pdop><geoidheight>0.00</geoidheight><course>131.8</course><type>1</type></trkpt>
      <trkpt lat="38.51244242" lon="-6.61340493"><ele>757</ele><speed>5.84</speed><time>2019-02-23T14:27:50Z</time><pdop>6.068</pdop><geoidheight>0.00</geoidheight><course>127.9</course><type>1</type></trkpt>
      <trkpt lat="38.51235587" lon="-6.61324594"><ele>760</ele><speed>6.55</speed><time>2019-02-23T14:27:53Z</time><pdop>6.068</pdop><geoidheight>0.00</geoidheight><course>118.5</course><type>1</type></trkpt>
      <trkpt lat="38.51231735" lon="-6.61310469"><ele>762</ele><speed>5.81</speed><time>2019-02-23T14:27:55Z</time><pdop>6.068</pdop><geoidheight>0.00</geoidheight><course>117.6</course><type>1</type></trkpt>
      <trkpt lat="38.51227533" lon="-6.61291833"><ele>761</ele><speed>5.60</speed><time>2019-02-23T14:27:58Z</time><pdop>6.068</pdop><geoidheight>0.00</geoidheight><course>106.5</course><type>1</type></trkpt>
      <trkpt lat="38.51223275" lon="-6.61278967"><ele>761</ele><speed>5.50</speed><time>2019-02-23T14:28:00Z</time><pdop>6.068</pdop><geoidheight>0.00</geoidheight><course>114.7</course><type>1</type></trkpt>
      <trkpt lat="38.51219055" lon="-6.61262715"><ele>761</ele><speed>5.14</speed><time>2019-02-23T14:28:03Z</time><pdop>6.068</pdop><geoidheight>0.00</geoidheight><course>108.9</course><type>1</type></trkpt>
      <trkpt lat="38.51213385" lon="-6.6124459"><ele>761</ele><speed>5.50</speed><time>2019-02-23T14:28:06Z</time><pdop>6.068</pdop><geoidheight>0.00</geoidheight><course>111.7</course><type>1</type></trkpt>
      <trkpt lat="38.51207736" lon="-6.61225498"><ele>760</ele><speed>5.92</speed><time>2019-02-23T14:28:09Z</time><pdop>6.068</pdop><geoidheight>0.00</geoidheight><course>118.6</course><type>1</type></trkpt>
      <trkpt lat="38.51202101" lon="-6.61206275"><ele>763</ele><speed>6.12</speed><time>2019-02-23T14:28:12Z</time><pdop>6.068</pdop><geoidheight>0.00</geoidheight><course>103.8</course><type>1</type></trkpt>
      <trkpt lat="38.51201912" lon="-6.61184115"><ele>766</ele><speed>6.24</speed><time>2019-02-23T14:28:15Z</time><pdop>6.068</pdop><geoidheight>0.00</geoidheight><course>104.8</course><type>1</type></trkpt>
      <trkpt lat="38.51196327" lon="-6.6117222"><ele>767</ele><speed>6.70</speed><time>2019-02-23T14:28:17Z</time><pdop>6.068</pdop><geoidheight>0.00</geoidheight><course>133.1</course><type>1</type></trkpt>
      <trkpt lat="38.51186826" lon="-6.61161936"><ele>768</ele><speed>7.48</speed><time>2019-02-23T14:28:19Z</time><pdop>6.068</pdop><geoidheight>0.00</geoidheight><course>135.8</course><type>1</type></trkpt>
      <trkpt lat="38.51177308" lon="-6.61147608"><ele>771</ele><speed>6.59</speed><time>2019-02-23T14:28:21Z</time><pdop>6.068</pdop><geoidheight>0.00</geoidheight><course>130.9</course><type>1</type></trkpt>
      <trkpt lat="38.51168455" lon="-6.61130447"><ele>772</ele><speed>6.48</speed><time>2019-02-23T14:28:24Z</time><pdop>6.068</pdop><geoidheight>0.00</geoidheight><course>116.8</course><type>1</type></trkpt>
      <trkpt lat="38.51163389" lon="-6.61116628"><ele>774</ele><speed>5.45</speed><time>2019-02-23T14:28:26Z</time><pdop>6.068</pdop><geoidheight>0.00</geoidheight><course>118.9</course><type>1</type></trkpt>
      <trkpt lat="38.51156059" lon="-6.61103648"><ele>776</ele><speed>5.27</speed><time>2019-02-23T14:28:29Z</time><pdop>7.585</pdop><geoidheight>0.00</geoidheight><course>119.2</course><type>1</type></trkpt>
      <trkpt lat="38.51151118" lon="-6.61092039"><ele>776</ele><speed>6.20</speed><time>2019-02-23T14:28:31Z</time><pdop>4.5509996</pdop><geoidheight>0.00</geoidheight><course>113.8</course><type>1</type></trkpt>
      <trkpt lat="38.5114651" lon="-6.61079134"><ele>778</ele><speed>5.93</speed><time>2019-02-23T14:28:33Z</time><pdop>4.5509996</pdop><geoidheight>0.00</geoidheight><course>115.0</course><type>1</type></trkpt>
      <trkpt lat="38.51141272" lon="-6.61067871"><ele>778</ele><speed>6.14</speed><time>2019-02-23T14:28:35Z</time><pdop>4.5509996</pdop><geoidheight>0.00</geoidheight><course>120.3</course><type>1</type></trkpt>
      <trkpt lat="38.51134559" lon="-6.61055158"><ele>778</ele><speed>7.23</speed><time>2019-02-23T14:28:37Z</time><pdop>4.5509996</pdop><geoidheight>0.00</geoidheight><course>120.8</course><type>1</type></trkpt>
      <trkpt lat="38.51127407" lon="-6.610411"><ele>780</ele><speed>6.94</speed><time>2019-02-23T14:28:39Z</time><pdop>4.5509996</pdop><geoidheight>0.00</geoidheight><course>127.1</course><type>1</type></trkpt>
      <trkpt lat="38.5111924" lon="-6.61031972"><ele>781</ele><speed>5.92</speed><time>2019-02-23T14:28:41Z</time><pdop>6.068</pdop><geoidheight>0.00</geoidheight><course>140.7</course><type>1</type></trkpt>
      <trkpt lat="38.51115391" lon="-6.61018975"><ele>781</ele><speed>6.36</speed><time>2019-02-23T14:28:43Z</time><pdop>4.5509996</pdop><geoidheight>0.00</geoidheight><course>105.0</course><type>1</type></trkpt>
      <trkpt lat="38.51115055" lon="-6.61008862"><ele>782</ele><speed>5.08</speed><time>2019-02-23T14:28:45Z</time><pdop>4.5509996</pdop><geoidheight>0.00</geoidheight><course>77.3</course><type>1</type></trkpt>
      <trkpt lat="38.51119837" lon="-6.60999079"><ele>780</ele><speed>3.59</speed><time>2019-02-23T14:28:47Z</time><pdop>4.5509996</pdop><geoidheight>0.00</geoidheight><course>36.5</course><type>1</type></trkpt>
      <trkpt lat="38.51127876" lon="-6.609977"><ele>780</ele><speed>5.42</speed><time>2019-02-23T14:28:49Z</time><pdop>4.5509996</pdop><geoidheight>0.00</geoidheight><course>351.8</course><type>1</type></trkpt>
      <trkpt lat="38.51139059" lon="-6.6100492"><ele>779</ele><speed>6.64</speed><time>2019-02-23T14:28:51Z</time><pdop>4.5509996</pdop><geoidheight>0.00</geoidheight><course>316.8</course><type>1</type></trkpt>
      <trkpt lat="38.51145863" lon="-6.61016886"><ele>779</ele><speed>6.83</speed><time>2019-02-23T14:28:53Z</time><pdop>4.5509996</pdop><geoidheight>0.00</geoidheight><course>293.5</course><type>1</type></trkpt>
      <trkpt lat="38.5115104" lon="-6.61033278"><ele>776</ele><speed>7.30</speed><time>2019-02-23T14:28:55Z</time><pdop>4.5509996</pdop><geoidheight>0.00</geoidheight><course>292.3</course><type>1</type></trkpt>
      <trkpt lat="38.51156543" lon="-6.61050426"><ele>776</ele><speed>7.89</speed><time>2019-02-23T14:28:57Z</time><pdop>4.5509996</pdop><geoidheight>0.00</geoidheight><course>290.2</course><type>1</type></trkpt>
      <trkpt lat="38.51158504" lon="-6.61059748"><ele>776</ele><speed>8.24</speed><time>2019-02-23T14:28:58Z</time><pdop>4.5509996</pdop><geoidheight>0.00</geoidheight><course>287.6</course><type>1</type></trkpt>
      <trkpt lat="38.51163143" lon="-6.61077001"><ele>776</ele><speed>8.23</speed><time>2019-02-23T14:29:00Z</time><pdop>4.5509996</pdop><geoidheight>0.00</geoidheight><course>284.5</course><type>1</type></trkpt>
      <trkpt lat="38.51166829" lon="-6.6109487"><ele>776</ele><speed>8.45</speed><time>2019-02-23T14:29:02Z</time><pdop>4.5509996</pdop><geoidheight>0.00</geoidheight><course>287.8</course><type>1</type></trkpt>
      <trkpt lat="38.51170239" lon="-6.61104408"><ele>776</ele><speed>8.40</speed><time>2019-02-23T14:29:03Z</time><pdop>4.5509996</pdop><geoidheight>0.00</geoidheight><course>292.2</course><type>1</type></trkpt>
      <trkpt lat="38.51172897" lon="-6.61112983"><ele>777</ele><speed>8.39</speed><time>2019-02-23T14:29:04Z</time><pdop>4.5509996</pdop><geoidheight>0.00</geoidheight><course>293.0</course><type>1</type></trkpt>
      <trkpt lat="38.51179175" lon="-6.61128161"><ele>776</ele><speed>7.73</speed><time>2019-02-23T14:29:06Z</time><pdop>4.5509996</pdop><geoidheight>0.00</geoidheight><course>286.7</course><type>1</type></trkpt>
      <trkpt lat="38.51184161" lon="-6.61145162"><ele>775</ele><speed>8.01</speed><time>2019-02-23T14:29:08Z</time><pdop>4.5509996</pdop><geoidheight>0.00</geoidheight><course>291.9</course><type>1</type></trkpt>
      <trkpt lat="38.51189817" lon="-6.61161275"><ele>773</ele><speed>8.95</speed><time>2019-02-23T14:29:10Z</time><pdop>4.5509996</pdop><geoidheight>0.00</geoidheight><course>289.9</course><type>1</type></trkpt>
      <trkpt lat="38.51192084" lon="-6.61170131"><ele>773</ele><speed>8.73</speed><time>2019-02-23T14:29:11Z</time><pdop>4.5509996</pdop><geoidheight>0.00</geoidheight><course>289.2</course><type>1</type></trkpt>
      <trkpt lat="38.51195444" lon="-6.61179723"><ele>774</ele><speed>8.53</speed><time>2019-02-23T14:29:12Z</time><pdop>4.5509996</pdop><geoidheight>0.00</geoidheight><course>295.6</course><type>1</type></trkpt>
      <trkpt lat="38.51202094" lon="-6.61197033"><ele>775</ele><speed>7.98</speed><time>2019-02-23T14:29:14Z</time><pdop>6.068</pdop><geoidheight>0.00</geoidheight><course>294.8</course><type>1</type></trkpt>
      <trkpt lat="38.51205946" lon="-6.61216605"><ele>777</ele><speed>8.92</speed><time>2019-02-23T14:29:16Z</time><pdop>4.5509996</pdop><geoidheight>0.00</geoidheight><course>277.6</course><type>1</type></trkpt>
      <trkpt lat="38.51208556" lon="-6.61227438"><ele>777</ele><speed>9.14</speed><time>2019-02-23T14:29:17Z</time><pdop>4.5509996</pdop><geoidheight>0.00</geoidheight><course>276.3</course><type>1</type></trkpt>
      <trkpt lat="38.51209369" lon="-6.61238448"><ele>777</ele><speed>9.19</speed><time>2019-02-23T14:29:18Z</time><pdop>4.5509996</pdop><geoidheight>0.00</geoidheight><course>278.4</course><type>1</type></trkpt>
      <trkpt lat="38.5121057" lon="-6.6124785"><ele>778</ele><speed>8.98</speed><time>2019-02-23T14:29:19Z</time><pdop>4.5509996</pdop><geoidheight>0.00</geoidheight><course>283.1</course><type>1</type></trkpt>
      <trkpt lat="38.5121238" lon="-6.61257872"><ele>778</ele><speed>8.72</speed><time>2019-02-23T14:29:20Z</time><pdop>4.5509996</pdop><geoidheight>0.00</geoidheight><course>284.8</course><type>1</type></trkpt>
      <trkpt lat="38.51213971" lon="-6.61267258"><ele>779</ele><speed>8.49</speed><time>2019-02-23T14:29:21Z</time><pdop>4.5509996</pdop><geoidheight>0.00</geoidheight><course>283.1</course><type>1</type></trkpt>
      <trkpt lat="38.51215841" lon="-6.61276919"><ele>779</ele><speed>8.25</speed><time>2019-02-23T14:29:22Z</time><pdop>4.5509996</pdop><geoidheight>0.00</geoidheight><course>283.3</course><type>1</type></trkpt>
      <trkpt lat="38.51216868" lon="-6.61286224"><ele>778</ele><speed>8.52</speed><time>2019-02-23T14:29:23Z</time><pdop>4.5509996</pdop><geoidheight>0.00</geoidheight><course>282.1</course><type>1</type></trkpt>
      <trkpt lat="38.5121891" lon="-6.61295454"><ele>778</ele><speed>8.08</speed><time>2019-02-23T14:29:24Z</time><pdop>4.5509996</pdop><geoidheight>0.00</geoidheight><course>284.4</course><type>1</type></trkpt>
      <trkpt lat="38.51222901" lon="-6.61311301"><ele>777</ele><speed>7.62</speed><time>2019-02-23T14:29:26Z</time><pdop>4.5509996</pdop><geoidheight>0.00</geoidheight><course>298.7</course><type>1</type></trkpt>
      <trkpt lat="38.512295" lon="-6.61324003"><ele>776</ele><speed>5.98</speed><time>2019-02-23T14:29:28Z</time><pdop>4.5509996</pdop><geoidheight>0.00</geoidheight><course>314.8</course><type>1</type></trkpt>
      <trkpt lat="38.5124062" lon="-6.61326504"><ele>773</ele><speed>4.46</speed><time>2019-02-23T14:29:31Z</time><pdop>6.068</pdop><geoidheight>0.00</geoidheight><course>35.8</course><type>1</type></trkpt>
      <trkpt lat="38.51239412" lon="-6.61311523"><ele>774</ele><speed>6.61</speed><time>2019-02-23T14:29:34Z</time><pdop>4.5509996</pdop><geoidheight>0.00</geoidheight><course>110.4</course><type>1</type></trkpt>
      <trkpt lat="38.51234934" lon="-6.61297254"><ele>773</ele><speed>6.59</speed><time>2019-02-23T14:29:36Z</time><pdop>4.5509996</pdop><geoidheight>0.00</geoidheight><course>113.3</course><type>1</type></trkpt>
      <trkpt lat="38.51230277" lon="-6.61282006"><ele>770</ele><speed>7.09</speed><time>2019-02-23T14:29:38Z</time><pdop>4.5509996</pdop><geoidheight>0.00</geoidheight><course>111.4</course><type>1</type></trkpt>
      <trkpt lat="38.51226508" lon="-6.61266064"><ele>770</ele><speed>7.49</speed><time>2019-02-23T14:29:40Z</time><pdop>4.5509996</pdop><geoidheight>0.00</geoidheight><course>109.7</course><type>1</type></trkpt>
      <trkpt lat="38.51223282" lon="-6.61257398"><ele>770</ele><speed>7.26</speed><time>2019-02-23T14:29:41Z</time><pdop>4.5509996</pdop><geoidheight>0.00</geoidheight><course>109.9</course><type>1</type></trkpt>
      <trkpt lat="38.51217624" lon="-6.61242581"><ele>772</ele><speed>6.25</speed><time>2019-02-23T14:29:43Z</time><pdop>6.068</pdop><geoidheight>0.00</geoidheight><course>117.1</course><type>1</type></trkpt>
      <trkpt lat="38.51210042" lon="-6.61229514"><ele>772</ele><speed>7.37</speed><time>2019-02-23T14:29:45Z</time><pdop>4.5509996</pdop><geoidheight>0.00</geoidheight><course>119.7</course><type>1</type></trkpt>
      <trkpt lat="38.51206341" lon="-6.61221014"><ele>773</ele><speed>8.32</speed><time>2019-02-23T14:29:46Z</time><pdop>4.5509996</pdop><geoidheight>0.00</geoidheight><course>116.4</course><type>1</type></trkpt>
      <trkpt lat="38.51203235" lon="-6.61212495"><ele>775</ele><speed>8.58</speed><time>2019-02-23T14:29:47Z</time><pdop>4.5509996</pdop><geoidheight>0.00</geoidheight><course>115.5</course><type>1</type></trkpt>
      <trkpt lat="38.51197189" lon="-6.61196993"><ele>778</ele><speed>7.24</speed><time>2019-02-23T14:29:49Z</time><pdop>4.5509996</pdop><geoidheight>0.00</geoidheight><course>119.0</course><type>1</type></trkpt>
      <trkpt lat="38.51192082" lon="-6.61183498"><ele>781</ele><speed>6.14</speed><time>2019-02-23T14:29:51Z</time><pdop>6.068</pdop><geoidheight>0.00</geoidheight><course>121.3</course><type>1</type></trkpt>
      <trkpt lat="38.51185697" lon="-6.61170919"><ele>780</ele><speed>7.06</speed><time>2019-02-23T14:29:53Z</time><pdop>6.068</pdop><geoidheight>0.00</geoidheight><course>120.1</course><type>1</type></trkpt>
      <trkpt lat="38.51180237" lon="-6.61156067"><ele>780</ele><speed>7.04</speed><time>2019-02-23T14:29:55Z</time><pdop>6.068</pdop><geoidheight>0.00</geoidheight><course>120.8</course><type>1</type></trkpt>
      <trkpt lat="38.51173865" lon="-6.61145797"><ele>782</ele><speed>5.52</speed><time>2019-02-23T14:29:57Z</time><pdop>4.5509996</pdop><geoidheight>0.00</geoidheight><course>130.5</course><type>1</type></trkpt>
      <trkpt lat="38.51167281" lon="-6.611349"><ele>778</ele><speed>6.42</speed><time>2019-02-23T14:29:59Z</time><pdop>4.5509996</pdop><geoidheight>0.00</geoidheight><course>124.4</course><type>1</type></trkpt>
      <trkpt lat="38.51160919" lon="-6.61119878"><ele>776</ele><speed>7.56</speed><time>2019-02-23T14:30:01Z</time><pdop>4.5509996</pdop><geoidheight>0.00</geoidheight><course>115.6</course><type>1</type></trkpt>
      <trkpt lat="38.5115449" lon="-6.61106653"><ele>777</ele><speed>5.84</speed><time>2019-02-23T14:30:03Z</time><pdop>4.5509996</pdop><geoidheight>0.00</geoidheight><course>112.9</course><type>1</type></trkpt>
      <trkpt lat="38.51150984" lon="-6.61096202"><ele>778</ele><speed>5.34</speed><time>2019-02-23T14:30:05Z</time><pdop>4.5509996</pdop><geoidheight>0.00</geoidheight><course>104.0</course><type>1</type></trkpt>
      <trkpt lat="38.51148364" lon="-6.61082053"><ele>777</ele><speed>6.76</speed><time>2019-02-23T14:30:07Z</time><pdop>4.5509996</pdop><geoidheight>0.00</geoidheight><course>100.0</course><type>1</type></trkpt>
      <trkpt lat="38.51145528" lon="-6.61067687"><ele>777</ele><speed>6.18</speed><time>2019-02-23T14:30:09Z</time><pdop>6.068</pdop><geoidheight>0.00</geoidheight><course>105.1</course><type>1</type></trkpt>
      <trkpt lat="38.51140698" lon="-6.61049043"><ele>777</ele><speed>6.52</speed><time>2019-02-23T14:30:12Z</time><pdop>4.5509996</pdop><geoidheight>0.00</geoidheight><course>108.5</course><type>1</type></trkpt>
      <trkpt lat="38.511361" lon="-6.61033928"><ele>776</ele><speed>7.00</speed><time>2019-02-23T14:30:14Z</time><pdop>4.5509996</pdop><geoidheight>0.00</geoidheight><course>112.0</course><type>1</type></trkpt>
      <trkpt lat="38.5112897" lon="-6.6101902"><ele>775</ele><speed>7.39</speed><time>2019-02-23T14:30:16Z</time><pdop>6.068</pdop><geoidheight>0.00</geoidheight><course>122.2</course><type>1</type></trkpt>
      <trkpt lat="38.51122602" lon="-6.6100382"><ele>774</ele><speed>7.16</speed><time>2019-02-23T14:30:18Z</time><pdop>6.068</pdop><geoidheight>0.00</geoidheight><course>117.0</course><type>1</type></trkpt>
      <trkpt lat="38.51119287" lon="-6.60989209"><ele>774</ele><speed>7.16</speed><time>2019-02-23T14:30:20Z</time><pdop>6.068</pdop><geoidheight>0.00</geoidheight><course>100.6</course><type>1</type></trkpt>
      <trkpt lat="38.5111752" lon="-6.60973017"><ele>776</ele><speed>5.88</speed><time>2019-02-23T14:30:22Z</time><pdop>6.068</pdop><geoidheight>0.00</geoidheight><course>96.4</course><type>1</type></trkpt>
      <trkpt lat="38.51121483" lon="-6.60955709"><ele>776</ele><speed>5.31</speed><time>2019-02-23T14:30:25Z</time><pdop>6.068</pdop><geoidheight>0.00</geoidheight><course>41.8</course><type>1</type></trkpt>
      <trkpt lat="38.51132033" lon="-6.60951478"><ele>775</ele><speed>6.54</speed><time>2019-02-23T14:30:27Z</time><pdop>6.068</pdop><geoidheight>0.00</geoidheight><course>3.2</course><type>1</type></trkpt>
      <trkpt lat="38.51142858" lon="-6.60954177"><ele>777</ele><speed>6.50</speed><time>2019-02-23T14:30:29Z</time><pdop>4.5509996</pdop><geoidheight>0.00</geoidheight><course>326.1</course><type>1</type></trkpt>
      <trkpt lat="38.51151543" lon="-6.60964015"><ele>777</ele><speed>6.88</speed><time>2019-02-23T14:30:31Z</time><pdop>4.5509996</pdop><geoidheight>0.00</geoidheight><course>306.4</course><type>1</type></trkpt>
      <trkpt lat="38.51159481" lon="-6.60980264"><ele>776</ele><speed>8.62</speed><time>2019-02-23T14:30:33Z</time><pdop>4.5509996</pdop><geoidheight>0.00</geoidheight><course>298.0</course><type>1</type></trkpt>
      <trkpt lat="38.51162382" lon="-6.60989202"><ele>776</ele><speed>9.03</speed><time>2019-02-23T14:30:34Z</time><pdop>4.5509996</pdop><geoidheight>0.00</geoidheight><course>294.3</course><type>1</type></trkpt>
      <trkpt lat="38.51166564" lon="-6.60999394"><ele>776</ele><speed>8.55</speed><time>2019-02-23T14:30:35Z</time><pdop>4.5509996</pdop><geoidheight>0.00</geoidheight><course>288.9</course><type>1</type></trkpt>
      <trkpt lat="38.511697" lon="-6.61008081"><ele>775</ele><speed>8.05</speed><time>2019-02-23T14:30:36Z</time><pdop>4.5509996</pdop><geoidheight>0.00</geoidheight><course>284.0</course><type>1</type></trkpt>
      <trkpt lat="38.51171517" lon="-6.61017694"><ele>776</ele><speed>8.13</speed><time>2019-02-23T14:30:37Z</time><pdop>4.5509996</pdop><geoidheight>0.00</geoidheight><course>284.2</course><type>1</type></trkpt>
      <trkpt lat="38.51172984" lon="-6.61027208"><ele>775</ele><speed>8.57</speed><time>2019-02-23T14:30:38Z</time><pdop>4.5509996</pdop><geoidheight>0.00</geoidheight><course>283.7</course><type>1</type></trkpt>
      <trkpt lat="38.51174588" lon="-6.61037073"><ele>774</ele><speed>8.73</speed><time>2019-02-23T14:30:39Z</time><pdop>4.5509996</pdop><geoidheight>0.00</geoidheight><course>282.5</course><type>1</type></trkpt>
      <trkpt lat="38.51176508" lon="-6.61046304"><ele>774</ele><speed>8.31</speed><time>2019-02-23T14:30:40Z</time><pdop>4.5509996</pdop><geoidheight>0.00</geoidheight><course>280.2</course><type>1</type></trkpt>
      <trkpt lat="38.51177702" lon="-6.61055844"><ele>774</ele><speed>8.07</speed><time>2019-02-23T14:30:41Z</time><pdop>4.5509996</pdop><geoidheight>0.00</geoidheight><course>278.7</course><type>1</type></trkpt>
      <trkpt lat="38.51182751" lon="-6.61072661"><ele>772</ele><speed>8.33</speed><time>2019-02-23T14:30:43Z</time><pdop>4.5509996</pdop><geoidheight>0.00</geoidheight><course>286.0</course><type>1</type></trkpt>
      <trkpt lat="38.51186854" lon="-6.61090768"><ele>772</ele><speed>8.39</speed><time>2019-02-23T14:30:45Z</time><pdop>4.5509996</pdop><geoidheight>0.00</geoidheight><course>291.3</course><type>1</type></trkpt>
      <trkpt lat="38.51189305" lon="-6.61099776"><ele>772</ele><speed>8.01</speed><time>2019-02-23T14:30:46Z</time><pdop>4.5509996</pdop><geoidheight>0.00</geoidheight><course>290.4</course><type>1</type></trkpt>
      <trkpt lat="38.51193391" lon="-6.61115573"><ele>774</ele><speed>6.22</speed><time>2019-02-23T14:30:48Z</time><pdop>4.5509996</pdop><geoidheight>0.00</geoidheight><course>286.3</course><type>1</type></trkpt>
      <trkpt lat="38.51199133" lon="-6.61126629"><ele>773</ele><speed>5.81</speed><time>2019-02-23T14:30:50Z</time><pdop>4.5509996</pdop><geoidheight>0.00</geoidheight><course>300.5</course><type>1</type></trkpt>
      <trkpt lat="38.51204973" lon="-6.61139561"><ele>774</ele><speed>6.60</speed><time>2019-02-23T14:30:52Z</time><pdop>4.5509996</pdop><geoidheight>0.00</geoidheight><course>302.3</course><type>1</type></trkpt>
      <trkpt lat="38.51209259" lon="-6.61154424"><ele>773</ele><speed>6.08</speed><time>2019-02-23T14:30:54Z</time><pdop>4.5509996</pdop><geoidheight>0.00</geoidheight><course>283.8</course><type>1</type></trkpt>
      <trkpt lat="38.51212396" lon="-6.6116817"><ele>772</ele><speed>7.40</speed><time>2019-02-23T14:30:56Z</time><pdop>4.5509996</pdop><geoidheight>0.00</geoidheight><course>289.9</course><type>1</type></trkpt>
      <trkpt lat="38.51214669" lon="-6.61177359"><ele>770</ele><speed>8.73</speed><time>2019-02-23T14:30:57Z</time><pdop>4.5509996</pdop><geoidheight>0.00</geoidheight><course>290.8</course><type>1</type></trkpt>
      <trkpt lat="38.5121747" lon="-6.61186984"><ele>770</ele><speed>9.16</speed><time>2019-02-23T14:30:58Z</time><pdop>4.5509996</pdop><geoidheight>0.00</geoidheight><course>287.7</course><type>1</type></trkpt>
      <trkpt lat="38.51219135" lon="-6.61196624"><ele>771</ele><speed>8.54</speed><time>2019-02-23T14:30:59Z</time><pdop>4.5509996</pdop><geoidheight>0.00</geoidheight><course>284.5</course><type>1</type></trkpt>
      <trkpt lat="38.51222586" lon="-6.61211982"><ele>770</ele><speed>6.84</speed><time>2019-02-23T14:31:01Z</time><pdop>4.5509996</pdop><geoidheight>0.00</geoidheight><course>286.3</course><type>1</type></trkpt>
      <trkpt lat="38.51224322" lon="-6.61220946"><ele>769</ele><speed>7.59</speed><time>2019-02-23T14:31:02Z</time><pdop>4.5509996</pdop><geoidheight>0.00</geoidheight><course>291.0</course><type>1</type></trkpt>
      <trkpt lat="38.51227185" lon="-6.61230758"><ele>769</ele><speed>8.67</speed><time>2019-02-23T14:31:03Z</time><pdop>4.5509996</pdop><geoidheight>0.00</geoidheight><course>293.0</course><type>1</type></trkpt>
      <trkpt lat="38.51230384" lon="-6.6124009"><ele>770</ele><speed>8.58</speed><time>2019-02-23T14:31:04Z</time><pdop>4.5509996</pdop><geoidheight>0.00</geoidheight><course>295.4</course><type>1</type></trkpt>
      <trkpt lat="38.51235249" lon="-6.61255117"><ele>772</ele><speed>5.91</speed><time>2019-02-23T14:31:06Z</time><pdop>4.5509996</pdop><geoidheight>0.00</geoidheight><course>290.8</course><type>1</type></trkpt>
      <trkpt lat="38.51240273" lon="-6.61267552"><ele>771</ele><speed>5.96</speed><time>2019-02-23T14:31:08Z</time><pdop>4.5509996</pdop><geoidheight>0.00</geoidheight><course>287.9</course><type>1</type></trkpt>
      <trkpt lat="38.51245442" lon="-6.61283342"><ele>770</ele><speed>7.43</speed><time>2019-02-23T14:31:10Z</time><pdop>4.5509996</pdop><geoidheight>0.00</geoidheight><course>295.9</course><type>1</type></trkpt>
      <trkpt lat="38.51250407" lon="-6.61296595"><ele>770</ele><speed>5.71</speed><time>2019-02-23T14:31:12Z</time><pdop>4.5509996</pdop><geoidheight>0.00</geoidheight><course>294.9</course><type>1</type></trkpt>
      <trkpt lat="38.51253621" lon="-6.61306718"><ele>769</ele><speed>5.03</speed><time>2019-02-23T14:31:14Z</time><pdop>4.5509996</pdop><geoidheight>0.00</geoidheight><course>291.2</course><type>1</type></trkpt>
      <trkpt lat="38.51257402" lon="-6.61318373"><ele>768</ele><speed>7.06</speed><time>2019-02-23T14:31:16Z</time><pdop>4.5509996</pdop><geoidheight>0.00</geoidheight><course>290.8</course><type>1</type></trkpt>
      <trkpt lat="38.51261125" lon="-6.6133588"><ele>769</ele><speed>8.45</speed><time>2019-02-23T14:31:18Z</time><pdop>4.5509996</pdop><geoidheight>0.00</geoidheight><course>281.7</course><type>1</type></trkpt>
      <trkpt lat="38.51263341" lon="-6.61344695"><ele>769</ele><speed>8.50</speed><time>2019-02-23T14:31:19Z</time><pdop>4.5509996</pdop><geoidheight>0.00</geoidheight><course>280.1</course><type>1</type></trkpt>
      <trkpt lat="38.51264625" lon="-6.61354252"><ele>770</ele><speed>8.30</speed><time>2019-02-23T14:31:20Z</time><pdop>4.5509996</pdop><geoidheight>0.00</geoidheight><course>281.2</course><type>1</type></trkpt>
      <trkpt lat="38.51268413" lon="-6.61369406"><ele>772</ele><speed>6.40</speed><time>2019-02-23T14:31:22Z</time><pdop>4.5509996</pdop><geoidheight>0.00</geoidheight><course>290.5</course><type>1</type></trkpt>
      <trkpt lat="38.5127307" lon="-6.61382654"><ele>773</ele><speed>6.33</speed><time>2019-02-23T14:31:24Z</time><pdop>4.5509996</pdop><geoidheight>0.00</geoidheight><course>288.3</course><type>1</type></trkpt>
      <trkpt lat="38.51277549" lon="-6.61398945"><ele>773</ele><speed>8.41</speed><time>2019-02-23T14:31:26Z</time><pdop>4.5509996</pdop><geoidheight>0.00</geoidheight><course>287.4</course><type>1</type></trkpt>
      <trkpt lat="38.51281978" lon="-6.61416379"><ele>773</ele><speed>7.14</speed><time>2019-02-23T14:31:28Z</time><pdop>4.5509996</pdop><geoidheight>0.00</geoidheight><course>285.5</course><type>1</type></trkpt>
      <trkpt lat="38.51284336" lon="-6.61431593"><ele>773</ele><speed>6.84</speed><time>2019-02-23T14:31:30Z</time><pdop>4.5509996</pdop><geoidheight>0.00</geoidheight><course>287.3</course><type>1</type></trkpt>
      <trkpt lat="38.51289414" lon="-6.61447006"><ele>772</ele><speed>8.12</speed><time>2019-02-23T14:31:32Z</time><pdop>4.5509996</pdop><geoidheight>0.00</geoidheight><course>291.9</course><type>1</type></trkpt>
      <trkpt lat="38.51294199" lon="-6.61463722"><ele>773</ele><speed>6.95</speed><time>2019-02-23T14:31:34Z</time><pdop>4.5509996</pdop><geoidheight>0.00</geoidheight><course>287.4</course><type>1</type></trkpt>
      <trkpt lat="38.51297071" lon="-6.61481067"><ele>772</ele><speed>7.64</speed><time>2019-02-23T14:31:36Z</time><pdop>6.068</pdop><geoidheight>0.00</geoidheight><course>285.0</course><type>1</type></trkpt>
      <trkpt lat="38.51300768" lon="-6.61500247"><ele>771</ele><speed>8.68</speed><time>2019-02-23T14:31:38Z</time><pdop>4.5509996</pdop><geoidheight>0.00</geoidheight><course>286.0</course><type>1</type></trkpt>
      <trkpt lat="38.51305175" lon="-6.61517562"><ele>771</ele><speed>7.45</speed><time>2019-02-23T14:31:40Z</time><pdop>4.5509996</pdop><geoidheight>0.00</geoidheight><course>289.4</course><type>1</type></trkpt>
      <trkpt lat="38.51308982" lon="-6.61532828"><ele>770</ele><speed>7.65</speed><time>2019-02-23T14:31:42Z</time><pdop>4.5509996</pdop><geoidheight>0.00</geoidheight><course>292.1</course><type>1</type></trkpt>
      <trkpt lat="38.51316004" lon="-6.61548166"><ele>769</ele><speed>7.73</speed><time>2019-02-23T14:31:44Z</time><pdop>4.5509996</pdop><geoidheight>0.00</geoidheight><course>305.8</course><type>1</type></trkpt>
      <trkpt lat="38.51324643" lon="-6.61561791"><ele>772</ele><speed>7.05</speed><time>2019-02-23T14:31:46Z</time><pdop>4.5509996</pdop><geoidheight>0.00</geoidheight><course>311.3</course><type>1</type></trkpt>
      <trkpt lat="38.51332122" lon="-6.61574104"><ele>772</ele><speed>6.86</speed><time>2019-02-23T14:31:48Z</time><pdop>4.5509996</pdop><geoidheight>0.00</geoidheight><course>307.6</course><type>1</type></trkpt>
      <trkpt lat="38.51338997" lon="-6.61587445"><ele>773</ele><speed>6.83</speed><time>2019-02-23T14:31:50Z</time><pdop>6.068</pdop><geoidheight>0.00</geoidheight><course>308.2</course><type>1</type></trkpt>
      <trkpt lat="38.51347737" lon="-6.61597736"><ele>774</ele><speed>6.29</speed><time>2019-02-23T14:31:52Z</time><pdop>4.5509996</pdop><geoidheight>0.00</geoidheight><course>317.2</course><type>1</type></trkpt>
      <trkpt lat="38.51356962" lon="-6.61608094"><ele>778</ele><speed>6.66</speed><time>2019-02-23T14:31:54Z</time><pdop>6.068</pdop><geoidheight>0.00</geoidheight><course>319.8</course><type>1</type></trkpt>
      <trkpt lat="38.51366802" lon="-6.61616388"><ele>779</ele><speed>5.67</speed><time>2019-02-23T14:31:56Z</time><pdop>6.068</pdop><geoidheight>0.00</geoidheight><course>337.7</course><type>1</type></trkpt>
      <trkpt lat="38.51380733" lon="-6.61613647"><ele>785</ele><speed>5.29</speed><time>2019-02-23T14:31:59Z</time><pdop>6.068</pdop><geoidheight>0.00</geoidheight><course>26.3</course><type>1</type></trkpt>
      <trkpt lat="38.51389737" lon="-6.61599768"><ele>788</ele><speed>4.09</speed><time>2019-02-23T14:32:03Z</time><pdop>6.068</pdop><geoidheight>0.00</geoidheight><course>68.2</course><type>1</type></trkpt>
      <trkpt lat="38.51396987" lon="-6.61583893"><ele>784</ele><speed>6.56</speed><time>2019-02-23T14:32:06Z</time><pdop>6.068</pdop><geoidheight>0.00</geoidheight><course>59.7</course><type>1</type></trkpt>
      <trkpt lat="38.51399495" lon="-6.61565851"><ele>782</ele><speed>7.84</speed><time>2019-02-23T14:32:08Z</time><pdop>6.068</pdop><geoidheight>0.00</geoidheight><course>87.7</course><type>1</type></trkpt>
      <trkpt lat="38.51397457" lon="-6.61547264"><ele>782</ele><speed>8.37</speed><time>2019-02-23T14:32:10Z</time><pdop>4.5509996</pdop><geoidheight>0.00</geoidheight><course>102.3</course><type>1</type></trkpt>
      <trkpt lat="38.51396325" lon="-6.61537512"><ele>782</ele><speed>9.18</speed><time>2019-02-23T14:32:11Z</time><pdop>4.5509996</pdop><geoidheight>0.00</geoidheight><course>105.0</course><type>1</type></trkpt>
      <trkpt lat="38.51395148" lon="-6.61525414"><ele>780</ele><speed>9.85</speed><time>2019-02-23T14:32:12Z</time><pdop>4.5509996</pdop><geoidheight>0.00</geoidheight><course>108.2</course><type>1</type></trkpt>
      <trkpt lat="38.51391171" lon="-6.61514507"><ele>778</ele><speed>10.22</speed><time>2019-02-23T14:32:13Z</time><pdop>6.068</pdop><geoidheight>0.00</geoidheight><course>112.6</course><type>1</type></trkpt>
      <trkpt lat="38.51382409" lon="-6.61494276"><ele>777</ele><speed>10.01</speed><time>2019-02-23T14:32:15Z</time><pdop>6.068</pdop><geoidheight>0.00</geoidheight><course>122.4</course><type>1</type></trkpt>
      <trkpt lat="38.51370302" lon="-6.61477707"><ele>766</ele><speed>9.80</speed><time>2019-02-23T14:32:17Z</time><pdop>4.5509996</pdop><geoidheight>0.00</geoidheight><course>136.4</course><type>1</type></trkpt>
      <trkpt lat="38.5135704" lon="-6.6146492"><ele>773</ele><speed>9.22</speed><time>2019-02-23T14:32:19Z</time><pdop>6.068</pdop><geoidheight>0.00</geoidheight><course>142.2</course><type>1</type></trkpt>
      <trkpt lat="38.51343296" lon="-6.61451098"><ele>764</ele><speed>8.96</speed><time>2019-02-23T14:32:21Z</time><pdop>6.068</pdop><geoidheight>0.00</geoidheight><course>142.3</course><type>1</type></trkpt>
      <trkpt lat="38.51330013" lon="-6.61440079"><ele>765</ele><speed>8.79</speed><time>2019-02-23T14:32:23Z</time><pdop>6.068</pdop><geoidheight>0.00</geoidheight><course>146.7</course><type>1</type></trkpt>
      <trkpt lat="38.51316823" lon="-6.61427075"><ele>769</ele><speed>9.17</speed><time>2019-02-23T14:32:25Z</time><pdop>6.068</pdop><geoidheight>0.00</geoidheight><course>137.9</course><type>1</type></trkpt>
      <trkpt lat="38.51305089" lon="-6.6141299"><ele>772</ele><speed>8.99</speed><time>2019-02-23T14:32:27Z</time><pdop>6.068</pdop><geoidheight>0.00</geoidheight><course>128.0</course><type>1</type></trkpt>
      <trkpt lat="38.51296131" lon="-6.61398536"><ele>764</ele><speed>7.79</speed><time>2019-02-23T14:32:29Z</time><pdop>6.068</pdop><geoidheight>0.00</geoidheight><course>128.3</course><type>1</type></trkpt>
      <trkpt lat="38.51287384" lon="-6.61382805"><ele>762</ele><speed>7.81</speed><time>2019-02-23T14:32:31Z</time><pdop>7.585</pdop><geoidheight>0.00</geoidheight><course>126.2</course><type>1</type></trkpt>
      <trkpt lat="38.51277229" lon="-6.61368115"><ele>765</ele><speed>7.93</speed><time>2019-02-23T14:32:33Z</time><pdop>6.068</pdop><geoidheight>0.00</geoidheight><course>121.2</course><type>1</type></trkpt>
      <trkpt lat="38.51270028" lon="-6.61354178"><ele>767</ele><speed>8.25</speed><time>2019-02-23T14:32:35Z</time><pdop>6.068</pdop><geoidheight>0.00</geoidheight><course>121.2</course><type>1</type></trkpt>
      <trkpt lat="38.51263189" lon="-6.61337431"><ele>761</ele><speed>7.50</speed><time>2019-02-23T14:32:37Z</time><pdop>6.068</pdop><geoidheight>0.00</geoidheight><course>117.9</course><type>1</type></trkpt>
      <trkpt lat="38.51259083" lon="-6.61323965"><ele>764</ele><speed>6.30</speed><time>2019-02-23T14:32:39Z</time><pdop>6.068</pdop><geoidheight>0.00</geoidheight><course>108.0</course><type>1</type></trkpt>
      <trkpt lat="38.51257255" lon="-6.61309996"><ele>763</ele><speed>7.75</speed><time>2019-02-23T14:32:41Z</time><pdop>4.5509996</pdop><geoidheight>0.00</geoidheight><course>103.5</course><type>1</type></trkpt>
      <trkpt lat="38.51255463" lon="-6.61301018"><ele>763</ele><speed>7.95</speed><time>2019-02-23T14:32:42Z</time><pdop>4.5509996</pdop><geoidheight>0.00</geoidheight><course>106.5</course><type>1</type></trkpt>
      <trkpt lat="38.51253548" lon="-6.61291428"><ele>763</ele><speed>7.53</speed><time>2019-02-23T14:32:43Z</time><pdop>4.5509996</pdop><geoidheight>0.00</geoidheight><course>108.7</course><type>1</type></trkpt>
      <trkpt lat="38.51249244" lon="-6.61275361"><ele>764</ele><speed>8.38</speed><time>2019-02-23T14:32:45Z</time><pdop>4.5509996</pdop><geoidheight>0.00</geoidheight><course>106.7</course><type>1</type></trkpt>
      <trkpt lat="38.5124511" lon="-6.61264813"><ele>764</ele><speed>9.05</speed><time>2019-02-23T14:32:46Z</time><pdop>4.5509996</pdop><geoidheight>0.00</geoidheight><course>107.4</course><type>1</type></trkpt>
      <trkpt lat="38.51238432" lon="-6.6124772"><ele>767</ele><speed>7.68</speed><time>2019-02-23T14:32:48Z</time><pdop>4.5509996</pdop><geoidheight>0.00</geoidheight><course>124.3</course><type>1</type></trkpt>
      <trkpt lat="38.51230487" lon="-6.61235161"><ele>768</ele><speed>6.99</speed><time>2019-02-23T14:32:50Z</time><pdop>6.068</pdop><geoidheight>0.00</geoidheight><course>130.8</course><type>1</type></trkpt>
      <trkpt lat="38.51221315" lon="-6.61219481"><ele>767</ele><speed>8.30</speed><time>2019-02-23T14:32:52Z</time><pdop>6.068</pdop><geoidheight>0.00</geoidheight><course>124.3</course><type>1</type></trkpt>
      <trkpt lat="38.51213382" lon="-6.61207038"><ele>767</ele><speed>6.50</speed><time>2019-02-23T14:32:54Z</time><pdop>6.068</pdop><geoidheight>0.00</geoidheight><course>127.6</course><type>1</type></trkpt>
      <trkpt lat="38.51205319" lon="-6.61192347"><ele>768</ele><speed>7.90</speed><time>2019-02-23T14:32:56Z</time><pdop>6.068</pdop><geoidheight>0.00</geoidheight><course>119.8</course><type>1</type></trkpt>
      <trkpt lat="38.51200916" lon="-6.61174384"><ele>759</ele><speed>7.51</speed><time>2019-02-23T14:32:58Z</time><pdop>6.068</pdop><geoidheight>0.00</geoidheight><course>101.3</course><type>1</type></trkpt>
      <trkpt lat="38.51199516" lon="-6.61158867"><ele>762</ele><speed>5.58</speed><time>2019-02-23T14:33:00Z</time><pdop>6.068</pdop><geoidheight>0.00</geoidheight><course>101.0</course><type>1</type></trkpt>
      <trkpt lat="38.51192352" lon="-6.61140682"><ele>759</ele><speed>6.79</speed><time>2019-02-23T14:33:03Z</time><pdop>6.068</pdop><geoidheight>0.00</geoidheight><course>115.7</course><type>1</type></trkpt>
      <trkpt lat="38.51187848" lon="-6.61125449"><ele>758</ele><speed>6.88</speed><time>2019-02-23T14:33:05Z</time><pdop>6.068</pdop><geoidheight>0.00</geoidheight><course>115.9</course><type>1</type></trkpt>
      <trkpt lat="38.51179774" lon="-6.61110963"><ele>757</ele><speed>7.62</speed><time>2019-02-23T14:33:07Z</time><pdop>4.5509996</pdop><geoidheight>0.00</geoidheight><course>128.2</course><type>1</type></trkpt>
      <trkpt lat="38.51171627" lon="-6.61096042"><ele>756</ele><speed>8.05</speed><time>2019-02-23T14:33:09Z</time><pdop>6.068</pdop><geoidheight>0.00</geoidheight><course>122.3</course><type>1</type></trkpt>
      <trkpt lat="38.51164157" lon="-6.61080966"><ele>755</ele><speed>8.49</speed><time>2019-02-23T14:33:11Z</time><pdop>6.068</pdop><geoidheight>0.00</geoidheight><course>114.9</course><type>1</type></trkpt>
      <trkpt lat="38.5115735" lon="-6.61065616"><ele>756</ele><speed>7.54</speed><time>2019-02-23T14:33:13Z</time><pdop>6.068</pdop><geoidheight>0.00</geoidheight><course>115.5</course><type>1</type></trkpt>
      <trkpt lat="38.51150842" lon="-6.61050512"><ele>755</ele><speed>8.02</speed><time>2019-02-23T14:33:15Z</time><pdop>6.068</pdop><geoidheight>0.00</geoidheight><course>116.9</course><type>1</type></trkpt>
      <trkpt lat="38.51144064" lon="-6.61033487"><ele>755</ele><speed>8.88</speed><time>2019-02-23T14:33:17Z</time><pdop>6.068</pdop><geoidheight>0.00</geoidheight><course>114.3</course><type>1</type></trkpt>
      <trkpt lat="38.51139559" lon="-6.61015339"><ele>755</ele><speed>7.99</speed><time>2019-02-23T14:33:19Z</time><pdop>6.068</pdop><geoidheight>0.00</geoidheight><course>102.1</course><type>1</type></trkpt>
      <trkpt lat="38.51137465" lon="-6.60995748"><ele>754</ele><speed>7.97</speed><time>2019-02-23T14:33:21Z</time><pdop>6.068</pdop><geoidheight>0.00</geoidheight><course>100.5</course><type>1</type></trkpt>
      <trkpt lat="38.51134255" lon="-6.60977271"><ele>755</ele><speed>8.01</speed><time>2019-02-23T14:33:23Z</time><pdop>6.068</pdop><geoidheight>0.00</geoidheight><course>107.9</course><type>1</type></trkpt>
      <trkpt lat="38.51131459" lon="-6.60958697"><ele>756</ele><speed>7.55</speed><time>2019-02-23T14:33:25Z</time><pdop>6.068</pdop><geoidheight>0.00</geoidheight><course>101.5</course><type>1</type></trkpt>
      <trkpt lat="38.51129955" lon="-6.60943308"><ele>757</ele><speed>7.18</speed><time>2019-02-23T14:33:27Z</time><pdop>6.068</pdop><geoidheight>0.00</geoidheight><course>109.2</course><type>1</type></trkpt>
      <trkpt lat="38.51124741" lon="-6.6092926"><ele>760</ele><speed>6.77</speed><time>2019-02-23T14:33:29Z</time><pdop>6.068</pdop><geoidheight>0.00</geoidheight><course>123.0</course><type>1</type></trkpt>
      <trkpt lat="38.51117469" lon="-6.60916664"><ele>761</ele><speed>6.55</speed><time>2019-02-23T14:33:31Z</time><pdop>6.068</pdop><geoidheight>0.00</geoidheight><course>126.3</course><type>1</type></trkpt>
      <trkpt lat="38.51110466" lon="-6.60906062"><ele>763</ele><speed>6.46</speed><time>2019-02-23T14:33:33Z</time><pdop>6.068</pdop><geoidheight>0.00</geoidheight><course>126.3</course><type>1</type></trkpt>
      <trkpt lat="38.51101352" lon="-6.60891179"><ele>766</ele><speed>5.39</speed><time>2019-02-23T14:33:36Z</time><pdop>6.068</pdop><geoidheight>0.00</geoidheight><course>131.3</course><type>1</type></trkpt>
      <trkpt lat="38.51092372" lon="-6.60877418"><ele>773</ele><speed>5.73</speed><time>2019-02-23T14:33:39Z</time><pdop>4.5509996</pdop><geoidheight>0.00</geoidheight><course>122.8</course><type>1</type></trkpt>
      <trkpt lat="38.51087014" lon="-6.6086668"><ele>779</ele><speed>5.10</speed><time>2019-02-23T14:33:41Z</time><pdop>4.5509996</pdop><geoidheight>0.00</geoidheight><course>123.4</course><type>1</type></trkpt>
      <trkpt lat="38.51081833" lon="-6.60860221"><ele>784</ele><speed>4.12</speed><time>2019-02-23T14:33:43Z</time><pdop>4.5509996</pdop><geoidheight>0.00</geoidheight><course>127.5</course><type>1</type></trkpt>
      <trkpt lat="38.51075629" lon="-6.60849514"><ele>790</ele><speed>3.84</speed><time>2019-02-23T14:33:46Z</time><pdop>4.5509996</pdop><geoidheight>0.00</geoidheight><course>111.7</course><type>1</type></trkpt>
      <trkpt lat="38.51072872" lon="-6.60837375"><ele>792</ele><speed>3.99</speed><time>2019-02-23T14:33:49Z</time><pdop>6.068</pdop><geoidheight>0.00</geoidheight><course>129.5</course><type>1</type></trkpt>
      <trkpt lat="38.5106711" lon="-6.60823797"><ele>796</ele><speed>3.87</speed><time>2019-02-23T14:33:52Z</time><pdop>6.068</pdop><geoidheight>0.00</geoidheight><course>111.5</course><type>1</type></trkpt>
      <trkpt lat="38.51061466" lon="-6.60809518"><ele>800</ele><speed>4.88</speed><time>2019-02-23T14:33:55Z</time><pdop>6.068</pdop><geoidheight>0.00</geoidheight><course>115.6</course><type>1</type></trkpt>
      <trkpt lat="38.51057124" lon="-6.60796822"><ele>804</ele><speed>3.92</speed><time>2019-02-23T14:33:58Z</time><pdop>6.068</pdop><geoidheight>0.00</geoidheight><course>117.6</course><type>1</type></trkpt>
      <trkpt lat="38.51050039" lon="-6.60782229"><ele>809</ele><speed>5.51</speed><time>2019-02-23T14:34:01Z</time><pdop>6.068</pdop><geoidheight>0.00</geoidheight><course>120.9</course><type>1</type></trkpt>
      <trkpt lat="38.51057902" lon="-6.60792667"><ele>784</ele><speed>3.82</speed><time>2019-02-23T14:34:10Z</time><pdop>6.068</pdop><geoidheight>0.00</geoidheight><course>292.8</course><type>1</type></trkpt>
      <trkpt lat="38.51064526" lon="-6.60807577"><ele>801</ele><speed>6.18</speed><time>2019-02-23T14:34:13Z</time><pdop>4.5509996</pdop><geoidheight>0.00</geoidheight><course>297.1</course><type>1</type></trkpt>
      <trkpt lat="38.51070633" lon="-6.60822182"><ele>804</ele><speed>7.92</speed><time>2019-02-23T14:34:15Z</time><pdop>6.068</pdop><geoidheight>0.00</geoidheight><course>299.1</course><type>1</type></trkpt>
      <trkpt lat="38.51077481" lon="-6.60837825"><ele>805</ele><speed>7.21</speed><time>2019-02-23T14:34:17Z</time><pdop>6.068</pdop><geoidheight>0.00</geoidheight><course>302.6</course><type>1</type></trkpt>
      <trkpt lat="38.51085016" lon="-6.60850788"><ele>806</ele><speed>7.15</speed><time>2019-02-23T14:34:19Z</time><pdop>4.5509996</pdop><geoidheight>0.00</geoidheight><course>301.6</course><type>1</type></trkpt>
      <trkpt lat="38.51087689" lon="-6.60859483"><ele>806</ele><speed>8.16</speed><time>2019-02-23T14:34:20Z</time><pdop>4.5509996</pdop><geoidheight>0.00</geoidheight><course>301.9</course><type>1</type></trkpt>
      <trkpt lat="38.51091587" lon="-6.6086835"><ele>807</ele><speed>8.60</speed><time>2019-02-23T14:34:21Z</time><pdop>4.5509996</pdop><geoidheight>0.00</geoidheight><course>299.5</course><type>1</type></trkpt>
      <trkpt lat="38.51098553" lon="-6.60882861"><ele>809</ele><speed>6.89</speed><time>2019-02-23T14:34:23Z</time><pdop>6.068</pdop><geoidheight>0.00</geoidheight><course>300.0</course><type>1</type></trkpt>
      <trkpt lat="38.51105566" lon="-6.60894898"><ele>809</ele><speed>7.02</speed><time>2019-02-23T14:34:25Z</time><pdop>6.068</pdop><geoidheight>0.00</geoidheight><course>313.9</course><type>1</type></trkpt>
      <trkpt lat="38.51114468" lon="-6.60905228"><ele>812</ele><speed>4.70</speed><time>2019-02-23T14:34:27Z</time><pdop>6.068</pdop><geoidheight>0.00</geoidheight><course>310.3</course><type>1</type></trkpt>
      <trkpt lat="38.51124847" lon="-6.60914199"><ele>812</ele><speed>3.90</speed><time>2019-02-23T14:34:31Z</time><pdop>6.068</pdop><geoidheight>0.00</geoidheight><course>352.6</course><type>1</type></trkpt>
      <trkpt lat="38.51135575" lon="-6.60909338"><ele>782</ele><speed>4.25</speed><time>2019-02-23T14:34:34Z</time><pdop>6.068</pdop><geoidheight>0.00</geoidheight><course>26.9</course><type>1</type></trkpt>
      <trkpt lat="38.5114182" lon="-6.60897901"><ele>808</ele><speed>5.14</speed><time>2019-02-23T14:34:37Z</time><pdop>6.068</pdop><geoidheight>0.00</geoidheight><course>85.7</course><type>1</type></trkpt>
      <trkpt lat="38.51141957" lon="-6.60879666"><ele>791</ele><speed>5.80</speed><time>2019-02-23T14:34:40Z</time><pdop>6.068</pdop><geoidheight>0.00</geoidheight><course>96.2</course><type>1</type></trkpt>
      <trkpt lat="38.51138144" lon="-6.60861863"><ele>789</ele><speed>8.66</speed><time>2019-02-23T14:34:42Z</time><pdop>6.068</pdop><geoidheight>0.00</geoidheight><course>106.2</course><type>1</type></trkpt>
      <trkpt lat="38.51132285" lon="-6.6084536"><ele>811</ele><speed>8.81</speed><time>2019-02-23T14:34:44Z</time><pdop>4.5509996</pdop><geoidheight>0.00</geoidheight><course>116.4</course><type>1</type></trkpt>
      <trkpt lat="38.51129102" lon="-6.60836763"><ele>820</ele><speed>7.99</speed><time>2019-02-23T14:34:45Z</time><pdop>4.5509996</pdop><geoidheight>0.00</geoidheight><course>124.5</course><type>1</type></trkpt>
      <trkpt lat="38.51125384" lon="-6.60828605"><ele>823</ele><speed>7.94</speed><time>2019-02-23T14:34:46Z</time><pdop>4.5509996</pdop><geoidheight>0.00</geoidheight><course>130.0</course><type>1</type></trkpt>
      <trkpt lat="38.51120491" lon="-6.60820646"><ele>828</ele><speed>8.51</speed><time>2019-02-23T14:34:47Z</time><pdop>4.5509996</pdop><geoidheight>0.00</geoidheight><course>128.5</course><type>1</type></trkpt>
      <trkpt lat="38.51115991" lon="-6.60812363"><ele>829</ele><speed>9.52</speed><time>2019-02-23T14:34:48Z</time><pdop>4.5509996</pdop><geoidheight>0.00</geoidheight><course>123.3</course><type>1</type></trkpt>
      <trkpt lat="38.51111095" lon="-6.60802093"><ele>830</ele><speed>10.23</speed><time>2019-02-23T14:34:49Z</time><pdop>6.068</pdop><geoidheight>0.00</geoidheight><course>122.9</course><type>1</type></trkpt>
      <trkpt lat="38.51100236" lon="-6.607846"><ele>833</ele><speed>9.63</speed><time>2019-02-23T14:34:51Z</time><pdop>7.585</pdop><geoidheight>0.00</geoidheight><course>128.2</course><type>1</type></trkpt>
      <trkpt lat="38.51089331" lon="-6.60772198"><ele>837</ele><speed>8.16</speed><time>2019-02-23T14:34:53Z</time><pdop>6.068</pdop><geoidheight>0.00</geoidheight><course>128.0</course><type>1</type></trkpt>
      <trkpt lat="38.51079272" lon="-6.60754331"><ele>835</ele><speed>9.49</speed><time>2019-02-23T14:34:55Z</time><pdop>9.101999</pdop><geoidheight>0.00</geoidheight><course>121.8</course><type>1</type></trkpt>
      <trkpt lat="38.51068364" lon="-6.6073757"><ele>839</ele><speed>7.72</speed><time>2019-02-23T14:34:57Z</time><pdop>7.585</pdop><geoidheight>0.00</geoidheight><course>127.7</course><type>1</type></trkpt>
      <trkpt lat="38.51061789" lon="-6.60721686"><ele>841</ele><speed>7.80</speed><time>2019-02-23T14:34:59Z</time><pdop>6.068</pdop><geoidheight>0.00</geoidheight><course>115.4</course><type>1</type></trkpt>
      <trkpt lat="38.51056737" lon="-6.60706094"><ele>846</ele><speed>7.49</speed><time>2019-02-23T14:35:01Z</time><pdop>7.585</pdop><geoidheight>0.00</geoidheight><course>104.0</course><type>1</type></trkpt>
      <trkpt lat="38.51058498" lon="-6.60688094"><ele>830</ele><speed>2.20</speed><time>2019-02-23T14:35:04Z</time><pdop>6.068</pdop><geoidheight>0.00</geoidheight><course>51.3</course><type>1</type></trkpt>
      <trkpt lat="38.51070566" lon="-6.60697667"><ele>849</ele><speed>3.85</speed><time>2019-02-23T14:35:10Z</time><pdop>6.068</pdop><geoidheight>0.00</geoidheight><course>313.1</course><type>1</type></trkpt>
      <trkpt lat="38.51081681" lon="-6.60707716"><ele>825</ele><speed>4.28</speed><time>2019-02-23T14:35:14Z</time><pdop>6.068</pdop><geoidheight>0.00</geoidheight><course>321.5</course><type>1</type></trkpt>
      <trkpt lat="38.51092495" lon="-6.60719609"><ele>837</ele><speed>3.52</speed><time>2019-02-23T14:35:18Z</time><pdop>7.585</pdop><geoidheight>0.00</geoidheight><course>317.7</course><type>1</type></trkpt>
      <trkpt lat="38.51098941" lon="-6.60733722"><ele>859</ele><speed>3.41</speed><time>2019-02-23T14:35:22Z</time><pdop>7.585</pdop><geoidheight>0.00</geoidheight><course>317.0</course><type>1</type></trkpt>
      <trkpt lat="38.51109567" lon="-6.60745626"><ele>872</ele><speed>3.69</speed><time>2019-02-23T14:35:26Z</time><pdop>6.068</pdop><geoidheight>0.00</geoidheight><course>315.4</course><type>1</type></trkpt>
      <trkpt lat="38.5112001" lon="-6.60757744"><ele>839</ele><speed>3.35</speed><time>2019-02-23T14:35:31Z</time><pdop>6.068</pdop><geoidheight>0.00</geoidheight><course>322.3</course><type>1</type></trkpt>
      <trkpt lat="38.51127253" lon="-6.60765435"><ele>817</ele><speed>3.12</speed><time>2019-02-23T14:35:34Z</time><pdop>4.5509996</pdop><geoidheight>0.00</geoidheight><course>307.0</course><type>1</type></trkpt>
      <trkpt lat="38.51131755" lon="-6.6077744"><ele>850</ele><speed>4.16</speed><time>2019-02-23T14:35:37Z</time><pdop>6.068</pdop><geoidheight>0.00</geoidheight><course>291.6</course><type>1</type></trkpt>
      <trkpt lat="38.51135189" lon="-6.60791015"><ele>876</ele><speed>3.62</speed><time>2019-02-23T14:35:40Z</time><pdop>6.068</pdop><geoidheight>0.00</geoidheight><course>282.5</course><type>1</type></trkpt>
      <trkpt lat="38.51144468" lon="-6.6080187"><ele>882</ele><speed>2.06</speed><time>2019-02-23T14:35:46Z</time><pdop>6.068</pdop><geoidheight>0.00</geoidheight><course>344.8</course><type>1</type></trkpt>
      <trkpt lat="38.51151338" lon="-6.60783543"><ele>880</ele><speed>7.09</speed><time>2019-02-23T14:35:50Z</time><pdop>6.068</pdop><geoidheight>0.00</geoidheight><course>86.0</course><type>1</type></trkpt>
      <trkpt lat="38.51147835" lon="-6.60765645"><ele>881</ele><speed>9.29</speed><time>2019-02-23T14:35:52Z</time><pdop>6.068</pdop><geoidheight>0.00</geoidheight><course>114.5</course><type>1</type></trkpt>
      <trkpt lat="38.51137567" lon="-6.60745006"><ele>881</ele><speed>11.21</speed><time>2019-02-23T14:35:54Z</time><pdop>6.068</pdop><geoidheight>0.00</geoidheight><course>126.3</course><type>1</type></trkpt>
      <trkpt lat="38.5112325" lon="-6.60724259"><ele>882</ele><speed>12.05</speed><time>2019-02-23T14:35:56Z</time><pdop>6.068</pdop><geoidheight>0.00</geoidheight><course>135.4</course><type>1</type></trkpt>
      <trkpt lat="38.51113863" lon="-6.60714942"><ele>883</ele><speed>11.79</speed><time>2019-02-23T14:35:57Z</time><pdop>6.068</pdop><geoidheight>0.00</geoidheight><course>140.9</course><type>1</type></trkpt>
      <trkpt lat="38.51098325" lon="-6.60698705"><ele>887</ele><speed>11.78</speed><time>2019-02-23T14:35:59Z</time><pdop>7.585</pdop><geoidheight>0.00</geoidheight><course>140.1</course><type>1</type></trkpt>
      <trkpt lat="38.51081829" lon="-6.60681221"><ele>825</ele><speed>11.58</speed><time>2019-02-23T14:36:01Z</time><pdop>7.585</pdop><geoidheight>0.00</geoidheight><course>138.4</course><type>1</type></trkpt>
      <trkpt lat="38.51067303" lon="-6.606635"><ele>869</ele><speed>10.51</speed><time>2019-02-23T14:36:03Z</time><pdop>6.068</pdop><geoidheight>0.00</geoidheight><course>137.4</course><type>1</type></trkpt>
      <trkpt lat="38.51052343" lon="-6.60646154"><ele>884</ele><speed>11.88</speed><time>2019-02-23T14:36:05Z</time><pdop>6.068</pdop><geoidheight>0.00</geoidheight><course>133.3</course><type>1</type></trkpt>
      <trkpt lat="38.51045362" lon="-6.60634871"><ele>886</ele><speed>11.98</speed><time>2019-02-23T14:36:06Z</time><pdop>6.068</pdop><geoidheight>0.00</geoidheight><course>128.8</course><type>1</type></trkpt>
      <trkpt lat="38.5103136" lon="-6.6061541"><ele>892</ele><speed>10.81</speed><time>2019-02-23T14:36:08Z</time><pdop>6.068</pdop><geoidheight>0.00</geoidheight><course>125.8</course><type>1</type></trkpt>
      <trkpt lat="38.5101923" lon="-6.6059509"><ele>897</ele><speed>11.90</speed><time>2019-02-23T14:36:10Z</time><pdop>6.068</pdop><geoidheight>0.00</geoidheight><course>123.9</course><type>1</type></trkpt>
      <trkpt lat="38.5101033" lon="-6.60573382"><ele>864</ele><speed>9.22</speed><time>2019-02-23T14:36:12Z</time><pdop>6.068</pdop><geoidheight>0.00</geoidheight><course>108.1</course><type>1</type></trkpt>
      <trkpt lat="38.51008671" lon="-6.60555999"><ele>848</ele><speed>5.61</speed><time>2019-02-23T14:36:14Z</time><pdop>7.585</pdop><geoidheight>0.00</geoidheight><course>79.0</course><type>1</type></trkpt>
      <trkpt lat="38.51018837" lon="-6.60546186"><ele>827</ele><speed>2.34</speed><time>2019-02-23T14:36:18Z</time><pdop>7.585</pdop><geoidheight>0.00</geoidheight><course>11.8</course><type>1</type></trkpt>
      <trkpt lat="38.51023479" lon="-6.60562364"><ele>869</ele><speed>2.49</speed><time>2019-02-23T14:36:23Z</time><pdop>7.585</pdop><geoidheight>0.00</geoidheight><course>277.4</course><type>1</type></trkpt>
      <trkpt lat="38.51031148" lon="-6.60577025"><ele>852</ele><speed>3.49</speed><time>2019-02-23T14:36:28Z</time><pdop>7.585</pdop><geoidheight>0.00</geoidheight><course>296.4</course><type>1</type></trkpt>
      <trkpt lat="38.51039584" lon="-6.60591708"><ele>888</ele><speed>3.68</speed><time>2019-02-23T14:36:33Z</time><pdop>7.585</pdop><geoidheight>0.00</geoidheight><course>313.5</course><type>1</type></trkpt>
      <trkpt lat="38.51049194" lon="-6.60602076"><ele>847</ele><speed>2.91</speed><time>2019-02-23T14:36:38Z</time><pdop>6.068</pdop><geoidheight>0.00</geoidheight><course>319.3</course><type>1</type></trkpt>
      <trkpt lat="38.51060332" lon="-6.60604282"><ele>878</ele><speed>4.41</speed><time>2019-02-23T14:36:42Z</time><pdop>6.068</pdop><geoidheight>0.00</geoidheight><course>29.0</course><type>1</type></trkpt>
      <trkpt lat="38.51061698" lon="-6.60587963"><ele>854</ele><speed>6.41</speed><time>2019-02-23T14:36:44Z</time><pdop>7.585</pdop><geoidheight>0.00</geoidheight><course>81.6</course><type>1</type></trkpt>
      <trkpt lat="38.51061675" lon="-6.60571371"><ele>867</ele><speed>7.23</speed><time>2019-02-23T14:36:46Z</time><pdop>7.585</pdop><geoidheight>0.00</geoidheight><course>98.2</course><type>1</type></trkpt>
      <trkpt lat="38.51057338" lon="-6.60554375"><ele>873</ele><speed>8.97</speed><time>2019-02-23T14:36:48Z</time><pdop>7.585</pdop><geoidheight>0.00</geoidheight><course>107.3</course><type>1</type></trkpt>
      <trkpt lat="38.51053458" lon="-6.60536745"><ele>832</ele><speed>8.43</speed><time>2019-02-23T14:36:50Z</time><pdop>7.585</pdop><geoidheight>0.00</geoidheight><course>104.6</course><type>1</type></trkpt>
      <trkpt lat="38.51051848" lon="-6.60519458"><ele>856</ele><speed>5.27</speed><time>2019-02-23T14:36:52Z</time><pdop>7.585</pdop><geoidheight>0.00</geoidheight><course>75.2</course><type>1</type></trkpt>
      <trkpt lat="38.5106794" lon="-6.60512766"><ele>859</ele><speed>4.49</speed><time>2019-02-23T14:36:56Z</time><pdop>7.585</pdop><geoidheight>0.00</geoidheight><course>337.7</course><type>1</type></trkpt>
      <trkpt lat="38.51070129" lon="-6.6053587"><ele>844</ele><speed>6.64</speed><time>2019-02-23T14:37:00Z</time><pdop>6.068</pdop><geoidheight>0.00</geoidheight><course>262.8</course><type>1</type></trkpt>
      <trkpt lat="38.51068642" lon="-6.60550101"><ele>857</ele><speed>6.29</speed><time>2019-02-23T14:37:02Z</time><pdop>6.068</pdop><geoidheight>0.00</geoidheight><course>263.4</course><type>1</type></trkpt>
      <trkpt lat="38.51066975" lon="-6.60563451"><ele>865</ele><speed>5.79</speed><time>2019-02-23T14:37:04Z</time><pdop>4.5509996</pdop><geoidheight>0.00</geoidheight><course>258.3</course><type>1</type></trkpt>
      <trkpt lat="38.51064082" lon="-6.60576321"><ele>865</ele><speed>6.47</speed><time>2019-02-23T14:37:06Z</time><pdop>4.5509996</pdop><geoidheight>0.00</geoidheight><course>252.7</course><type>1</type></trkpt>
      <trkpt lat="38.51060865" lon="-6.60591471"><ele>866</ele><speed>7.09</speed><time>2019-02-23T14:37:08Z</time><pdop>4.5509996</pdop><geoidheight>0.00</geoidheight><course>257.9</course><type>1</type></trkpt>
      <trkpt lat="38.51058082" lon="-6.60607465"><ele>864</ele><speed>7.40</speed><time>2019-02-23T14:37:10Z</time><pdop>4.5509996</pdop><geoidheight>0.00</geoidheight><course>258.6</course><type>1</type></trkpt>
      <trkpt lat="38.51057119" lon="-6.606226"><ele>860</ele><speed>7.20</speed><time>2019-02-23T14:37:12Z</time><pdop>4.5509996</pdop><geoidheight>0.00</geoidheight><course>259.8</course><type>1</type></trkpt>
      <trkpt lat="38.51053738" lon="-6.60637654"><ele>859</ele><speed>7.01</speed><time>2019-02-23T14:37:14Z</time><pdop>4.5509996</pdop><geoidheight>0.00</geoidheight><course>260.4</course><type>1</type></trkpt>
      <trkpt lat="38.51051925" lon="-6.60652989"><ele>857</ele><speed>7.33</speed><time>2019-02-23T14:37:16Z</time><pdop>4.5509996</pdop><geoidheight>0.00</geoidheight><course>262.8</course><type>1</type></trkpt>
      <trkpt lat="38.51050249" lon="-6.6067106"><ele>856</ele><speed>7.72</speed><time>2019-02-23T14:37:18Z</time><pdop>4.5509996</pdop><geoidheight>0.00</geoidheight><course>266.5</course><type>1</type></trkpt>
      <trkpt lat="38.51049089" lon="-6.60688656"><ele>856</ele><speed>7.23</speed><time>2019-02-23T14:37:20Z</time><pdop>6.068</pdop><geoidheight>0.00</geoidheight><course>269.8</course><type>1</type></trkpt>
      <trkpt lat="38.51049949" lon="-6.60706549"><ele>858</ele><speed>5.13</speed><time>2019-02-23T14:37:23Z</time><pdop>6.068</pdop><geoidheight>0.00</geoidheight><course>268.7</course><type>1</type></trkpt>
      <trkpt lat="38.51050617" lon="-6.60724856"><ele>857</ele><speed>5.25</speed><time>2019-02-23T14:37:26Z</time><pdop>6.068</pdop><geoidheight>0.00</geoidheight><course>283.0</course><type>1</type></trkpt>
      <trkpt lat="38.51052767" lon="-6.60742951"><ele>857</ele><speed>4.43</speed><time>2019-02-23T14:37:29Z</time><pdop>6.068</pdop><geoidheight>0.00</geoidheight><course>284.6</course><type>1</type></trkpt>
      <trkpt lat="38.51056833" lon="-6.6075688"><ele>820</ele><speed>5.24</speed><time>2019-02-23T14:37:32Z</time><pdop>6.068</pdop><geoidheight>0.00</geoidheight><course>288.2</course><type>1</type></trkpt>
      <trkpt lat="38.51064742" lon="-6.60771471"><ele>807</ele><speed>5.11</speed><time>2019-02-23T14:37:35Z</time><pdop>6.068</pdop><geoidheight>0.00</geoidheight><course>289.6</course><type>1</type></trkpt>
      <trkpt lat="38.5106836" lon="-6.60787788"><ele>827</ele><speed>4.64</speed><time>2019-02-23T14:37:38Z</time><pdop>6.068</pdop><geoidheight>0.00</geoidheight><course>291.7</course><type>1</type></trkpt>
      <trkpt lat="38.51074216" lon="-6.60803823"><ele>814</ele><speed>4.71</speed><time>2019-02-23T14:37:41Z</time><pdop>6.068</pdop><geoidheight>0.00</geoidheight><course>300.9</course><type>1</type></trkpt>
      <trkpt lat="38.51080885" lon="-6.60818402"><ele>811</ele><speed>4.71</speed><time>2019-02-23T14:37:44Z</time><pdop>6.068</pdop><geoidheight>0.00</geoidheight><course>302.1</course><type>1</type></trkpt>
      <trkpt lat="38.51087827" lon="-6.60831532"><ele>789</ele><speed>4.73</speed><time>2019-02-23T14:37:47Z</time><pdop>6.068</pdop><geoidheight>0.00</geoidheight><course>291.5</course><type>1</type></trkpt>
      <trkpt lat="38.51088862" lon="-6.60849949"><ele>810</ele><speed>7.01</speed><time>2019-02-23T14:37:50Z</time><pdop>6.068</pdop><geoidheight>0.00</geoidheight><course>253.3</course><type>1</type></trkpt>
      <trkpt lat="38.5107798" lon="-6.6086733"><ele>820</ele><speed>12.01</speed><time>2019-02-23T14:37:52Z</time><pdop>6.068</pdop><geoidheight>0.00</geoidheight><course>217.5</course><type>1</type></trkpt>
      <trkpt lat="38.5106666" lon="-6.60874048"><ele>821</ele><speed>14.58</speed><time>2019-02-23T14:37:53Z</time><pdop>6.068</pdop><geoidheight>0.00</geoidheight><course>196.9</course><type>1</type></trkpt>
      <trkpt lat="38.51052016" lon="-6.60874552"><ele>821</ele><speed>15.83</speed><time>2019-02-23T14:37:54Z</time><pdop>6.068</pdop><geoidheight>0.00</geoidheight><course>172.3</course><type>1</type></trkpt>
      <trkpt lat="38.51038807" lon="-6.60867925"><ele>821</ele><speed>15.17</speed><time>2019-02-23T14:37:55Z</time><pdop>6.068</pdop><geoidheight>0.00</geoidheight><course>150.3</course><type>1</type></trkpt>
      <trkpt lat="38.51028693" lon="-6.6085856"><ele>824</ele><speed>12.75</speed><time>2019-02-23T14:37:56Z</time><pdop>6.068</pdop><geoidheight>0.00</geoidheight><course>131.4</course><type>1</type></trkpt>
      <trkpt lat="38.51021599" lon="-6.60847732"><ele>824</ele><speed>9.83</speed><time>2019-02-23T14:37:57Z</time><pdop>6.068</pdop><geoidheight>0.00</geoidheight><course>120.1</course><type>1</type></trkpt>
      <trkpt lat="38.51017004" lon="-6.60831262"><ele>813</ele><speed>5.71</speed><time>2019-02-23T14:37:59Z</time><pdop>6.068</pdop><geoidheight>0.00</geoidheight><course>109.2</course><type>1</type></trkpt>
      <trkpt lat="38.5101704" lon="-6.60813522"><ele>816</ele><speed>5.43</speed><time>2019-02-23T14:38:02Z</time><pdop>6.068</pdop><geoidheight>0.00</geoidheight><course>72.2</course><type>1</type></trkpt>
      <trkpt lat="38.51021705" lon="-6.6079887"><ele>808</ele><speed>4.83</speed><time>2019-02-23T14:38:05Z</time><pdop>6.068</pdop><geoidheight>0.00</geoidheight><course>79.2</course><type>1</type></trkpt>
      <trkpt lat="38.510228" lon="-6.60784202"><ele>822</ele><speed>5.13</speed><time>2019-02-23T14:38:08Z</time><pdop>6.068</pdop><geoidheight>0.00</geoidheight><course>92.8</course><type>1</type></trkpt>
      <trkpt lat="38.51021974" lon="-6.60769776"><ele>826</ele><speed>7.09</speed><time>2019-02-23T14:38:10Z</time><pdop>6.068</pdop><geoidheight>0.00</geoidheight><course>97.2</course><type>1</type></trkpt>
      <trkpt lat="38.51019604" lon="-6.60751792"><ele>827</ele><speed>8.36</speed><time>2019-02-23T14:38:12Z</time><pdop>6.068</pdop><geoidheight>0.00</geoidheight><course>97.6</course><type>1</type></trkpt>
      <trkpt lat="38.51014999" lon="-6.60732659"><ele>827</ele><speed>8.34</speed><time>2019-02-23T14:38:14Z</time><pdop>4.5509996</pdop><geoidheight>0.00</geoidheight><course>111.6</course><type>1</type></trkpt>
      <trkpt lat="38.51012857" lon="-6.60723692"><ele>826</ele><speed>8.44</speed><time>2019-02-23T14:38:15Z</time><pdop>4.5509996</pdop><geoidheight>0.00</geoidheight><course>111.5</course><type>1</type></trkpt>
      <trkpt lat="38.51009491" lon="-6.60715078"><ele>826</ele><speed>8.65</speed><time>2019-02-23T14:38:16Z</time><pdop>4.5509996</pdop><geoidheight>0.00</geoidheight><course>106.7</course><type>1</type></trkpt>
      <trkpt lat="38.51005898" lon="-6.60706324"><ele>827</ele><speed>9.22</speed><time>2019-02-23T14:38:17Z</time><pdop>4.5509996</pdop><geoidheight>0.00</geoidheight><course>104.0</course><type>1</type></trkpt>
      <trkpt lat="38.51004797" lon="-6.60696005"><ele>827</ele><speed>9.66</speed><time>2019-02-23T14:38:18Z</time><pdop>4.5509996</pdop><geoidheight>0.00</geoidheight><course>106.1</course><type>1</type></trkpt>
      <trkpt lat="38.51002378" lon="-6.60685391"><ele>827</ele><speed>9.15</speed><time>2019-02-23T14:38:19Z</time><pdop>4.5509996</pdop><geoidheight>0.00</geoidheight><course>112.1</course><type>1</type></trkpt>
      <trkpt lat="38.5099831" lon="-6.60677175"><ele>829</ele><speed>8.77</speed><time>2019-02-23T14:38:20Z</time><pdop>4.5509996</pdop><geoidheight>0.00</geoidheight><course>117.1</course><type>1</type></trkpt>
      <trkpt lat="38.50994289" lon="-6.60667728"><ele>829</ele><speed>9.16</speed><time>2019-02-23T14:38:21Z</time><pdop>4.5509996</pdop><geoidheight>0.00</geoidheight><course>116.6</course><type>1</type></trkpt>
      <trkpt lat="38.509907" lon="-6.60656987"><ele>830</ele><speed>9.76</speed><time>2019-02-23T14:38:22Z</time><pdop>4.5509996</pdop><geoidheight>0.00</geoidheight><course>113.9</course><type>1</type></trkpt>
      <trkpt lat="38.5098526" lon="-6.60646992"><ele>830</ele><speed>10.38</speed><time>2019-02-23T14:38:23Z</time><pdop>4.5509996</pdop><geoidheight>0.00</geoidheight><course>112.4</course><type>1</type></trkpt>
      <trkpt lat="38.50982455" lon="-6.60635442"><ele>830</ele><speed>10.45</speed><time>2019-02-23T14:38:24Z</time><pdop>4.5509996</pdop><geoidheight>0.00</geoidheight><course>111.4</course><type>1</type></trkpt>
      <trkpt lat="38.5098067" lon="-6.60624049"><ele>829</ele><speed>9.89</speed><time>2019-02-23T14:38:25Z</time><pdop>4.5509996</pdop><geoidheight>0.00</geoidheight><course>109.7</course><type>1</type></trkpt>
      <trkpt lat="38.50978777" lon="-6.60614636"><ele>829</ele><speed>8.67</speed><time>2019-02-23T14:38:26Z</time><pdop>4.5509996</pdop><geoidheight>0.00</geoidheight><course>107.1</course><type>1</type></trkpt>
      <trkpt lat="38.50977469" lon="-6.60600152"><ele>829</ele><speed>5.26</speed><time>2019-02-23T14:38:28Z</time><pdop>6.068</pdop><geoidheight>0.00</geoidheight><course>82.8</course><type>1</type></trkpt>
      <trkpt lat="38.50989304" lon="-6.60605194"><ele>787</ele><speed>3.70</speed><time>2019-02-23T14:38:35Z</time><pdop>6.068</pdop><geoidheight>0.00</geoidheight><course>291.4</course><type>1</type></trkpt>
      <trkpt lat="38.50995117" lon="-6.6061883"><ele>816</ele><speed>4.12</speed><time>2019-02-23T14:38:39Z</time><pdop>6.068</pdop><geoidheight>0.00</geoidheight><course>288.3</course><type>1</type></trkpt>
      <trkpt lat="38.5100034" lon="-6.60635323"><ele>796</ele><speed>3.83</speed><time>2019-02-23T14:38:43Z</time><pdop>6.068</pdop><geoidheight>0.00</geoidheight><course>293.1</course><type>1</type></trkpt>
      <trkpt lat="38.51005951" lon="-6.60650688"><ele>785</ele><speed>4.34</speed><time>2019-02-23T14:38:47Z</time><pdop>6.068</pdop><geoidheight>0.00</geoidheight><course>290.7</course><type>1</type></trkpt>
      <trkpt lat="38.51007623" lon="-6.60664574"><ele>806</ele><speed>3.63</speed><time>2019-02-23T14:38:50Z</time><pdop>6.068</pdop><geoidheight>0.00</geoidheight><course>272.7</course><type>1</type></trkpt>
      <trkpt lat="38.51009403" lon="-6.60679487"><ele>817</ele><speed>4.95</speed><time>2019-02-23T14:38:53Z</time><pdop>6.068</pdop><geoidheight>0.00</geoidheight><course>288.9</course><type>1</type></trkpt>
      <trkpt lat="38.51011798" lon="-6.60692203"><ele>817</ele><speed>5.09</speed><time>2019-02-23T14:38:55Z</time><pdop>4.5509996</pdop><geoidheight>0.00</geoidheight><course>282.6</course><type>1</type></trkpt>
      <trkpt lat="38.51015207" lon="-6.60702043"><ele>814</ele><speed>5.50</speed><time>2019-02-23T14:38:57Z</time><pdop>4.5509996</pdop><geoidheight>0.00</geoidheight><course>294.0</course><type>1</type></trkpt>
      <trkpt lat="38.510196" lon="-6.60714585"><ele>813</ele><speed>5.70</speed><time>2019-02-23T14:38:59Z</time><pdop>4.5509996</pdop><geoidheight>0.00</geoidheight><course>299.9</course><type>1</type></trkpt>
      <trkpt lat="38.51025309" lon="-6.60726352"><ele>812</ele><speed>5.88</speed><time>2019-02-23T14:39:01Z</time><pdop>4.5509996</pdop><geoidheight>0.00</geoidheight><course>300.0</course><type>1</type></trkpt>
      <trkpt lat="38.51029246" lon="-6.60739302"><ele>811</ele><speed>6.45</speed><time>2019-02-23T14:39:03Z</time><pdop>6.068</pdop><geoidheight>0.00</geoidheight><course>294.5</course><type>1</type></trkpt>
      <trkpt lat="38.51034207" lon="-6.60755199"><ele>787</ele><speed>4.05</speed><time>2019-02-23T14:39:06Z</time><pdop>6.068</pdop><geoidheight>0.00</geoidheight><course>286.5</course><type>1</type></trkpt>
      <trkpt lat="38.51041075" lon="-6.6077231"><ele>780</ele><speed>5.36</speed><time>2019-02-23T14:39:09Z</time><pdop>6.068</pdop><geoidheight>0.00</geoidheight><course>304.2</course><type>1</type></trkpt>
      <trkpt lat="38.51048855" lon="-6.60782134"><ele>788</ele><speed>3.39</speed><time>2019-02-23T14:39:12Z</time><pdop>6.068</pdop><geoidheight>0.00</geoidheight><course>312.9</course><type>1</type></trkpt>
      <trkpt lat="38.51058016" lon="-6.6079129"><ele>800</ele><speed>4.70</speed><time>2019-02-23T14:39:15Z</time><pdop>6.068</pdop><geoidheight>0.00</geoidheight><course>320.1</course><type>1</type></trkpt>
      <trkpt lat="38.51067492" lon="-6.60802212"><ele>779</ele><speed>3.47</speed><time>2019-02-23T14:39:19Z</time><pdop>6.068</pdop><geoidheight>0.00</geoidheight><course>315.8</course><type>1</type></trkpt>
      <trkpt lat="38.51078443" lon="-6.60814137"><ele>797</ele><speed>4.36</speed><time>2019-02-23T14:39:23Z</time><pdop>7.585</pdop><geoidheight>0.00</geoidheight><course>319.6</course><type>1</type></trkpt>
      <trkpt lat="38.51090308" lon="-6.60825982"><ele>810</ele><speed>4.29</speed><time>2019-02-23T14:39:27Z</time><pdop>6.068</pdop><geoidheight>0.00</geoidheight><course>323.8</course><type>1</type></trkpt>
      <trkpt lat="38.51102355" lon="-6.60830647"><ele>817</ele><speed>3.18</speed><time>2019-02-23T14:39:31Z</time><pdop>6.068</pdop><geoidheight>0.00</geoidheight><course>10.5</course><type>1</type></trkpt>
      <trkpt lat="38.51107375" lon="-6.60820417"><ele>816</ele><speed>5.32</speed><time>2019-02-23T14:39:33Z</time><pdop>4.5509996</pdop><geoidheight>0.00</geoidheight><course>65.6</course><type>1</type></trkpt>
      <trkpt lat="38.51109878" lon="-6.60806134"><ele>815</ele><speed>6.59</speed><time>2019-02-23T14:39:35Z</time><pdop>6.068</pdop><geoidheight>0.00</geoidheight><course>96.0</course><type>1</type></trkpt>
      <trkpt lat="38.51106314" lon="-6.60791221"><ele>816</ele><speed>7.83</speed><time>2019-02-23T14:39:37Z</time><pdop>6.068</pdop><geoidheight>0.00</geoidheight><course>111.1</course><type>1</type></trkpt>
      <trkpt lat="38.51100067" lon="-6.60772041"><ele>817</ele><speed>9.18</speed><time>2019-02-23T14:39:39Z</time><pdop>6.068</pdop><geoidheight>0.00</geoidheight><course>118.8</course><type>1</type></trkpt>
      <trkpt lat="38.51090125" lon="-6.60753794"><ele>782</ele><speed>10.07</speed><time>2019-02-23T14:39:41Z</time><pdop>6.068</pdop><geoidheight>0.00</geoidheight><course>125.8</course><type>1</type></trkpt>
      <trkpt lat="38.51077702" lon="-6.60736103"><ele>798</ele><speed>9.98</speed><time>2019-02-23T14:39:43Z</time><pdop>6.068</pdop><geoidheight>0.00</geoidheight><course>131.5</course><type>1</type></trkpt>
      <trkpt lat="38.51063834" lon="-6.60718188"><ele>783</ele><speed>10.83</speed><time>2019-02-23T14:39:45Z</time><pdop>6.068</pdop><geoidheight>0.00</geoidheight><course>137.9</course><type>1</type></trkpt>
      <trkpt lat="38.5105071" lon="-6.60697222"><ele>782</ele><speed>11.71</speed><time>2019-02-23T14:39:47Z</time><pdop>6.068</pdop><geoidheight>0.00</geoidheight><course>131.4</course><type>1</type></trkpt>
      <trkpt lat="38.51038387" lon="-6.60677035"><ele>799</ele><speed>10.36</speed><time>2019-02-23T14:39:49Z</time><pdop>6.068</pdop><geoidheight>0.00</geoidheight><course>131.3</course><type>1</type></trkpt>
      <trkpt lat="38.51025753" lon="-6.60660616"><ele>809</ele><speed>9.95</speed><time>2019-02-23T14:39:51Z</time><pdop>6.068</pdop><geoidheight>0.00</geoidheight><course>129.3</course><type>1</type></trkpt>
      <trkpt lat="38.51015098" lon="-6.60640716"><ele>811</ele><speed>11.34</speed><time>2019-02-23T14:39:53Z</time><pdop>7.585</pdop><geoidheight>0.00</geoidheight><course>119.5</course><type>1</type></trkpt>
      <trkpt lat="38.51006328" lon="-6.60619603"><ele>787</ele><speed>9.65</speed><time>2019-02-23T14:39:55Z</time><pdop>7.585</pdop><geoidheight>0.00</geoidheight><course>113.0</course><type>1</type></trkpt>
      <trkpt lat="38.51002155" lon="-6.60601014"><ele>799</ele><speed>6.71</speed><time>2019-02-23T14:39:57Z</time><pdop>7.585</pdop><geoidheight>0.00</geoidheight><course>100.6</course><type>1</type></trkpt>
      <trkpt lat="38.510082" lon="-6.60584715"><ele>810</ele><speed>5.28</speed><time>2019-02-23T14:40:00Z</time><pdop>7.585</pdop><geoidheight>0.00</geoidheight><course>34.0</course><type>1</type></trkpt>
      <trkpt lat="38.51016748" lon="-6.6060186"><ele>782</ele><speed>5.71</speed><time>2019-02-23T14:40:05Z</time><pdop>6.068</pdop><geoidheight>0.00</geoidheight><course>284.4</course><type>1</type></trkpt>
      <trkpt lat="38.51019589" lon="-6.60616193"><ele>785</ele><speed>6.36</speed><time>2019-02-23T14:40:07Z</time><pdop>6.068</pdop><geoidheight>0.00</geoidheight><course>272.9</course><type>1</type></trkpt>
      <trkpt lat="38.51017744" lon="-6.6063213"><ele>793</ele><speed>4.00</speed><time>2019-02-23T14:40:10Z</time><pdop>6.068</pdop><geoidheight>0.00</geoidheight><course>261.2</course><type>1</type></trkpt>
      <trkpt lat="38.51021366" lon="-6.60650233"><ele>793</ele><speed>5.70</speed><time>2019-02-23T14:40:13Z</time><pdop>6.068</pdop><geoidheight>0.00</geoidheight><course>275.3</course><type>1</type></trkpt>
      <trkpt lat="38.51021554" lon="-6.60666441"><ele>805</ele><speed>3.95</speed><time>2019-02-23T14:40:16Z</time><pdop>6.068</pdop><geoidheight>0.00</geoidheight><course>275.1</course><type>1</type></trkpt>
      <trkpt lat="38.51027714" lon="-6.60682682"><ele>798</ele><speed>6.93</speed><time>2019-02-23T14:40:19Z</time><pdop>6.068</pdop><geoidheight>0.00</geoidheight><course>292.0</course><type>1</type></trkpt>
      <trkpt lat="38.51035288" lon="-6.60699916"><ele>808</ele><speed>4.25</speed><time>2019-02-23T14:40:22Z</time><pdop>6.068</pdop><geoidheight>0.00</geoidheight><course>295.1</course><type>1</type></trkpt>
      <trkpt lat="38.51042751" lon="-6.60714373"><ele>790</ele><speed>6.90</speed><time>2019-02-23T14:40:25Z</time><pdop>6.068</pdop><geoidheight>0.00</geoidheight><course>303.4</course><type>1</type></trkpt>
      <trkpt lat="38.51048724" lon="-6.60726971"><ele>803</ele><speed>5.78</speed><time>2019-02-23T14:40:27Z</time><pdop>6.068</pdop><geoidheight>0.00</geoidheight><course>302.0</course><type>1</type></trkpt>
      <trkpt lat="38.51056237" lon="-6.6074023"><ele>787</ele><speed>4.07</speed><time>2019-02-23T14:40:30Z</time><pdop>6.068</pdop><geoidheight>0.00</geoidheight><course>321.0</course><type>1</type></trkpt>
      <trkpt lat="38.51068437" lon="-6.60728967"><ele>815</ele><speed>6.08</speed><time>2019-02-23T14:40:37Z</time><pdop>7.585</pdop><geoidheight>0.00</geoidheight><course>66.3</course><type>1</type></trkpt>
      <trkpt lat="38.51068298" lon="-6.60712516"><ele>793</ele><speed>7.12</speed><time>2019-02-23T14:40:39Z</time><pdop>6.068</pdop><geoidheight>0.00</geoidheight><course>97.3</course><type>1</type></trkpt>
      <trkpt lat="38.51062888" lon="-6.60698682"><ele>786</ele><speed>7.78</speed><time>2019-02-23T14:40:41Z</time><pdop>6.068</pdop><geoidheight>0.00</geoidheight><course>107.4</course><type>1</type></trkpt>
      <trkpt lat="38.51054591" lon="-6.60679846"><ele>807</ele><speed>9.21</speed><time>2019-02-23T14:40:43Z</time><pdop>6.068</pdop><geoidheight>0.00</geoidheight><course>114.6</course><type>1</type></trkpt>
      <trkpt lat="38.51045699" lon="-6.6066074"><ele>818</ele><speed>10.07</speed><time>2019-02-23T14:40:45Z</time><pdop>4.5509996</pdop><geoidheight>0.00</geoidheight><course>128.1</course><type>1</type></trkpt>
      <trkpt lat="38.51039721" lon="-6.60651421"><ele>826</ele><speed>10.74</speed><time>2019-02-23T14:40:46Z</time><pdop>6.068</pdop><geoidheight>0.00</geoidheight><course>134.9</course><type>1</type></trkpt>
      <trkpt lat="38.51023576" lon="-6.60633791"><ele>830</ele><speed>11.99</speed><time>2019-02-23T14:40:48Z</time><pdop>6.068</pdop><geoidheight>0.00</geoidheight><course>141.5</course><type>1</type></trkpt>
      <trkpt lat="38.51006535" lon="-6.60618286"><ele>831</ele><speed>11.42</speed><time>2019-02-23T14:40:50Z</time><pdop>6.068</pdop><geoidheight>0.00</geoidheight><course>146.2</course><type>1</type></trkpt>
      <trkpt lat="38.50992658" lon="-6.60604797"><ele>833</ele><speed>8.74</speed><time>2019-02-23T14:40:52Z</time><pdop>6.068</pdop><geoidheight>0.00</geoidheight><course>124.1</course><type>1</type></trkpt>
      <trkpt lat="38.50990222" lon="-6.60589742"><ele>833</ele><speed>5.64</speed><time>2019-02-23T14:40:54Z</time><pdop>6.068</pdop><geoidheight>0.00</geoidheight><course>84.4</course><type>1</type></trkpt>
      <trkpt lat="38.51000633" lon="-6.60601425"><ele>831</ele><speed>5.37</speed><time>2019-02-23T14:41:00Z</time><pdop>4.5509996</pdop><geoidheight>0.00</geoidheight><course>292.9</course><type>1</type></trkpt>
      <trkpt lat="38.51004088" lon="-6.6061219"><ele>832</ele><speed>4.62</speed><time>2019-02-23T14:41:02Z</time><pdop>4.5509996</pdop><geoidheight>0.00</geoidheight><course>295.3</course><type>1</type></trkpt>
      <trkpt lat="38.51005233" lon="-6.60623031"><ele>833</ele><speed>4.80</speed><time>2019-02-23T14:41:04Z</time><pdop>4.5509996</pdop><geoidheight>0.00</geoidheight><course>279.5</course><type>1</type></trkpt>
      <trkpt lat="38.5100689" lon="-6.60634612"><ele>832</ele><speed>5.05</speed><time>2019-02-23T14:41:06Z</time><pdop>4.5509996</pdop><geoidheight>0.00</geoidheight><course>281.3</course><type>1</type></trkpt>
      <trkpt lat="38.51010826" lon="-6.60647178"><ele>832</ele><speed>5.66</speed><time>2019-02-23T14:41:08Z</time><pdop>4.5509996</pdop><geoidheight>0.00</geoidheight><course>297.9</course><type>1</type></trkpt>
      <trkpt lat="38.51015171" lon="-6.60657548"><ele>835</ele><speed>4.44</speed><time>2019-02-23T14:41:10Z</time><pdop>4.5509996</pdop><geoidheight>0.00</geoidheight><course>300.8</course><type>1</type></trkpt>
      <trkpt lat="38.5101999" lon="-6.60668678"><ele>838</ele><speed>3.69</speed><time>2019-02-23T14:41:13Z</time><pdop>4.5509996</pdop><geoidheight>0.00</geoidheight><course>304.9</course><type>1</type></trkpt>
      <trkpt lat="38.51024937" lon="-6.60675564"><ele>839</ele><speed>4.18</speed><time>2019-02-23T14:41:15Z</time><pdop>4.5509996</pdop><geoidheight>0.00</geoidheight><course>315.4</course><type>1</type></trkpt>
      <trkpt lat="38.51033075" lon="-6.6067876"><ele>839</ele><speed>3.97</speed><time>2019-02-23T14:41:17Z</time><pdop>4.5509996</pdop><geoidheight>0.00</geoidheight><course>332.6</course><type>1</type></trkpt>
      <trkpt lat="38.51039806" lon="-6.60682506"><ele>841</ele><speed>3.18</speed><time>2019-02-23T14:41:19Z</time><pdop>4.5509996</pdop><geoidheight>0.00</geoidheight><course>345.8</course><type>1</type></trkpt>
      <trkpt lat="38.51048218" lon="-6.6067782"><ele>840</ele><speed>4.99</speed><time>2019-02-23T14:41:22Z</time><pdop>6.068</pdop><geoidheight>0.00</geoidheight><course>49.7</course><type>1</type></trkpt>
      <trkpt lat="38.5105115" lon="-6.6066361"><ele>840</ele><speed>7.23</speed><time>2019-02-23T14:41:24Z</time><pdop>6.068</pdop><geoidheight>0.00</geoidheight><course>83.6</course><type>1</type></trkpt>
      <trkpt lat="38.51050527" lon="-6.60646783"><ele>840</ele><speed>7.43</speed><time>2019-02-23T14:41:26Z</time><pdop>6.068</pdop><geoidheight>0.00</geoidheight><course>99.9</course><type>1</type></trkpt>
      <trkpt lat="38.51045102" lon="-6.60629181"><ele>841</ele><speed>9.67</speed><time>2019-02-23T14:41:28Z</time><pdop>6.068</pdop><geoidheight>0.00</geoidheight><course>122.0</course><type>1</type></trkpt>
      <trkpt lat="38.51031729" lon="-6.60610506"><ele>841</ele><speed>10.93</speed><time>2019-02-23T14:41:30Z</time><pdop>6.068</pdop><geoidheight>0.00</geoidheight><course>132.3</course><type>1</type></trkpt>
      <trkpt lat="38.51020706" lon="-6.60591404"><ele>802</ele><speed>9.54</speed><time>2019-02-23T14:41:32Z</time><pdop>6.068</pdop><geoidheight>0.00</geoidheight><course>125.4</course><type>1</type></trkpt>
      <trkpt lat="38.51013812" lon="-6.60576034"><ele>808</ele><speed>7.45</speed><time>2019-02-23T14:41:34Z</time><pdop>6.068</pdop><geoidheight>0.00</geoidheight><course>102.3</course><type>1</type></trkpt>
      <trkpt lat="38.51015106" lon="-6.60561951"><ele>840</ele><speed>4.93</speed><time>2019-02-23T14:41:36Z</time><pdop>6.068</pdop><geoidheight>0.00</geoidheight><course>56.4</course><type>1</type></trkpt>
      <trkpt lat="38.5102726" lon="-6.60571404"><ele>846</ele><speed>5.55</speed><time>2019-02-23T14:41:40Z</time><pdop>6.068</pdop><geoidheight>0.00</geoidheight><course>290.4</course><type>1</type></trkpt>
      <trkpt lat="38.51033365" lon="-6.60583323"><ele>846</ele><speed>5.54</speed><time>2019-02-23T14:41:42Z</time><pdop>6.068</pdop><geoidheight>0.00</geoidheight><course>288.3</course><type>1</type></trkpt>
      <trkpt lat="38.51038528" lon="-6.60601587"><ele>848</ele><speed>5.73</speed><time>2019-02-23T14:41:45Z</time><pdop>6.068</pdop><geoidheight>0.00</geoidheight><course>288.4</course><type>1</type></trkpt>
      <trkpt lat="38.51042166" lon="-6.60616344"><ele>847</ele><speed>5.55</speed><time>2019-02-23T14:41:48Z</time><pdop>6.068</pdop><geoidheight>0.00</geoidheight><course>293.1</course><type>1</type></trkpt>
      <trkpt lat="38.51047458" lon="-6.60628713"><ele>792</ele><speed>6.52</speed><time>2019-02-23T14:41:50Z</time><pdop>6.068</pdop><geoidheight>0.00</geoidheight><course>298.1</course><type>1</type></trkpt>
      <trkpt lat="38.51054927" lon="-6.60641299"><ele>823</ele><speed>3.06</speed><time>2019-02-23T14:41:53Z</time><pdop>6.068</pdop><geoidheight>0.00</geoidheight><course>302.5</course><type>1</type></trkpt>
      <trkpt lat="38.51063418" lon="-6.60653062"><ele>818</ele><speed>4.57</speed><time>2019-02-23T14:41:57Z</time><pdop>6.068</pdop><geoidheight>0.00</geoidheight><course>311.3</course><type>1</type></trkpt>
      <trkpt lat="38.51070145" lon="-6.60667453"><ele>811</ele><speed>3.18</speed><time>2019-02-23T14:42:01Z</time><pdop>7.585</pdop><geoidheight>0.00</geoidheight><course>291.4</course><type>1</type></trkpt>
      <trkpt lat="38.51074689" lon="-6.60686305"><ele>826</ele><speed>3.90</speed><time>2019-02-23T14:42:05Z</time><pdop>7.585</pdop><geoidheight>0.00</geoidheight><course>293.9</course><type>1</type></trkpt>
      <trkpt lat="38.51080653" lon="-6.60701725"><ele>836</ele><speed>4.09</speed><time>2019-02-23T14:42:09Z</time><pdop>7.585</pdop><geoidheight>0.00</geoidheight><course>296.5</course><type>1</type></trkpt>
      <trkpt lat="38.51086561" lon="-6.60716982"><ele>820</ele><speed>3.52</speed><time>2019-02-23T14:42:13Z</time><pdop>6.068</pdop><geoidheight>0.00</geoidheight><course>297.7</course><type>1</type></trkpt>
      <trkpt lat="38.5109169" lon="-6.60733803"><ele>840</ele><speed>3.93</speed><time>2019-02-23T14:42:17Z</time><pdop>4.5509996</pdop><geoidheight>0.00</geoidheight><course>287.9</course><type>1</type></trkpt>
      <trkpt lat="38.51093224" lon="-6.60743018"><ele>840</ele><speed>4.26</speed><time>2019-02-23T14:42:19Z</time><pdop>4.5509996</pdop><geoidheight>0.00</geoidheight><course>281.0</course><type>1</type></trkpt>
      <trkpt lat="38.51096159" lon="-6.60754293"><ele>838</ele><speed>5.16</speed><time>2019-02-23T14:42:21Z</time><pdop>6.068</pdop><geoidheight>0.00</geoidheight><course>290.0</course><type>1</type></trkpt>
      <trkpt lat="38.51096461" lon="-6.60771521"><ele>837</ele><speed>5.70</speed><time>2019-02-23T14:42:24Z</time><pdop>6.068</pdop><geoidheight>0.00</geoidheight><course>253.5</course><type>1</type></trkpt>
      <trkpt lat="38.51091136" lon="-6.60787278"><ele>808</ele><speed>7.64</speed><time>2019-02-23T14:42:26Z</time><pdop>6.068</pdop><geoidheight>0.00</geoidheight><course>244.6</course><type>1</type></trkpt>
      <trkpt lat="38.51085134" lon="-6.60803855"><ele>809</ele><speed>7.79</speed><time>2019-02-23T14:42:28Z</time><pdop>6.068</pdop><geoidheight>0.00</geoidheight><course>248.4</course><type>1</type></trkpt>
      <trkpt lat="38.51080025" lon="-6.60819086"><ele>822</ele><speed>6.73</speed><time>2019-02-23T14:42:30Z</time><pdop>6.068</pdop><geoidheight>0.00</geoidheight><course>248.5</course><type>1</type></trkpt>
      <trkpt lat="38.51075919" lon="-6.6083336"><ele>828</ele><speed>6.42</speed><time>2019-02-23T14:42:32Z</time><pdop>6.068</pdop><geoidheight>0.00</geoidheight><course>250.9</course><type>1</type></trkpt>
      <trkpt lat="38.51073588" lon="-6.60849103"><ele>832</ele><speed>6.97</speed><time>2019-02-23T14:42:34Z</time><pdop>6.068</pdop><geoidheight>0.00</geoidheight><course>272.2</course><type>1</type></trkpt>
      <trkpt lat="38.51076126" lon="-6.60864028"><ele>836</ele><speed>6.48</speed><time>2019-02-23T14:42:36Z</time><pdop>4.5509996</pdop><geoidheight>0.00</geoidheight><course>293.8</course><type>1</type></trkpt>
      <trkpt lat="38.51080946" lon="-6.60875406"><ele>839</ele><speed>4.50</speed><time>2019-02-23T14:42:38Z</time><pdop>6.068</pdop><geoidheight>0.00</geoidheight><course>312.2</course><type>1</type></trkpt>
      <trkpt lat="38.51093886" lon="-6.6088356"><ele>841</ele><speed>4.82</speed><time>2019-02-23T14:42:42Z</time><pdop>6.068</pdop><geoidheight>0.00</geoidheight><course>348.9</course><type>1</type></trkpt>
      <trkpt lat="38.51104163" lon="-6.60876643"><ele>839</ele><speed>5.45</speed><time>2019-02-23T14:42:45Z</time><pdop>6.068</pdop><geoidheight>0.00</geoidheight><course>47.8</course><type>1</type></trkpt>
      <trkpt lat="38.51112919" lon="-6.60861558"><ele>838</ele><speed>5.99</speed><time>2019-02-23T14:42:48Z</time><pdop>6.068</pdop><geoidheight>0.00</geoidheight><course>55.0</course><type>1</type></trkpt>
      <trkpt lat="38.51117102" lon="-6.60844831"><ele>835</ele><speed>8.09</speed><time>2019-02-23T14:42:50Z</time><pdop>6.068</pdop><geoidheight>0.00</geoidheight><course>84.2</course><type>1</type></trkpt>
      <trkpt lat="38.51115425" lon="-6.60825645"><ele>832</ele><speed>9.37</speed><time>2019-02-23T14:42:52Z</time><pdop>6.068</pdop><geoidheight>0.00</geoidheight><course>103.4</course><type>1</type></trkpt>
      <trkpt lat="38.5111111" lon="-6.60805958"><ele>828</ele><speed>9.46</speed><time>2019-02-23T14:42:54Z</time><pdop>4.5509996</pdop><geoidheight>0.00</geoidheight><course>111.2</course><type>1</type></trkpt>
      <trkpt lat="38.51106934" lon="-6.60795545"><ele>827</ele><speed>10.60</speed><time>2019-02-23T14:42:55Z</time><pdop>4.5509996</pdop><geoidheight>0.00</geoidheight><course>117.0</course><type>1</type></trkpt>
      <trkpt lat="38.5110077" lon="-6.60784882"><ele>826</ele><speed>12.02</speed><time>2019-02-23T14:42:56Z</time><pdop>4.5509996</pdop><geoidheight>0.00</geoidheight><course>124.9</course><type>1</type></trkpt>
      <trkpt lat="38.51093882" lon="-6.60774375"><ele>825</ele><speed>12.40</speed><time>2019-02-23T14:42:57Z</time><pdop>4.5509996</pdop><geoidheight>0.00</geoidheight><course>133.2</course><type>1</type></trkpt>
      <trkpt lat="38.51085826" lon="-6.60764464"><ele>824</ele><speed>11.50</speed><time>2019-02-23T14:42:58Z</time><pdop>4.5509996</pdop><geoidheight>0.00</geoidheight><course>136.4</course><type>1</type></trkpt>
      <trkpt lat="38.51078937" lon="-6.60755109"><ele>824</ele><speed>10.49</speed><time>2019-02-23T14:42:59Z</time><pdop>4.5509996</pdop><geoidheight>0.00</geoidheight><course>136.1</course><type>1</type></trkpt>
      <trkpt lat="38.51072167" lon="-6.6074702"><ele>823</ele><speed>10.36</speed><time>2019-02-23T14:43:00Z</time><pdop>4.5509996</pdop><geoidheight>0.00</geoidheight><course>135.6</course><type>1</type></trkpt>
      <trkpt lat="38.51065226" lon="-6.60738753"><ele>822</ele><speed>11.02</speed><time>2019-02-23T14:43:01Z</time><pdop>4.5509996</pdop><geoidheight>0.00</geoidheight><course>136.1</course><type>1</type></trkpt>
      <trkpt lat="38.51057768" lon="-6.60729721"><ele>820</ele><speed>11.63</speed><time>2019-02-23T14:43:02Z</time><pdop>4.5509996</pdop><geoidheight>0.00</geoidheight><course>134.9</course><type>1</type></trkpt>
      <trkpt lat="38.51049349" lon="-6.60719224"><ele>819</ele><speed>11.58</speed><time>2019-02-23T14:43:03Z</time><pdop>4.5509996</pdop><geoidheight>0.00</geoidheight><course>132.6</course><type>1</type></trkpt>
      <trkpt lat="38.5104262" lon="-6.6070882"><ele>819</ele><speed>10.96</speed><time>2019-02-23T14:43:04Z</time><pdop>4.5509996</pdop><geoidheight>0.00</geoidheight><course>129.5</course><type>1</type></trkpt>
      <trkpt lat="38.51037009" lon="-6.60699754"><ele>818</ele><speed>10.38</speed><time>2019-02-23T14:43:05Z</time><pdop>4.5509996</pdop><geoidheight>0.00</geoidheight><course>126.7</course><type>1</type></trkpt>
      <trkpt lat="38.51032126" lon="-6.60689961"><ele>819</ele><speed>10.20</speed><time>2019-02-23T14:43:06Z</time><pdop>4.5509996</pdop><geoidheight>0.00</geoidheight><course>126.9</course><type>1</type></trkpt>
      <trkpt lat="38.51025306" lon="-6.6068018"><ele>817</ele><speed>10.68</speed><time>2019-02-23T14:43:07Z</time><pdop>6.068</pdop><geoidheight>0.00</geoidheight><course>126.7</course><type>1</type></trkpt>
      <trkpt lat="38.51013427" lon="-6.60660105"><ele>817</ele><speed>11.90</speed><time>2019-02-23T14:43:09Z</time><pdop>6.068</pdop><geoidheight>0.00</geoidheight><course>124.2</course><type>1</type></trkpt>
      <trkpt lat="38.51008203" lon="-6.60648016"><ele>817</ele><speed>11.63</speed><time>2019-02-23T14:43:10Z</time><pdop>6.068</pdop><geoidheight>0.00</geoidheight><course>122.3</course><type>1</type></trkpt>
      <trkpt lat="38.50997528" lon="-6.60624765"><ele>819</ele><speed>11.43</speed><time>2019-02-23T14:43:12Z</time><pdop>6.068</pdop><geoidheight>0.00</geoidheight><course>120.5</course><type>1</type></trkpt>
      <trkpt lat="38.50986698" lon="-6.60605479"><ele>822</ele><speed>9.77</speed><time>2019-02-23T14:43:14Z</time><pdop>6.068</pdop><geoidheight>0.00</geoidheight><course>108.6</course><type>1</type></trkpt>
      <trkpt lat="38.50986101" lon="-6.60586989"><ele>819</ele><speed>7.04</speed><time>2019-02-23T14:43:16Z</time><pdop>6.068</pdop><geoidheight>0.00</geoidheight><course>82.5</course><type>1</type></trkpt>
      <trkpt lat="38.50994121" lon="-6.60573287"><ele>818</ele><speed>4.65</speed><time>2019-02-23T14:43:19Z</time><pdop>6.068</pdop><geoidheight>0.00</geoidheight><course>12.9</course><type>1</type></trkpt>
      <trkpt lat="38.51006752" lon="-6.60577841"><ele>820</ele><speed>3.40</speed><time>2019-02-23T14:43:22Z</time><pdop>6.068</pdop><geoidheight>0.00</geoidheight><course>329.6</course><type>1</type></trkpt>
      <trkpt lat="38.51014328" lon="-6.60593293"><ele>817</ele><speed>5.12</speed><time>2019-02-23T14:43:28Z</time><pdop>6.068</pdop><geoidheight>0.00</geoidheight><course>288.4</course><type>1</type></trkpt>
      <trkpt lat="38.51017534" lon="-6.60604689"><ele>814</ele><speed>5.22</speed><time>2019-02-23T14:43:30Z</time><pdop>4.5509996</pdop><geoidheight>0.00</geoidheight><course>280.0</course><type>1</type></trkpt>
      <trkpt lat="38.51020082" lon="-6.6061681"><ele>811</ele><speed>6.21</speed><time>2019-02-23T14:43:32Z</time><pdop>4.5509996</pdop><geoidheight>0.00</geoidheight><course>283.8</course><type>1</type></trkpt>
      <trkpt lat="38.51025105" lon="-6.60632149"><ele>809</ele><speed>7.57</speed><time>2019-02-23T14:43:34Z</time><pdop>4.5509996</pdop><geoidheight>0.00</geoidheight><course>291.2</course><type>1</type></trkpt>
      <trkpt lat="38.5102911" lon="-6.60646437"><ele>810</ele><speed>5.80</speed><time>2019-02-23T14:43:36Z</time><pdop>4.5509996</pdop><geoidheight>0.00</geoidheight><course>285.1</course><type>1</type></trkpt>
      <trkpt lat="38.51032086" lon="-6.60659725"><ele>810</ele><speed>4.80</speed><time>2019-02-23T14:43:38Z</time><pdop>4.5509996</pdop><geoidheight>0.00</geoidheight><course>278.0</course><type>1</type></trkpt>
      <trkpt lat="38.51034853" lon="-6.60671202"><ele>810</ele><speed>5.63</speed><time>2019-02-23T14:43:40Z</time><pdop>4.5509996</pdop><geoidheight>0.00</geoidheight><course>289.0</course><type>1</type></trkpt>
      <trkpt lat="38.51036812" lon="-6.60683683"><ele>811</ele><speed>5.04</speed><time>2019-02-23T14:43:42Z</time><pdop>4.5509996</pdop><geoidheight>0.00</geoidheight><course>278.8</course><type>1</type></trkpt>
      <trkpt lat="38.51039449" lon="-6.60693804"><ele>813</ele><speed>4.01</speed><time>2019-02-23T14:43:44Z</time><pdop>4.5509996</pdop><geoidheight>0.00</geoidheight><course>277.0</course><type>1</type></trkpt>
      <trkpt lat="38.51044201" lon="-6.60710016"><ele>811</ele><speed>5.51</speed><time>2019-02-23T14:43:47Z</time><pdop>6.068</pdop><geoidheight>0.00</geoidheight><course>302.8</course><type>1</type></trkpt>
      <trkpt lat="38.51053926" lon="-6.60719109"><ele>808</ele><speed>4.22</speed><time>2019-02-23T14:43:50Z</time><pdop>4.5509996</pdop><geoidheight>0.00</geoidheight><course>335.3</course><type>1</type></trkpt>
      <trkpt lat="38.51067569" lon="-6.60720398"><ele>805</ele><speed>7.01</speed><time>2019-02-23T14:43:53Z</time><pdop>6.068</pdop><geoidheight>0.00</geoidheight><course>9.7</course><type>1</type></trkpt>
      <trkpt lat="38.51078545" lon="-6.60712011"><ele>806</ele><speed>6.55</speed><time>2019-02-23T14:43:55Z</time><pdop>6.068</pdop><geoidheight>0.00</geoidheight><course>50.6</course><type>1</type></trkpt>
      <trkpt lat="38.51084021" lon="-6.60695251"><ele>807</ele><speed>5.94</speed><time>2019-02-23T14:43:58Z</time><pdop>6.068</pdop><geoidheight>0.00</geoidheight><course>77.4</course><type>1</type></trkpt>
      <trkpt lat="38.51084731" lon="-6.6067707"><ele>807</ele><speed>8.60</speed><time>2019-02-23T14:44:00Z</time><pdop>6.068</pdop><geoidheight>0.00</geoidheight><course>86.5</course><type>1</type></trkpt>
      <trkpt lat="38.51081922" lon="-6.60656474"><ele>809</ele><speed>9.84</speed><time>2019-02-23T14:44:02Z</time><pdop>6.068</pdop><geoidheight>0.00</geoidheight><course>105.0</course><type>1</type></trkpt>
      <trkpt lat="38.51072242" lon="-6.6063864"><ele>812</ele><speed>9.10</speed><time>2019-02-23T14:44:04Z</time><pdop>6.068</pdop><geoidheight>0.00</geoidheight><course>121.9</course><type>1</type></trkpt>
      <trkpt lat="38.51065781" lon="-6.6062013"><ele>811</ele><speed>8.54</speed><time>2019-02-23T14:44:06Z</time><pdop>6.068</pdop><geoidheight>0.00</geoidheight><course>115.5</course><type>1</type></trkpt>
      <trkpt lat="38.51060749" lon="-6.60597421"><ele>809</ele><speed>9.67</speed><time>2019-02-23T14:44:08Z</time><pdop>6.068</pdop><geoidheight>0.00</geoidheight><course>105.3</course><type>1</type></trkpt>
      <trkpt lat="38.51058348" lon="-6.60579065"><ele>809</ele><speed>7.61</speed><time>2019-02-23T14:44:10Z</time><pdop>6.068</pdop><geoidheight>0.00</geoidheight><course>84.7</course><type>1</type></trkpt>
      <trkpt lat="38.51062565" lon="-6.60562109"><ele>809</ele><speed>8.08</speed><time>2019-02-23T14:44:12Z</time><pdop>6.068</pdop><geoidheight>0.00</geoidheight><course>62.4</course><type>1</type></trkpt>
      <trkpt lat="38.51068708" lon="-6.605487"><ele>811</ele><speed>6.13</speed><time>2019-02-23T14:44:14Z</time><pdop>6.068</pdop><geoidheight>0.00</geoidheight><course>59.5</course><type>1</type></trkpt>
      <trkpt lat="38.51075679" lon="-6.6053697"><ele>811</ele><speed>5.81</speed><time>2019-02-23T14:44:16Z</time><pdop>6.068</pdop><geoidheight>0.00</geoidheight><course>44.2</course><type>1</type></trkpt>
      <trkpt lat="38.51086374" lon="-6.60528012"><ele>811</ele><speed>6.38</speed><time>2019-02-23T14:44:18Z</time><pdop>6.068</pdop><geoidheight>0.00</geoidheight><course>30.5</course><type>1</type></trkpt>
      <trkpt lat="38.51094995" lon="-6.6052332"><ele>811</ele><speed>4.04</speed><time>2019-02-23T14:44:20Z</time><pdop>4.5509996</pdop><geoidheight>0.00</geoidheight><course>17.1</course><type>1</type></trkpt>
      <trkpt lat="38.51106393" lon="-6.60521456"><ele>811</ele><speed>5.36</speed><time>2019-02-23T14:44:23Z</time><pdop>6.068</pdop><geoidheight>0.00</geoidheight><course>5.1</course><type>1</type></trkpt>
      <trkpt lat="38.51117755" lon="-6.60522081"><ele>810</ele><speed>3.25</speed><time>2019-02-23T14:44:26Z</time><pdop>6.068</pdop><geoidheight>0.00</geoidheight><course>352.0</course><type>1</type></trkpt>
      <trkpt lat="38.51128783" lon="-6.60528922"><ele>810</ele><speed>4.86</speed><time>2019-02-23T14:44:29Z</time><pdop>6.068</pdop><geoidheight>0.00</geoidheight><course>325.0</course><type>1</type></trkpt>
      <trkpt lat="38.51139665" lon="-6.60540417"><ele>808</ele><speed>4.51</speed><time>2019-02-23T14:44:32Z</time><pdop>6.068</pdop><geoidheight>0.00</geoidheight><course>291.6</course><type>1</type></trkpt>
      <trkpt lat="38.51142427" lon="-6.60558746"><ele>806</ele><speed>6.12</speed><time>2019-02-23T14:44:35Z</time><pdop>6.068</pdop><geoidheight>0.00</geoidheight><course>269.3</course><type>1</type></trkpt>
      <trkpt lat="38.51138853" lon="-6.60572563"><ele>805</ele><speed>6.95</speed><time>2019-02-23T14:44:37Z</time><pdop>6.068</pdop><geoidheight>0.00</geoidheight><course>254.4</course><type>1</type></trkpt>
      <trkpt lat="38.51137104" lon="-6.60589115"><ele>804</ele><speed>6.96</speed><time>2019-02-23T14:44:39Z</time><pdop>6.068</pdop><geoidheight>0.00</geoidheight><course>259.1</course><type>1</type></trkpt>
      <trkpt lat="38.51135715" lon="-6.6060315"><ele>803</ele><speed>6.15</speed><time>2019-02-23T14:44:41Z</time><pdop>6.068</pdop><geoidheight>0.00</geoidheight><course>257.6</course><type>1</type></trkpt>
      <trkpt lat="38.51129652" lon="-6.606228"><ele>806</ele><speed>6.23</speed><time>2019-02-23T14:44:44Z</time><pdop>6.068</pdop><geoidheight>0.00</geoidheight><course>251.0</course><type>1</type></trkpt>
      <trkpt lat="38.51125259" lon="-6.6063762"><ele>805</ele><speed>6.37</speed><time>2019-02-23T14:44:46Z</time><pdop>6.068</pdop><geoidheight>0.00</geoidheight><course>247.0</course><type>1</type></trkpt>
      <trkpt lat="38.51120771" lon="-6.60651086"><ele>803</ele><speed>6.97</speed><time>2019-02-23T14:44:48Z</time><pdop>4.5509996</pdop><geoidheight>0.00</geoidheight><course>246.0</course><type>1</type></trkpt>
      <trkpt lat="38.51114906" lon="-6.60664793"><ele>802</ele><speed>6.40</speed><time>2019-02-23T14:44:50Z</time><pdop>6.068</pdop><geoidheight>0.00</geoidheight><course>242.0</course><type>1</type></trkpt>
      <trkpt lat="38.51109416" lon="-6.60679213"><ele>801</ele><speed>6.74</speed><time>2019-02-23T14:44:52Z</time><pdop>6.068</pdop><geoidheight>0.00</geoidheight><course>242.2</course><type>1</type></trkpt>
      <trkpt lat="38.51106283" lon="-6.60693894"><ele>800</ele><speed>6.76</speed><time>2019-02-23T14:44:54Z</time><pdop>6.068</pdop><geoidheight>0.00</geoidheight><course>249.6</course><type>1</type></trkpt>
      <trkpt lat="38.51103525" lon="-6.60708099"><ele>799</ele><speed>5.92</speed><time>2019-02-23T14:44:56Z</time><pdop>6.068</pdop><geoidheight>0.00</geoidheight><course>251.0</course><type>1</type></trkpt>
      <trkpt lat="38.51094582" lon="-6.60721356"><ele>799</ele><speed>8.80</speed><time>2019-02-23T14:44:58Z</time><pdop>6.068</pdop><geoidheight>0.00</geoidheight><course>215.2</course><type>1</type></trkpt>
      <trkpt lat="38.51077713" lon="-6.60727822"><ele>798</ele><speed>11.34</speed><time>2019-02-23T14:45:00Z</time><pdop>6.068</pdop><geoidheight>0.00</geoidheight><course>190.2</course><type>1</type></trkpt>
      <trkpt lat="38.51057695" lon="-6.6072567"><ele>797</ele><speed>11.00</speed><time>2019-02-23T14:45:02Z</time><pdop>6.068</pdop><geoidheight>0.00</geoidheight><course>160.9</course><type>1</type></trkpt>
      <trkpt lat="38.51048006" lon="-6.60719388"><ele>797</ele><speed>10.90</speed><time>2019-02-23T14:45:03Z</time><pdop>6.068</pdop><geoidheight>0.00</geoidheight><course>149.3</course><type>1</type></trkpt>
      <trkpt lat="38.51031524" lon="-6.60705987"><ele>797</ele><speed>10.21</speed><time>2019-02-23T14:45:05Z</time><pdop>6.068</pdop><geoidheight>0.00</geoidheight><course>142.7</course><type>1</type></trkpt>
      <trkpt lat="38.51016862" lon="-6.6069102"><ele>797</ele><speed>9.12</speed><time>2019-02-23T14:45:07Z</time><pdop>6.068</pdop><geoidheight>0.00</geoidheight><course>133.4</course><type>1</type></trkpt>
      <trkpt lat="38.5100634" lon="-6.60671911"><ele>796</ele><speed>9.94</speed><time>2019-02-23T14:45:09Z</time><pdop>6.068</pdop><geoidheight>0.00</geoidheight><course>115.6</course><type>1</type></trkpt>
      <trkpt lat="38.50998786" lon="-6.60650296"><ele>780</ele><speed>9.61</speed><time>2019-02-23T14:45:11Z</time><pdop>6.068</pdop><geoidheight>0.00</geoidheight><course>110.4</course><type>1</type></trkpt>
      <trkpt lat="38.50992843" lon="-6.60635732"><ele>791</ele><speed>7.13</speed><time>2019-02-23T14:45:13Z</time><pdop>6.068</pdop><geoidheight>0.00</geoidheight><course>107.5</course><type>1</type></trkpt>
      <trkpt lat="38.50989787" lon="-6.60615674"><ele>797</ele><speed>8.33</speed><time>2019-02-23T14:45:15Z</time><pdop>6.068</pdop><geoidheight>0.00</geoidheight><course>96.6</course><type>1</type></trkpt>
      <trkpt lat="38.50989702" lon="-6.60591541"><ele>773</ele><speed>8.88</speed><time>2019-02-23T14:45:17Z</time><pdop>6.068</pdop><geoidheight>0.00</geoidheight><course>90.3</course><type>1</type></trkpt>
      <trkpt lat="38.50986934" lon="-6.60571141"><ele>778</ele><speed>6.49</speed><time>2019-02-23T14:45:20Z</time><pdop>6.068</pdop><geoidheight>0.00</geoidheight><course>77.3</course><type>1</type></trkpt>
      <trkpt lat="38.50989882" lon="-6.60557425"><ele>781</ele><speed>5.88</speed><time>2019-02-23T14:45:22Z</time><pdop>6.068</pdop><geoidheight>0.00</geoidheight><course>61.4</course><type>1</type></trkpt>
      <trkpt lat="38.50999767" lon="-6.60547085"><ele>790</ele><speed>4.16</speed><time>2019-02-23T14:45:25Z</time><pdop>6.068</pdop><geoidheight>0.00</geoidheight><course>31.8</course><type>1</type></trkpt>
      <trkpt lat="38.510147" lon="-6.60544552"><ele>802</ele><speed>4.51</speed><time>2019-02-23T14:45:29Z</time><pdop>6.068</pdop><geoidheight>0.00</geoidheight><course>343.4</course><type>1</type></trkpt>
      <trkpt lat="38.51026662" lon="-6.60546185"><ele>804</ele><speed>3.79</speed><time>2019-02-23T14:45:32Z</time><pdop>6.068</pdop><geoidheight>0.00</geoidheight><course>344.7</course><type>1</type></trkpt>
      <trkpt lat="38.51038305" lon="-6.60551968"><ele>782</ele><speed>5.31</speed><time>2019-02-23T14:45:35Z</time><pdop>6.068</pdop><geoidheight>0.00</geoidheight><course>330.9</course><type>1</type></trkpt>
      <trkpt lat="38.51046157" lon="-6.60561844"><ele>778</ele><speed>3.86</speed><time>2019-02-23T14:45:38Z</time><pdop>6.068</pdop><geoidheight>0.00</geoidheight><course>294.8</course><type>1</type></trkpt>
      <trkpt lat="38.51054268" lon="-6.6057594"><ele>793</ele><speed>4.41</speed><time>2019-02-23T14:45:42Z</time><pdop>6.068</pdop><geoidheight>0.00</geoidheight><course>304.8</course><type>1</type></trkpt>
      <trkpt lat="38.51059028" lon="-6.60589741"><ele>781</ele><speed>3.44</speed><time>2019-02-23T14:45:45Z</time><pdop>6.068</pdop><geoidheight>0.00</geoidheight><course>293.2</course><type>1</type></trkpt>
      <trkpt lat="38.51065751" lon="-6.60605291"><ele>781</ele><speed>5.66</speed><time>2019-02-23T14:45:48Z</time><pdop>6.068</pdop><geoidheight>0.00</geoidheight><course>290.1</course><type>1</type></trkpt>
      <trkpt lat="38.51068213" lon="-6.60621172"><ele>793</ele><speed>4.38</speed><time>2019-02-23T14:45:51Z</time><pdop>6.068</pdop><geoidheight>0.00</geoidheight><course>268.5</course><type>1</type></trkpt>
      <trkpt lat="38.51069256" lon="-6.60642193"><ele>795</ele><speed>6.10</speed><time>2019-02-23T14:45:54Z</time><pdop>6.068</pdop><geoidheight>0.00</geoidheight><course>275.1</course><type>1</type></trkpt>
      <trkpt lat="38.51066909" lon="-6.60663289"><ele>796</ele><speed>6.74</speed><time>2019-02-23T14:45:57Z</time><pdop>6.068</pdop><geoidheight>0.00</geoidheight><course>248.4</course><type>1</type></trkpt>
      <trkpt lat="38.51061388" lon="-6.60679025"><ele>795</ele><speed>7.53</speed><time>2019-02-23T14:45:59Z</time><pdop>6.068</pdop><geoidheight>0.00</geoidheight><course>250.3</course><type>1</type></trkpt>
      <trkpt lat="38.51056275" lon="-6.60693336"><ele>794</ele><speed>7.05</speed><time>2019-02-23T14:46:01Z</time><pdop>4.5509996</pdop><geoidheight>0.00</geoidheight><course>243.3</course><type>1</type></trkpt>
      <trkpt lat="38.51049865" lon="-6.60708905"><ele>794</ele><speed>7.56</speed><time>2019-02-23T14:46:03Z</time><pdop>4.5509996</pdop><geoidheight>0.00</geoidheight><course>247.9</course><type>1</type></trkpt>
      <trkpt lat="38.51046928" lon="-6.60726175"><ele>792</ele><speed>7.73</speed><time>2019-02-23T14:46:05Z</time><pdop>4.5509996</pdop><geoidheight>0.00</geoidheight><course>265.1</course><type>1</type></trkpt>
      <trkpt lat="38.51047702" lon="-6.60743634"><ele>793</ele><speed>6.12</speed><time>2019-02-23T14:46:07Z</time><pdop>4.5509996</pdop><geoidheight>0.00</geoidheight><course>274.6</course><type>1</type></trkpt>
      <trkpt lat="38.51049724" lon="-6.60756213"><ele>794</ele><speed>5.52</speed><time>2019-02-23T14:46:09Z</time><pdop>4.5509996</pdop><geoidheight>0.00</geoidheight><course>284.4</course><type>1</type></trkpt>
      <trkpt lat="38.51053361" lon="-6.60767843"><ele>794</ele><speed>5.77</speed><time>2019-02-23T14:46:11Z</time><pdop>4.5509996</pdop><geoidheight>0.00</geoidheight><course>296.2</course><type>1</type></trkpt>
      <trkpt lat="38.51056842" lon="-6.60779386"><ele>795</ele><speed>4.66</speed><time>2019-02-23T14:46:13Z</time><pdop>4.5509996</pdop><geoidheight>0.00</geoidheight><course>292.2</course><type>1</type></trkpt>
      <trkpt lat="38.51061338" lon="-6.60787856"><ele>795</ele><speed>4.76</speed><time>2019-02-23T14:46:15Z</time><pdop>4.5509996</pdop><geoidheight>0.00</geoidheight><course>297.3</course><type>1</type></trkpt>
      <trkpt lat="38.51065983" lon="-6.60797615"><ele>795</ele><speed>5.34</speed><time>2019-02-23T14:46:17Z</time><pdop>4.5509996</pdop><geoidheight>0.00</geoidheight><course>307.9</course><type>1</type></trkpt>
      <trkpt lat="38.51071355" lon="-6.60808327"><ele>795</ele><speed>4.51</speed><time>2019-02-23T14:46:19Z</time><pdop>6.068</pdop><geoidheight>0.00</geoidheight><course>298.6</course><type>1</type></trkpt>
      <trkpt lat="38.51077204" lon="-6.60820275"><ele>798</ele><speed>3.08</speed><time>2019-02-23T14:46:23Z</time><pdop>6.068</pdop><geoidheight>0.00</geoidheight><course>315.6</course><type>1</type></trkpt>
      <trkpt lat="38.51084332" lon="-6.60831743"><ele>802</ele><speed>1.97</speed><time>2019-02-23T14:46:28Z</time><pdop>6.068</pdop><geoidheight>0.00</geoidheight><course>308.9</course><type>1</type></trkpt>
      <trkpt lat="38.5109703" lon="-6.60821526"><ele>803</ele><speed>5.56</speed><time>2019-02-23T14:46:34Z</time><pdop>6.068</pdop><geoidheight>0.00</geoidheight><course>62.0</course><type>1</type></trkpt>
      <trkpt lat="38.51099449" lon="-6.60807116"><ele>802</ele><speed>8.21</speed><time>2019-02-23T14:46:36Z</time><pdop>6.068</pdop><geoidheight>0.00</geoidheight><course>89.5</course><type>1</type></trkpt>
      <trkpt lat="38.51095592" lon="-6.60787459"><ele>802</ele><speed>10.01</speed><time>2019-02-23T14:46:38Z</time><pdop>6.068</pdop><geoidheight>0.00</geoidheight><course>106.4</course><type>1</type></trkpt>
      <trkpt lat="38.51085994" lon="-6.60764564"><ele>801</ele><speed>11.58</speed><time>2019-02-23T14:46:40Z</time><pdop>4.5509996</pdop><geoidheight>0.00</geoidheight><course>122.1</course><type>1</type></trkpt>
      <trkpt lat="38.51080469" lon="-6.60752227"><ele>800</ele><speed>12.05</speed><time>2019-02-23T14:46:41Z</time><pdop>4.5509996</pdop><geoidheight>0.00</geoidheight><course>126.3</course><type>1</type></trkpt>
      <trkpt lat="38.5107437" lon="-6.60741752"><ele>799</ele><speed>12.43</speed><time>2019-02-23T14:46:42Z</time><pdop>4.5509996</pdop><geoidheight>0.00</geoidheight><course>128.0</course><type>1</type></trkpt>
      <trkpt lat="38.5106681" lon="-6.60731218"><ele>800</ele><speed>12.09</speed><time>2019-02-23T14:46:43Z</time><pdop>4.5509996</pdop><geoidheight>0.00</geoidheight><course>130.7</course><type>1</type></trkpt>
      <trkpt lat="38.51059013" lon="-6.60721863"><ele>800</ele><speed>11.66</speed><time>2019-02-23T14:46:44Z</time><pdop>4.5509996</pdop><geoidheight>0.00</geoidheight><course>133.6</course><type>1</type></trkpt>
      <trkpt lat="38.51051825" lon="-6.60711867"><ele>801</ele><speed>11.82</speed><time>2019-02-23T14:46:45Z</time><pdop>4.5509996</pdop><geoidheight>0.00</geoidheight><course>133.6</course><type>1</type></trkpt>
      <trkpt lat="38.51043609" lon="-6.60701446"><ele>801</ele><speed>12.24</speed><time>2019-02-23T14:46:46Z</time><pdop>4.5509996</pdop><geoidheight>0.00</geoidheight><course>132.6</course><type>1</type></trkpt>
      <trkpt lat="38.5103625" lon="-6.60691088"><ele>801</ele><speed>12.47</speed><time>2019-02-23T14:46:47Z</time><pdop>4.5509996</pdop><geoidheight>0.00</geoidheight><course>133.2</course><type>1</type></trkpt>
      <trkpt lat="38.51028625" lon="-6.6068138"><ele>801</ele><speed>11.88</speed><time>2019-02-23T14:46:48Z</time><pdop>6.068</pdop><geoidheight>0.00</geoidheight><course>135.2</course><type>1</type></trkpt>
      <trkpt lat="38.51020325" lon="-6.60672167"><ele>803</ele><speed>11.00</speed><time>2019-02-23T14:46:49Z</time><pdop>6.068</pdop><geoidheight>0.00</geoidheight><course>134.4</course><type>1</type></trkpt>
      <trkpt lat="38.51007252" lon="-6.60654672"><ele>793</ele><speed>9.92</speed><time>2019-02-23T14:46:51Z</time><pdop>6.068</pdop><geoidheight>0.00</geoidheight><course>126.5</course><type>1</type></trkpt>
      <trkpt lat="38.50997321" lon="-6.6063905"><ele>796</ele><speed>8.96</speed><time>2019-02-23T14:46:53Z</time><pdop>6.068</pdop><geoidheight>0.00</geoidheight><course>113.2</course><type>1</type></trkpt>
      <trkpt lat="38.50994021" lon="-6.6061917"><ele>789</ele><speed>8.84</speed><time>2019-02-23T14:46:55Z</time><pdop>6.068</pdop><geoidheight>0.00</geoidheight><course>100.1</course><type>1</type></trkpt>
      <trkpt lat="38.50993329" lon="-6.60599698"><ele>798</ele><speed>8.09</speed><time>2019-02-23T14:46:57Z</time><pdop>6.068</pdop><geoidheight>0.00</geoidheight><course>85.4</course><type>1</type></trkpt>
      <trkpt lat="38.50996077" lon="-6.60584996"><ele>801</ele><speed>5.47</speed><time>2019-02-23T14:46:59Z</time><pdop>6.068</pdop><geoidheight>0.00</geoidheight><course>68.8</course><type>1</type></trkpt>
      <trkpt lat="38.51003324" lon="-6.60574184"><ele>805</ele><speed>4.32</speed><time>2019-02-23T14:47:02Z</time><pdop>6.068</pdop><geoidheight>0.00</geoidheight><course>32.4</course><type>1</type></trkpt>
      <trkpt lat="38.51016475" lon="-6.60573629"><ele>801</ele><speed>4.48</speed><time>2019-02-23T14:47:05Z</time><pdop>6.068</pdop><geoidheight>0.00</geoidheight><course>325.6</course><type>1</type></trkpt>
      <trkpt lat="38.51022649" lon="-6.6058702"><ele>810</ele><speed>5.22</speed><time>2019-02-23T14:47:08Z</time><pdop>6.068</pdop><geoidheight>0.00</geoidheight><course>289.4</course><type>1</type></trkpt>
      <trkpt lat="38.51028729" lon="-6.60598665"><ele>789</ele><speed>5.53</speed><time>2019-02-23T14:47:10Z</time><pdop>6.068</pdop><geoidheight>0.00</geoidheight><course>301.4</course><type>1</type></trkpt>
      <trkpt lat="38.51034928" lon="-6.60617351"><ele>805</ele><speed>5.67</speed><time>2019-02-23T14:47:13Z</time><pdop>6.068</pdop><geoidheight>0.00</geoidheight><course>279.4</course><type>1</type></trkpt>
      <trkpt lat="38.51034436" lon="-6.60631827"><ele>809</ele><speed>3.49</speed><time>2019-02-23T14:47:16Z</time><pdop>6.068</pdop><geoidheight>0.00</geoidheight><course>264.7</course><type>1</type></trkpt>
      <trkpt lat="38.51037483" lon="-6.60649991"><ele>814</ele><speed>6.11</speed><time>2019-02-23T14:47:19Z</time><pdop>6.068</pdop><geoidheight>0.00</geoidheight><course>291.2</course><type>1</type></trkpt>
      <trkpt lat="38.51040317" lon="-6.60666725"><ele>822</ele><speed>4.40</speed><time>2019-02-23T14:47:25Z</time><pdop>6.068</pdop><geoidheight>0.00</geoidheight><course>304.3</course><type>1</type></trkpt>
      <trkpt lat="38.51049081" lon="-6.60675762"><ele>826</ele><speed>2.99</speed><time>2019-02-23T14:47:28Z</time><pdop>6.068</pdop><geoidheight>0.00</geoidheight><course>338.0</course><type>1</type></trkpt>
      <trkpt lat="38.51062101" lon="-6.60668172"><ele>806</ele><speed>6.94</speed><time>2019-02-23T14:47:32Z</time><pdop>6.068</pdop><geoidheight>0.00</geoidheight><course>53.7</course><type>1</type></trkpt>
      <trkpt lat="38.51064135" lon="-6.60648572"><ele>812</ele><speed>9.49</speed><time>2019-02-23T14:47:34Z</time><pdop>6.068</pdop><geoidheight>0.00</geoidheight><course>91.8</course><type>1</type></trkpt>
      <trkpt lat="38.5105769" lon="-6.60626646"><ele>803</ele><speed>10.45</speed><time>2019-02-23T14:47:36Z</time><pdop>6.068</pdop><geoidheight>0.00</geoidheight><course>117.6</course><type>1</type></trkpt>
      <trkpt lat="38.51052868" lon="-6.60616327"><ele>808</ele><speed>10.28</speed><time>2019-02-23T14:47:37Z</time><pdop>4.5509996</pdop><geoidheight>0.00</geoidheight><course>123.6</course><type>1</type></trkpt>
      <trkpt lat="38.51046703" lon="-6.60606629"><ele>811</ele><speed>10.91</speed><time>2019-02-23T14:47:38Z</time><pdop>6.068</pdop><geoidheight>0.00</geoidheight><course>128.6</course><type>1</type></trkpt>
      <trkpt lat="38.51038938" lon="-6.60596971"><ele>816</ele><speed>12.06</speed><time>2019-02-23T14:47:39Z</time><pdop>4.5509996</pdop><geoidheight>0.00</geoidheight><course>136.1</course><type>1</type></trkpt>
      <trkpt lat="38.51029757" lon="-6.6058686"><ele>817</ele><speed>13.26</speed><time>2019-02-23T14:47:40Z</time><pdop>4.5509996</pdop><geoidheight>0.00</geoidheight><course>141.8</course><type>1</type></trkpt>
      <trkpt lat="38.51020049" lon="-6.60578491"><ele>818</ele><speed>13.35</speed><time>2019-02-23T14:47:41Z</time><pdop>4.5509996</pdop><geoidheight>0.00</geoidheight><course>143.6</course><type>1</type></trkpt>
      <trkpt lat="38.51011312" lon="-6.60569036"><ele>819</ele><speed>12.39</speed><time>2019-02-23T14:47:42Z</time><pdop>4.5509996</pdop><geoidheight>0.00</geoidheight><course>139.2</course><type>1</type></trkpt>
      <trkpt lat="38.51002868" lon="-6.60559754"><ele>820</ele><speed>12.38</speed><time>2019-02-23T14:47:43Z</time><pdop>7.585</pdop><geoidheight>0.00</geoidheight><course>139.2</course><type>1</type></trkpt>
      <trkpt lat="38.50989822" lon="-6.60541145"><ele>821</ele><speed>11.10</speed><time>2019-02-23T14:47:45Z</time><pdop>4.5509996</pdop><geoidheight>0.00</geoidheight><course>134.8</course><type>1</type></trkpt>
      <trkpt lat="38.50981997" lon="-6.6053226"><ele>821</ele><speed>11.64</speed><time>2019-02-23T14:47:46Z</time><pdop>4.5509996</pdop><geoidheight>0.00</geoidheight><course>134.8</course><type>1</type></trkpt>
      <trkpt lat="38.50975766" lon="-6.60521474"><ele>821</ele><speed>11.29</speed><time>2019-02-23T14:47:47Z</time><pdop>4.5509996</pdop><geoidheight>0.00</geoidheight><course>123.7</course><type>1</type></trkpt>
      <trkpt lat="38.50972372" lon="-6.60509512"><ele>820</ele><speed>11.14</speed><time>2019-02-23T14:47:48Z</time><pdop>4.5509996</pdop><geoidheight>0.00</geoidheight><course>107.1</course><type>1</type></trkpt>
      <trkpt lat="38.50972711" lon="-6.60495352"><ele>818</ele><speed>10.45</speed><time>2019-02-23T14:47:49Z</time><pdop>4.5509996</pdop><geoidheight>0.00</geoidheight><course>89.6</course><type>1</type></trkpt>
      <trkpt lat="38.50973786" lon="-6.60484795"><ele>818</ele><speed>9.00</speed><time>2019-02-23T14:47:50Z</time><pdop>4.5509996</pdop><geoidheight>0.00</geoidheight><course>77.1</course><type>1</type></trkpt>
      <trkpt lat="38.50977653" lon="-6.60469693"><ele>819</ele><speed>5.54</speed><time>2019-02-23T14:47:52Z</time><pdop>6.068</pdop><geoidheight>0.00</geoidheight><course>61.5</course><type>1</type></trkpt>
      <trkpt lat="38.50984729" lon="-6.60460464"><ele>816</ele><speed>3.99</speed><time>2019-02-23T14:47:55Z</time><pdop>4.5509996</pdop><geoidheight>0.00</geoidheight><course>20.2</course><type>1</type></trkpt>
      <trkpt lat="38.50993159" lon="-6.60462305"><ele>810</ele><speed>4.99</speed><time>2019-02-23T14:47:57Z</time><pdop>4.5509996</pdop><geoidheight>0.00</geoidheight><course>332.2</course><type>1</type></trkpt>
      <trkpt lat="38.50999001" lon="-6.60471173"><ele>807</ele><speed>5.46</speed><time>2019-02-23T14:47:59Z</time><pdop>6.068</pdop><geoidheight>0.00</geoidheight><course>301.5</course><type>1</type></trkpt>
      <trkpt lat="38.51002295" lon="-6.60483226"><ele>804</ele><speed>5.36</speed><time>2019-02-23T14:48:01Z</time><pdop>4.5509996</pdop><geoidheight>0.00</geoidheight><course>289.5</course><type>1</type></trkpt>
      <trkpt lat="38.51007164" lon="-6.60498258"><ele>800</ele><speed>6.78</speed><time>2019-02-23T14:48:03Z</time><pdop>4.5509996</pdop><geoidheight>0.00</geoidheight><course>288.6</course><type>1</type></trkpt>
      <trkpt lat="38.51012746" lon="-6.60511489"><ele>798</ele><speed>6.55</speed><time>2019-02-23T14:48:05Z</time><pdop>4.5509996</pdop><geoidheight>0.00</geoidheight><course>288.3</course><type>1</type></trkpt>
      <trkpt lat="38.51014519" lon="-6.60524105"><ele>797</ele><speed>4.90</speed><time>2019-02-23T14:48:07Z</time><pdop>4.5509996</pdop><geoidheight>0.00</geoidheight><course>274.2</course><type>1</type></trkpt>
      <trkpt lat="38.51016793" lon="-6.60536671"><ele>795</ele><speed>6.53</speed><time>2019-02-23T14:48:09Z</time><pdop>4.5509996</pdop><geoidheight>0.00</geoidheight><course>287.0</course><type>1</type></trkpt>
      <trkpt lat="38.51019156" lon="-6.60553227"><ele>793</ele><speed>7.96</speed><time>2019-02-23T14:48:11Z</time><pdop>4.5509996</pdop><geoidheight>0.00</geoidheight><course>278.3</course><type>1</type></trkpt>
      <trkpt lat="38.51021387" lon="-6.60562821"><ele>794</ele><speed>6.94</speed><time>2019-02-23T14:48:12Z</time><pdop>4.5509996</pdop><geoidheight>0.00</geoidheight><course>275.1</course><type>1</type></trkpt>
      <trkpt lat="38.51023122" lon="-6.60575195"><ele>793</ele><speed>5.46</speed><time>2019-02-23T14:48:14Z</time><pdop>4.5509996</pdop><geoidheight>0.00</geoidheight><course>283.1</course><type>1</type></trkpt>
      <trkpt lat="38.51025781" lon="-6.60588342"><ele>792</ele><speed>6.40</speed><time>2019-02-23T14:48:16Z</time><pdop>4.5509996</pdop><geoidheight>0.00</geoidheight><course>292.9</course><type>1</type></trkpt>
      <trkpt lat="38.51029868" lon="-6.60602122"><ele>791</ele><speed>6.47</speed><time>2019-02-23T14:48:18Z</time><pdop>4.5509996</pdop><geoidheight>0.00</geoidheight><course>285.5</course><type>1</type></trkpt>
      <trkpt lat="38.51031726" lon="-6.60615697"><ele>791</ele><speed>5.88</speed><time>2019-02-23T14:48:20Z</time><pdop>4.5509996</pdop><geoidheight>0.00</geoidheight><course>284.0</course><type>1</type></trkpt>
      <trkpt lat="38.51034808" lon="-6.60628081"><ele>790</ele><speed>6.02</speed><time>2019-02-23T14:48:22Z</time><pdop>4.5509996</pdop><geoidheight>0.00</geoidheight><course>291.0</course><type>1</type></trkpt>
      <trkpt lat="38.51039189" lon="-6.6064061"><ele>789</ele><speed>6.22</speed><time>2019-02-23T14:48:24Z</time><pdop>4.5509996</pdop><geoidheight>0.00</geoidheight><course>285.7</course><type>1</type></trkpt>
      <trkpt lat="38.5104292" lon="-6.60656485"><ele>789</ele><speed>7.07</speed><time>2019-02-23T14:48:26Z</time><pdop>4.5509996</pdop><geoidheight>0.00</geoidheight><course>284.4</course><type>1</type></trkpt>
      <trkpt lat="38.51046114" lon="-6.60671304"><ele>789</ele><speed>5.90</speed><time>2019-02-23T14:48:28Z</time><pdop>4.5509996</pdop><geoidheight>0.00</geoidheight><course>279.9</course><type>1</type></trkpt>
      <trkpt lat="38.51047263" lon="-6.60685245"><ele>790</ele><speed>6.39</speed><time>2019-02-23T14:48:30Z</time><pdop>4.5509996</pdop><geoidheight>0.00</geoidheight><course>279.0</course><type>1</type></trkpt>
      <trkpt lat="38.51052091" lon="-6.60700652"><ele>790</ele><speed>6.78</speed><time>2019-02-23T14:48:32Z</time><pdop>6.068</pdop><geoidheight>0.00</geoidheight><course>291.2</course><type>1</type></trkpt>
      <trkpt lat="38.51053477" lon="-6.60715475"><ele>790</ele><speed>6.73</speed><time>2019-02-23T14:48:34Z</time><pdop>4.5509996</pdop><geoidheight>0.00</geoidheight><course>273.5</course><type>1</type></trkpt>
      <trkpt lat="38.51053116" lon="-6.60733916"><ele>789</ele><speed>7.94</speed><time>2019-02-23T14:48:36Z</time><pdop>4.5509996</pdop><geoidheight>0.00</geoidheight><course>273.7</course><type>1</type></trkpt>
      <trkpt lat="38.51053854" lon="-6.60743147"><ele>790</ele><speed>8.35</speed><time>2019-02-23T14:48:37Z</time><pdop>4.5509996</pdop><geoidheight>0.00</geoidheight><course>282.5</course><type>1</type></trkpt>
      <trkpt lat="38.51057704" lon="-6.60761052"><ele>791</ele><speed>6.89</speed><time>2019-02-23T14:48:39Z</time><pdop>4.5509996</pdop><geoidheight>0.00</geoidheight><course>284.5</course><type>1</type></trkpt>
      <trkpt lat="38.51058961" lon="-6.60773395"><ele>793</ele><speed>5.22</speed><time>2019-02-23T14:48:41Z</time><pdop>4.5509996</pdop><geoidheight>0.00</geoidheight><course>266.3</course><type>1</type></trkpt>
      <trkpt lat="38.51059159" lon="-6.60786726"><ele>794</ele><speed>6.15</speed><time>2019-02-23T14:48:43Z</time><pdop>4.5509996</pdop><geoidheight>0.00</geoidheight><course>275.9</course><type>1</type></trkpt>
      <trkpt lat="38.51062603" lon="-6.60801218"><ele>795</ele><speed>6.79</speed><time>2019-02-23T14:48:45Z</time><pdop>4.5509996</pdop><geoidheight>0.00</geoidheight><course>292.5</course><type>1</type></trkpt>
      <trkpt lat="38.51066577" lon="-6.60813915"><ele>798</ele><speed>5.87</speed><time>2019-02-23T14:48:47Z</time><pdop>4.5509996</pdop><geoidheight>0.00</geoidheight><course>298.5</course><type>1</type></trkpt>
      <trkpt lat="38.51070989" lon="-6.60823318"><ele>801</ele><speed>3.65</speed><time>2019-02-23T14:48:49Z</time><pdop>4.5509996</pdop><geoidheight>0.00</geoidheight><course>307.3</course><type>1</type></trkpt>
      <trkpt lat="38.51076964" lon="-6.60829313"><ele>805</ele><speed>2.22</speed><time>2019-02-23T14:48:52Z</time><pdop>4.5509996</pdop><geoidheight>0.00</geoidheight><course>345.7</course><type>1</type></trkpt>
      <trkpt lat="38.51083516" lon="-6.60819277"><ele>805</ele><speed>5.49</speed><time>2019-02-23T14:48:55Z</time><pdop>4.5509996</pdop><geoidheight>0.00</geoidheight><course>59.9</course><type>1</type></trkpt>
      <trkpt lat="38.51086309" lon="-6.6080408"><ele>806</ele><speed>7.75</speed><time>2019-02-23T14:48:57Z</time><pdop>4.5509996</pdop><geoidheight>0.00</geoidheight><course>87.4</course><type>1</type></trkpt>
      <trkpt lat="38.51086719" lon="-6.60792724"><ele>806</ele><speed>8.92</speed><time>2019-02-23T14:48:58Z</time><pdop>4.5509996</pdop><geoidheight>0.00</geoidheight><course>99.4</course><type>1</type></trkpt>
      <trkpt lat="38.51085504" lon="-6.60780782"><ele>806</ele><speed>9.90</speed><time>2019-02-23T14:48:59Z</time><pdop>6.068</pdop><geoidheight>0.00</geoidheight><course>110.0</course><type>1</type></trkpt>
      <trkpt lat="38.51082056" lon="-6.6076924"><ele>806</ele><speed>10.61</speed><time>2019-02-23T14:49:00Z</time><pdop>4.5509996</pdop><geoidheight>0.00</geoidheight><course>117.4</course><type>1</type></trkpt>
      <trkpt lat="38.5107663" lon="-6.6075758"><ele>807</ele><speed>11.48</speed><time>2019-02-23T14:49:01Z</time><pdop>4.5509996</pdop><geoidheight>0.00</geoidheight><course>122.7</course><type>1</type></trkpt>
      <trkpt lat="38.51070734" lon="-6.60745547"><ele>807</ele><speed>12.44</speed><time>2019-02-23T14:49:02Z</time><pdop>4.5509996</pdop><geoidheight>0.00</geoidheight><course>126.1</course><type>1</type></trkpt>
      <trkpt lat="38.51063842" lon="-6.60735511"><ele>808</ele><speed>12.42</speed><time>2019-02-23T14:49:03Z</time><pdop>4.5509996</pdop><geoidheight>0.00</geoidheight><course>129.2</course><type>1</type></trkpt>
      <trkpt lat="38.51056503" lon="-6.60725388"><ele>810</ele><speed>11.81</speed><time>2019-02-23T14:49:04Z</time><pdop>6.068</pdop><geoidheight>0.00</geoidheight><course>135.1</course><type>1</type></trkpt>
      <trkpt lat="38.51041224" lon="-6.60711377"><ele>813</ele><speed>10.74</speed><time>2019-02-23T14:49:06Z</time><pdop>6.068</pdop><geoidheight>0.00</geoidheight><course>137.1</course><type>1</type></trkpt>
      <trkpt lat="38.51028434" lon="-6.60694002"><ele>790</ele><speed>11.13</speed><time>2019-02-23T14:49:08Z</time><pdop>6.068</pdop><geoidheight>0.00</geoidheight><course>125.8</course><type>1</type></trkpt>
      <trkpt lat="38.51018655" lon="-6.60672291"><ele>785</ele><speed>10.00</speed><time>2019-02-23T14:49:10Z</time><pdop>6.068</pdop><geoidheight>0.00</geoidheight><course>113.1</course><type>1</type></trkpt>
      <trkpt lat="38.51013282" lon="-6.60651641"><ele>804</ele><speed>8.27</speed><time>2019-02-23T14:49:12Z</time><pdop>6.068</pdop><geoidheight>0.00</geoidheight><course>100.4</course><type>1</type></trkpt>
      <trkpt lat="38.51014593" lon="-6.6063266"><ele>807</ele><speed>7.77</speed><time>2019-02-23T14:49:14Z</time><pdop>6.068</pdop><geoidheight>0.00</geoidheight><course>70.9</course><type>1</type></trkpt>
      <trkpt lat="38.51023084" lon="-6.60620672"><ele>809</ele><speed>6.57</speed><time>2019-02-23T14:49:16Z</time><pdop>6.068</pdop><geoidheight>0.00</geoidheight><course>30.7</course><type>1</type></trkpt>
      <trkpt lat="38.5103609" lon="-6.60623099"><ele>814</ele><speed>3.53</speed><time>2019-02-23T14:49:20Z</time><pdop>6.068</pdop><geoidheight>0.00</geoidheight><course>305.0</course><type>1</type></trkpt>
      <trkpt lat="38.5103687" lon="-6.60637831"><ele>819</ele><speed>2.22</speed><time>2019-02-23T14:49:24Z</time><pdop>6.068</pdop><geoidheight>0.00</geoidheight><course>239.7</course><type>1</type></trkpt>
      <trkpt lat="38.51038841" lon="-6.60653351"><ele>813</ele><speed>3.76</speed><time>2019-02-23T14:49:28Z</time><pdop>6.068</pdop><geoidheight>0.00</geoidheight><course>287.6</course><type>1</type></trkpt>
      <trkpt lat="38.51040172" lon="-6.60668705"><ele>806</ele><speed>3.87</speed><time>2019-02-23T14:49:32Z</time><pdop>6.068</pdop><geoidheight>0.00</geoidheight><course>256.0</course><type>1</type></trkpt>
      <trkpt lat="38.51043318" lon="-6.60683193"><ele>825</ele><speed>1.26</speed><time>2019-02-23T14:49:37Z</time><pdop>6.068</pdop><geoidheight>0.00</geoidheight><course>313.0</course><type>1</type></trkpt>
      <trkpt lat="38.51045769" lon="-6.60700385"><ele>815</ele><speed>3.47</speed><time>2019-02-23T14:49:46Z</time><pdop>6.068</pdop><geoidheight>0.00</geoidheight><course>271.4</course><type>1</type></trkpt>
      <trkpt lat="38.51052417" lon="-6.60713397"><ele>820</ele><speed>3.10</speed><time>2019-02-23T14:49:52Z</time><pdop>6.068</pdop><geoidheight>0.00</geoidheight><course>320.9</course><type>1</type></trkpt>
      <trkpt lat="38.51065137" lon="-6.60716"><ele>810</ele><speed>3.30</speed><time>2019-02-23T14:49:57Z</time><pdop>7.585</pdop><geoidheight>0.00</geoidheight><course>349.8</course><type>1</type></trkpt>
      <trkpt lat="38.51077276" lon="-6.60716204"><ele>831</ele><speed>2.81</speed><time>2019-02-23T14:50:01Z</time><pdop>6.068</pdop><geoidheight>0.00</geoidheight><course>19.9</course><type>1</type></trkpt>
      <trkpt lat="38.51090769" lon="-6.60709872"><ele>817</ele><speed>3.95</speed><time>2019-02-23T14:50:06Z</time><pdop>6.068</pdop><geoidheight>0.00</geoidheight><course>26.2</course><type>1</type></trkpt>
      <trkpt lat="38.51101902" lon="-6.60710505"><ele>844</ele><speed>4.80</speed><time>2019-02-23T14:50:12Z</time><pdop>6.068</pdop><geoidheight>0.00</geoidheight><course>311.0</course><type>1</type></trkpt>
      <trkpt lat="38.51106701" lon="-6.60720393"><ele>849</ele><speed>2.62</speed><time>2019-02-23T14:50:16Z</time><pdop>4.5509996</pdop><geoidheight>0.00</geoidheight><course>308.9</course><type>1</type></trkpt>
      <trkpt lat="38.51112446" lon="-6.60730971"><ele>850</ele><speed>4.45</speed><time>2019-02-23T14:50:19Z</time><pdop>6.068</pdop><geoidheight>0.00</geoidheight><course>296.1</course><type>1</type></trkpt>
      <trkpt lat="38.51114452" lon="-6.60711433"><ele>854</ele><speed>8.15</speed><time>2019-02-23T14:50:26Z</time><pdop>6.068</pdop><geoidheight>0.00</geoidheight><course>111.6</course><type>1</type></trkpt>
      <trkpt lat="38.51107174" lon="-6.60695123"><ele>854</ele><speed>8.47</speed><time>2019-02-23T14:50:28Z</time><pdop>6.068</pdop><geoidheight>0.00</geoidheight><course>121.9</course><type>1</type></trkpt>
      <trkpt lat="38.5109928" lon="-6.6067715"><ele>855</ele><speed>9.57</speed><time>2019-02-23T14:50:30Z</time><pdop>6.068</pdop><geoidheight>0.00</geoidheight><course>123.8</course><type>1</type></trkpt>
      <trkpt lat="38.51087453" lon="-6.60658817"><ele>855</ele><speed>10.67</speed><time>2019-02-23T14:50:32Z</time><pdop>6.068</pdop><geoidheight>0.00</geoidheight><course>130.1</course><type>1</type></trkpt>
      <trkpt lat="38.51077483" lon="-6.60641651"><ele>855</ele><speed>8.32</speed><time>2019-02-23T14:50:34Z</time><pdop>6.068</pdop><geoidheight>0.00</geoidheight><course>118.1</course><type>1</type></trkpt>
      <trkpt lat="38.51077034" lon="-6.6062665"><ele>850</ele><speed>5.53</speed><time>2019-02-23T14:50:36Z</time><pdop>4.5509996</pdop><geoidheight>0.00</geoidheight><course>69.6</course><type>1</type></trkpt>
      <trkpt lat="38.51084718" lon="-6.60617227"><ele>851</ele><speed>2.78</speed><time>2019-02-23T14:50:39Z</time><pdop>6.068</pdop><geoidheight>0.00</geoidheight><course>32.3</course><type>1</type></trkpt>
      <trkpt lat="38.51096832" lon="-6.60614536"><ele>847</ele><speed>4.03</speed><time>2019-02-23T14:50:43Z</time><pdop>6.068</pdop><geoidheight>0.00</geoidheight><course>2.0</course><type>1</type></trkpt>
      <trkpt lat="38.51108485" lon="-6.606139"><ele>835</ele><speed>1.86</speed><time>2019-02-23T14:50:47Z</time><pdop>6.068</pdop><geoidheight>0.00</geoidheight><course>357.6</course><type>1</type></trkpt>
      <trkpt lat="38.51120324" lon="-6.60613467"><ele>837</ele><speed>3.39</speed><time>2019-02-23T14:50:52Z</time><pdop>6.068</pdop><geoidheight>0.00</geoidheight><course>8.0</course><type>1</type></trkpt>
      <trkpt lat="38.5113137" lon="-6.60611439"><ele>838</ele><speed>3.47</speed><time>2019-02-23T14:50:56Z</time><pdop>6.068</pdop><geoidheight>0.00</geoidheight><course>15.5</course><type>1</type></trkpt>
      <trkpt lat="38.51142402" lon="-6.60609829"><ele>842</ele><speed>4.04</speed><time>2019-02-23T14:50:59Z</time><pdop>6.068</pdop><geoidheight>0.00</geoidheight><course>5.5</course><type>1</type></trkpt>
      <trkpt lat="38.51152578" lon="-6.60604806"><ele>846</ele><speed>3.65</speed><time>2019-02-23T14:51:03Z</time><pdop>6.068</pdop><geoidheight>0.00</geoidheight><course>50.6</course><type>1</type></trkpt>
      <trkpt lat="38.51160193" lon="-6.60593272"><ele>849</ele><speed>3.51</speed><time>2019-02-23T14:51:06Z</time><pdop>6.068</pdop><geoidheight>0.00</geoidheight><course>51.4</course><type>1</type></trkpt>
      <trkpt lat="38.51173214" lon="-6.60593222"><ele>851</ele><speed>3.36</speed><time>2019-02-23T14:51:11Z</time><pdop>6.068</pdop><geoidheight>0.00</geoidheight><course>328.6</course><type>1</type></trkpt>
      <trkpt lat="38.51177479" lon="-6.60605979"><ele>857</ele><speed>4.24</speed><time>2019-02-23T14:51:14Z</time><pdop>6.068</pdop><geoidheight>0.00</geoidheight><course>283.3</course><type>1</type></trkpt>
      <trkpt lat="38.51179937" lon="-6.60626448"><ele>848</ele><speed>6.05</speed><time>2019-02-23T14:51:17Z</time><pdop>6.068</pdop><geoidheight>0.00</geoidheight><course>261.5</course><type>1</type></trkpt>
      <trkpt lat="38.51175057" lon="-6.60641008"><ele>851</ele><speed>6.96</speed><time>2019-02-23T14:51:19Z</time><pdop>6.068</pdop><geoidheight>0.00</geoidheight><course>246.7</course><type>1</type></trkpt>
      <trkpt lat="38.51166316" lon="-6.60656538"><ele>857</ele><speed>7.73</speed><time>2019-02-23T14:51:21Z</time><pdop>4.5509996</pdop><geoidheight>0.00</geoidheight><course>228.6</course><type>1</type></trkpt>
      <trkpt lat="38.51153066" lon="-6.60668596"><ele>860</ele><speed>9.46</speed><time>2019-02-23T14:51:23Z</time><pdop>6.068</pdop><geoidheight>0.00</geoidheight><course>209.5</course><type>1</type></trkpt>
      <trkpt lat="38.51134021" lon="-6.60676279"><ele>862</ele><speed>11.66</speed><time>2019-02-23T14:51:25Z</time><pdop>6.068</pdop><geoidheight>0.00</geoidheight><course>190.0</course><type>1</type></trkpt>
      <trkpt lat="38.5111161" lon="-6.60672984"><ele>864</ele><speed>12.20</speed><time>2019-02-23T14:51:27Z</time><pdop>6.068</pdop><geoidheight>0.00</geoidheight><course>162.6</course><type>1</type></trkpt>
      <trkpt lat="38.51100702" lon="-6.6066633"><ele>865</ele><speed>12.55</speed><time>2019-02-23T14:51:28Z</time><pdop>6.068</pdop><geoidheight>0.00</geoidheight><course>149.7</course><type>1</type></trkpt>
      <trkpt lat="38.51086562" lon="-6.60645686"><ele>864</ele><speed>11.97</speed><time>2019-02-23T14:51:30Z</time><pdop>6.068</pdop><geoidheight>0.00</geoidheight><course>126.3</course><type>1</type></trkpt>
      <trkpt lat="38.51081313" lon="-6.60633434"><ele>865</ele><speed>10.82</speed><time>2019-02-23T14:51:31Z</time><pdop>6.068</pdop><geoidheight>0.00</geoidheight><course>115.2</course><type>1</type></trkpt>
      <trkpt lat="38.51077232" lon="-6.60614283"><ele>865</ele><speed>7.30</speed><time>2019-02-23T14:51:33Z</time><pdop>6.068</pdop><geoidheight>0.00</geoidheight><course>87.7</course><type>1</type></trkpt>
      <trkpt lat="38.51080409" lon="-6.60597843"><ele>865</ele><speed>6.35</speed><time>2019-02-23T14:51:35Z</time><pdop>6.068</pdop><geoidheight>0.00</geoidheight><course>65.2</course><type>1</type></trkpt>
      <trkpt lat="38.5108519" lon="-6.60581419"><ele>853</ele><speed>4.50</speed><time>2019-02-23T14:51:38Z</time><pdop>6.068</pdop><geoidheight>0.00</geoidheight><course>59.5</course><type>1</type></trkpt>
      <trkpt lat="38.51091802" lon="-6.60569469"><ele>856</ele><speed>5.39</speed><time>2019-02-23T14:51:40Z</time><pdop>6.068</pdop><geoidheight>0.00</geoidheight><course>55.5</course><type>1</type></trkpt>
      <trkpt lat="38.51097483" lon="-6.6055439"><ele>851</ele><speed>4.66</speed><time>2019-02-23T14:51:43Z</time><pdop>6.068</pdop><geoidheight>0.00</geoidheight><course>68.1</course><type>1</type></trkpt>
      <trkpt lat="38.5110436" lon="-6.60538831"><ele>858</ele><speed>5.59</speed><time>2019-02-23T14:51:46Z</time><pdop>7.585</pdop><geoidheight>0.00</geoidheight><course>61.9</course><type>1</type></trkpt>
      <trkpt lat="38.51111721" lon="-6.60523769"><ele>848</ele><speed>3.65</speed><time>2019-02-23T14:51:49Z</time><pdop>7.585</pdop><geoidheight>0.00</geoidheight><course>36.6</course><type>1</type></trkpt>
      <trkpt lat="38.51123787" lon="-6.60528065"><ele>868</ele><speed>3.27</speed><time>2019-02-23T14:51:53Z</time><pdop>6.068</pdop><geoidheight>0.00</geoidheight><course>310.3</course><type>1</type></trkpt>
      <trkpt lat="38.51131779" lon="-6.60539044"><ele>855</ele><speed>4.73</speed><time>2019-02-23T14:51:56Z</time><pdop>6.068</pdop><geoidheight>0.00</geoidheight><course>297.1</course><type>1</type></trkpt>
      <trkpt lat="38.51136448" lon="-6.60555211"><ele>849</ele><speed>3.76</speed><time>2019-02-23T14:51:59Z</time><pdop>6.068</pdop><geoidheight>0.00</geoidheight><course>287.7</course><type>1</type></trkpt>
      <trkpt lat="38.51143186" lon="-6.60570675"><ele>861</ele><speed>4.83</speed><time>2019-02-23T14:52:03Z</time><pdop>6.068</pdop><geoidheight>0.00</geoidheight><course>316.7</course><type>1</type></trkpt>
      <trkpt lat="38.51151757" lon="-6.60582168"><ele>859</ele><speed>4.13</speed><time>2019-02-23T14:52:06Z</time><pdop>6.068</pdop><geoidheight>0.00</geoidheight><course>315.8</course><type>1</type></trkpt>
      <trkpt lat="38.51159579" lon="-6.60592607"><ele>862</ele><speed>4.34</speed><time>2019-02-23T14:52:09Z</time><pdop>6.068</pdop><geoidheight>0.00</geoidheight><course>323.2</course><type>1</type></trkpt>
      <trkpt lat="38.51167776" lon="-6.60601909"><ele>866</ele><speed>3.71</speed><time>2019-02-23T14:52:12Z</time><pdop>6.068</pdop><geoidheight>0.00</geoidheight><course>325.7</course><type>1</type></trkpt>
      <trkpt lat="38.51179809" lon="-6.60596911"><ele>882</ele><speed>4.82</speed><time>2019-02-23T14:52:17Z</time><pdop>6.068</pdop><geoidheight>0.00</geoidheight><course>76.5</course><type>1</type></trkpt>
      <trkpt lat="38.5117887" lon="-6.60578218"><ele>882</ele><speed>7.01</speed><time>2019-02-23T14:52:19Z</time><pdop>4.5509996</pdop><geoidheight>0.00</geoidheight><course>84.6</course><type>1</type></trkpt>
      <trkpt lat="38.51177181" lon="-6.60560098"><ele>883</ele><speed>8.64</speed><time>2019-02-23T14:52:21Z</time><pdop>6.068</pdop><geoidheight>0.00</geoidheight><course>99.0</course><type>1</type></trkpt>
      <trkpt lat="38.51172582" lon="-6.60540801"><ele>884</ele><speed>8.69</speed><time>2019-02-23T14:52:23Z</time><pdop>6.068</pdop><geoidheight>0.00</geoidheight><course>102.8</course><type>1</type></trkpt>
      <trkpt lat="38.51172679" lon="-6.60519523"><ele>884</ele><speed>7.29</speed><time>2019-02-23T14:52:25Z</time><pdop>6.068</pdop><geoidheight>0.00</geoidheight><course>81.3</course><type>1</type></trkpt>
      <trkpt lat="38.51176949" lon="-6.60504814"><ele>816</ele><speed>5.93</speed><time>2019-02-23T14:52:27Z</time><pdop>6.068</pdop><geoidheight>0.00</geoidheight><course>59.9</course><type>1</type></trkpt>
      <trkpt lat="38.51189405" lon="-6.60501518"><ele>863</ele><speed>3.43</speed><time>2019-02-23T14:52:31Z</time><pdop>6.068</pdop><geoidheight>0.00</geoidheight><course>338.0</course><type>1</type></trkpt>
      <trkpt lat="38.51199497" lon="-6.60514435"><ele>880</ele><speed>4.38</speed><time>2019-02-23T14:52:35Z</time><pdop>6.068</pdop><geoidheight>0.00</geoidheight><course>311.2</course><type>1</type></trkpt>
      <trkpt lat="38.51206033" lon="-6.60530039"><ele>887</ele><speed>4.96</speed><time>2019-02-23T14:52:38Z</time><pdop>6.068</pdop><geoidheight>0.00</geoidheight><course>292.9</course><type>1</type></trkpt>
      <trkpt lat="38.51209023" lon="-6.60546257"><ele>845</ele><speed>4.91</speed><time>2019-02-23T14:52:41Z</time><pdop>6.068</pdop><geoidheight>0.00</geoidheight><course>278.9</course><type>1</type></trkpt>
      <trkpt lat="38.51210118" lon="-6.6056344"><ele>878</ele><speed>4.79</speed><time>2019-02-23T14:52:44Z</time><pdop>6.068</pdop><geoidheight>0.00</geoidheight><course>273.3</course><type>1</type></trkpt>
      <trkpt lat="38.51212809" lon="-6.60579456"><ele>890</ele><speed>4.22</speed><time>2019-02-23T14:52:47Z</time><pdop>4.5509996</pdop><geoidheight>0.00</geoidheight><course>297.5</course><type>1</type></trkpt>
      <trkpt lat="38.51219063" lon="-6.60584389"><ele>898</ele><speed>2.73</speed><time>2019-02-23T14:52:49Z</time><pdop>4.5509996</pdop><geoidheight>0.00</geoidheight><course>342.0</course><type>1</type></trkpt>
      <trkpt lat="38.51227132" lon="-6.60573272"><ele>900</ele><speed>6.17</speed><time>2019-02-23T14:52:52Z</time><pdop>4.5509996</pdop><geoidheight>0.00</geoidheight><course>77.6</course><type>1</type></trkpt>
      <trkpt lat="38.51225728" lon="-6.60555932"><ele>900</ele><speed>8.20</speed><time>2019-02-23T14:52:54Z</time><pdop>6.068</pdop><geoidheight>0.00</geoidheight><course>106.9</course><type>1</type></trkpt>
      <trkpt lat="38.512172" lon="-6.60536024"><ele>898</ele><speed>10.16</speed><time>2019-02-23T14:52:56Z</time><pdop>4.5509996</pdop><geoidheight>0.00</geoidheight><course>126.5</course><type>1</type></trkpt>
      <trkpt lat="38.51209697" lon="-6.60526563"><ele>898</ele><speed>11.29</speed><time>2019-02-23T14:52:57Z</time><pdop>6.068</pdop><geoidheight>0.00</geoidheight><course>134.9</course><type>1</type></trkpt>
      <trkpt lat="38.51200589" lon="-6.60519047"><ele>899</ele><speed>12.68</speed><time>2019-02-23T14:52:58Z</time><pdop>6.068</pdop><geoidheight>0.00</geoidheight><course>146.6</course><type>1</type></trkpt>
      <trkpt lat="38.51188642" lon="-6.60512316"><ele>900</ele><speed>13.75</speed><time>2019-02-23T14:52:59Z</time><pdop>6.068</pdop><geoidheight>0.00</geoidheight><course>159.6</course><type>1</type></trkpt>
      <trkpt lat="38.51176491" lon="-6.60510987"><ele>900</ele><speed>14.24</speed><time>2019-02-23T14:53:00Z</time><pdop>6.068</pdop><geoidheight>0.00</geoidheight><course>173.4</course><type>1</type></trkpt>
      <trkpt lat="38.51163678" lon="-6.60512004"><ele>900</ele><speed>13.58</speed><time>2019-02-23T14:53:01Z</time><pdop>6.068</pdop><geoidheight>0.00</geoidheight><course>187.0</course><type>1</type></trkpt>
      <trkpt lat="38.51152455" lon="-6.60516427"><ele>901</ele><speed>12.76</speed><time>2019-02-23T14:53:02Z</time><pdop>4.5509996</pdop><geoidheight>0.00</geoidheight><course>202.1</course><type>1</type></trkpt>
      <trkpt lat="38.51143399" lon="-6.6052259"><ele>901</ele><speed>12.02</speed><time>2019-02-23T14:53:03Z</time><pdop>4.5509996</pdop><geoidheight>0.00</geoidheight><course>215.5</course><type>1</type></trkpt>
      <trkpt lat="38.51135339" lon="-6.60531092"><ele>901</ele><speed>11.33</speed><time>2019-02-23T14:53:04Z</time><pdop>4.5509996</pdop><geoidheight>0.00</geoidheight><course>225.3</course><type>1</type></trkpt>
      <trkpt lat="38.51130604" lon="-6.60541017"><ele>901</ele><speed>9.71</speed><time>2019-02-23T14:53:05Z</time><pdop>4.5509996</pdop><geoidheight>0.00</geoidheight><course>235.8</course><type>1</type></trkpt>
      <trkpt lat="38.51126551" lon="-6.6055758"><ele>901</ele><speed>5.74</speed><time>2019-02-23T14:53:07Z</time><pdop>6.068</pdop><geoidheight>0.00</geoidheight><course>259.1</course><type>1</type></trkpt>
      <trkpt lat="38.51130475" lon="-6.60572929"><ele>839</ele><speed>4.28</speed><time>2019-02-23T14:53:10Z</time><pdop>6.068</pdop><geoidheight>0.00</geoidheight><course>292.0</course><type>1</type></trkpt>
      <trkpt lat="38.51137558" lon="-6.60583994"><ele>876</ele><speed>3.54</speed><time>2019-02-23T14:53:14Z</time><pdop>6.068</pdop><geoidheight>0.00</geoidheight><course>320.9</course><type>1</type></trkpt>
      <trkpt lat="38.51148908" lon="-6.60594431"><ele>835</ele><speed>3.94</speed><time>2019-02-23T14:53:18Z</time><pdop>6.068</pdop><geoidheight>0.00</geoidheight><course>327.0</course><type>1</type></trkpt>
      <trkpt lat="38.51159301" lon="-6.60602354"><ele>814</ele><speed>3.70</speed><time>2019-02-23T14:53:21Z</time><pdop>6.068</pdop><geoidheight>0.00</geoidheight><course>326.5</course><type>1</type></trkpt>
      <trkpt lat="38.51168897" lon="-6.60610993"><ele>844</ele><speed>4.67</speed><time>2019-02-23T14:53:24Z</time><pdop>6.068</pdop><geoidheight>0.00</geoidheight><course>308.8</course><type>1</type></trkpt>
      <trkpt lat="38.51177459" lon="-6.6062615"><ele>810</ele><speed>5.11</speed><time>2019-02-23T14:53:27Z</time><pdop>6.068</pdop><geoidheight>0.00</geoidheight><course>300.8</course><type>1</type></trkpt>
      <trkpt lat="38.51181682" lon="-6.60642664"><ele>831</ele><speed>4.83</speed><time>2019-02-23T14:53:30Z</time><pdop>6.068</pdop><geoidheight>0.00</geoidheight><course>272.0</course><type>1</type></trkpt>
      <trkpt lat="38.51180246" lon="-6.60659559"><ele>860</ele><speed>5.10</speed><time>2019-02-23T14:53:33Z</time><pdop>6.068</pdop><geoidheight>0.00</geoidheight><course>274.5</course><type>1</type></trkpt>
      <trkpt lat="38.51177064" lon="-6.60678629"><ele>869</ele><speed>6.52</speed><time>2019-02-23T14:53:36Z</time><pdop>6.068</pdop><geoidheight>0.00</geoidheight><course>253.4</course><type>1</type></trkpt>
      <trkpt lat="38.51165942" lon="-6.60693942"><ele>872</ele><speed>9.07</speed><time>2019-02-23T14:53:38Z</time><pdop>6.068</pdop><geoidheight>0.00</geoidheight><course>224.2</course><type>1</type></trkpt>
      <trkpt lat="38.51149447" lon="-6.60706528"><ele>873</ele><speed>10.09</speed><time>2019-02-23T14:53:40Z</time><pdop>4.5509996</pdop><geoidheight>0.00</geoidheight><course>208.8</course><type>1</type></trkpt>
      <trkpt lat="38.51140256" lon="-6.60711531"><ele>875</ele><speed>10.56</speed><time>2019-02-23T14:53:41Z</time><pdop>4.5509996</pdop><geoidheight>0.00</geoidheight><course>205.3</course><type>1</type></trkpt>
      <trkpt lat="38.51130625" lon="-6.60717203"><ele>874</ele><speed>11.27</speed><time>2019-02-23T14:53:42Z</time><pdop>4.5509996</pdop><geoidheight>0.00</geoidheight><course>205.9</course><type>1</type></trkpt>
      <trkpt lat="38.51121786" lon="-6.60724431"><ele>873</ele><speed>11.25</speed><time>2019-02-23T14:53:43Z</time><pdop>4.5509996</pdop><geoidheight>0.00</geoidheight><course>212.0</course><type>1</type></trkpt>
      <trkpt lat="38.51114026" lon="-6.60732336"><ele>871</ele><speed>10.01</speed><time>2019-02-23T14:53:44Z</time><pdop>4.5509996</pdop><geoidheight>0.00</geoidheight><course>224.0</course><type>1</type></trkpt>
      <trkpt lat="38.51108429" lon="-6.60739864"><ele>870</ele><speed>8.35</speed><time>2019-02-23T14:53:45Z</time><pdop>4.5509996</pdop><geoidheight>0.00</geoidheight><course>229.9</course><type>1</type></trkpt>
      <trkpt lat="38.51100936" lon="-6.60753381"><ele>867</ele><speed>6.59</speed><time>2019-02-23T14:53:47Z</time><pdop>4.5509996</pdop><geoidheight>0.00</geoidheight><course>239.6</course><type>1</type></trkpt>
      <trkpt lat="38.51096426" lon="-6.60768782"><ele>863</ele><speed>6.53</speed><time>2019-02-23T14:53:49Z</time><pdop>4.5509996</pdop><geoidheight>0.00</geoidheight><course>257.9</course><type>1</type></trkpt>
      <trkpt lat="38.51098753" lon="-6.60780525"><ele>856</ele><speed>2.39</speed><time>2019-02-23T14:53:52Z</time><pdop>4.5509996</pdop><geoidheight>0.00</geoidheight><course>331.9</course><type>1</type></trkpt>
      <trkpt lat="38.51106829" lon="-6.60776172"><ele>850</ele><speed>4.04</speed><time>2019-02-23T14:53:55Z</time><pdop>4.5509996</pdop><geoidheight>0.00</geoidheight><course>39.8</course><type>1</type></trkpt>
      <trkpt lat="38.51112849" lon="-6.60767677"><ele>846</ele><speed>4.12</speed><time>2019-02-23T14:53:57Z</time><pdop>4.5509996</pdop><geoidheight>0.00</geoidheight><course>43.4</course><type>1</type></trkpt>
      <trkpt lat="38.51122246" lon="-6.60760826"><ele>842</ele><speed>4.59</speed><time>2019-02-23T14:54:00Z</time><pdop>4.5509996</pdop><geoidheight>0.00</geoidheight><course>35.1</course><type>1</type></trkpt>
      <trkpt lat="38.51130093" lon="-6.60752719"><ele>840</ele><speed>6.82</speed><time>2019-02-23T14:54:02Z</time><pdop>4.5509996</pdop><geoidheight>0.00</geoidheight><course>36.9</course><type>1</type></trkpt>
      <trkpt lat="38.51138247" lon="-6.60743004"><ele>843</ele><speed>4.46</speed><time>2019-02-23T14:54:04Z</time><pdop>4.5509996</pdop><geoidheight>0.00</geoidheight><course>45.6</course><type>1</type></trkpt>
      <trkpt lat="38.51143504" lon="-6.60734302"><ele>843</ele><speed>2.73</speed><time>2019-02-23T14:54:07Z</time><pdop>4.5509996</pdop><geoidheight>0.00</geoidheight><course>46.6</course><type>1</type></trkpt>
      <trkpt lat="38.51155735" lon="-6.60726717"><ele>840</ele><speed>5.29</speed><time>2019-02-23T14:54:10Z</time><pdop>6.068</pdop><geoidheight>0.00</geoidheight><course>12.1</course><type>1</type></trkpt>
      <trkpt lat="38.51167253" lon="-6.60731206"><ele>837</ele><speed>4.67</speed><time>2019-02-23T14:54:13Z</time><pdop>6.068</pdop><geoidheight>0.00</geoidheight><course>315.8</course><type>1</type></trkpt>
      <trkpt lat="38.51173556" lon="-6.60742879"><ele>835</ele><speed>5.17</speed><time>2019-02-23T14:54:15Z</time><pdop>6.068</pdop><geoidheight>0.00</geoidheight><course>294.2</course><type>1</type></trkpt>
      <trkpt lat="38.51173893" lon="-6.60765374"><ele>833</ele><speed>7.33</speed><time>2019-02-23T14:54:18Z</time><pdop>6.068</pdop><geoidheight>0.00</geoidheight><course>262.6</course><type>1</type></trkpt>
      <trkpt lat="38.5117034" lon="-6.60782084"><ele>831</ele><speed>7.56</speed><time>2019-02-23T14:54:20Z</time><pdop>6.068</pdop><geoidheight>0.00</geoidheight><course>256.2</course><type>1</type></trkpt>
      <trkpt lat="38.5116648" lon="-6.607992"><ele>827</ele><speed>6.72</speed><time>2019-02-23T14:54:22Z</time><pdop>6.068</pdop><geoidheight>0.00</geoidheight><course>256.3</course><type>1</type></trkpt>
      <trkpt lat="38.51162031" lon="-6.60814398"><ele>825</ele><speed>7.89</speed><time>2019-02-23T14:54:24Z</time><pdop>6.068</pdop><geoidheight>0.00</geoidheight><course>249.7</course><type>1</type></trkpt>
      <trkpt lat="38.51155855" lon="-6.6083132"><ele>821</ele><speed>8.11</speed><time>2019-02-23T14:54:26Z</time><pdop>6.068</pdop><geoidheight>0.00</geoidheight><course>242.8</course><type>1</type></trkpt>
      <trkpt lat="38.51147952" lon="-6.60847494"><ele>818</ele><speed>7.75</speed><time>2019-02-23T14:54:28Z</time><pdop>4.5509996</pdop><geoidheight>0.00</geoidheight><course>249.0</course><type>1</type></trkpt>
      <trkpt lat="38.51143234" lon="-6.60864527"><ele>815</ele><speed>7.89</speed><time>2019-02-23T14:54:30Z</time><pdop>4.5509996</pdop><geoidheight>0.00</geoidheight><course>253.3</course><type>1</type></trkpt>
      <trkpt lat="38.51141431" lon="-6.60873858"><ele>814</ele><speed>8.15</speed><time>2019-02-23T14:54:31Z</time><pdop>4.5509996</pdop><geoidheight>0.00</geoidheight><course>257.1</course><type>1</type></trkpt>
      <trkpt lat="38.51140558" lon="-6.60893052"><ele>810</ele><speed>7.94</speed><time>2019-02-23T14:54:33Z</time><pdop>4.5509996</pdop><geoidheight>0.00</geoidheight><course>265.0</course><type>1</type></trkpt>
      <trkpt lat="38.51140601" lon="-6.60908574"><ele>807</ele><speed>7.12</speed><time>2019-02-23T14:54:35Z</time><pdop>4.5509996</pdop><geoidheight>0.00</geoidheight><course>260.8</course><type>1</type></trkpt>
      <trkpt lat="38.51138822" lon="-6.60921866"><ele>805</ele><speed>5.99</speed><time>2019-02-23T14:54:37Z</time><pdop>4.5509996</pdop><geoidheight>0.00</geoidheight><course>267.1</course><type>1</type></trkpt>
      <trkpt lat="38.51140929" lon="-6.60936658"><ele>802</ele><speed>6.40</speed><time>2019-02-23T14:54:39Z</time><pdop>4.5509996</pdop><geoidheight>0.00</geoidheight><course>286.0</course><type>1</type></trkpt>
      <trkpt lat="38.51142982" lon="-6.60949197"><ele>801</ele><speed>5.93</speed><time>2019-02-23T14:54:41Z</time><pdop>4.5509996</pdop><geoidheight>0.00</geoidheight><course>272.2</course><type>1</type></trkpt>
      <trkpt lat="38.51143858" lon="-6.6096142"><ele>800</ele><speed>5.57</speed><time>2019-02-23T14:54:43Z</time><pdop>4.5509996</pdop><geoidheight>0.00</geoidheight><course>271.5</course><type>1</type></trkpt>
      <trkpt lat="38.51145273" lon="-6.60974297"><ele>797</ele><speed>5.93</speed><time>2019-02-23T14:54:45Z</time><pdop>4.5509996</pdop><geoidheight>0.00</geoidheight><course>276.8</course><type>1</type></trkpt>
      <trkpt lat="38.51147528" lon="-6.60987794"><ele>795</ele><speed>6.05</speed><time>2019-02-23T14:54:47Z</time><pdop>4.5509996</pdop><geoidheight>0.00</geoidheight><course>276.9</course><type>1</type></trkpt>
      <trkpt lat="38.51150024" lon="-6.60999841"><ele>793</ele><speed>6.43</speed><time>2019-02-23T14:54:49Z</time><pdop>4.5509996</pdop><geoidheight>0.00</geoidheight><course>279.0</course><type>1</type></trkpt>
      <trkpt lat="38.51152336" lon="-6.6101524"><ele>792</ele><speed>6.92</speed><time>2019-02-23T14:54:51Z</time><pdop>4.5509996</pdop><geoidheight>0.00</geoidheight><course>278.1</course><type>1</type></trkpt>
      <trkpt lat="38.51154889" lon="-6.61032324"><ele>791</ele><speed>6.60</speed><time>2019-02-23T14:54:53Z</time><pdop>6.068</pdop><geoidheight>0.00</geoidheight><course>274.7</course><type>1</type></trkpt>
      <trkpt lat="38.51156097" lon="-6.61046789"><ele>790</ele><speed>5.42</speed><time>2019-02-23T14:54:55Z</time><pdop>6.068</pdop><geoidheight>0.00</geoidheight><course>273.9</course><type>1</type></trkpt>
      <trkpt lat="38.51159249" lon="-6.61064935"><ele>790</ele><speed>6.28</speed><time>2019-02-23T14:54:58Z</time><pdop>6.068</pdop><geoidheight>0.00</geoidheight><course>282.6</course><type>1</type></trkpt>
      <trkpt lat="38.51161716" lon="-6.61083747"><ele>792</ele><speed>5.00</speed><time>2019-02-23T14:55:01Z</time><pdop>6.068</pdop><geoidheight>0.00</geoidheight><course>286.0</course><type>1</type></trkpt>
      <trkpt lat="38.51166697" lon="-6.61099557"><ele>792</ele><speed>4.63</speed><time>2019-02-23T14:55:04Z</time><pdop>6.068</pdop><geoidheight>0.00</geoidheight><course>305.9</course><type>1</type></trkpt>
      <trkpt lat="38.51175229" lon="-6.61109329"><ele>791</ele><speed>3.55</speed><time>2019-02-23T14:55:08Z</time><pdop>4.5509996</pdop><geoidheight>0.00</geoidheight><course>333.9</course><type>1</type></trkpt>
      <trkpt lat="38.51187272" lon="-6.61109749"><ele>790</ele><speed>5.54</speed><time>2019-02-23T14:55:11Z</time><pdop>6.068</pdop><geoidheight>0.00</geoidheight><course>22.7</course><type>1</type></trkpt>
      <trkpt lat="38.51196559" lon="-6.6109997"><ele>789</ele><speed>6.50</speed><time>2019-02-23T14:55:13Z</time><pdop>6.068</pdop><geoidheight>0.00</geoidheight><course>59.1</course><type>1</type></trkpt>
      <trkpt lat="38.51199607" lon="-6.61085304"><ele>799</ele><speed>7.39</speed><time>2019-02-23T14:55:15Z</time><pdop>6.068</pdop><geoidheight>0.00</geoidheight><course>89.1</course><type>1</type></trkpt>
      <trkpt lat="38.51197641" lon="-6.61067326"><ele>792</ele><speed>7.93</speed><time>2019-02-23T14:55:17Z</time><pdop>6.068</pdop><geoidheight>0.00</geoidheight><course>108.4</course><type>1</type></trkpt>
      <trkpt lat="38.51189681" lon="-6.61051455"><ele>791</ele><speed>8.55</speed><time>2019-02-23T14:55:19Z</time><pdop>4.5509996</pdop><geoidheight>0.00</geoidheight><course>122.3</course><type>1</type></trkpt>
      <trkpt lat="38.51184392" lon="-6.61042304"><ele>790</ele><speed>9.56</speed><time>2019-02-23T14:55:20Z</time><pdop>4.5509996</pdop><geoidheight>0.00</geoidheight><course>125.7</course><type>1</type></trkpt>
      <trkpt lat="38.51178572" lon="-6.61032293"><ele>790</ele><speed>10.76</speed><time>2019-02-23T14:55:21Z</time><pdop>4.5509996</pdop><geoidheight>0.00</geoidheight><course>127.2</course><type>1</type></trkpt>
      <trkpt lat="38.51172811" lon="-6.61021148"><ele>790</ele><speed>11.13</speed><time>2019-02-23T14:55:22Z</time><pdop>4.5509996</pdop><geoidheight>0.00</geoidheight><course>127.1</course><type>1</type></trkpt>
      <trkpt lat="38.51166839" lon="-6.6101064"><ele>790</ele><speed>10.86</speed><time>2019-02-23T14:55:23Z</time><pdop>4.5509996</pdop><geoidheight>0.00</geoidheight><course>127.8</course><type>1</type></trkpt>
      <trkpt lat="38.51161112" lon="-6.61001804"><ele>790</ele><speed>10.13</speed><time>2019-02-23T14:55:24Z</time><pdop>4.5509996</pdop><geoidheight>0.00</geoidheight><course>128.6</course><type>1</type></trkpt>
      <trkpt lat="38.51155932" lon="-6.60992224"><ele>790</ele><speed>9.87</speed><time>2019-02-23T14:55:25Z</time><pdop>4.5509996</pdop><geoidheight>0.00</geoidheight><course>129.7</course><type>1</type></trkpt>
      <trkpt lat="38.51149796" lon="-6.60982922"><ele>790</ele><speed>9.98</speed><time>2019-02-23T14:55:26Z</time><pdop>4.5509996</pdop><geoidheight>0.00</geoidheight><course>124.4</course><type>1</type></trkpt>
      <trkpt lat="38.51144647" lon="-6.60973066"><ele>790</ele><speed>10.28</speed><time>2019-02-23T14:55:27Z</time><pdop>4.5509996</pdop><geoidheight>0.00</geoidheight><course>122.6</course><type>1</type></trkpt>
      <trkpt lat="38.51137575" lon="-6.60964901"><ele>789</ele><speed>10.31</speed><time>2019-02-23T14:55:28Z</time><pdop>4.5509996</pdop><geoidheight>0.00</geoidheight><course>125.7</course><type>1</type></trkpt>
      <trkpt lat="38.51131413" lon="-6.60955933"><ele>789</ele><speed>10.06</speed><time>2019-02-23T14:55:29Z</time><pdop>6.068</pdop><geoidheight>0.00</geoidheight><course>125.3</course><type>1</type></trkpt>
      <trkpt lat="38.51122302" lon="-6.60936337"><ele>789</ele><speed>10.26</speed><time>2019-02-23T14:55:31Z</time><pdop>4.5509996</pdop><geoidheight>0.00</geoidheight><course>113.6</course><type>1</type></trkpt>
      <trkpt lat="38.51118322" lon="-6.60924915"><ele>789</ele><speed>9.81</speed><time>2019-02-23T14:55:32Z</time><pdop>4.5509996</pdop><geoidheight>0.00</geoidheight><course>114.3</course><type>1</type></trkpt>
      <trkpt lat="38.51113856" lon="-6.6091636"><ele>789</ele><speed>8.69</speed><time>2019-02-23T14:55:33Z</time><pdop>4.5509996</pdop><geoidheight>0.00</geoidheight><course>122.3</course><type>1</type></trkpt>
      <trkpt lat="38.51108795" lon="-6.60908333"><ele>790</ele><speed>8.37</speed><time>2019-02-23T14:55:34Z</time><pdop>4.5509996</pdop><geoidheight>0.00</geoidheight><course>128.7</course><type>1</type></trkpt>
      <trkpt lat="38.51103785" lon="-6.60900772"><ele>791</ele><speed>8.68</speed><time>2019-02-23T14:55:35Z</time><pdop>4.5509996</pdop><geoidheight>0.00</geoidheight><course>127.8</course><type>1</type></trkpt>
      <trkpt lat="38.51098771" lon="-6.60891841"><ele>791</ele><speed>9.49</speed><time>2019-02-23T14:55:36Z</time><pdop>4.5509996</pdop><geoidheight>0.00</geoidheight><course>123.4</course><type>1</type></trkpt>
      <trkpt lat="38.51094057" lon="-6.60882741"><ele>791</ele><speed>9.96</speed><time>2019-02-23T14:55:37Z</time><pdop>4.5509996</pdop><geoidheight>0.00</geoidheight><course>120.8</course><type>1</type></trkpt>
      <trkpt lat="38.51090774" lon="-6.60871957"><ele>790</ele><speed>9.90</speed><time>2019-02-23T14:55:38Z</time><pdop>4.5509996</pdop><geoidheight>0.00</geoidheight><course>119.1</course><type>1</type></trkpt>
      <trkpt lat="38.51086346" lon="-6.60862186"><ele>791</ele><speed>9.40</speed><time>2019-02-23T14:55:39Z</time><pdop>4.5509996</pdop><geoidheight>0.00</geoidheight><course>119.5</course><type>1</type></trkpt>
      <trkpt lat="38.51082091" lon="-6.60852056"><ele>791</ele><speed>9.21</speed><time>2019-02-23T14:55:40Z</time><pdop>4.5509996</pdop><geoidheight>0.00</geoidheight><course>123.3</course><type>1</type></trkpt>
      <trkpt lat="38.51077144" lon="-6.60844305"><ele>792</ele><speed>8.90</speed><time>2019-02-23T14:55:41Z</time><pdop>4.5509996</pdop><geoidheight>0.00</geoidheight><course>127.0</course><type>1</type></trkpt>
      <trkpt lat="38.51071012" lon="-6.60836853"><ele>792</ele><speed>8.89</speed><time>2019-02-23T14:55:42Z</time><pdop>4.5509996</pdop><geoidheight>0.00</geoidheight><course>129.2</course><type>1</type></trkpt>
      <trkpt lat="38.51066247" lon="-6.60827777"><ele>792</ele><speed>9.12</speed><time>2019-02-23T14:55:43Z</time><pdop>4.5509996</pdop><geoidheight>0.00</geoidheight><course>125.2</course><type>1</type></trkpt>
      <trkpt lat="38.51061172" lon="-6.60819043"><ele>792</ele><speed>9.76</speed><time>2019-02-23T14:55:44Z</time><pdop>4.5509996</pdop><geoidheight>0.00</geoidheight><course>120.5</course><type>1</type></trkpt>
      <trkpt lat="38.51056244" lon="-6.60808686"><ele>791</ele><speed>9.95</speed><time>2019-02-23T14:55:45Z</time><pdop>4.5509996</pdop><geoidheight>0.00</geoidheight><course>118.2</course><type>1</type></trkpt>
      <trkpt lat="38.51051166" lon="-6.60799139"><ele>792</ele><speed>9.30</speed><time>2019-02-23T14:55:46Z</time><pdop>4.5509996</pdop><geoidheight>0.00</geoidheight><course>119.4</course><type>1</type></trkpt>
      <trkpt lat="38.51047065" lon="-6.60791227"><ele>792</ele><speed>8.12</speed><time>2019-02-23T14:55:47Z</time><pdop>4.5509996</pdop><geoidheight>0.00</geoidheight><course>120.4</course><type>1</type></trkpt>
      <trkpt lat="38.51042088" lon="-6.60775297"><ele>792</ele><speed>7.10</speed><time>2019-02-23T14:55:49Z</time><pdop>4.5509996</pdop><geoidheight>0.00</geoidheight><course>106.2</course><type>1</type></trkpt>
      <trkpt lat="38.51040646" lon="-6.60757491"><ele>792</ele><speed>7.13</speed><time>2019-02-23T14:55:51Z</time><pdop>4.5509996</pdop><geoidheight>0.00</geoidheight><course>94.4</course><type>1</type></trkpt>
      <trkpt lat="38.51039311" lon="-6.6074391"><ele>792</ele><speed>5.16</speed><time>2019-02-23T14:55:53Z</time><pdop>6.068</pdop><geoidheight>0.00</geoidheight><course>93.3</course><type>1</type></trkpt>
      <trkpt lat="38.51043014" lon="-6.60726715"><ele>791</ele><speed>5.38</speed><time>2019-02-23T14:55:56Z</time><pdop>6.068</pdop><geoidheight>0.00</geoidheight><course>59.2</course><type>1</type></trkpt>
      <trkpt lat="38.51054234" lon="-6.60717775"><ele>789</ele><speed>4.21</speed><time>2019-02-23T14:55:59Z</time><pdop>6.068</pdop><geoidheight>0.00</geoidheight><course>16.2</course><type>1</type></trkpt>
      <trkpt lat="38.51065332" lon="-6.60714623"><ele>789</ele><speed>4.08</speed><time>2019-02-23T14:56:02Z</time><pdop>4.5509996</pdop><geoidheight>0.00</geoidheight><course>20.6</course><type>1</type></trkpt>
      <trkpt lat="38.51073839" lon="-6.6071149"><ele>787</ele><speed>4.99</speed><time>2019-02-23T14:56:04Z</time><pdop>4.5509996</pdop><geoidheight>0.00</geoidheight><course>18.4</course><type>1</type></trkpt>
      <trkpt lat="38.51083758" lon="-6.60709785"><ele>787</ele><speed>5.51</speed><time>2019-02-23T14:56:06Z</time><pdop>6.068</pdop><geoidheight>0.00</geoidheight><course>357.4</course><type>1</type></trkpt>
      <trkpt lat="38.51092715" lon="-6.60712546"><ele>788</ele><speed>3.94</speed><time>2019-02-23T14:56:08Z</time><pdop>4.5509996</pdop><geoidheight>0.00</geoidheight><course>342.4</course><type>1</type></trkpt>
      <trkpt lat="38.51103339" lon="-6.60717001"><ele>789</ele><speed>4.56</speed><time>2019-02-23T14:56:12Z</time><pdop>6.068</pdop><geoidheight>0.00</geoidheight><course>326.3</course><type>1</type></trkpt>
      <trkpt lat="38.51113341" lon="-6.6072713"><ele>797</ele><speed>3.32</speed><time>2019-02-23T14:56:15Z</time><pdop>4.5509996</pdop><geoidheight>0.00</geoidheight><course>307.0</course><type>1</type></trkpt>
      <trkpt lat="38.51121309" lon="-6.60735734"><ele>795</ele><speed>4.33</speed><time>2019-02-23T14:56:19Z</time><pdop>6.068</pdop><geoidheight>0.00</geoidheight><course>330.9</course><type>1</type></trkpt>
      <trkpt lat="38.51134178" lon="-6.6074002"><ele>799</ele><speed>3.49</speed><time>2019-02-23T14:56:24Z</time><pdop>6.068</pdop><geoidheight>0.00</geoidheight><course>353.6</course><type>1</type></trkpt>
      <trkpt lat="38.51147109" lon="-6.60738838"><ele>788</ele><speed>2.79</speed><time>2019-02-23T14:56:28Z</time><pdop>4.5509996</pdop><geoidheight>0.00</geoidheight><course>29.4</course><type>1</type></trkpt>
      <trkpt lat="38.51156312" lon="-6.60735868"><ele>799</ele><speed>4.66</speed><time>2019-02-23T14:56:31Z</time><pdop>4.5509996</pdop><geoidheight>0.00</geoidheight><course>358.2</course><type>1</type></trkpt>
      <trkpt lat="38.51168047" lon="-6.6073318"><ele>807</ele><speed>4.88</speed><time>2019-02-23T14:56:34Z</time><pdop>6.068</pdop><geoidheight>0.00</geoidheight><course>43.1</course><type>1</type></trkpt>
      <trkpt lat="38.51173601" lon="-6.60716511"><ele>812</ele><speed>5.76</speed><time>2019-02-23T14:56:37Z</time><pdop>6.068</pdop><geoidheight>0.00</geoidheight><course>62.7</course><type>1</type></trkpt>
      <trkpt lat="38.5117867" lon="-6.60703094"><ele>813</ele><speed>7.83</speed><time>2019-02-23T14:56:39Z</time><pdop>6.068</pdop><geoidheight>0.00</geoidheight><course>70.0</course><type>1</type></trkpt>
      <trkpt lat="38.51181602" lon="-6.60684396"><ele>816</ele><speed>8.25</speed><time>2019-02-23T14:56:41Z</time><pdop>6.068</pdop><geoidheight>0.00</geoidheight><course>86.3</course><type>1</type></trkpt>
      <trkpt lat="38.51181745" lon="-6.60665506"><ele>818</ele><speed>8.59</speed><time>2019-02-23T14:56:43Z</time><pdop>6.068</pdop><geoidheight>0.00</geoidheight><course>100.2</course><type>1</type></trkpt>
      <trkpt lat="38.51176177" lon="-6.60646447"><ele>784</ele><speed>10.41</speed><time>2019-02-23T14:56:45Z</time><pdop>6.068</pdop><geoidheight>0.00</geoidheight><course>108.4</course><type>1</type></trkpt>
      <trkpt lat="38.51165972" lon="-6.60622206"><ele>788</ele><speed>11.74</speed><time>2019-02-23T14:56:47Z</time><pdop>6.068</pdop><geoidheight>0.00</geoidheight><course>123.1</course><type>1</type></trkpt>
      <trkpt lat="38.51150433" lon="-6.60603504"><ele>813</ele><speed>12.15</speed><time>2019-02-23T14:56:49Z</time><pdop>6.068</pdop><geoidheight>0.00</geoidheight><course>144.6</course><type>1</type></trkpt>
      <trkpt lat="38.51132048" lon="-6.6059221"><ele>820</ele><speed>11.21</speed><time>2019-02-23T14:56:51Z</time><pdop>6.068</pdop><geoidheight>0.00</geoidheight><course>157.5</course><type>1</type></trkpt>
      <trkpt lat="38.51116093" lon="-6.60579647"><ele>825</ele><speed>10.64</speed><time>2019-02-23T14:56:53Z</time><pdop>6.068</pdop><geoidheight>0.00</geoidheight><course>132.0</course><type>1</type></trkpt>
      <trkpt lat="38.51108456" lon="-6.60558529"><ele>826</ele><speed>10.08</speed><time>2019-02-23T14:56:55Z</time><pdop>6.068</pdop><geoidheight>0.00</geoidheight><course>93.6</course><type>1</type></trkpt>
      <trkpt lat="38.51112897" lon="-6.60541473"><ele>828</ele><speed>7.12</speed><time>2019-02-23T14:56:57Z</time><pdop>4.5509996</pdop><geoidheight>0.00</geoidheight><course>54.4</course><type>1</type></trkpt>
      <trkpt lat="38.51122067" lon="-6.6053999"><ele>824</ele><speed>3.03</speed><time>2019-02-23T14:57:00Z</time><pdop>4.5509996</pdop><geoidheight>0.00</geoidheight><course>347.5</course><type>1</type></trkpt>
      <trkpt lat="38.5113229" lon="-6.6054328"><ele>828</ele><speed>3.93</speed><time>2019-02-23T14:57:03Z</time><pdop>4.5509996</pdop><geoidheight>0.00</geoidheight><course>328.3</course><type>1</type></trkpt>
      <trkpt lat="38.51139796" lon="-6.60555274"><ele>827</ele><speed>5.45</speed><time>2019-02-23T14:57:06Z</time><pdop>4.5509996</pdop><geoidheight>0.00</geoidheight><course>284.7</course><type>1</type></trkpt>
      <trkpt lat="38.51141695" lon="-6.60569031"><ele>826</ele><speed>5.50</speed><time>2019-02-23T14:57:08Z</time><pdop>4.5509996</pdop><geoidheight>0.00</geoidheight><course>277.7</course><type>1</type></trkpt>
      <trkpt lat="38.51141699" lon="-6.60581238"><ele>824</ele><speed>5.75</speed><time>2019-02-23T14:57:10Z</time><pdop>4.5509996</pdop><geoidheight>0.00</geoidheight><course>268.6</course><type>1</type></trkpt>
      <trkpt lat="38.51142394" lon="-6.60594623"><ele>823</ele><speed>6.57</speed><time>2019-02-23T14:57:12Z</time><pdop>4.5509996</pdop><geoidheight>0.00</geoidheight><course>265.5</course><type>1</type></trkpt>
      <trkpt lat="38.51141144" lon="-6.60610588"><ele>820</ele><speed>6.60</speed><time>2019-02-23T14:57:14Z</time><pdop>4.5509996</pdop><geoidheight>0.00</geoidheight><course>265.9</course><type>1</type></trkpt>
      <trkpt lat="38.51139803" lon="-6.60625833"><ele>819</ele><speed>6.51</speed><time>2019-02-23T14:57:16Z</time><pdop>6.068</pdop><geoidheight>0.00</geoidheight><course>261.4</course><type>1</type></trkpt>
      <trkpt lat="38.51135613" lon="-6.60641111"><ele>817</ele><speed>7.21</speed><time>2019-02-23T14:57:18Z</time><pdop>4.5509996</pdop><geoidheight>0.00</geoidheight><course>248.5</course><type>1</type></trkpt>
      <trkpt lat="38.51130545" lon="-6.60657262"><ele>815</ele><speed>7.98</speed><time>2019-02-23T14:57:20Z</time><pdop>4.5509996</pdop><geoidheight>0.00</geoidheight><course>249.7</course><type>1</type></trkpt>
      <trkpt lat="38.5112825" lon="-6.60666016"><ele>813</ele><speed>7.86</speed><time>2019-02-23T14:57:21Z</time><pdop>4.5509996</pdop><geoidheight>0.00</geoidheight><course>251.9</course><type>1</type></trkpt>
      <trkpt lat="38.51123348" lon="-6.60683215"><ele>811</ele><speed>8.14</speed><time>2019-02-23T14:57:23Z</time><pdop>4.5509996</pdop><geoidheight>0.00</geoidheight><course>251.7</course><type>1</type></trkpt>
      <trkpt lat="38.51121414" lon="-6.60692683"><ele>810</ele><speed>8.53</speed><time>2019-02-23T14:57:24Z</time><pdop>4.5509996</pdop><geoidheight>0.00</geoidheight><course>249.1</course><type>1</type></trkpt>
      <trkpt lat="38.51117804" lon="-6.60701627"><ele>808</ele><speed>8.30</speed><time>2019-02-23T14:57:25Z</time><pdop>4.5509996</pdop><geoidheight>0.00</geoidheight><course>248.4</course><type>1</type></trkpt>
      <trkpt lat="38.51113861" lon="-6.60718308"><ele>804</ele><speed>8.11</speed><time>2019-02-23T14:57:27Z</time><pdop>4.5509996</pdop><geoidheight>0.00</geoidheight><course>251.4</course><type>1</type></trkpt>
      <trkpt lat="38.51111053" lon="-6.60727732"><ele>803</ele><speed>8.74</speed><time>2019-02-23T14:57:28Z</time><pdop>4.5509996</pdop><geoidheight>0.00</geoidheight><course>251.1</course><type>1</type></trkpt>
      <trkpt lat="38.51109215" lon="-6.60737569"><ele>801</ele><speed>8.91</speed><time>2019-02-23T14:57:29Z</time><pdop>4.5509996</pdop><geoidheight>0.00</geoidheight><course>250.6</course><type>1</type></trkpt>
      <trkpt lat="38.51106531" lon="-6.60746402"><ele>800</ele><speed>8.09</speed><time>2019-02-23T14:57:30Z</time><pdop>4.5509996</pdop><geoidheight>0.00</geoidheight><course>251.9</course><type>1</type></trkpt>
      <trkpt lat="38.51104752" lon="-6.607614"><ele>798</ele><speed>6.39</speed><time>2019-02-23T14:57:32Z</time><pdop>4.5509996</pdop><geoidheight>0.00</geoidheight><course>265.8</course><type>1</type></trkpt>
      <trkpt lat="38.51104052" lon="-6.60777682"><ele>796</ele><speed>7.53</speed><time>2019-02-23T14:57:34Z</time><pdop>4.5509996</pdop><geoidheight>0.00</geoidheight><course>266.5</course><type>1</type></trkpt>
      <trkpt lat="38.51102724" lon="-6.60792937"><ele>796</ele><speed>6.26</speed><time>2019-02-23T14:57:36Z</time><pdop>4.5509996</pdop><geoidheight>0.00</geoidheight><course>266.8</course><type>1</type></trkpt>
      <trkpt lat="38.51102897" lon="-6.60806894"><ele>795</ele><speed>5.63</speed><time>2019-02-23T14:57:38Z</time><pdop>4.5509996</pdop><geoidheight>0.00</geoidheight><course>279.4</course><type>1</type></trkpt>
      <trkpt lat="38.51107945" lon="-6.60820928"><ele>794</ele><speed>7.25</speed><time>2019-02-23T14:57:40Z</time><pdop>4.5509996</pdop><geoidheight>0.00</geoidheight><course>282.6</course><type>1</type></trkpt>
      <trkpt lat="38.51111485" lon="-6.60837122"><ele>792</ele><speed>5.55</speed><time>2019-02-23T14:57:42Z</time><pdop>4.5509996</pdop><geoidheight>0.00</geoidheight><course>278.5</course><type>1</type></trkpt>
      <trkpt lat="38.51113572" lon="-6.60848915"><ele>792</ele><speed>4.86</speed><time>2019-02-23T14:57:44Z</time><pdop>4.5509996</pdop><geoidheight>0.00</geoidheight><course>289.1</course><type>1</type></trkpt>
      <trkpt lat="38.51116973" lon="-6.60858898"><ele>791</ele><speed>5.13</speed><time>2019-02-23T14:57:46Z</time><pdop>4.5509996</pdop><geoidheight>0.00</geoidheight><course>294.1</course><type>1</type></trkpt>
      <trkpt lat="38.5111969" lon="-6.60869208"><ele>791</ele><speed>4.80</speed><time>2019-02-23T14:57:48Z</time><pdop>4.5509996</pdop><geoidheight>0.00</geoidheight><course>296.9</course><type>1</type></trkpt>
      <trkpt lat="38.51127247" lon="-6.60882965"><ele>789</ele><speed>5.43</speed><time>2019-02-23T14:57:51Z</time><pdop>6.068</pdop><geoidheight>0.00</geoidheight><course>311.1</course><type>1</type></trkpt>
      <trkpt lat="38.51136636" lon="-6.60897604"><ele>789</ele><speed>5.15</speed><time>2019-02-23T14:57:54Z</time><pdop>6.068</pdop><geoidheight>0.00</geoidheight><course>307.7</course><type>1</type></trkpt>
      <trkpt lat="38.51145617" lon="-6.60911039"><ele>771</ele><speed>5.18</speed><time>2019-02-23T14:57:57Z</time><pdop>6.068</pdop><geoidheight>0.00</geoidheight><course>322.2</course><type>1</type></trkpt>
      <trkpt lat="38.51155135" lon="-6.60920476"><ele>782</ele><speed>4.65</speed><time>2019-02-23T14:58:00Z</time><pdop>6.068</pdop><geoidheight>0.00</geoidheight><course>317.1</course><type>1</type></trkpt>
      <trkpt lat="38.51166047" lon="-6.60932189"><ele>784</ele><speed>5.54</speed><time>2019-02-23T14:58:03Z</time><pdop>6.068</pdop><geoidheight>0.00</geoidheight><course>317.5</course><type>1</type></trkpt>
      <trkpt lat="38.5117545" lon="-6.60944531"><ele>786</ele><speed>4.12</speed><time>2019-02-23T14:58:06Z</time><pdop>6.068</pdop><geoidheight>0.00</geoidheight><course>313.8</course><type>1</type></trkpt>
      <trkpt lat="38.51183632" lon="-6.60954197"><ele>777</ele><speed>4.75</speed><time>2019-02-23T14:58:09Z</time><pdop>6.068</pdop><geoidheight>0.00</geoidheight><course>330.4</course><type>1</type></trkpt>
      <trkpt lat="38.51191843" lon="-6.60959164"><ele>782</ele><speed>4.89</speed><time>2019-02-23T14:58:11Z</time><pdop>4.5509996</pdop><geoidheight>0.00</geoidheight><course>327.4</course><type>1</type></trkpt>
      <trkpt lat="38.51199026" lon="-6.60967622"><ele>784</ele><speed>5.55</speed><time>2019-02-23T14:58:13Z</time><pdop>6.068</pdop><geoidheight>0.00</geoidheight><course>313.6</course><type>1</type></trkpt>
      <trkpt lat="38.51209399" lon="-6.60981995"><ele>784</ele><speed>5.58</speed><time>2019-02-23T14:58:16Z</time><pdop>4.5509996</pdop><geoidheight>0.00</geoidheight><course>308.5</course><type>1</type></trkpt>
      <trkpt lat="38.51216454" lon="-6.60992725"><ele>783</ele><speed>6.09</speed><time>2019-02-23T14:58:18Z</time><pdop>4.5509996</pdop><geoidheight>0.00</geoidheight><course>304.4</course><type>1</type></trkpt>
      <trkpt lat="38.5122315" lon="-6.61005771"><ele>782</ele><speed>6.48</speed><time>2019-02-23T14:58:20Z</time><pdop>4.5509996</pdop><geoidheight>0.00</geoidheight><course>290.7</course><type>1</type></trkpt>
      <trkpt lat="38.51225499" lon="-6.61021025"><ele>780</ele><speed>7.19</speed><time>2019-02-23T14:58:22Z</time><pdop>4.5509996</pdop><geoidheight>0.00</geoidheight><course>282.0</course><type>1</type></trkpt>
      <trkpt lat="38.51227017" lon="-6.61038893"><ele>778</ele><speed>8.21</speed><time>2019-02-23T14:58:24Z</time><pdop>4.5509996</pdop><geoidheight>0.00</geoidheight><course>276.5</course><type>1</type></trkpt>
      <trkpt lat="38.51226562" lon="-6.61057286"><ele>777</ele><speed>8.28</speed><time>2019-02-23T14:58:26Z</time><pdop>4.5509996</pdop><geoidheight>0.00</geoidheight><course>265.1</course><type>1</type></trkpt>
      <trkpt lat="38.51226093" lon="-6.61066805"><ele>776</ele><speed>8.08</speed><time>2019-02-23T14:58:27Z</time><pdop>4.5509996</pdop><geoidheight>0.00</geoidheight><course>261.2</course><type>1</type></trkpt>
      <trkpt lat="38.51224784" lon="-6.61076969"><ele>776</ele><speed>8.16</speed><time>2019-02-23T14:58:28Z</time><pdop>4.5509996</pdop><geoidheight>0.00</geoidheight><course>257.3</course><type>1</type></trkpt>
      <trkpt lat="38.51223409" lon="-6.61086894"><ele>776</ele><speed>8.66</speed><time>2019-02-23T14:58:29Z</time><pdop>4.5509996</pdop><geoidheight>0.00</geoidheight><course>258.3</course><type>1</type></trkpt>
      <trkpt lat="38.51221147" lon="-6.6109674"><ele>776</ele><speed>9.53</speed><time>2019-02-23T14:58:30Z</time><pdop>4.5509996</pdop><geoidheight>0.00</geoidheight><course>257.0</course><type>1</type></trkpt>
      <trkpt lat="38.51219626" lon="-6.61107"><ele>777</ele><speed>9.38</speed><time>2019-02-23T14:58:31Z</time><pdop>4.5509996</pdop><geoidheight>0.00</geoidheight><course>263.3</course><type>1</type></trkpt>
      <trkpt lat="38.5121814" lon="-6.61117586"><ele>779</ele><speed>8.97</speed><time>2019-02-23T14:58:32Z</time><pdop>4.5509996</pdop><geoidheight>0.00</geoidheight><course>267.6</course><type>1</type></trkpt>
      <trkpt lat="38.51218308" lon="-6.61127242"><ele>781</ele><speed>7.71</speed><time>2019-02-23T14:58:33Z</time><pdop>4.5509996</pdop><geoidheight>0.00</geoidheight><course>264.3</course><type>1</type></trkpt>
      <trkpt lat="38.51217216" lon="-6.611365"><ele>781</ele><speed>6.92</speed><time>2019-02-23T14:58:34Z</time><pdop>4.5509996</pdop><geoidheight>0.00</geoidheight><course>256.3</course><type>1</type></trkpt>
      <trkpt lat="38.51216097" lon="-6.61149867"><ele>782</ele><speed>6.00</speed><time>2019-02-23T14:58:36Z</time><pdop>6.068</pdop><geoidheight>0.00</geoidheight><course>274.8</course><type>1</type></trkpt>
      <trkpt lat="38.51221459" lon="-6.61166336"><ele>783</ele><speed>8.14</speed><time>2019-02-23T14:58:38Z</time><pdop>6.068</pdop><geoidheight>0.00</geoidheight><course>298.4</course><type>1</type></trkpt>
      <trkpt lat="38.51224077" lon="-6.61180424"><ele>786</ele><speed>5.38</speed><time>2019-02-23T14:58:40Z</time><pdop>4.5509996</pdop><geoidheight>0.00</geoidheight><course>277.2</course><type>1</type></trkpt>
      <trkpt lat="38.51226362" lon="-6.61195759"><ele>787</ele><speed>6.77</speed><time>2019-02-23T14:58:43Z</time><pdop>6.068</pdop><geoidheight>0.00</geoidheight><course>300.3</course><type>1</type></trkpt>
      <trkpt lat="38.51233943" lon="-6.61205332"><ele>790</ele><speed>5.04</speed><time>2019-02-23T14:58:45Z</time><pdop>4.5509996</pdop><geoidheight>0.00</geoidheight><course>331.9</course><type>1</type></trkpt>
      <trkpt lat="38.51242818" lon="-6.61203247"><ele>794</ele><speed>4.19</speed><time>2019-02-23T14:58:48Z</time><pdop>4.5509996</pdop><geoidheight>0.00</geoidheight><course>31.1</course><type>1</type></trkpt>
      <trkpt lat="38.51249304" lon="-6.61193606"><ele>794</ele><speed>6.26</speed><time>2019-02-23T14:58:50Z</time><pdop>4.5509996</pdop><geoidheight>0.00</geoidheight><course>62.7</course><type>1</type></trkpt>
      <trkpt lat="38.51249571" lon="-6.61177831"><ele>796</ele><speed>7.79</speed><time>2019-02-23T14:58:52Z</time><pdop>4.5509996</pdop><geoidheight>0.00</geoidheight><course>101.9</course><type>1</type></trkpt>
      <trkpt lat="38.51242495" lon="-6.61163642"><ele>798</ele><speed>7.01</speed><time>2019-02-23T14:58:54Z</time><pdop>4.5509996</pdop><geoidheight>0.00</geoidheight><course>126.3</course><type>1</type></trkpt>
      <trkpt lat="38.51234589" lon="-6.61150264"><ele>799</ele><speed>7.77</speed><time>2019-02-23T14:58:56Z</time><pdop>4.5509996</pdop><geoidheight>0.00</geoidheight><course>131.1</course><type>1</type></trkpt>
      <trkpt lat="38.51228797" lon="-6.61143967"><ele>798</ele><speed>9.25</speed><time>2019-02-23T14:58:57Z</time><pdop>4.5509996</pdop><geoidheight>0.00</geoidheight><course>136.8</course><type>1</type></trkpt>
      <trkpt lat="38.51220942" lon="-6.61137479"><ele>797</ele><speed>10.48</speed><time>2019-02-23T14:58:58Z</time><pdop>4.5509996</pdop><geoidheight>0.00</geoidheight><course>151.4</course><type>1</type></trkpt>
      <trkpt lat="38.51211572" lon="-6.61133943"><ele>797</ele><speed>11.63</speed><time>2019-02-23T14:58:59Z</time><pdop>4.5509996</pdop><geoidheight>0.00</geoidheight><course>172.3</course><type>1</type></trkpt>
      <trkpt lat="38.51200147" lon="-6.61136482"><ele>796</ele><speed>12.50</speed><time>2019-02-23T14:59:00Z</time><pdop>4.5509996</pdop><geoidheight>0.00</geoidheight><course>193.3</course><type>1</type></trkpt>
      <trkpt lat="38.51189818" lon="-6.61141641"><ele>794</ele><speed>12.57</speed><time>2019-02-23T14:59:01Z</time><pdop>4.5509996</pdop><geoidheight>0.00</geoidheight><course>210.8</course><type>1</type></trkpt>
      <trkpt lat="38.51181565" lon="-6.61150634"><ele>794</ele><speed>11.38</speed><time>2019-02-23T14:59:02Z</time><pdop>4.5509996</pdop><geoidheight>0.00</geoidheight><course>228.9</course><type>1</type></trkpt>
      <trkpt lat="38.51176949" lon="-6.61161436"><ele>793</ele><speed>9.91</speed><time>2019-02-23T14:59:03Z</time><pdop>4.5509996</pdop><geoidheight>0.00</geoidheight><course>247.3</course><type>1</type></trkpt>
      <trkpt lat="38.51174174" lon="-6.61173405"><ele>793</ele><speed>9.02</speed><time>2019-02-23T14:59:04Z</time><pdop>4.5509996</pdop><geoidheight>0.00</geoidheight><course>260.4</course><type>1</type></trkpt>
      <trkpt lat="38.51173819" lon="-6.61183567"><ele>794</ele><speed>8.21</speed><time>2019-02-23T14:59:05Z</time><pdop>4.5509996</pdop><geoidheight>0.00</geoidheight><course>270.7</course><type>1</type></trkpt>
      <trkpt lat="38.51173676" lon="-6.61193131"><ele>795</ele><speed>7.51</speed><time>2019-02-23T14:59:06Z</time><pdop>4.5509996</pdop><geoidheight>0.00</geoidheight><course>275.6</course><type>1</type></trkpt>
      <trkpt lat="38.51175568" lon="-6.612022"><ele>796</ele><speed>7.01</speed><time>2019-02-23T14:59:07Z</time><pdop>4.5509996</pdop><geoidheight>0.00</geoidheight><course>278.5</course><type>1</type></trkpt>
      <trkpt lat="38.51179528" lon="-6.61216181"><ele>798</ele><speed>5.90</speed><time>2019-02-23T14:59:09Z</time><pdop>6.068</pdop><geoidheight>0.00</geoidheight><course>284.0</course><type>1</type></trkpt>
      <trkpt lat="38.51186" lon="-6.61233979"><ele>785</ele><speed>6.34</speed><time>2019-02-23T14:59:12Z</time><pdop>6.068</pdop><geoidheight>0.00</geoidheight><course>302.3</course><type>1</type></trkpt>
      <trkpt lat="38.51193157" lon="-6.61244998"><ele>790</ele><speed>5.30</speed><time>2019-02-23T14:59:14Z</time><pdop>6.068</pdop><geoidheight>0.00</geoidheight><course>311.1</course><type>1</type></trkpt>
      <trkpt lat="38.51202491" lon="-6.612575"><ele>801</ele><speed>5.46</speed><time>2019-02-23T14:59:17Z</time><pdop>6.068</pdop><geoidheight>0.00</geoidheight><course>309.0</course><type>1</type></trkpt>
      <trkpt lat="38.51212177" lon="-6.61271789"><ele>782</ele><speed>5.22</speed><time>2019-02-23T14:59:20Z</time><pdop>6.068</pdop><geoidheight>0.00</geoidheight><course>304.8</course><type>1</type></trkpt>
      <trkpt lat="38.51218319" lon="-6.61284301"><ele>797</ele><speed>7.02</speed><time>2019-02-23T14:59:22Z</time><pdop>6.068</pdop><geoidheight>0.00</geoidheight><course>296.3</course><type>1</type></trkpt>
      <trkpt lat="38.51223732" lon="-6.61298656"><ele>782</ele><speed>6.71</speed><time>2019-02-23T14:59:24Z</time><pdop>6.068</pdop><geoidheight>0.00</geoidheight><course>292.9</course><type>1</type></trkpt>
      <trkpt lat="38.51229418" lon="-6.6131056"><ele>784</ele><speed>5.74</speed><time>2019-02-23T14:59:26Z</time><pdop>6.068</pdop><geoidheight>0.00</geoidheight><course>298.8</course><type>1</type></trkpt>
      <trkpt lat="38.51235862" lon="-6.61321924"><ele>794</ele><speed>4.36</speed><time>2019-02-23T14:59:28Z</time><pdop>6.068</pdop><geoidheight>0.00</geoidheight><course>309.1</course><type>1</type></trkpt>
      <trkpt lat="38.51247031" lon="-6.61315166"><ele>813</ele><speed>5.44</speed><time>2019-02-23T14:59:34Z</time><pdop>6.068</pdop><geoidheight>0.00</geoidheight><course>93.6</course><type>1</type></trkpt>
      <trkpt lat="38.51244086" lon="-6.61299442"><ele>785</ele><speed>8.06</speed><time>2019-02-23T14:59:36Z</time><pdop>6.068</pdop><geoidheight>0.00</geoidheight><course>114.5</course><type>1</type></trkpt>
      <trkpt lat="38.51234724" lon="-6.61282698"><ele>802</ele><speed>9.14</speed><time>2019-02-23T14:59:38Z</time><pdop>6.068</pdop><geoidheight>0.00</geoidheight><course>127.8</course><type>1</type></trkpt>
      <trkpt lat="38.51221897" lon="-6.61266674"><ele>808</ele><speed>8.56</speed><time>2019-02-23T14:59:40Z</time><pdop>6.068</pdop><geoidheight>0.00</geoidheight><course>127.1</course><type>1</type></trkpt>
      <trkpt lat="38.51211743" lon="-6.61251022"><ele>813</ele><speed>8.55</speed><time>2019-02-23T14:59:42Z</time><pdop>6.068</pdop><geoidheight>0.00</geoidheight><course>123.0</course><type>1</type></trkpt>
      <trkpt lat="38.51204197" lon="-6.61233958"><ele>815</ele><speed>7.56</speed><time>2019-02-23T14:59:44Z</time><pdop>6.068</pdop><geoidheight>0.00</geoidheight><course>113.5</course><type>1</type></trkpt>
      <trkpt lat="38.51200308" lon="-6.61218072"><ele>792</ele><speed>6.80</speed><time>2019-02-23T14:59:46Z</time><pdop>6.068</pdop><geoidheight>0.00</geoidheight><course>110.0</course><type>1</type></trkpt>
      <trkpt lat="38.51195364" lon="-6.61203676"><ele>803</ele><speed>6.48</speed><time>2019-02-23T14:59:48Z</time><pdop>6.068</pdop><geoidheight>0.00</geoidheight><course>116.8</course><type>1</type></trkpt>
      <trkpt lat="38.51189207" lon="-6.6118577"><ele>809</ele><speed>8.12</speed><time>2019-02-23T14:59:50Z</time><pdop>6.068</pdop><geoidheight>0.00</geoidheight><course>105.6</course><type>1</type></trkpt>
      <trkpt lat="38.51185091" lon="-6.61168984"><ele>813</ele><speed>7.18</speed><time>2019-02-23T14:59:52Z</time><pdop>6.068</pdop><geoidheight>0.00</geoidheight><course>113.0</course><type>1</type></trkpt>
      <trkpt lat="38.51179806" lon="-6.6115318"><ele>791</ele><speed>6.89</speed><time>2019-02-23T14:59:54Z</time><pdop>6.068</pdop><geoidheight>0.00</geoidheight><course>127.4</course><type>1</type></trkpt>
      <trkpt lat="38.51173274" lon="-6.61138624"><ele>781</ele><speed>8.26</speed><time>2019-02-23T14:59:56Z</time><pdop>6.068</pdop><geoidheight>0.00</geoidheight><course>114.0</course><type>1</type></trkpt>
      <trkpt lat="38.51167524" lon="-6.61121707"><ele>798</ele><speed>7.68</speed><time>2019-02-23T14:59:58Z</time><pdop>6.068</pdop><geoidheight>0.00</geoidheight><course>117.9</course><type>1</type></trkpt>
      <trkpt lat="38.51161601" lon="-6.61106144"><ele>807</ele><speed>6.43</speed><time>2019-02-23T15:00:00Z</time><pdop>6.068</pdop><geoidheight>0.00</geoidheight><course>125.5</course><type>1</type></trkpt>
      <trkpt lat="38.51154965" lon="-6.61090853"><ele>811</ele><speed>7.62</speed><time>2019-02-23T15:00:02Z</time><pdop>6.068</pdop><geoidheight>0.00</geoidheight><course>113.9</course><type>1</type></trkpt>
      <trkpt lat="38.51150338" lon="-6.61073656"><ele>793</ele><speed>7.50</speed><time>2019-02-23T15:00:04Z</time><pdop>6.068</pdop><geoidheight>0.00</geoidheight><course>113.3</course><type>1</type></trkpt>
      <trkpt lat="38.5114487" lon="-6.61061725"><ele>805</ele><speed>5.48</speed><time>2019-02-23T15:00:06Z</time><pdop>6.068</pdop><geoidheight>0.00</geoidheight><course>111.7</course><type>1</type></trkpt>
      <trkpt lat="38.51152707" lon="-6.61047764"><ele>810</ele><speed>4.70</speed><time>2019-02-23T15:00:10Z</time><pdop>6.068</pdop><geoidheight>0.00</geoidheight><course>349.1</course><type>1</type></trkpt>
      <trkpt lat="38.51161692" lon="-6.61064187"><ele>802</ele><speed>6.49</speed><time>2019-02-23T15:00:13Z</time><pdop>6.068</pdop><geoidheight>0.00</geoidheight><course>281.9</course><type>1</type></trkpt>
      <trkpt lat="38.51165117" lon="-6.61082988"><ele>772</ele><speed>5.32</speed><time>2019-02-23T15:00:16Z</time><pdop>6.068</pdop><geoidheight>0.00</geoidheight><course>284.1</course><type>1</type></trkpt>
      <trkpt lat="38.51166715" lon="-6.61096773"><ele>788</ele><speed>5.84</speed><time>2019-02-23T15:00:18Z</time><pdop>6.068</pdop><geoidheight>0.00</geoidheight><course>291.6</course><type>1</type></trkpt>
      <trkpt lat="38.51175754" lon="-6.61114169"><ele>801</ele><speed>5.73</speed><time>2019-02-23T15:00:21Z</time><pdop>7.585</pdop><geoidheight>0.00</geoidheight><course>299.3</course><type>1</type></trkpt>
      <trkpt lat="38.51185148" lon="-6.61131436"><ele>779</ele><speed>4.28</speed><time>2019-02-23T15:00:25Z</time><pdop>6.068</pdop><geoidheight>0.00</geoidheight><course>305.8</course><type>1</type></trkpt>
      <trkpt lat="38.51191771" lon="-6.61145399"><ele>801</ele><speed>4.55</speed><time>2019-02-23T15:00:28Z</time><pdop>6.068</pdop><geoidheight>0.00</geoidheight><course>296.6</course><type>1</type></trkpt>
      <trkpt lat="38.51198516" lon="-6.61157218"><ele>792</ele><speed>5.25</speed><time>2019-02-23T15:00:31Z</time><pdop>6.068</pdop><geoidheight>0.00</geoidheight><course>302.5</course><type>1</type></trkpt>
      <trkpt lat="38.51205638" lon="-6.6117303"><ele>802</ele><speed>4.17</speed><time>2019-02-23T15:00:34Z</time><pdop>6.068</pdop><geoidheight>0.00</geoidheight><course>298.7</course><type>1</type></trkpt>
      <trkpt lat="38.51212484" lon="-6.61186207"><ele>785</ele><speed>4.35</speed><time>2019-02-23T15:00:37Z</time><pdop>6.068</pdop><geoidheight>0.00</geoidheight><course>305.7</course><type>1</type></trkpt>
      <trkpt lat="38.51223608" lon="-6.61188057"><ele>781</ele><speed>5.88</speed><time>2019-02-23T15:00:42Z</time><pdop>6.068</pdop><geoidheight>0.00</geoidheight><course>64.2</course><type>1</type></trkpt>
      <trkpt lat="38.51223764" lon="-6.61172164"><ele>796</ele><speed>7.81</speed><time>2019-02-23T15:00:44Z</time><pdop>6.068</pdop><geoidheight>0.00</geoidheight><course>105.8</course><type>1</type></trkpt>
      <trkpt lat="38.51214837" lon="-6.61155372"><ele>782</ele><speed>8.93</speed><time>2019-02-23T15:00:46Z</time><pdop>6.068</pdop><geoidheight>0.00</geoidheight><course>128.4</course><type>1</type></trkpt>
      <trkpt lat="38.51202052" lon="-6.61139656"><ele>780</ele><speed>10.53</speed><time>2019-02-23T15:00:48Z</time><pdop>6.068</pdop><geoidheight>0.00</geoidheight><course>128.9</course><type>1</type></trkpt>
      <trkpt lat="38.51189931" lon="-6.61120755"><ele>793</ele><speed>9.94</speed><time>2019-02-23T15:00:50Z</time><pdop>6.068</pdop><geoidheight>0.00</geoidheight><course>133.4</course><type>1</type></trkpt>
      <trkpt lat="38.51179705" lon="-6.61106868"><ele>788</ele><speed>7.89</speed><time>2019-02-23T15:00:52Z</time><pdop>6.068</pdop><geoidheight>0.00</geoidheight><course>134.6</course><type>1</type></trkpt>
      <trkpt lat="38.51168725" lon="-6.61092506"><ele>787</ele><speed>9.84</speed><time>2019-02-23T15:00:54Z</time><pdop>6.068</pdop><geoidheight>0.00</geoidheight><course>128.0</course><type>1</type></trkpt>
      <trkpt lat="38.5115553" lon="-6.61074478"><ele>779</ele><speed>10.41</speed><time>2019-02-23T15:00:56Z</time><pdop>6.068</pdop><geoidheight>0.00</geoidheight><course>123.7</course><type>1</type></trkpt>
      <trkpt lat="38.5114654" lon="-6.6105726"><ele>793</ele><speed>8.64</speed><time>2019-02-23T15:00:58Z</time><pdop>6.068</pdop><geoidheight>0.00</geoidheight><course>114.0</course><type>1</type></trkpt>
      <trkpt lat="38.51142249" lon="-6.61039657"><ele>780</ele><speed>7.79</speed><time>2019-02-23T15:01:00Z</time><pdop>6.068</pdop><geoidheight>0.00</geoidheight><course>97.9</course><type>1</type></trkpt>
      <trkpt lat="38.51143475" lon="-6.6102434"><ele>795</ele><speed>6.56</speed><time>2019-02-23T15:01:02Z</time><pdop>6.068</pdop><geoidheight>0.00</geoidheight><course>78.0</course><type>1</type></trkpt>
      <trkpt lat="38.51149086" lon="-6.61009379"><ele>805</ele><speed>3.11</speed><time>2019-02-23T15:01:05Z</time><pdop>6.068</pdop><geoidheight>0.00</geoidheight><course>52.4</course><type>1</type></trkpt>
      <trkpt lat="38.51161066" lon="-6.61007187"><ele>802</ele><speed>2.70</speed><time>2019-02-23T15:01:11Z</time><pdop>6.068</pdop><geoidheight>0.00</geoidheight><course>5.8</course><type>1</type></trkpt>
      <trkpt lat="38.51173527" lon="-6.61007091"><ele>782</ele><speed>2.16</speed><time>2019-02-23T15:01:16Z</time><pdop>6.068</pdop><geoidheight>0.00</geoidheight><course>6.1</course><type>1</type></trkpt>
      <trkpt lat="38.51184189" lon="-6.61003346"><ele>785</ele><speed>2.71</speed><time>2019-02-23T15:01:20Z</time><pdop>6.068</pdop><geoidheight>0.00</geoidheight><course>21.8</course><type>1</type></trkpt>
      <trkpt lat="38.51195251" lon="-6.60999467"><ele>806</ele><speed>2.81</speed><time>2019-02-23T15:01:26Z</time><pdop>6.068</pdop><geoidheight>0.00</geoidheight><course>9.6</course><type>1</type></trkpt>
      <trkpt lat="38.51196875" lon="-6.61019575"><ele>783</ele><speed>8.10</speed><time>2019-02-23T15:01:30Z</time><pdop>6.068</pdop><geoidheight>0.00</geoidheight><course>260.1</course><type>1</type></trkpt>
      <trkpt lat="38.51192758" lon="-6.61038088"><ele>799</ele><speed>7.34</speed><time>2019-02-23T15:01:32Z</time><pdop>6.068</pdop><geoidheight>0.00</geoidheight><course>245.6</course><type>1</type></trkpt>
      <trkpt lat="38.51183995" lon="-6.61053353"><ele>806</ele><speed>8.75</speed><time>2019-02-23T15:01:34Z</time><pdop>6.068</pdop><geoidheight>0.00</geoidheight><course>229.5</course><type>1</type></trkpt>
      <trkpt lat="38.51172183" lon="-6.61073469"><ele>781</ele><speed>12.30</speed><time>2019-02-23T15:01:36Z</time><pdop>6.068</pdop><geoidheight>0.00</geoidheight><course>219.5</course><type>1</type></trkpt>
      <trkpt lat="38.51150248" lon="-6.61084704"><ele>797</ele><speed>13.90</speed><time>2019-02-23T15:01:38Z</time><pdop>6.068</pdop><geoidheight>0.00</geoidheight><course>186.1</course><type>1</type></trkpt>
      <trkpt lat="38.51137538" lon="-6.61082116"><ele>816</ele><speed>14.50</speed><time>2019-02-23T15:01:39Z</time><pdop>6.068</pdop><geoidheight>0.00</geoidheight><course>167.5</course><type>1</type></trkpt>
      <trkpt lat="38.51126069" lon="-6.61076105"><ele>815</ele><speed>13.19</speed><time>2019-02-23T15:01:40Z</time><pdop>6.068</pdop><geoidheight>0.00</geoidheight><course>152.5</course><type>1</type></trkpt>
      <trkpt lat="38.51110113" lon="-6.61059146"><ele>815</ele><speed>10.35</speed><time>2019-02-23T15:01:42Z</time><pdop>6.068</pdop><geoidheight>0.00</geoidheight><course>133.2</course><type>1</type></trkpt>
      <trkpt lat="38.51096089" lon="-6.6104192"><ele>782</ele><speed>9.50</speed><time>2019-02-23T15:01:44Z</time><pdop>6.068</pdop><geoidheight>0.00</geoidheight><course>128.1</course><type>1</type></trkpt>
      <trkpt lat="38.51088797" lon="-6.61023375"><ele>797</ele><speed>7.98</speed><time>2019-02-23T15:01:46Z</time><pdop>6.068</pdop><geoidheight>0.00</geoidheight><course>111.4</course><type>1</type></trkpt>
      <trkpt lat="38.51087139" lon="-6.61006876"><ele>804</ele><speed>5.74</speed><time>2019-02-23T15:01:48Z</time><pdop>6.068</pdop><geoidheight>0.00</geoidheight><course>101.9</course><type>1</type></trkpt>
      <trkpt lat="38.51088632" lon="-6.60990826"><ele>784</ele><speed>3.42</speed><time>2019-02-23T15:01:51Z</time><pdop>6.068</pdop><geoidheight>0.00</geoidheight><course>53.8</course><type>1</type></trkpt>
      <trkpt lat="38.51100621" lon="-6.60990074"><ele>798</ele><speed>2.53</speed><time>2019-02-23T15:01:57Z</time><pdop>6.068</pdop><geoidheight>0.00</geoidheight><course>328.3</course><type>1</type></trkpt>
      <trkpt lat="38.5111232" lon="-6.60996824"><ele>805</ele><speed>3.13</speed><time>2019-02-23T15:02:02Z</time><pdop>6.068</pdop><geoidheight>0.00</geoidheight><course>331.6</course><type>1</type></trkpt>
      <trkpt lat="38.51122173" lon="-6.61004516"><ele>809</ele><speed>3.22</speed><time>2019-02-23T15:02:06Z</time><pdop>6.068</pdop><geoidheight>0.00</geoidheight><course>318.3</course><type>1</type></trkpt>
      <trkpt lat="38.51132023" lon="-6.61013802"><ele>797</ele><speed>2.76</speed><time>2019-02-23T15:02:10Z</time><pdop>6.068</pdop><geoidheight>0.00</geoidheight><course>344.8</course><type>1</type></trkpt>
      <trkpt lat="38.51141431" lon="-6.61014526"><ele>814</ele><speed>3.02</speed><time>2019-02-23T15:02:14Z</time><pdop>4.5509996</pdop><geoidheight>0.00</geoidheight><course>5.9</course><type>1</type></trkpt>
      <trkpt lat="38.5114873" lon="-6.61015675"><ele>817</ele><speed>2.30</speed><time>2019-02-23T15:02:17Z</time><pdop>4.5509996</pdop><geoidheight>0.00</geoidheight><course>333.7</course><type>1</type></trkpt>
      <trkpt lat="38.51157562" lon="-6.61021726"><ele>819</ele><speed>3.10</speed><time>2019-02-23T15:02:21Z</time><pdop>6.068</pdop><geoidheight>0.00</geoidheight><course>328.3</course><type>1</type></trkpt>
      <trkpt lat="38.51158924" lon="-6.61039072"><ele>820</ele><speed>6.92</speed><time>2019-02-23T15:02:24Z</time><pdop>4.5509996</pdop><geoidheight>0.00</geoidheight><course>266.4</course><type>1</type></trkpt>
      <trkpt lat="38.51155792" lon="-6.6105643"><ele>822</ele><speed>7.62</speed><time>2019-02-23T15:02:26Z</time><pdop>6.068</pdop><geoidheight>0.00</geoidheight><course>251.9</course><type>1</type></trkpt>
      <trkpt lat="38.51147524" lon="-6.6107256"><ele>824</ele><speed>8.71</speed><time>2019-02-23T15:02:28Z</time><pdop>6.068</pdop><geoidheight>0.00</geoidheight><course>228.1</course><type>1</type></trkpt>
      <trkpt lat="38.51133333" lon="-6.61089926"><ele>822</ele><speed>11.98</speed><time>2019-02-23T15:02:30Z</time><pdop>6.068</pdop><geoidheight>0.00</geoidheight><course>217.5</course><type>1</type></trkpt>
      <trkpt lat="38.51122637" lon="-6.61096729"><ele>823</ele><speed>13.50</speed><time>2019-02-23T15:02:31Z</time><pdop>4.5509996</pdop><geoidheight>0.00</geoidheight><course>203.8</course><type>1</type></trkpt>
      <trkpt lat="38.51108289" lon="-6.61100356"><ele>823</ele><speed>14.33</speed><time>2019-02-23T15:02:32Z</time><pdop>4.5509996</pdop><geoidheight>0.00</geoidheight><course>187.5</course><type>1</type></trkpt>
      <trkpt lat="38.5109552" lon="-6.61099579"><ele>823</ele><speed>14.39</speed><time>2019-02-23T15:02:33Z</time><pdop>4.5509996</pdop><geoidheight>0.00</geoidheight><course>171.7</course><type>1</type></trkpt>
      <trkpt lat="38.51083727" lon="-6.61094722"><ele>823</ele><speed>13.61</speed><time>2019-02-23T15:02:34Z</time><pdop>6.068</pdop><geoidheight>0.00</geoidheight><course>158.5</course><type>1</type></trkpt>
      <trkpt lat="38.51073494" lon="-6.61087721"><ele>823</ele><speed>11.75</speed><time>2019-02-23T15:02:35Z</time><pdop>6.068</pdop><geoidheight>0.00</geoidheight><course>147.2</course><type>1</type></trkpt>
      <trkpt lat="38.51066256" lon="-6.61079332"><ele>822</ele><speed>9.86</speed><time>2019-02-23T15:02:36Z</time><pdop>4.5509996</pdop><geoidheight>0.00</geoidheight><course>132.3</course><type>1</type></trkpt>
      <trkpt lat="38.51061133" lon="-6.61062333"><ele>821</ele><speed>6.18</speed><time>2019-02-23T15:02:38Z</time><pdop>4.5509996</pdop><geoidheight>0.00</geoidheight><course>92.6</course><type>1</type></trkpt>
      <trkpt lat="38.51064399" lon="-6.61050219"><ele>823</ele><speed>3.68</speed><time>2019-02-23T15:02:40Z</time><pdop>6.068</pdop><geoidheight>0.00</geoidheight><course>52.9</course><type>1</type></trkpt>
      <trkpt lat="38.51074735" lon="-6.61040938"><ele>822</ele><speed>4.91</speed><time>2019-02-23T15:02:43Z</time><pdop>6.068</pdop><geoidheight>0.00</geoidheight><course>29.4</course><type>1</type></trkpt>
      <trkpt lat="38.51087382" lon="-6.61040837"><ele>825</ele><speed>3.00</speed><time>2019-02-23T15:02:47Z</time><pdop>6.068</pdop><geoidheight>0.00</geoidheight><course>344.2</course><type>1</type></trkpt>
      <trkpt lat="38.51099728" lon="-6.61043834"><ele>812</ele><speed>3.56</speed><time>2019-02-23T15:02:51Z</time><pdop>6.068</pdop><geoidheight>0.00</geoidheight><course>353.2</course><type>1</type></trkpt>
      <trkpt lat="38.51111811" lon="-6.6104896"><ele>813</ele><speed>3.30</speed><time>2019-02-23T15:02:56Z</time><pdop>6.068</pdop><geoidheight>0.00</geoidheight><course>344.5</course><type>1</type></trkpt>
      <trkpt lat="38.5112402" lon="-6.61051555"><ele>824</ele><speed>3.71</speed><time>2019-02-23T15:03:01Z</time><pdop>6.068</pdop><geoidheight>0.00</geoidheight><course>356.6</course><type>1</type></trkpt>
      <trkpt lat="38.51135219" lon="-6.61053409"><ele>831</ele><speed>3.52</speed><time>2019-02-23T15:03:04Z</time><pdop>4.5509996</pdop><geoidheight>0.00</geoidheight><course>348.9</course><type>1</type></trkpt>
      <trkpt lat="38.51144304" lon="-6.6105277"><ele>833</ele><speed>3.50</speed><time>2019-02-23T15:03:07Z</time><pdop>4.5509996</pdop><geoidheight>0.00</geoidheight><course>1.0</course><type>1</type></trkpt>
      <trkpt lat="38.51154277" lon="-6.61051945"><ele>834</ele><speed>2.75</speed><time>2019-02-23T15:03:10Z</time><pdop>4.5509996</pdop><geoidheight>0.00</geoidheight><course>13.1</course><type>1</type></trkpt>
      <trkpt lat="38.51162467" lon="-6.61045457"><ele>837</ele><speed>3.28</speed><time>2019-02-23T15:03:14Z</time><pdop>6.068</pdop><geoidheight>0.00</geoidheight><course>41.9</course><type>1</type></trkpt>
      <trkpt lat="38.51169692" lon="-6.6103488"><ele>838</ele><speed>4.50</speed><time>2019-02-23T15:03:17Z</time><pdop>6.068</pdop><geoidheight>0.00</geoidheight><course>48.1</course><type>1</type></trkpt>
      <trkpt lat="38.51173584" lon="-6.61019663"><ele>837</ele><speed>6.15</speed><time>2019-02-23T15:03:19Z</time><pdop>6.068</pdop><geoidheight>0.00</geoidheight><course>86.2</course><type>1</type></trkpt>
      <trkpt lat="38.51173712" lon="-6.61002195"><ele>795</ele><speed>8.83</speed><time>2019-02-23T15:03:21Z</time><pdop>6.068</pdop><geoidheight>0.00</geoidheight><course>103.7</course><type>1</type></trkpt>
      <trkpt lat="38.51165476" lon="-6.60981334"><ele>814</ele><speed>11.43</speed><time>2019-02-23T15:03:23Z</time><pdop>6.068</pdop><geoidheight>0.00</geoidheight><course>122.8</course><type>1</type></trkpt>
      <trkpt lat="38.51151197" lon="-6.60963328"><ele>828</ele><speed>10.59</speed><time>2019-02-23T15:03:25Z</time><pdop>6.068</pdop><geoidheight>0.00</geoidheight><course>130.4</course><type>1</type></trkpt>
      <trkpt lat="38.51142339" lon="-6.60945304"><ele>836</ele><speed>7.94</speed><time>2019-02-23T15:03:27Z</time><pdop>6.068</pdop><geoidheight>0.00</geoidheight><course>126.1</course><type>1</type></trkpt>
      <trkpt lat="38.51134571" lon="-6.6092967"><ele>843</ele><speed>8.98</speed><time>2019-02-23T15:03:29Z</time><pdop>6.068</pdop><geoidheight>0.00</geoidheight><course>118.3</course><type>1</type></trkpt>
      <trkpt lat="38.51127082" lon="-6.60911912"><ele>845</ele><speed>8.98</speed><time>2019-02-23T15:03:31Z</time><pdop>6.068</pdop><geoidheight>0.00</geoidheight><course>115.8</course><type>1</type></trkpt>
      <trkpt lat="38.51121165" lon="-6.60896965"><ele>811</ele><speed>5.95</speed><time>2019-02-23T15:03:33Z</time><pdop>6.068</pdop><geoidheight>0.00</geoidheight><course>103.7</course><type>1</type></trkpt>
      <trkpt lat="38.51133805" lon="-6.60895253"><ele>836</ele><speed>5.68</speed><time>2019-02-23T15:03:40Z</time><pdop>6.068</pdop><geoidheight>0.00</geoidheight><course>306.5</course><type>1</type></trkpt>
      <trkpt lat="38.5113959" lon="-6.60907257"><ele>838</ele><speed>6.12</speed><time>2019-02-23T15:03:42Z</time><pdop>6.068</pdop><geoidheight>0.00</geoidheight><course>298.3</course><type>1</type></trkpt>
      <trkpt lat="38.5114481" lon="-6.60925363"><ele>809</ele><speed>5.81</speed><time>2019-02-23T15:03:45Z</time><pdop>6.068</pdop><geoidheight>0.00</geoidheight><course>282.6</course><type>1</type></trkpt>
      <trkpt lat="38.51151279" lon="-6.6094303"><ele>795</ele><speed>5.93</speed><time>2019-02-23T15:03:48Z</time><pdop>6.068</pdop><geoidheight>0.00</geoidheight><course>297.4</course><type>1</type></trkpt>
      <trkpt lat="38.51157044" lon="-6.60955259"><ele>795</ele><speed>7.02</speed><time>2019-02-23T15:03:50Z</time><pdop>6.068</pdop><geoidheight>0.00</geoidheight><course>295.2</course><type>1</type></trkpt>
      <trkpt lat="38.51162665" lon="-6.60969054"><ele>816</ele><speed>6.34</speed><time>2019-02-23T15:03:52Z</time><pdop>6.068</pdop><geoidheight>0.00</geoidheight><course>302.4</course><type>1</type></trkpt>
      <trkpt lat="38.51169877" lon="-6.60980881"><ele>824</ele><speed>6.27</speed><time>2019-02-23T15:03:54Z</time><pdop>6.068</pdop><geoidheight>0.00</geoidheight><course>310.8</course><type>1</type></trkpt>
      <trkpt lat="38.51176236" lon="-6.6099218"><ele>832</ele><speed>5.65</speed><time>2019-02-23T15:03:56Z</time><pdop>6.068</pdop><geoidheight>0.00</geoidheight><course>294.2</course><type>1</type></trkpt>
      <trkpt lat="38.51181913" lon="-6.61008281"><ele>797</ele><speed>5.91</speed><time>2019-02-23T15:03:59Z</time><pdop>6.068</pdop><geoidheight>0.00</geoidheight><course>290.1</course><type>1</type></trkpt>
      <trkpt lat="38.51185616" lon="-6.61021434"><ele>798</ele><speed>5.85</speed><time>2019-02-23T15:04:01Z</time><pdop>6.068</pdop><geoidheight>0.00</geoidheight><course>291.9</course><type>1</type></trkpt>
      <trkpt lat="38.51191223" lon="-6.61039687"><ele>813</ele><speed>5.56</speed><time>2019-02-23T15:04:04Z</time><pdop>6.068</pdop><geoidheight>0.00</geoidheight><course>293.6</course><type>1</type></trkpt>
      <trkpt lat="38.51194667" lon="-6.61052909"><ele>831</ele><speed>6.12</speed><time>2019-02-23T15:04:06Z</time><pdop>4.5509996</pdop><geoidheight>0.00</geoidheight><course>295.4</course><type>1</type></trkpt>
      <trkpt lat="38.51198672" lon="-6.61065356"><ele>844</ele><speed>6.35</speed><time>2019-02-23T15:04:08Z</time><pdop>4.5509996</pdop><geoidheight>0.00</geoidheight><course>290.8</course><type>1</type></trkpt>
      <trkpt lat="38.5120275" lon="-6.61078476"><ele>848</ele><speed>6.30</speed><time>2019-02-23T15:04:10Z</time><pdop>6.068</pdop><geoidheight>0.00</geoidheight><course>291.4</course><type>1</type></trkpt>
      <trkpt lat="38.51207081" lon="-6.61091603"><ele>851</ele><speed>6.01</speed><time>2019-02-23T15:04:12Z</time><pdop>6.068</pdop><geoidheight>0.00</geoidheight><course>295.7</course><type>1</type></trkpt>
      <trkpt lat="38.51214172" lon="-6.61110295"><ele>831</ele><speed>5.73</speed><time>2019-02-23T15:04:15Z</time><pdop>6.068</pdop><geoidheight>0.00</geoidheight><course>289.7</course><type>1</type></trkpt>
      <trkpt lat="38.51220836" lon="-6.61122409"><ele>805</ele><speed>6.30</speed><time>2019-02-23T15:04:17Z</time><pdop>6.068</pdop><geoidheight>0.00</geoidheight><course>296.9</course><type>1</type></trkpt>
      <trkpt lat="38.51227707" lon="-6.61137023"><ele>820</ele><speed>6.66</speed><time>2019-02-23T15:04:19Z</time><pdop>6.068</pdop><geoidheight>0.00</geoidheight><course>305.0</course><type>1</type></trkpt>
      <trkpt lat="38.51236372" lon="-6.61152209"><ele>833</ele><speed>4.79</speed><time>2019-02-23T15:04:22Z</time><pdop>6.068</pdop><geoidheight>0.00</geoidheight><course>315.5</course><type>1</type></trkpt>
      <trkpt lat="38.51248013" lon="-6.6115157"><ele>858</ele><speed>3.29</speed><time>2019-02-23T15:04:27Z</time><pdop>6.068</pdop><geoidheight>0.00</geoidheight><course>59.7</course><type>1</type></trkpt>
      <trkpt lat="38.51249076" lon="-6.61137179"><ele>864</ele><speed>4.29</speed><time>2019-02-23T15:04:30Z</time><pdop>6.068</pdop><geoidheight>0.00</geoidheight><course>94.9</course><type>1</type></trkpt>
      <trkpt lat="38.51245458" lon="-6.61123625"><ele>867</ele><speed>6.38</speed><time>2019-02-23T15:04:32Z</time><pdop>6.068</pdop><geoidheight>0.00</geoidheight><course>109.1</course><type>1</type></trkpt>
      <trkpt lat="38.51238143" lon="-6.61108765"><ele>868</ele><speed>8.81</speed><time>2019-02-23T15:04:34Z</time><pdop>6.068</pdop><geoidheight>0.00</geoidheight><course>121.6</course><type>1</type></trkpt>
      <trkpt lat="38.51227478" lon="-6.61091891"><ele>868</ele><speed>9.61</speed><time>2019-02-23T15:04:36Z</time><pdop>6.068</pdop><geoidheight>0.00</geoidheight><course>136.8</course><type>1</type></trkpt>
      <trkpt lat="38.51214771" lon="-6.61078206"><ele>872</ele><speed>9.55</speed><time>2019-02-23T15:04:38Z</time><pdop>6.068</pdop><geoidheight>0.00</geoidheight><course>139.0</course><type>1</type></trkpt>
      <trkpt lat="38.51200413" lon="-6.61063579"><ele>875</ele><speed>9.28</speed><time>2019-02-23T15:04:40Z</time><pdop>6.068</pdop><geoidheight>0.00</geoidheight><course>136.0</course><type>1</type></trkpt>
      <trkpt lat="38.51187379" lon="-6.61047006"><ele>829</ele><speed>9.34</speed><time>2019-02-23T15:04:42Z</time><pdop>6.068</pdop><geoidheight>0.00</geoidheight><course>127.2</course><type>1</type></trkpt>
      <trkpt lat="38.51178923" lon="-6.61030828"><ele>848</ele><speed>7.92</speed><time>2019-02-23T15:04:44Z</time><pdop>6.068</pdop><geoidheight>0.00</geoidheight><course>108.1</course><type>1</type></trkpt>
      <trkpt lat="38.51176488" lon="-6.61015429"><ele>859</ele><speed>6.27</speed><time>2019-02-23T15:04:46Z</time><pdop>7.585</pdop><geoidheight>0.00</geoidheight><course>87.0</course><type>1</type></trkpt>
      <trkpt lat="38.5118225" lon="-6.61000172"><ele>822</ele><speed>4.66</speed><time>2019-02-23T15:04:49Z</time><pdop>6.068</pdop><geoidheight>0.00</geoidheight><course>54.1</course><type>1</type></trkpt>
      <trkpt lat="38.51192573" lon="-6.60992401"><ele>861</ele><speed>4.18</speed><time>2019-02-23T15:04:52Z</time><pdop>6.068</pdop><geoidheight>0.00</geoidheight><course>16.7</course><type>1</type></trkpt>
      <trkpt lat="38.51204042" lon="-6.60992482"><ele>852</ele><speed>4.23</speed><time>2019-02-23T15:04:55Z</time><pdop>6.068</pdop><geoidheight>0.00</geoidheight><course>5.3</course><type>1</type></trkpt>
      <trkpt lat="38.5121657" lon="-6.60995121"><ele>871</ele><speed>4.48</speed><time>2019-02-23T15:04:58Z</time><pdop>6.068</pdop><geoidheight>0.00</geoidheight><course>342.6</course><type>1</type></trkpt>
      <trkpt lat="38.51230006" lon="-6.61004303"><ele>818</ele><speed>5.07</speed><time>2019-02-23T15:05:01Z</time><pdop>6.068</pdop><geoidheight>0.00</geoidheight><course>332.7</course><type>1</type></trkpt>
      <trkpt lat="38.51241368" lon="-6.61011051"><ele>817</ele><speed>4.64</speed><time>2019-02-23T15:05:04Z</time><pdop>6.068</pdop><geoidheight>0.00</geoidheight><course>311.1</course><type>1</type></trkpt>
      <trkpt lat="38.51251347" lon="-6.61025691"><ele>812</ele><speed>5.16</speed><time>2019-02-23T15:05:07Z</time><pdop>6.068</pdop><geoidheight>0.00</geoidheight><course>309.2</course><type>1</type></trkpt>
      <trkpt lat="38.51260872" lon="-6.61037139"><ele>848</ele><speed>4.28</speed><time>2019-02-23T15:05:10Z</time><pdop>7.585</pdop><geoidheight>0.00</geoidheight><course>359.3</course><type>1</type></trkpt>
      <trkpt lat="38.51271414" lon="-6.61025608"><ele>806</ele><speed>6.10</speed><time>2019-02-23T15:05:13Z</time><pdop>6.068</pdop><geoidheight>0.00</geoidheight><course>52.4</course><type>1</type></trkpt>
      <trkpt lat="38.51275521" lon="-6.61010973"><ele>841</ele><speed>7.76</speed><time>2019-02-23T15:05:15Z</time><pdop>6.068</pdop><geoidheight>0.00</geoidheight><course>85.1</course><type>1</type></trkpt>
      <trkpt lat="38.51273285" lon="-6.60989127"><ele>856</ele><speed>9.39</speed><time>2019-02-23T15:05:17Z</time><pdop>6.068</pdop><geoidheight>0.00</geoidheight><course>107.2</course><type>1</type></trkpt>
      <trkpt lat="38.51265681" lon="-6.60970017"><ele>813</ele><speed>9.31</speed><time>2019-02-23T15:05:19Z</time><pdop>6.068</pdop><geoidheight>0.00</geoidheight><course>123.7</course><type>1</type></trkpt>
      <trkpt lat="38.51253255" lon="-6.60953729"><ele>828</ele><speed>10.19</speed><time>2019-02-23T15:05:21Z</time><pdop>6.068</pdop><geoidheight>0.00</geoidheight><course>140.4</course><type>1</type></trkpt>
      <trkpt lat="38.51235256" lon="-6.60939674"><ele>829</ele><speed>11.46</speed><time>2019-02-23T15:05:23Z</time><pdop>6.068</pdop><geoidheight>0.00</geoidheight><course>152.5</course><type>1</type></trkpt>
      <trkpt lat="38.51214634" lon="-6.60931444"><ele>812</ele><speed>11.44</speed><time>2019-02-23T15:05:25Z</time><pdop>6.068</pdop><geoidheight>0.00</geoidheight><course>169.8</course><type>1</type></trkpt>
      <trkpt lat="38.51194586" lon="-6.60932933"><ele>840</ele><speed>10.97</speed><time>2019-02-23T15:05:27Z</time><pdop>6.068</pdop><geoidheight>0.00</geoidheight><course>193.1</course><type>1</type></trkpt>
      <trkpt lat="38.51176222" lon="-6.60943601"><ele>854</ele><speed>11.28</speed><time>2019-02-23T15:05:29Z</time><pdop>6.068</pdop><geoidheight>0.00</geoidheight><course>217.3</course><type>1</type></trkpt>
      <trkpt lat="38.51166168" lon="-6.60963684"><ele>860</ele><speed>10.00</speed><time>2019-02-23T15:05:31Z</time><pdop>6.068</pdop><geoidheight>0.00</geoidheight><course>249.2</course><type>1</type></trkpt>
      <trkpt lat="38.51165888" lon="-6.60983465"><ele>823</ele><speed>7.48</speed><time>2019-02-23T15:05:33Z</time><pdop>6.068</pdop><geoidheight>0.00</geoidheight><course>276.9</course><type>1</type></trkpt>
      <trkpt lat="38.51166934" lon="-6.60998958"><ele>847</ele><speed>6.64</speed><time>2019-02-23T15:05:35Z</time><pdop>6.068</pdop><geoidheight>0.00</geoidheight><course>272.5</course><type>1</type></trkpt>
      <trkpt lat="38.51166754" lon="-6.61014119"><ele>856</ele><speed>6.75</speed><time>2019-02-23T15:05:37Z</time><pdop>6.068</pdop><geoidheight>0.00</geoidheight><course>273.6</course><type>1</type></trkpt>
      <trkpt lat="38.51169392" lon="-6.61028767"><ele>811</ele><speed>6.59</speed><time>2019-02-23T15:05:39Z</time><pdop>6.068</pdop><geoidheight>0.00</geoidheight><course>290.7</course><type>1</type></trkpt>
      <trkpt lat="38.51173295" lon="-6.61042556"><ele>839</ele><speed>5.69</speed><time>2019-02-23T15:05:41Z</time><pdop>6.068</pdop><geoidheight>0.00</geoidheight><course>290.6</course><type>1</type></trkpt>
      <trkpt lat="38.51179497" lon="-6.61054856"><ele>847</ele><speed>6.18</speed><time>2019-02-23T15:05:43Z</time><pdop>6.068</pdop><geoidheight>0.00</geoidheight><course>297.7</course><type>1</type></trkpt>
      <trkpt lat="38.51185354" lon="-6.61066808"><ele>804</ele><speed>7.11</speed><time>2019-02-23T15:05:45Z</time><pdop>6.068</pdop><geoidheight>0.00</geoidheight><course>300.3</course><type>1</type></trkpt>
      <trkpt lat="38.51191956" lon="-6.61083858"><ele>841</ele><speed>4.41</speed><time>2019-02-23T15:05:48Z</time><pdop>6.068</pdop><geoidheight>0.00</geoidheight><course>297.4</course><type>1</type></trkpt>
      <trkpt lat="38.51200458" lon="-6.61098349"><ele>849</ele><speed>5.99</speed><time>2019-02-23T15:05:51Z</time><pdop>6.068</pdop><geoidheight>0.00</geoidheight><course>308.3</course><type>1</type></trkpt>
      <trkpt lat="38.51206474" lon="-6.61113454"><ele>852</ele><speed>3.23</speed><time>2019-02-23T15:05:54Z</time><pdop>7.585</pdop><geoidheight>0.00</geoidheight><course>277.9</course><type>1</type></trkpt>
      <trkpt lat="38.5121915" lon="-6.61113915"><ele>832</ele><speed>4.63</speed><time>2019-02-23T15:06:00Z</time><pdop>6.068</pdop><geoidheight>0.00</geoidheight><course>64.0</course><type>1</type></trkpt>
      <trkpt lat="38.51218176" lon="-6.61091719"><ele>839</ele><speed>7.46</speed><time>2019-02-23T15:06:03Z</time><pdop>6.068</pdop><geoidheight>0.00</geoidheight><course>99.6</course><type>1</type></trkpt>
      <trkpt lat="38.51211328" lon="-6.61072465"><ele>843</ele><speed>9.80</speed><time>2019-02-23T15:06:05Z</time><pdop>6.068</pdop><geoidheight>0.00</geoidheight><course>113.1</course><type>1</type></trkpt>
      <trkpt lat="38.51201411" lon="-6.61053495"><ele>804</ele><speed>10.10</speed><time>2019-02-23T15:06:07Z</time><pdop>6.068</pdop><geoidheight>0.00</geoidheight><course>125.6</course><type>1</type></trkpt>
      <trkpt lat="38.51186988" lon="-6.61035657"><ele>824</ele><speed>11.59</speed><time>2019-02-23T15:06:09Z</time><pdop>6.068</pdop><geoidheight>0.00</geoidheight><course>134.1</course><type>1</type></trkpt>
      <trkpt lat="38.51179051" lon="-6.61025867"><ele>831</ele><speed>12.37</speed><time>2019-02-23T15:06:10Z</time><pdop>6.068</pdop><geoidheight>0.00</geoidheight><course>135.9</course><type>1</type></trkpt>
      <trkpt lat="38.51170331" lon="-6.61017488"><ele>836</ele><speed>12.23</speed><time>2019-02-23T15:06:11Z</time><pdop>6.068</pdop><geoidheight>0.00</geoidheight><course>140.3</course><type>1</type></trkpt>
      <trkpt lat="38.51155199" lon="-6.6100291"><ele>846</ele><speed>10.08</speed><time>2019-02-23T15:06:13Z</time><pdop>6.068</pdop><geoidheight>0.00</geoidheight><course>138.9</course><type>1</type></trkpt>
      <trkpt lat="38.51143709" lon="-6.60984519"><ele>843</ele><speed>11.98</speed><time>2019-02-23T15:06:15Z</time><pdop>4.5509996</pdop><geoidheight>0.00</geoidheight><course>128.5</course><type>1</type></trkpt>
      <trkpt lat="38.51137461" lon="-6.60971564"><ele>842</ele><speed>13.43</speed><time>2019-02-23T15:06:16Z</time><pdop>4.5509996</pdop><geoidheight>0.00</geoidheight><course>125.2</course><type>1</type></trkpt>
      <trkpt lat="38.51129749" lon="-6.60958041"><ele>843</ele><speed>12.71</speed><time>2019-02-23T15:06:17Z</time><pdop>4.5509996</pdop><geoidheight>0.00</geoidheight><course>121.6</course><type>1</type></trkpt>
      <trkpt lat="38.51124251" lon="-6.60947427"><ele>844</ele><speed>9.90</speed><time>2019-02-23T15:06:18Z</time><pdop>4.5509996</pdop><geoidheight>0.00</geoidheight><course>116.8</course><type>1</type></trkpt>
      <trkpt lat="38.5112075" lon="-6.60938322"><ele>846</ele><speed>7.44</speed><time>2019-02-23T15:06:19Z</time><pdop>4.5509996</pdop><geoidheight>0.00</geoidheight><course>112.0</course><type>1</type></trkpt>
      <trkpt lat="38.51115944" lon="-6.60923461"><ele>847</ele><speed>7.69</speed><time>2019-02-23T15:06:21Z</time><pdop>6.068</pdop><geoidheight>0.00</geoidheight><course>112.6</course><type>1</type></trkpt>
      <trkpt lat="38.51110735" lon="-6.60906746"><ele>849</ele><speed>8.37</speed><time>2019-02-23T15:06:23Z</time><pdop>6.068</pdop><geoidheight>0.00</geoidheight><course>104.3</course><type>1</type></trkpt>
      <trkpt lat="38.5110885" lon="-6.6089227"><ele>851</ele><speed>5.89</speed><time>2019-02-23T15:06:25Z</time><pdop>6.068</pdop><geoidheight>0.00</geoidheight><course>84.7</course><type>1</type></trkpt>
      <trkpt lat="38.51113435" lon="-6.60875251"><ele>852</ele><speed>5.07</speed><time>2019-02-23T15:06:28Z</time><pdop>6.068</pdop><geoidheight>0.00</geoidheight><course>73.3</course><type>1</type></trkpt>
      <trkpt lat="38.51122148" lon="-6.60861095"><ele>838</ele><speed>4.14</speed><time>2019-02-23T15:06:31Z</time><pdop>6.068</pdop><geoidheight>0.00</geoidheight><course>39.2</course><type>1</type></trkpt>
      <trkpt lat="38.51133663" lon="-6.60858756"><ele>826</ele><speed>3.38</speed><time>2019-02-23T15:06:35Z</time><pdop>6.068</pdop><geoidheight>0.00</geoidheight><course>346.5</course><type>1</type></trkpt>
      <trkpt lat="38.51145021" lon="-6.60861498"><ele>848</ele><speed>2.17</speed><time>2019-02-23T15:06:39Z</time><pdop>6.068</pdop><geoidheight>0.00</geoidheight><course>355.0</course><type>1</type></trkpt>
      <trkpt lat="38.5115603" lon="-6.60864544"><ele>850</ele><speed>3.65</speed><time>2019-02-23T15:06:43Z</time><pdop>6.068</pdop><geoidheight>0.00</geoidheight><course>350.0</course><type>1</type></trkpt>
      <trkpt lat="38.51166359" lon="-6.60869809"><ele>851</ele><speed>4.20</speed><time>2019-02-23T15:06:46Z</time><pdop>6.068</pdop><geoidheight>0.00</geoidheight><course>337.8</course><type>1</type></trkpt>
      <trkpt lat="38.5117785" lon="-6.60876401"><ele>817</ele><speed>4.78</speed><time>2019-02-23T15:06:49Z</time><pdop>6.068</pdop><geoidheight>0.00</geoidheight><course>339.8</course><type>1</type></trkpt>
      <trkpt lat="38.51191" lon="-6.60879239"><ele>832</ele><speed>5.00</speed><time>2019-02-23T15:06:52Z</time><pdop>6.068</pdop><geoidheight>0.00</geoidheight><course>338.2</course><type>1</type></trkpt>
      <trkpt lat="38.51202891" lon="-6.60886129"><ele>790</ele><speed>4.69</speed><time>2019-02-23T15:06:55Z</time><pdop>7.585</pdop><geoidheight>0.00</geoidheight><course>345.8</course><type>1</type></trkpt>
      <trkpt lat="38.51216886" lon="-6.60889487"><ele>790</ele><speed>4.62</speed><time>2019-02-23T15:06:58Z</time><pdop>6.068</pdop><geoidheight>0.00</geoidheight><course>355.7</course><type>1</type></trkpt>
      <trkpt lat="38.51228477" lon="-6.60888435"><ele>790</ele><speed>4.81</speed><time>2019-02-23T15:07:01Z</time><pdop>6.068</pdop><geoidheight>0.00</geoidheight><course>4.4</course><type>1</type></trkpt>
      <trkpt lat="38.5124087" lon="-6.60885199"><ele>792</ele><speed>4.33</speed><time>2019-02-23T15:07:04Z</time><pdop>6.068</pdop><geoidheight>0.00</geoidheight><course>5.3</course><type>1</type></trkpt>
      <trkpt lat="38.51252704" lon="-6.60884325"><ele>818</ele><speed>4.51</speed><time>2019-02-23T15:07:07Z</time><pdop>6.068</pdop><geoidheight>0.00</geoidheight><course>3.2</course><type>1</type></trkpt>
      <trkpt lat="38.51263816" lon="-6.60883111"><ele>821</ele><speed>4.67</speed><time>2019-02-23T15:07:10Z</time><pdop>6.068</pdop><geoidheight>0.00</geoidheight><course>3.9</course><type>1</type></trkpt>
      <trkpt lat="38.51280872" lon="-6.60880605"><ele>796</ele><speed>5.81</speed><time>2019-02-23T15:07:14Z</time><pdop>7.585</pdop><geoidheight>0.00</geoidheight><course>3.6</course><type>1</type></trkpt>
      <trkpt lat="38.51295115" lon="-6.60878074"><ele>787</ele><speed>5.44</speed><time>2019-02-23T15:07:17Z</time><pdop>7.585</pdop><geoidheight>0.00</geoidheight><course>11.1</course><type>1</type></trkpt>
      <trkpt lat="38.51309688" lon="-6.60871376"><ele>811</ele><speed>5.30</speed><time>2019-02-23T15:07:20Z</time><pdop>6.068</pdop><geoidheight>0.00</geoidheight><course>19.6</course><type>1</type></trkpt>
      <trkpt lat="38.5132164" lon="-6.60864148"><ele>828</ele><speed>4.01</speed><time>2019-02-23T15:07:23Z</time><pdop>6.068</pdop><geoidheight>0.00</geoidheight><course>22.3</course><type>1</type></trkpt>
      <trkpt lat="38.51333021" lon="-6.60855307"><ele>795</ele><speed>5.71</speed><time>2019-02-23T15:07:26Z</time><pdop>6.068</pdop><geoidheight>0.00</geoidheight><course>22.4</course><type>1</type></trkpt>
      <trkpt lat="38.51346016" lon="-6.60847639"><ele>807</ele><speed>4.55</speed><time>2019-02-23T15:07:29Z</time><pdop>6.068</pdop><geoidheight>0.00</geoidheight><course>24.3</course><type>1</type></trkpt>
      <trkpt lat="38.51356877" lon="-6.60840368"><ele>825</ele><speed>5.42</speed><time>2019-02-23T15:07:32Z</time><pdop>6.068</pdop><geoidheight>0.00</geoidheight><course>34.9</course><type>1</type></trkpt>
      <trkpt lat="38.51369099" lon="-6.60829372"><ele>830</ele><speed>5.16</speed><time>2019-02-23T15:07:35Z</time><pdop>6.068</pdop><geoidheight>0.00</geoidheight><course>51.8</course><type>1</type></trkpt>
      <trkpt lat="38.51378931" lon="-6.60815228"><ele>833</ele><speed>5.73</speed><time>2019-02-23T15:07:38Z</time><pdop>6.068</pdop><geoidheight>0.00</geoidheight><course>45.1</course><type>1</type></trkpt>
      <trkpt lat="38.51388247" lon="-6.60807654"><ele>791</ele><speed>5.10</speed><time>2019-02-23T15:07:40Z</time><pdop>6.068</pdop><geoidheight>0.00</geoidheight><course>30.9</course><type>1</type></trkpt>
      <trkpt lat="38.51399318" lon="-6.6080968"><ele>816</ele><speed>4.29</speed><time>2019-02-23T15:07:43Z</time><pdop>6.068</pdop><geoidheight>0.00</geoidheight><course>333.3</course><type>1</type></trkpt>
      <trkpt lat="38.51406971" lon="-6.60821197"><ele>790</ele><speed>5.28</speed><time>2019-02-23T15:07:46Z</time><pdop>6.068</pdop><geoidheight>0.00</geoidheight><course>305.9</course><type>1</type></trkpt>
      <trkpt lat="38.51410301" lon="-6.60834378"><ele>809</ele><speed>6.47</speed><time>2019-02-23T15:07:48Z</time><pdop>6.068</pdop><geoidheight>0.00</geoidheight><course>276.2</course><type>1</type></trkpt>
      <trkpt lat="38.51409985" lon="-6.60849391"><ele>817</ele><speed>7.64</speed><time>2019-02-23T15:07:50Z</time><pdop>6.068</pdop><geoidheight>0.00</geoidheight><course>263.9</course><type>1</type></trkpt>
      <trkpt lat="38.51407465" lon="-6.60870979"><ele>789</ele><speed>8.49</speed><time>2019-02-23T15:07:52Z</time><pdop>6.068</pdop><geoidheight>0.00</geoidheight><course>254.2</course><type>1</type></trkpt>
      <trkpt lat="38.51402621" lon="-6.60889024"><ele>800</ele><speed>7.82</speed><time>2019-02-23T15:07:54Z</time><pdop>6.068</pdop><geoidheight>0.00</geoidheight><course>249.4</course><type>1</type></trkpt>
      <trkpt lat="38.51397689" lon="-6.60904629"><ele>810</ele><speed>7.68</speed><time>2019-02-23T15:07:56Z</time><pdop>6.068</pdop><geoidheight>0.00</geoidheight><course>253.0</course><type>1</type></trkpt>
      <trkpt lat="38.5139314" lon="-6.60923404"><ele>817</ele><speed>8.60</speed><time>2019-02-23T15:07:58Z</time><pdop>6.068</pdop><geoidheight>0.00</geoidheight><course>253.2</course><type>1</type></trkpt>
      <trkpt lat="38.5138816" lon="-6.60940237"><ele>799</ele><speed>7.83</speed><time>2019-02-23T15:08:00Z</time><pdop>6.068</pdop><geoidheight>0.00</geoidheight><course>246.9</course><type>1</type></trkpt>
      <trkpt lat="38.51384032" lon="-6.60957388"><ele>809</ele><speed>8.57</speed><time>2019-02-23T15:08:02Z</time><pdop>6.068</pdop><geoidheight>0.00</geoidheight><course>255.8</course><type>1</type></trkpt>
      <trkpt lat="38.51380945" lon="-6.60978017"><ele>795</ele><speed>8.62</speed><time>2019-02-23T15:08:04Z</time><pdop>6.068</pdop><geoidheight>0.00</geoidheight><course>263.1</course><type>1</type></trkpt>
      <trkpt lat="38.51379247" lon="-6.60995874"><ele>808</ele><speed>7.51</speed><time>2019-02-23T15:08:06Z</time><pdop>6.068</pdop><geoidheight>0.00</geoidheight><course>254.7</course><type>1</type></trkpt>
      <trkpt lat="38.51373653" lon="-6.6101109"><ele>814</ele><speed>6.58</speed><time>2019-02-23T15:08:08Z</time><pdop>6.068</pdop><geoidheight>0.00</geoidheight><course>246.8</course><type>1</type></trkpt>
      <trkpt lat="38.51369804" lon="-6.6102568"><ele>793</ele><speed>7.37</speed><time>2019-02-23T15:08:10Z</time><pdop>7.585</pdop><geoidheight>0.00</geoidheight><course>255.4</course><type>1</type></trkpt>
      <trkpt lat="38.51367454" lon="-6.61042116"><ele>805</ele><speed>7.18</speed><time>2019-02-23T15:08:12Z</time><pdop>7.585</pdop><geoidheight>0.00</geoidheight><course>260.0</course><type>1</type></trkpt>
      <trkpt lat="38.5136225" lon="-6.61061459"><ele>779</ele><speed>6.21</speed><time>2019-02-23T15:08:15Z</time><pdop>7.585</pdop><geoidheight>0.00</geoidheight><course>262.7</course><type>1</type></trkpt>
      <trkpt lat="38.5136182" lon="-6.61084542"><ele>794</ele><speed>5.91</speed><time>2019-02-23T15:08:18Z</time><pdop>7.585</pdop><geoidheight>0.00</geoidheight><course>270.7</course><type>1</type></trkpt>
      <trkpt lat="38.51361643" lon="-6.6110645"><ele>778</ele><speed>6.04</speed><time>2019-02-23T15:08:22Z</time><pdop>7.585</pdop><geoidheight>0.00</geoidheight><course>271.9</course><type>1</type></trkpt>
      <trkpt lat="38.51356326" lon="-6.61130573"><ele>777</ele><speed>9.15</speed><time>2019-02-23T15:08:25Z</time><pdop>7.585</pdop><geoidheight>0.00</geoidheight><course>234.0</course><type>1</type></trkpt>
      <trkpt lat="38.51338738" lon="-6.6114687"><ele>777</ele><speed>11.97</speed><time>2019-02-23T15:08:27Z</time><pdop>6.068</pdop><geoidheight>0.00</geoidheight><course>209.7</course><type>1</type></trkpt>
      <trkpt lat="38.51318252" lon="-6.6115396"><ele>785</ele><speed>11.42</speed><time>2019-02-23T15:08:29Z</time><pdop>6.068</pdop><geoidheight>0.00</geoidheight><course>181.9</course><type>1</type></trkpt>
      <trkpt lat="38.51298948" lon="-6.61151797"><ele>786</ele><speed>10.95</speed><time>2019-02-23T15:08:31Z</time><pdop>6.068</pdop><geoidheight>0.00</geoidheight><course>163.9</course><type>1</type></trkpt>
      <trkpt lat="38.51281202" lon="-6.61143578"><ele>779</ele><speed>11.50</speed><time>2019-02-23T15:08:33Z</time><pdop>6.068</pdop><geoidheight>0.00</geoidheight><course>151.1</course><type>1</type></trkpt>
      <trkpt lat="38.51263351" lon="-6.61128975"><ele>806</ele><speed>11.97</speed><time>2019-02-23T15:08:35Z</time><pdop>6.068</pdop><geoidheight>0.00</geoidheight><course>145.1</course><type>1</type></trkpt>
      <trkpt lat="38.51246879" lon="-6.61115432"><ele>786</ele><speed>10.80</speed><time>2019-02-23T15:08:37Z</time><pdop>6.068</pdop><geoidheight>0.00</geoidheight><course>144.8</course><type>1</type></trkpt>
      <trkpt lat="38.51231532" lon="-6.61098751"><ele>791</ele><speed>12.51</speed><time>2019-02-23T15:08:39Z</time><pdop>6.068</pdop><geoidheight>0.00</geoidheight><course>136.9</course><type>1</type></trkpt>
      <trkpt lat="38.51222811" lon="-6.61087799"><ele>792</ele><speed>13.22</speed><time>2019-02-23T15:08:40Z</time><pdop>6.068</pdop><geoidheight>0.00</geoidheight><course>131.4</course><type>1</type></trkpt>
      <trkpt lat="38.5121391" lon="-6.61076332"><ele>794</ele><speed>13.30</speed><time>2019-02-23T15:08:41Z</time><pdop>6.068</pdop><geoidheight>0.00</geoidheight><course>129.5</course><type>1</type></trkpt>
      <trkpt lat="38.5120628" lon="-6.61065201"><ele>796</ele><speed>12.10</speed><time>2019-02-23T15:08:42Z</time><pdop>6.068</pdop><geoidheight>0.00</geoidheight><course>130.0</course><type>1</type></trkpt>
      <trkpt lat="38.51199306" lon="-6.61053809"><ele>798</ele><speed>10.82</speed><time>2019-02-23T15:08:43Z</time><pdop>6.068</pdop><geoidheight>0.00</geoidheight><course>132.0</course><type>1</type></trkpt>
      <trkpt lat="38.51186376" lon="-6.61033418"><ele>790</ele><speed>11.12</speed><time>2019-02-23T15:08:45Z</time><pdop>6.068</pdop><geoidheight>0.00</geoidheight><course>127.3</course><type>1</type></trkpt>
      <trkpt lat="38.51173721" lon="-6.61013181"><ele>796</ele><speed>12.24</speed><time>2019-02-23T15:08:47Z</time><pdop>6.068</pdop><geoidheight>0.00</geoidheight><course>126.4</course><type>1</type></trkpt>
      <trkpt lat="38.51167629" lon="-6.61001676"><ele>778</ele><speed>11.66</speed><time>2019-02-23T15:08:48Z</time><pdop>6.068</pdop><geoidheight>0.00</geoidheight><course>126.3</course><type>1</type></trkpt>
      <trkpt lat="38.51156632" lon="-6.60980969"><ele>779</ele><speed>9.77</speed><time>2019-02-23T15:08:50Z</time><pdop>6.068</pdop><geoidheight>0.00</geoidheight><course>124.2</course><type>1</type></trkpt>
      <trkpt lat="38.51146707" lon="-6.6096134"><ele>786</ele><speed>10.85</speed><time>2019-02-23T15:08:52Z</time><pdop>6.068</pdop><geoidheight>0.00</geoidheight><course>123.8</course><type>1</type></trkpt>
      <trkpt lat="38.51134189" lon="-6.60940199"><ele>793</ele><speed>11.56</speed><time>2019-02-23T15:08:54Z</time><pdop>6.068</pdop><geoidheight>0.00</geoidheight><course>126.5</course><type>1</type></trkpt>
      <trkpt lat="38.51123081" lon="-6.60921247"><ele>803</ele><speed>10.32</speed><time>2019-02-23T15:08:56Z</time><pdop>6.068</pdop><geoidheight>0.00</geoidheight><course>126.9</course><type>1</type></trkpt>
      <trkpt lat="38.51112127" lon="-6.60901555"><ele>807</ele><speed>10.21</speed><time>2019-02-23T15:08:58Z</time><pdop>4.5509996</pdop><geoidheight>0.00</geoidheight><course>127.1</course><type>1</type></trkpt>
      <trkpt lat="38.51106626" lon="-6.60891968"><ele>809</ele><speed>10.40</speed><time>2019-02-23T15:08:59Z</time><pdop>6.068</pdop><geoidheight>0.00</geoidheight><course>126.8</course><type>1</type></trkpt>
      <trkpt lat="38.51101569" lon="-6.60881614"><ele>810</ele><speed>9.99</speed><time>2019-02-23T15:09:00Z</time><pdop>4.5509996</pdop><geoidheight>0.00</geoidheight><course>125.6</course><type>1</type></trkpt>
      <trkpt lat="38.51091936" lon="-6.60861709"><ele>810</ele><speed>9.36</speed><time>2019-02-23T15:09:02Z</time><pdop>6.068</pdop><geoidheight>0.00</geoidheight><course>122.5</course><type>1</type></trkpt>
      <trkpt lat="38.51084433" lon="-6.60842584"><ele>810</ele><speed>9.40</speed><time>2019-02-23T15:09:04Z</time><pdop>6.068</pdop><geoidheight>0.00</geoidheight><course>121.8</course><type>1</type></trkpt>
      <trkpt lat="38.51076076" lon="-6.60823729"><ele>810</ele><speed>9.92</speed><time>2019-02-23T15:09:06Z</time><pdop>6.068</pdop><geoidheight>0.00</geoidheight><course>112.3</course><type>1</type></trkpt>
      <trkpt lat="38.5106894" lon="-6.60803752"><ele>811</ele><speed>9.10</speed><time>2019-02-23T15:09:08Z</time><pdop>4.5509996</pdop><geoidheight>0.00</geoidheight><course>111.6</course><type>1</type></trkpt>
      <trkpt lat="38.51065674" lon="-6.60793702"><ele>811</ele><speed>8.88</speed><time>2019-02-23T15:09:09Z</time><pdop>4.5509996</pdop><geoidheight>0.00</geoidheight><course>117.6</course><type>1</type></trkpt>
      <trkpt lat="38.51062292" lon="-6.60783547"><ele>811</ele><speed>9.16</speed><time>2019-02-23T15:09:10Z</time><pdop>4.5509996</pdop><geoidheight>0.00</geoidheight><course>125.0</course><type>1</type></trkpt>
      <trkpt lat="38.51052442" lon="-6.60764992"><ele>811</ele><speed>10.01</speed><time>2019-02-23T15:09:12Z</time><pdop>6.068</pdop><geoidheight>0.00</geoidheight><course>126.0</course><type>1</type></trkpt>
      <trkpt lat="38.51043627" lon="-6.60745612"><ele>812</ele><speed>9.31</speed><time>2019-02-23T15:09:14Z</time><pdop>4.5509996</pdop><geoidheight>0.00</geoidheight><course>117.5</course><type>1</type></trkpt>
      <trkpt lat="38.51039951" lon="-6.60736403"><ele>812</ele><speed>9.52</speed><time>2019-02-23T15:09:15Z</time><pdop>4.5509996</pdop><geoidheight>0.00</geoidheight><course>117.6</course><type>1</type></trkpt>
      <trkpt lat="38.51035379" lon="-6.60726902"><ele>813</ele><speed>9.86</speed><time>2019-02-23T15:09:16Z</time><pdop>4.5509996</pdop><geoidheight>0.00</geoidheight><course>119.3</course><type>1</type></trkpt>
      <trkpt lat="38.51031007" lon="-6.60716414"><ele>812</ele><speed>9.97</speed><time>2019-02-23T15:09:17Z</time><pdop>4.5509996</pdop><geoidheight>0.00</geoidheight><course>122.0</course><type>1</type></trkpt>
      <trkpt lat="38.51025465" lon="-6.60707112"><ele>813</ele><speed>10.10</speed><time>2019-02-23T15:09:18Z</time><pdop>4.5509996</pdop><geoidheight>0.00</geoidheight><course>122.2</course><type>1</type></trkpt>
      <trkpt lat="38.51020959" lon="-6.60696843"><ele>813</ele><speed>9.97</speed><time>2019-02-23T15:09:19Z</time><pdop>4.5509996</pdop><geoidheight>0.00</geoidheight><course>116.0</course><type>1</type></trkpt>
      <trkpt lat="38.51018772" lon="-6.60685296"><ele>812</ele><speed>9.91</speed><time>2019-02-23T15:09:20Z</time><pdop>4.5509996</pdop><geoidheight>0.00</geoidheight><course>108.8</course><type>1</type></trkpt>
      <trkpt lat="38.51016677" lon="-6.6067431"><ele>813</ele><speed>9.52</speed><time>2019-02-23T15:09:21Z</time><pdop>4.5509996</pdop><geoidheight>0.00</geoidheight><course>99.9</course><type>1</type></trkpt>
      <trkpt lat="38.51015091" lon="-6.60665227"><ele>814</ele><speed>8.35</speed><time>2019-02-23T15:09:22Z</time><pdop>4.5509996</pdop><geoidheight>0.00</geoidheight><course>90.3</course><type>1</type></trkpt>
      <trkpt lat="38.51015711" lon="-6.60656074"><ele>815</ele><speed>7.56</speed><time>2019-02-23T15:09:23Z</time><pdop>4.5509996</pdop><geoidheight>0.00</geoidheight><course>81.6</course><type>1</type></trkpt>
      <trkpt lat="38.5101886" lon="-6.60642926"><ele>818</ele><speed>5.74</speed><time>2019-02-23T15:09:25Z</time><pdop>4.5509996</pdop><geoidheight>0.00</geoidheight><course>61.8</course><type>1</type></trkpt>
      <trkpt lat="38.51025915" lon="-6.60635857"><ele>821</ele><speed>4.40</speed><time>2019-02-23T15:09:27Z</time><pdop>4.5509996</pdop><geoidheight>0.00</geoidheight><course>25.6</course><type>1</type></trkpt>
      <trkpt lat="38.51035673" lon="-6.60636996"><ele>823</ele><speed>3.57</speed><time>2019-02-23T15:09:30Z</time><pdop>6.068</pdop><geoidheight>0.00</geoidheight><course>339.7</course><type>1</type></trkpt>
      <trkpt lat="38.51044932" lon="-6.6064429"><ele>826</ele><speed>4.20</speed><time>2019-02-23T15:09:33Z</time><pdop>4.5509996</pdop><geoidheight>0.00</geoidheight><course>321.7</course><type>1</type></trkpt>
      <trkpt lat="38.51052097" lon="-6.60654157"><ele>828</ele><speed>4.52</speed><time>2019-02-23T15:09:36Z</time><pdop>6.068</pdop><geoidheight>0.00</geoidheight><course>300.9</course><type>1</type></trkpt>
      <trkpt lat="38.51057606" lon="-6.60666596"><ele>830</ele><speed>4.91</speed><time>2019-02-23T15:09:38Z</time><pdop>6.068</pdop><geoidheight>0.00</geoidheight><course>300.2</course><type>1</type></trkpt>
      <trkpt lat="38.51062904" lon="-6.60678613"><ele>832</ele><speed>3.94</speed><time>2019-02-23T15:09:41Z</time><pdop>6.068</pdop><geoidheight>0.00</geoidheight><course>285.6</course><type>1</type></trkpt>
      <trkpt lat="38.51068541" lon="-6.60692606"><ele>831</ele><speed>5.85</speed><time>2019-02-23T15:09:44Z</time><pdop>6.068</pdop><geoidheight>0.00</geoidheight><course>297.6</course><type>1</type></trkpt>
      <trkpt lat="38.51076394" lon="-6.60705744"><ele>832</ele><speed>3.63</speed><time>2019-02-23T15:09:47Z</time><pdop>6.068</pdop><geoidheight>0.00</geoidheight><course>302.8</course><type>1</type></trkpt>
      <trkpt lat="38.5108923" lon="-6.60704905"><ele>792</ele><speed>4.07</speed><time>2019-02-23T15:09:52Z</time><pdop>6.068</pdop><geoidheight>0.00</geoidheight><course>61.9</course><type>1</type></trkpt>
      <trkpt lat="38.51091949" lon="-6.6068703"><ele>822</ele><speed>6.14</speed><time>2019-02-23T15:09:55Z</time><pdop>4.5509996</pdop><geoidheight>0.00</geoidheight><course>83.0</course><type>1</type></trkpt>
      <trkpt lat="38.51089111" lon="-6.60670778"><ele>824</ele><speed>8.36</speed><time>2019-02-23T15:09:57Z</time><pdop>4.5509996</pdop><geoidheight>0.00</geoidheight><course>102.5</course><type>1</type></trkpt>
      <trkpt lat="38.5108623" lon="-6.60661557"><ele>825</ele><speed>8.85</speed><time>2019-02-23T15:09:58Z</time><pdop>4.5509996</pdop><geoidheight>0.00</geoidheight><course>110.6</course><type>1</type></trkpt>
      <trkpt lat="38.5108313" lon="-6.60651615"><ele>826</ele><speed>8.96</speed><time>2019-02-23T15:09:59Z</time><pdop>4.5509996</pdop><geoidheight>0.00</geoidheight><course>117.5</course><type>1</type></trkpt>
      <trkpt lat="38.51078549" lon="-6.60643332"><ele>827</ele><speed>9.03</speed><time>2019-02-23T15:10:00Z</time><pdop>4.5509996</pdop><geoidheight>0.00</geoidheight><course>124.1</course><type>1</type></trkpt>
      <trkpt lat="38.51073144" lon="-6.60633741"><ele>827</ele><speed>9.78</speed><time>2019-02-23T15:10:01Z</time><pdop>4.5509996</pdop><geoidheight>0.00</geoidheight><course>128.4</course><type>1</type></trkpt>
      <trkpt lat="38.51061041" lon="-6.6061678"><ele>828</ele><speed>10.11</speed><time>2019-02-23T15:10:03Z</time><pdop>6.068</pdop><geoidheight>0.00</geoidheight><course>133.4</course><type>1</type></trkpt>
      <trkpt lat="38.51051441" lon="-6.60600574"><ele>828</ele><speed>7.74</speed><time>2019-02-23T15:10:05Z</time><pdop>6.068</pdop><geoidheight>0.00</geoidheight><course>115.2</course><type>1</type></trkpt>
      <trkpt lat="38.51050316" lon="-6.60585729"><ele>826</ele><speed>6.56</speed><time>2019-02-23T15:10:07Z</time><pdop>6.068</pdop><geoidheight>0.00</geoidheight><course>74.9</course><type>1</type></trkpt>
      <trkpt lat="38.51057002" lon="-6.60577825"><ele>826</ele><speed>4.53</speed><time>2019-02-23T15:10:09Z</time><pdop>4.5509996</pdop><geoidheight>0.00</geoidheight><course>22.9</course><type>1</type></trkpt>
      <trkpt lat="38.51065007" lon="-6.6058517"><ele>828</ele><speed>4.34</speed><time>2019-02-23T15:10:12Z</time><pdop>4.5509996</pdop><geoidheight>0.00</geoidheight><course>299.5</course><type>1</type></trkpt>
      <trkpt lat="38.51069454" lon="-6.60596338"><ele>828</ele><speed>6.31</speed><time>2019-02-23T15:10:14Z</time><pdop>6.068</pdop><geoidheight>0.00</geoidheight><course>294.7</course><type>1</type></trkpt>
      <trkpt lat="38.51075102" lon="-6.60609672"><ele>829</ele><speed>6.34</speed><time>2019-02-23T15:10:16Z</time><pdop>6.068</pdop><geoidheight>0.00</geoidheight><course>294.5</course><type>1</type></trkpt>
      <trkpt lat="38.51079706" lon="-6.60622426"><ele>829</ele><speed>5.21</speed><time>2019-02-23T15:10:18Z</time><pdop>6.068</pdop><geoidheight>0.00</geoidheight><course>287.9</course><type>1</type></trkpt>
      <trkpt lat="38.51083449" lon="-6.60637654"><ele>809</ele><speed>6.14</speed><time>2019-02-23T15:10:20Z</time><pdop>6.068</pdop><geoidheight>0.00</geoidheight><course>276.3</course><type>1</type></trkpt>
      <trkpt lat="38.51084126" lon="-6.60653318"><ele>811</ele><speed>7.16</speed><time>2019-02-23T15:10:22Z</time><pdop>6.068</pdop><geoidheight>0.00</geoidheight><course>279.2</course><type>1</type></trkpt>
      <trkpt lat="38.51085556" lon="-6.60667845"><ele>794</ele><speed>6.00</speed><time>2019-02-23T15:10:24Z</time><pdop>6.068</pdop><geoidheight>0.00</geoidheight><course>268.7</course><type>1</type></trkpt>
      <trkpt lat="38.5108659" lon="-6.60689187"><ele>810</ele><speed>7.05</speed><time>2019-02-23T15:10:27Z</time><pdop>6.068</pdop><geoidheight>0.00</geoidheight><course>280.1</course><type>1</type></trkpt>
      <trkpt lat="38.51091499" lon="-6.60705541"><ele>805</ele><speed>6.34</speed><time>2019-02-23T15:10:29Z</time><pdop>6.068</pdop><geoidheight>0.00</geoidheight><course>290.1</course><type>1</type></trkpt>
      <trkpt lat="38.51096234" lon="-6.60719075"><ele>808</ele><speed>5.60</speed><time>2019-02-23T15:10:31Z</time><pdop>6.068</pdop><geoidheight>0.00</geoidheight><course>299.4</course><type>1</type></trkpt>
      <trkpt lat="38.51103835" lon="-6.60732606"><ele>818</ele><speed>5.63</speed><time>2019-02-23T15:10:34Z</time><pdop>6.068</pdop><geoidheight>0.00</geoidheight><course>305.8</course><type>1</type></trkpt>
      <trkpt lat="38.51113241" lon="-6.60747698"><ele>825</ele><speed>5.53</speed><time>2019-02-23T15:10:37Z</time><pdop>6.068</pdop><geoidheight>0.00</geoidheight><course>313.0</course><type>1</type></trkpt>
      <trkpt lat="38.51121382" lon="-6.60761266"><ele>830</ele><speed>4.95</speed><time>2019-02-23T15:10:40Z</time><pdop>6.068</pdop><geoidheight>0.00</geoidheight><course>300.4</course><type>1</type></trkpt>
      <trkpt lat="38.51129388" lon="-6.60774567"><ele>831</ele><speed>5.77</speed><time>2019-02-23T15:10:43Z</time><pdop>6.068</pdop><geoidheight>0.00</geoidheight><course>315.4</course><type>1</type></trkpt>
      <trkpt lat="38.5113817" lon="-6.60784362"><ele>831</ele><speed>4.96</speed><time>2019-02-23T15:10:46Z</time><pdop>6.068</pdop><geoidheight>0.00</geoidheight><course>312.0</course><type>1</type></trkpt>
      <trkpt lat="38.51151766" lon="-6.60793417"><ele>828</ele><speed>4.98</speed><time>2019-02-23T15:10:49Z</time><pdop>6.068</pdop><geoidheight>0.00</geoidheight><course>358.7</course><type>1</type></trkpt>
      <trkpt lat="38.51160844" lon="-6.60785042"><ele>799</ele><speed>4.66</speed><time>2019-02-23T15:10:52Z</time><pdop>6.068</pdop><geoidheight>0.00</geoidheight><course>51.1</course><type>1</type></trkpt>
      <trkpt lat="38.51165627" lon="-6.60771868"><ele>809</ele><speed>6.52</speed><time>2019-02-23T15:10:54Z</time><pdop>6.068</pdop><geoidheight>0.00</geoidheight><course>71.1</course><type>1</type></trkpt>
      <trkpt lat="38.51164386" lon="-6.60755116"><ele>816</ele><speed>9.00</speed><time>2019-02-23T15:10:56Z</time><pdop>6.068</pdop><geoidheight>0.00</geoidheight><course>104.5</course><type>1</type></trkpt>
      <trkpt lat="38.51156732" lon="-6.60737847"><ele>822</ele><speed>8.64</speed><time>2019-02-23T15:10:58Z</time><pdop>6.068</pdop><geoidheight>0.00</geoidheight><course>139.5</course><type>1</type></trkpt>
      <trkpt lat="38.51140182" lon="-6.60730317"><ele>822</ele><speed>10.67</speed><time>2019-02-23T15:11:00Z</time><pdop>6.068</pdop><geoidheight>0.00</geoidheight><course>169.3</course><type>1</type></trkpt>
      <trkpt lat="38.51129265" lon="-6.60731262"><ele>823</ele><speed>12.12</speed><time>2019-02-23T15:11:01Z</time><pdop>6.068</pdop><geoidheight>0.00</geoidheight><course>182.4</course><type>1</type></trkpt>
      <trkpt lat="38.51118908" lon="-6.60734631"><ele>825</ele><speed>11.87</speed><time>2019-02-23T15:11:02Z</time><pdop>4.5509996</pdop><geoidheight>0.00</geoidheight><course>198.1</course><type>1</type></trkpt>
      <trkpt lat="38.51111022" lon="-6.6074139"><ele>826</ele><speed>10.45</speed><time>2019-02-23T15:11:03Z</time><pdop>4.5509996</pdop><geoidheight>0.00</geoidheight><course>216.4</course><type>1</type></trkpt>
      <trkpt lat="38.51105124" lon="-6.60749232"><ele>827</ele><speed>9.15</speed><time>2019-02-23T15:11:04Z</time><pdop>4.5509996</pdop><geoidheight>0.00</geoidheight><course>235.0</course><type>1</type></trkpt>
      <trkpt lat="38.51100798" lon="-6.60757684"><ele>827</ele><speed>8.42</speed><time>2019-02-23T15:11:05Z</time><pdop>4.5509996</pdop><geoidheight>0.00</geoidheight><course>244.2</course><type>1</type></trkpt>
      <trkpt lat="38.5109746" lon="-6.60765976"><ele>827</ele><speed>7.95</speed><time>2019-02-23T15:11:06Z</time><pdop>4.5509996</pdop><geoidheight>0.00</geoidheight><course>246.2</course><type>1</type></trkpt>
      <trkpt lat="38.51091338" lon="-6.60780975"><ele>827</ele><speed>7.71</speed><time>2019-02-23T15:11:08Z</time><pdop>4.5509996</pdop><geoidheight>0.00</geoidheight><course>255.0</course><type>1</type></trkpt>
      <trkpt lat="38.51091246" lon="-6.60797816"><ele>827</ele><speed>7.09</speed><time>2019-02-23T15:11:10Z</time><pdop>4.5509996</pdop><geoidheight>0.00</geoidheight><course>276.3</course><type>1</type></trkpt>
      <trkpt lat="38.51093551" lon="-6.60812954"><ele>827</ele><speed>6.37</speed><time>2019-02-23T15:11:12Z</time><pdop>4.5509996</pdop><geoidheight>0.00</geoidheight><course>279.9</course><type>1</type></trkpt>
      <trkpt lat="38.51095732" lon="-6.60826033"><ele>825</ele><speed>6.38</speed><time>2019-02-23T15:11:14Z</time><pdop>4.5509996</pdop><geoidheight>0.00</geoidheight><course>295.0</course><type>1</type></trkpt>
      <trkpt lat="38.51102544" lon="-6.60836637"><ele>824</ele><speed>5.80</speed><time>2019-02-23T15:11:16Z</time><pdop>4.5509996</pdop><geoidheight>0.00</geoidheight><course>316.3</course><type>1</type></trkpt>
      <trkpt lat="38.51109809" lon="-6.60845796"><ele>823</ele><speed>4.94</speed><time>2019-02-23T15:11:18Z</time><pdop>4.5509996</pdop><geoidheight>0.00</geoidheight><course>315.4</course><type>1</type></trkpt>
      <trkpt lat="38.51119227" lon="-6.60856513"><ele>822</ele><speed>4.57</speed><time>2019-02-23T15:11:21Z</time><pdop>6.068</pdop><geoidheight>0.00</geoidheight><course>318.0</course><type>1</type></trkpt>
      <trkpt lat="38.5113051" lon="-6.60863928"><ele>820</ele><speed>4.70</speed><time>2019-02-23T15:11:24Z</time><pdop>6.068</pdop><geoidheight>0.00</geoidheight><course>345.2</course><type>1</type></trkpt>
      <trkpt lat="38.5114485" lon="-6.60866075"><ele>818</ele><speed>5.04</speed><time>2019-02-23T15:11:27Z</time><pdop>6.068</pdop><geoidheight>0.00</geoidheight><course>355.3</course><type>1</type></trkpt>
      <trkpt lat="38.51156104" lon="-6.60865808"><ele>818</ele><speed>3.67</speed><time>2019-02-23T15:11:30Z</time><pdop>6.068</pdop><geoidheight>0.00</geoidheight><course>11.1</course><type>1</type></trkpt>
      <trkpt lat="38.51168532" lon="-6.60862894"><ele>818</ele><speed>4.86</speed><time>2019-02-23T15:11:33Z</time><pdop>6.068</pdop><geoidheight>0.00</geoidheight><course>8.8</course><type>1</type></trkpt>
      <trkpt lat="38.51179928" lon="-6.60862202"><ele>815</ele><speed>3.81</speed><time>2019-02-23T15:11:36Z</time><pdop>6.068</pdop><geoidheight>0.00</geoidheight><course>358.1</course><type>1</type></trkpt>
      <trkpt lat="38.51191211" lon="-6.60863532"><ele>781</ele><speed>5.00</speed><time>2019-02-23T15:11:39Z</time><pdop>6.068</pdop><geoidheight>0.00</geoidheight><course>352.9</course><type>1</type></trkpt>
      <trkpt lat="38.51202574" lon="-6.60864706"><ele>799</ele><speed>3.69</speed><time>2019-02-23T15:11:42Z</time><pdop>6.068</pdop><geoidheight>0.00</geoidheight><course>2.3</course><type>1</type></trkpt>
      <trkpt lat="38.51213962" lon="-6.60861318"><ele>789</ele><speed>4.88</speed><time>2019-02-23T15:11:45Z</time><pdop>6.068</pdop><geoidheight>0.00</geoidheight><course>14.1</course><type>1</type></trkpt>
      <trkpt lat="38.51226227" lon="-6.60856743"><ele>802</ele><speed>4.08</speed><time>2019-02-23T15:11:48Z</time><pdop>6.068</pdop><geoidheight>0.00</geoidheight><course>12.8</course><type>1</type></trkpt>
      <trkpt lat="38.51238824" lon="-6.60852571"><ele>806</ele><speed>4.65</speed><time>2019-02-23T15:11:51Z</time><pdop>6.068</pdop><geoidheight>0.00</geoidheight><course>12.8</course><type>1</type></trkpt>
      <trkpt lat="38.51250193" lon="-6.60849677"><ele>790</ele><speed>3.31</speed><time>2019-02-23T15:11:54Z</time><pdop>6.068</pdop><geoidheight>0.00</geoidheight><course>16.1</course><type>1</type></trkpt>
      <trkpt lat="38.51264514" lon="-6.60847839"><ele>804</ele><speed>4.27</speed><time>2019-02-23T15:11:58Z</time><pdop>6.068</pdop><geoidheight>0.00</geoidheight><course>20.7</course><type>1</type></trkpt>
      <trkpt lat="38.51275977" lon="-6.60837385"><ele>803</ele><speed>4.52</speed><time>2019-02-23T15:12:02Z</time><pdop>6.068</pdop><geoidheight>0.00</geoidheight><course>45.7</course><type>1</type></trkpt>
      <trkpt lat="38.51285406" lon="-6.60822821"><ele>810</ele><speed>4.71</speed><time>2019-02-23T15:12:05Z</time><pdop>6.068</pdop><geoidheight>0.00</geoidheight><course>50.5</course><type>1</type></trkpt>
      <trkpt lat="38.51293353" lon="-6.60810578"><ele>812</ele><speed>5.03</speed><time>2019-02-23T15:12:08Z</time><pdop>6.068</pdop><geoidheight>0.00</geoidheight><course>53.5</course><type>1</type></trkpt>
      <trkpt lat="38.51303588" lon="-6.60798874"><ele>810</ele><speed>4.29</speed><time>2019-02-23T15:12:11Z</time><pdop>6.068</pdop><geoidheight>0.00</geoidheight><course>19.4</course><type>1</type></trkpt>
      <trkpt lat="38.51310159" lon="-6.60813397"><ele>807</ele><speed>6.58</speed><time>2019-02-23T15:12:15Z</time><pdop>6.068</pdop><geoidheight>0.00</geoidheight><course>266.8</course><type>1</type></trkpt>
      <trkpt lat="38.51303147" lon="-6.60829931"><ele>805</ele><speed>9.36</speed><time>2019-02-23T15:12:17Z</time><pdop>6.068</pdop><geoidheight>0.00</geoidheight><course>236.8</course><type>1</type></trkpt>
      <trkpt lat="38.51292173" lon="-6.60845848"><ele>804</ele><speed>9.30</speed><time>2019-02-23T15:12:19Z</time><pdop>6.068</pdop><geoidheight>0.00</geoidheight><course>228.6</course><type>1</type></trkpt>
      <trkpt lat="38.51280686" lon="-6.60862373"><ele>803</ele><speed>9.04</speed><time>2019-02-23T15:12:21Z</time><pdop>6.068</pdop><geoidheight>0.00</geoidheight><course>232.8</course><type>1</type></trkpt>
      <trkpt lat="38.51268811" lon="-6.60880855"><ele>790</ele><speed>10.16</speed><time>2019-02-23T15:12:23Z</time><pdop>6.068</pdop><geoidheight>0.00</geoidheight><course>230.5</course><type>1</type></trkpt>
      <trkpt lat="38.512573" lon="-6.60899838"><ele>796</ele><speed>9.27</speed><time>2019-02-23T15:12:25Z</time><pdop>6.068</pdop><geoidheight>0.00</geoidheight><course>230.7</course><type>1</type></trkpt>
      <trkpt lat="38.51248175" lon="-6.60916341"><ele>800</ele><speed>8.57</speed><time>2019-02-23T15:12:27Z</time><pdop>6.068</pdop><geoidheight>0.00</geoidheight><course>237.1</course><type>1</type></trkpt>
      <trkpt lat="38.51241588" lon="-6.60935478"><ele>799</ele><speed>9.13</speed><time>2019-02-23T15:12:29Z</time><pdop>6.068</pdop><geoidheight>0.00</geoidheight><course>244.0</course><type>1</type></trkpt>
      <trkpt lat="38.51235827" lon="-6.60955385"><ele>798</ele><speed>8.06</speed><time>2019-02-23T15:12:31Z</time><pdop>6.068</pdop><geoidheight>0.00</geoidheight><course>254.4</course><type>1</type></trkpt>
      <trkpt lat="38.51230888" lon="-6.60971994"><ele>798</ele><speed>6.92</speed><time>2019-02-23T15:12:33Z</time><pdop>6.068</pdop><geoidheight>0.00</geoidheight><course>250.6</course><type>1</type></trkpt>
      <trkpt lat="38.51226018" lon="-6.60987551"><ele>799</ele><speed>7.32</speed><time>2019-02-23T15:12:35Z</time><pdop>6.068</pdop><geoidheight>0.00</geoidheight><course>251.0</course><type>1</type></trkpt>
      <trkpt lat="38.51223815" lon="-6.61004148"><ele>798</ele><speed>8.23</speed><time>2019-02-23T15:12:37Z</time><pdop>6.068</pdop><geoidheight>0.00</geoidheight><course>260.2</course><type>1</type></trkpt>
      <trkpt lat="38.51220707" lon="-6.61022597"><ele>798</ele><speed>6.88</speed><time>2019-02-23T15:12:39Z</time><pdop>4.5509996</pdop><geoidheight>0.00</geoidheight><course>258.3</course><type>1</type></trkpt>
      <trkpt lat="38.51218306" lon="-6.6103626"><ele>797</ele><speed>6.03</speed><time>2019-02-23T15:12:41Z</time><pdop>6.068</pdop><geoidheight>0.00</geoidheight><course>262.4</course><type>1</type></trkpt>
      <trkpt lat="38.51216835" lon="-6.6105014"><ele>796</ele><speed>6.93</speed><time>2019-02-23T15:12:43Z</time><pdop>6.068</pdop><geoidheight>0.00</geoidheight><course>265.6</course><type>1</type></trkpt>
      <trkpt lat="38.51216074" lon="-6.61065868"><ele>797</ele><speed>6.46</speed><time>2019-02-23T15:12:45Z</time><pdop>6.068</pdop><geoidheight>0.00</geoidheight><course>260.4</course><type>1</type></trkpt>
      <trkpt lat="38.51215065" lon="-6.61086577"><ele>794</ele><speed>6.32</speed><time>2019-02-23T15:12:48Z</time><pdop>6.068</pdop><geoidheight>0.00</geoidheight><course>268.1</course><type>1</type></trkpt>
      <trkpt lat="38.51216974" lon="-6.61100628"><ele>793</ele><speed>6.25</speed><time>2019-02-23T15:12:50Z</time><pdop>6.068</pdop><geoidheight>0.00</geoidheight><course>274.8</course><type>1</type></trkpt>
      <trkpt lat="38.51218772" lon="-6.61119204"><ele>794</ele><speed>5.77</speed><time>2019-02-23T15:12:53Z</time><pdop>6.068</pdop><geoidheight>0.00</geoidheight><course>272.6</course><type>1</type></trkpt>
      <trkpt lat="38.51220067" lon="-6.61138398"><ele>795</ele><speed>5.01</speed><time>2019-02-23T15:12:56Z</time><pdop>6.068</pdop><geoidheight>0.00</geoidheight><course>278.6</course><type>1</type></trkpt>
      <trkpt lat="38.51223588" lon="-6.61153517"><ele>795</ele><speed>4.65</speed><time>2019-02-23T15:12:59Z</time><pdop>6.068</pdop><geoidheight>0.00</geoidheight><course>288.8</course><type>1</type></trkpt>
      <trkpt lat="38.51228458" lon="-6.61168697"><ele>796</ele><speed>4.57</speed><time>2019-02-23T15:13:02Z</time><pdop>7.585</pdop><geoidheight>0.00</geoidheight><course>293.2</course><type>1</type></trkpt>
      <trkpt lat="38.51235254" lon="-6.61181213"><ele>802</ele><speed>3.89</speed><time>2019-02-23T15:13:05Z</time><pdop>6.068</pdop><geoidheight>0.00</geoidheight><course>297.8</course><type>1</type></trkpt>
      <trkpt lat="38.5124416" lon="-6.61196486"><ele>793</ele><speed>4.44</speed><time>2019-02-23T15:13:10Z</time><pdop>6.068</pdop><geoidheight>0.00</geoidheight><course>316.5</course><type>1</type></trkpt>
      <trkpt lat="38.51249444" lon="-6.61210129"><ele>792</ele><speed>4.95</speed><time>2019-02-23T15:13:13Z</time><pdop>6.068</pdop><geoidheight>0.00</geoidheight><course>279.6</course><type>1</type></trkpt>
      <trkpt lat="38.51248552" lon="-6.61224129"><ele>800</ele><speed>6.05</speed><time>2019-02-23T15:13:15Z</time><pdop>6.068</pdop><geoidheight>0.00</geoidheight><course>281.3</course><type>1</type></trkpt>
      <trkpt lat="38.51250395" lon="-6.61238549"><ele>801</ele><speed>5.69</speed><time>2019-02-23T15:13:17Z</time><pdop>6.068</pdop><geoidheight>0.00</geoidheight><course>272.8</course><type>1</type></trkpt>
      <trkpt lat="38.51249223" lon="-6.61256647"><ele>796</ele><speed>6.09</speed><time>2019-02-23T15:13:20Z</time><pdop>6.068</pdop><geoidheight>0.00</geoidheight><course>263.1</course><type>1</type></trkpt>
      <trkpt lat="38.51247347" lon="-6.61271026"><ele>795</ele><speed>6.79</speed><time>2019-02-23T15:13:22Z</time><pdop>6.068</pdop><geoidheight>0.00</geoidheight><course>265.7</course><type>1</type></trkpt>
      <trkpt lat="38.51246225" lon="-6.61288139"><ele>801</ele><speed>6.39</speed><time>2019-02-23T15:13:24Z</time><pdop>6.068</pdop><geoidheight>0.00</geoidheight><course>265.6</course><type>1</type></trkpt>
      <trkpt lat="38.51244513" lon="-6.61302414"><ele>798</ele><speed>6.51</speed><time>2019-02-23T15:13:26Z</time><pdop>6.068</pdop><geoidheight>0.00</geoidheight><course>264.4</course><type>1</type></trkpt>
      <trkpt lat="38.51244306" lon="-6.61316826"><ele>795</ele><speed>6.44</speed><time>2019-02-23T15:13:28Z</time><pdop>6.068</pdop><geoidheight>0.00</geoidheight><course>269.4</course><type>1</type></trkpt>
      <trkpt lat="38.51244519" lon="-6.61331649"><ele>795</ele><speed>5.71</speed><time>2019-02-23T15:13:30Z</time><pdop>6.068</pdop><geoidheight>0.00</geoidheight><course>271.4</course><type>1</type></trkpt>
      <trkpt lat="38.51246326" lon="-6.61349374"><ele>801</ele><speed>5.13</speed><time>2019-02-23T15:13:33Z</time><pdop>6.068</pdop><geoidheight>0.00</geoidheight><course>280.5</course><type>1</type></trkpt>
      <trkpt lat="38.51249366" lon="-6.61364494"><ele>801</ele><speed>4.59</speed><time>2019-02-23T15:13:36Z</time><pdop>6.068</pdop><geoidheight>0.00</geoidheight><course>283.5</course><type>1</type></trkpt>
      <trkpt lat="38.51250429" lon="-6.61380141"><ele>799</ele><speed>3.92</speed><time>2019-02-23T15:13:39Z</time><pdop>6.068</pdop><geoidheight>0.00</geoidheight><course>282.9</course><type>1</type></trkpt>
      <trkpt lat="38.51254316" lon="-6.61396751"><ele>794</ele><speed>5.28</speed><time>2019-02-23T15:13:43Z</time><pdop>6.068</pdop><geoidheight>0.00</geoidheight><course>297.8</course><type>1</type></trkpt>
      <trkpt lat="38.51259068" lon="-6.61412222"><ele>801</ele><speed>4.21</speed><time>2019-02-23T15:13:46Z</time><pdop>6.068</pdop><geoidheight>0.00</geoidheight><course>285.2</course><type>1</type></trkpt>
      <trkpt lat="38.51266219" lon="-6.61426109"><ele>797</ele><speed>5.18</speed><time>2019-02-23T15:13:49Z</time><pdop>6.068</pdop><geoidheight>0.00</geoidheight><course>303.5</course><type>1</type></trkpt>
      <trkpt lat="38.51269324" lon="-6.61439727"><ele>800</ele><speed>3.95</speed><time>2019-02-23T15:13:52Z</time><pdop>6.068</pdop><geoidheight>0.00</geoidheight><course>279.5</course><type>1</type></trkpt>
      <trkpt lat="38.51273024" lon="-6.61455673"><ele>802</ele><speed>4.96</speed><time>2019-02-23T15:13:55Z</time><pdop>6.068</pdop><geoidheight>0.00</geoidheight><course>292.1</course><type>1</type></trkpt>
      <trkpt lat="38.51278527" lon="-6.61468575"><ele>800</ele><speed>3.96</speed><time>2019-02-23T15:13:58Z</time><pdop>6.068</pdop><geoidheight>0.00</geoidheight><course>286.8</course><type>1</type></trkpt>
      <trkpt lat="38.51284841" lon="-6.61480319"><ele>797</ele><speed>4.37</speed><time>2019-02-23T15:14:01Z</time><pdop>6.068</pdop><geoidheight>0.00</geoidheight><course>312.6</course><type>1</type></trkpt>
      <trkpt lat="38.51293626" lon="-6.61492346"><ele>804</ele><speed>3.15</speed><time>2019-02-23T15:14:05Z</time><pdop>6.068</pdop><geoidheight>0.00</geoidheight><course>322.0</course><type>1</type></trkpt>
      <trkpt lat="38.5130405" lon="-6.6150476"><ele>798</ele><speed>4.29</speed><time>2019-02-23T15:14:09Z</time><pdop>6.068</pdop><geoidheight>0.00</geoidheight><course>311.3</course><type>1</type></trkpt>
      <trkpt lat="38.51310201" lon="-6.61518239"><ele>799</ele><speed>4.59</speed><time>2019-02-23T15:14:12Z</time><pdop>6.068</pdop><geoidheight>0.00</geoidheight><course>295.0</course><type>1</type></trkpt>
      <trkpt lat="38.51314857" lon="-6.61533987"><ele>800</ele><speed>4.73</speed><time>2019-02-23T15:14:15Z</time><pdop>6.068</pdop><geoidheight>0.00</geoidheight><course>290.5</course><type>1</type></trkpt>
      <trkpt lat="38.51318542" lon="-6.61548712"><ele>806</ele><speed>4.12</speed><time>2019-02-23T15:14:18Z</time><pdop>6.068</pdop><geoidheight>0.00</geoidheight><course>288.5</course><type>1</type></trkpt>
      <trkpt lat="38.51323822" lon="-6.61561699"><ele>807</ele><speed>2.38</speed><time>2019-02-23T15:14:22Z</time><pdop>6.068</pdop><geoidheight>0.00</geoidheight><course>313.9</course><type>1</type></trkpt>
      <trkpt lat="38.51333315" lon="-6.61569148"><ele>803</ele><speed>2.57</speed><time>2019-02-23T15:14:27Z</time><pdop>6.068</pdop><geoidheight>0.00</geoidheight><course>334.0</course><type>1</type></trkpt>
      <trkpt lat="38.51345801" lon="-6.61570967"><ele>804</ele><speed>2.59</speed><time>2019-02-23T15:14:33Z</time><pdop>6.068</pdop><geoidheight>0.00</geoidheight><course>351.7</course><type>1</type></trkpt>
      <trkpt lat="38.51357653" lon="-6.61569974"><ele>807</ele><speed>2.27</speed><time>2019-02-23T15:14:38Z</time><pdop>6.068</pdop><geoidheight>0.00</geoidheight><course>29.6</course><type>1</type></trkpt>
      <trkpt lat="38.51366835" lon="-6.61560943"><ele>822</ele><speed>2.32</speed><time>2019-02-23T15:14:43Z</time><pdop>6.068</pdop><geoidheight>0.00</geoidheight><course>355.2</course><type>1</type></trkpt>
      <trkpt lat="38.51378159" lon="-6.61554057"><ele>820</ele><speed>3.54</speed><time>2019-02-23T15:14:49Z</time><pdop>6.068</pdop><geoidheight>0.00</geoidheight><course>43.9</course><type>1</type></trkpt>
      <trkpt lat="38.51376996" lon="-6.61534085"><ele>845</ele><speed>7.26</speed><time>2019-02-23T15:14:52Z</time><pdop>6.068</pdop><geoidheight>0.00</geoidheight><course>115.4</course><type>1</type></trkpt>
      <trkpt lat="38.51367931" lon="-6.61516887"><ele>828</ele><speed>9.39</speed><time>2019-02-23T15:14:54Z</time><pdop>6.068</pdop><geoidheight>0.00</geoidheight><course>137.1</course><type>1</type></trkpt>
      <trkpt lat="38.51354445" lon="-6.61502111"><ele>820</ele><speed>10.71</speed><time>2019-02-23T15:14:56Z</time><pdop>6.068</pdop><geoidheight>0.00</geoidheight><course>144.6</course><type>1</type></trkpt>
      <trkpt lat="38.5133718" lon="-6.61487653"><ele>811</ele><speed>12.13</speed><time>2019-02-23T15:14:58Z</time><pdop>6.068</pdop><geoidheight>0.00</geoidheight><course>145.2</course><type>1</type></trkpt>
      <trkpt lat="38.51318698" lon="-6.61473645"><ele>810</ele><speed>11.14</speed><time>2019-02-23T15:15:00Z</time><pdop>6.068</pdop><geoidheight>0.00</geoidheight><course>144.7</course><type>1</type></trkpt>
      <trkpt lat="38.51302598" lon="-6.61460055"><ele>809</ele><speed>10.90</speed><time>2019-02-23T15:15:02Z</time><pdop>7.585</pdop><geoidheight>0.00</geoidheight><course>140.1</course><type>1</type></trkpt>
      <trkpt lat="38.51287028" lon="-6.61446432"><ele>787</ele><speed>10.67</speed><time>2019-02-23T15:15:04Z</time><pdop>7.585</pdop><geoidheight>0.00</geoidheight><course>138.4</course><type>1</type></trkpt>
      <trkpt lat="38.51275085" lon="-6.61428505"><ele>797</ele><speed>9.71</speed><time>2019-02-23T15:15:06Z</time><pdop>6.068</pdop><geoidheight>0.00</geoidheight><course>119.8</course><type>1</type></trkpt>
      <trkpt lat="38.51267767" lon="-6.61411368"><ele>796</ele><speed>7.53</speed><time>2019-02-23T15:15:08Z</time><pdop>6.068</pdop><geoidheight>0.00</geoidheight><course>111.2</course><type>1</type></trkpt>
      <trkpt lat="38.51263724" lon="-6.61395415"><ele>807</ele><speed>6.93</speed><time>2019-02-23T15:15:10Z</time><pdop>4.5509996</pdop><geoidheight>0.00</geoidheight><course>107.1</course><type>1</type></trkpt>
      <trkpt lat="38.51263474" lon="-6.6137856"><ele>806</ele><speed>7.58</speed><time>2019-02-23T15:15:12Z</time><pdop>6.068</pdop><geoidheight>0.00</geoidheight><course>102.3</course><type>1</type></trkpt>
      <trkpt lat="38.5126245" lon="-6.6135973"><ele>805</ele><speed>7.87</speed><time>2019-02-23T15:15:14Z</time><pdop>6.068</pdop><geoidheight>0.00</geoidheight><course>103.9</course><type>1</type></trkpt>
      <trkpt lat="38.51259992" lon="-6.6134269"><ele>803</ele><speed>7.12</speed><time>2019-02-23T15:15:16Z</time><pdop>6.068</pdop><geoidheight>0.00</geoidheight><course>107.1</course><type>1</type></trkpt>
      <trkpt lat="38.51257051" lon="-6.6132666"><ele>776</ele><speed>7.22</speed><time>2019-02-23T15:15:18Z</time><pdop>6.068</pdop><geoidheight>0.00</geoidheight><course>107.3</course><type>1</type></trkpt>
      <trkpt lat="38.51253874" lon="-6.61309186"><ele>786</ele><speed>7.55</speed><time>2019-02-23T15:15:20Z</time><pdop>6.068</pdop><geoidheight>0.00</geoidheight><course>100.7</course><type>1</type></trkpt>
      <trkpt lat="38.51250055" lon="-6.61293278"><ele>781</ele><speed>7.55</speed><time>2019-02-23T15:15:22Z</time><pdop>6.068</pdop><geoidheight>0.00</geoidheight><course>103.5</course><type>1</type></trkpt>
      <trkpt lat="38.51245346" lon="-6.61276537"><ele>790</ele><speed>7.61</speed><time>2019-02-23T15:15:24Z</time><pdop>6.068</pdop><geoidheight>0.00</geoidheight><course>105.1</course><type>1</type></trkpt>
      <trkpt lat="38.51240379" lon="-6.61258292"><ele>797</ele><speed>8.18</speed><time>2019-02-23T15:15:26Z</time><pdop>6.068</pdop><geoidheight>0.00</geoidheight><course>109.7</course><type>1</type></trkpt>
      <trkpt lat="38.51232954" lon="-6.6124019"><ele>801</ele><speed>8.96</speed><time>2019-02-23T15:15:28Z</time><pdop>6.068</pdop><geoidheight>0.00</geoidheight><course>114.4</course><type>1</type></trkpt>
      <trkpt lat="38.51225547" lon="-6.6122161"><ele>804</ele><speed>8.92</speed><time>2019-02-23T15:15:30Z</time><pdop>6.068</pdop><geoidheight>0.00</geoidheight><course>121.0</course><type>1</type></trkpt>
      <trkpt lat="38.51216455" lon="-6.61203651"><ele>784</ele><speed>9.08</speed><time>2019-02-23T15:15:32Z</time><pdop>7.585</pdop><geoidheight>0.00</geoidheight><course>121.9</course><type>1</type></trkpt>
      <trkpt lat="38.51207969" lon="-6.61186634"><ele>777</ele><speed>9.22</speed><time>2019-02-23T15:15:34Z</time><pdop>6.068</pdop><geoidheight>0.00</geoidheight><course>114.1</course><type>1</type></trkpt>
      <trkpt lat="38.51201279" lon="-6.611675"><ele>778</ele><speed>9.39</speed><time>2019-02-23T15:15:36Z</time><pdop>7.585</pdop><geoidheight>0.00</geoidheight><course>115.7</course><type>1</type></trkpt>
      <trkpt lat="38.511941" lon="-6.61147079"><ele>779</ele><speed>9.64</speed><time>2019-02-23T15:15:38Z</time><pdop>6.068</pdop><geoidheight>0.00</geoidheight><course>117.6</course><type>1</type></trkpt>
      <trkpt lat="38.51185906" lon="-6.61127747"><ele>780</ele><speed>9.07</speed><time>2019-02-23T15:15:40Z</time><pdop>6.068</pdop><geoidheight>0.00</geoidheight><course>113.6</course><type>1</type></trkpt>
      <trkpt lat="38.51180341" lon="-6.61108824"><ele>795</ele><speed>8.67</speed><time>2019-02-23T15:15:42Z</time><pdop>6.068</pdop><geoidheight>0.00</geoidheight><course>116.2</course><type>1</type></trkpt>
      <trkpt lat="38.51173907" lon="-6.61090666"><ele>802</ele><speed>8.93</speed><time>2019-02-23T15:15:44Z</time><pdop>7.585</pdop><geoidheight>0.00</geoidheight><course>117.1</course><type>1</type></trkpt>
      <trkpt lat="38.51166919" lon="-6.6107213"><ele>779</ele><speed>8.28</speed><time>2019-02-23T15:15:46Z</time><pdop>6.068</pdop><geoidheight>0.00</geoidheight><course>113.6</course><type>1</type></trkpt>
      <trkpt lat="38.51162847" lon="-6.61055203"><ele>788</ele><speed>7.68</speed><time>2019-02-23T15:15:48Z</time><pdop>6.068</pdop><geoidheight>0.00</geoidheight><course>108.6</course><type>1</type></trkpt>
      <trkpt lat="38.51156185" lon="-6.61037957"><ele>780</ele><speed>8.31</speed><time>2019-02-23T15:15:50Z</time><pdop>7.585</pdop><geoidheight>0.00</geoidheight><course>111.6</course><type>1</type></trkpt>
      <trkpt lat="38.51149959" lon="-6.61019757"><ele>791</ele><speed>8.18</speed><time>2019-02-23T15:15:52Z</time><pdop>6.068</pdop><geoidheight>0.00</geoidheight><course>110.7</course><type>1</type></trkpt>
      <trkpt lat="38.51146908" lon="-6.61004626"><ele>782</ele><speed>6.83</speed><time>2019-02-23T15:15:54Z</time><pdop>6.068</pdop><geoidheight>0.00</geoidheight><course>99.1</course><type>1</type></trkpt>
      <trkpt lat="38.51149407" lon="-6.60988056"><ele>790</ele><speed>5.60</speed><time>2019-02-23T15:15:56Z</time><pdop>6.068</pdop><geoidheight>0.00</geoidheight><course>68.7</course><type>1</type></trkpt>
      <trkpt lat="38.5115982" lon="-6.60982663"><ele>810</ele><speed>2.58</speed><time>2019-02-23T15:16:00Z</time><pdop>6.068</pdop><geoidheight>0.00</geoidheight><course>340.6</course><type>1</type></trkpt>
      <trkpt lat="38.51171667" lon="-6.60987072"><ele>811</ele><speed>3.88</speed><time>2019-02-23T15:16:04Z</time><pdop>7.585</pdop><geoidheight>0.00</geoidheight><course>334.5</course><type>1</type></trkpt>
      <trkpt lat="38.5118198" lon="-6.61000606"><ele>807</ele><speed>3.89</speed><time>2019-02-23T15:16:10Z</time><pdop>7.585</pdop><geoidheight>0.00</geoidheight><course>317.7</course><type>1</type></trkpt>
      <trkpt lat="38.51189972" lon="-6.61012442"><ele>801</ele><speed>4.22</speed><time>2019-02-23T15:16:13Z</time><pdop>6.068</pdop><geoidheight>0.00</geoidheight><course>303.2</course><type>1</type></trkpt>
      <trkpt lat="38.51191781" lon="-6.61031365"><ele>777</ele><speed>5.96</speed><time>2019-02-23T15:16:16Z</time><pdop>6.068</pdop><geoidheight>0.00</geoidheight><course>281.6</course><type>1</type></trkpt>
      <trkpt lat="38.51194527" lon="-6.61046058"><ele>782</ele><speed>6.20</speed><time>2019-02-23T15:16:18Z</time><pdop>6.068</pdop><geoidheight>0.00</geoidheight><course>279.2</course><type>1</type></trkpt>
      <trkpt lat="38.51197859" lon="-6.61065859"><ele>778</ele><speed>5.78</speed><time>2019-02-23T15:16:21Z</time><pdop>6.068</pdop><geoidheight>0.00</geoidheight><course>293.1</course><type>1</type></trkpt>
      <trkpt lat="38.51202316" lon="-6.61080709"><ele>791</ele><speed>6.71</speed><time>2019-02-23T15:16:23Z</time><pdop>6.068</pdop><geoidheight>0.00</geoidheight><course>287.4</course><type>1</type></trkpt>
      <trkpt lat="38.51204537" lon="-6.61096482"><ele>780</ele><speed>6.45</speed><time>2019-02-23T15:16:25Z</time><pdop>6.068</pdop><geoidheight>0.00</geoidheight><course>281.4</course><type>1</type></trkpt>
      <trkpt lat="38.51207644" lon="-6.61111998"><ele>793</ele><speed>6.05</speed><time>2019-02-23T15:16:27Z</time><pdop>6.068</pdop><geoidheight>0.00</geoidheight><course>286.9</course><type>1</type></trkpt>
      <trkpt lat="38.51211372" lon="-6.61126583"><ele>779</ele><speed>6.22</speed><time>2019-02-23T15:16:29Z</time><pdop>6.068</pdop><geoidheight>0.00</geoidheight><course>289.5</course><type>1</type></trkpt>
      <trkpt lat="38.51215217" lon="-6.61145586"><ele>796</ele><speed>5.48</speed><time>2019-02-23T15:16:32Z</time><pdop>6.068</pdop><geoidheight>0.00</geoidheight><course>291.5</course><type>1</type></trkpt>
      <trkpt lat="38.51220978" lon="-6.61164257"><ele>797</ele><speed>6.49</speed><time>2019-02-23T15:16:35Z</time><pdop>6.068</pdop><geoidheight>0.00</geoidheight><course>284.7</course><type>1</type></trkpt>
      <trkpt lat="38.51223575" lon="-6.6118042"><ele>798</ele><speed>5.79</speed><time>2019-02-23T15:16:37Z</time><pdop>6.068</pdop><geoidheight>0.00</geoidheight><course>279.6</course><type>1</type></trkpt>
      <trkpt lat="38.51226943" lon="-6.61193859"><ele>797</ele><speed>5.97</speed><time>2019-02-23T15:16:39Z</time><pdop>6.068</pdop><geoidheight>0.00</geoidheight><course>285.0</course><type>1</type></trkpt>
      <trkpt lat="38.51229089" lon="-6.61207716"><ele>805</ele><speed>6.42</speed><time>2019-02-23T15:16:41Z</time><pdop>6.068</pdop><geoidheight>0.00</geoidheight><course>286.0</course><type>1</type></trkpt>
      <trkpt lat="38.51232412" lon="-6.61221442"><ele>797</ele><speed>5.88</speed><time>2019-02-23T15:16:43Z</time><pdop>6.068</pdop><geoidheight>0.00</geoidheight><course>285.9</course><type>1</type></trkpt>
      <trkpt lat="38.51234837" lon="-6.61234965"><ele>805</ele><speed>5.72</speed><time>2019-02-23T15:16:45Z</time><pdop>6.068</pdop><geoidheight>0.00</geoidheight><course>290.7</course><type>1</type></trkpt>
      <trkpt lat="38.51239165" lon="-6.61254792"><ele>797</ele><speed>6.54</speed><time>2019-02-23T15:16:48Z</time><pdop>6.068</pdop><geoidheight>0.00</geoidheight><course>291.2</course><type>1</type></trkpt>
      <trkpt lat="38.51245443" lon="-6.61268393"><ele>802</ele><speed>6.10</speed><time>2019-02-23T15:16:50Z</time><pdop>6.068</pdop><geoidheight>0.00</geoidheight><course>287.9</course><type>1</type></trkpt>
      <trkpt lat="38.51251026" lon="-6.61280522"><ele>795</ele><speed>6.25</speed><time>2019-02-23T15:16:52Z</time><pdop>6.068</pdop><geoidheight>0.00</geoidheight><course>293.0</course><type>1</type></trkpt>
      <trkpt lat="38.51255861" lon="-6.61293441"><ele>797</ele><speed>5.96</speed><time>2019-02-23T15:16:54Z</time><pdop>6.068</pdop><geoidheight>0.00</geoidheight><course>297.8</course><type>1</type></trkpt>
      <trkpt lat="38.51263166" lon="-6.61305701"><ele>800</ele><speed>4.69</speed><time>2019-02-23T15:16:57Z</time><pdop>6.068</pdop><geoidheight>0.00</geoidheight><course>307.0</course><type>1</type></trkpt>
      <trkpt lat="38.51271544" lon="-6.61318521"><ele>801</ele><speed>4.09</speed><time>2019-02-23T15:17:00Z</time><pdop>6.068</pdop><geoidheight>0.00</geoidheight><course>325.2</course><type>1</type></trkpt>
      <trkpt lat="38.51282699" lon="-6.61308632"><ele>800</ele><speed>5.71</speed><time>2019-02-23T15:17:04Z</time><pdop>6.068</pdop><geoidheight>0.00</geoidheight><course>68.1</course><type>1</type></trkpt>
      <trkpt lat="38.51281503" lon="-6.61292472"><ele>799</ele><speed>7.63</speed><time>2019-02-23T15:17:06Z</time><pdop>6.068</pdop><geoidheight>0.00</geoidheight><course>108.6</course><type>1</type></trkpt>
      <trkpt lat="38.51271357" lon="-6.61274988"><ele>798</ele><speed>10.00</speed><time>2019-02-23T15:17:08Z</time><pdop>4.5509996</pdop><geoidheight>0.00</geoidheight><course>133.6</course><type>1</type></trkpt>
      <trkpt lat="38.51264835" lon="-6.61267317"><ele>798</ele><speed>10.08</speed><time>2019-02-23T15:17:09Z</time><pdop>4.5509996</pdop><geoidheight>0.00</geoidheight><course>138.2</course><type>1</type></trkpt>
      <trkpt lat="38.51258262" lon="-6.61259648"><ele>798</ele><speed>9.60</speed><time>2019-02-23T15:17:10Z</time><pdop>4.5509996</pdop><geoidheight>0.00</geoidheight><course>138.4</course><type>1</type></trkpt>
      <trkpt lat="38.51251368" lon="-6.61251881"><ele>798</ele><speed>9.48</speed><time>2019-02-23T15:17:11Z</time><pdop>6.068</pdop><geoidheight>0.00</geoidheight><course>136.3</course><type>1</type></trkpt>
      <trkpt lat="38.51237739" lon="-6.61235491"><ele>796</ele><speed>9.93</speed><time>2019-02-23T15:17:13Z</time><pdop>6.068</pdop><geoidheight>0.00</geoidheight><course>130.5</course><type>1</type></trkpt>
      <trkpt lat="38.51227551" lon="-6.61216782"><ele>778</ele><speed>9.45</speed><time>2019-02-23T15:17:15Z</time><pdop>6.068</pdop><geoidheight>0.00</geoidheight><course>125.8</course><type>1</type></trkpt>
      <trkpt lat="38.51219096" lon="-6.61198295"><ele>776</ele><speed>8.83</speed><time>2019-02-23T15:17:17Z</time><pdop>6.068</pdop><geoidheight>0.00</geoidheight><course>125.8</course><type>1</type></trkpt>
      <trkpt lat="38.5120914" lon="-6.6117844"><ele>782</ele><speed>9.99</speed><time>2019-02-23T15:17:19Z</time><pdop>6.068</pdop><geoidheight>0.00</geoidheight><course>120.0</course><type>1</type></trkpt>
      <trkpt lat="38.51202047" lon="-6.61159346"><ele>771</ele><speed>9.19</speed><time>2019-02-23T15:17:21Z</time><pdop>6.068</pdop><geoidheight>0.00</geoidheight><course>114.6</course><type>1</type></trkpt>
      <trkpt lat="38.51194801" lon="-6.61140925"><ele>770</ele><speed>8.47</speed><time>2019-02-23T15:17:23Z</time><pdop>6.068</pdop><geoidheight>0.00</geoidheight><course>113.2</course><type>1</type></trkpt>
      <trkpt lat="38.51189882" lon="-6.61123563"><ele>775</ele><speed>8.31</speed><time>2019-02-23T15:17:25Z</time><pdop>6.068</pdop><geoidheight>0.00</geoidheight><course>110.9</course><type>1</type></trkpt>
      <trkpt lat="38.51185676" lon="-6.6110522"><ele>779</ele><speed>8.54</speed><time>2019-02-23T15:17:27Z</time><pdop>6.068</pdop><geoidheight>0.00</geoidheight><course>106.9</course><type>1</type></trkpt>
      <trkpt lat="38.51180618" lon="-6.6108822"><ele>774</ele><speed>8.30</speed><time>2019-02-23T15:17:29Z</time><pdop>6.068</pdop><geoidheight>0.00</geoidheight><course>108.2</course><type>1</type></trkpt>
      <trkpt lat="38.51178032" lon="-6.61068619"><ele>777</ele><speed>8.66</speed><time>2019-02-23T15:17:31Z</time><pdop>6.068</pdop><geoidheight>0.00</geoidheight><course>98.9</course><type>1</type></trkpt>
      <trkpt lat="38.5117529" lon="-6.61047851"><ele>771</ele><speed>9.30</speed><time>2019-02-23T15:17:33Z</time><pdop>6.068</pdop><geoidheight>0.00</geoidheight><course>102.9</course><type>1</type></trkpt>
      <trkpt lat="38.51170195" lon="-6.61027259"><ele>773</ele><speed>9.68</speed><time>2019-02-23T15:17:35Z</time><pdop>6.068</pdop><geoidheight>0.00</geoidheight><course>106.7</course><type>1</type></trkpt>
      <trkpt lat="38.51165495" lon="-6.61008576"><ele>775</ele><speed>8.35</speed><time>2019-02-23T15:17:37Z</time><pdop>6.068</pdop><geoidheight>0.00</geoidheight><course>107.3</course><type>1</type></trkpt>
      <trkpt lat="38.51160851" lon="-6.60989261"><ele>775</ele><speed>8.31</speed><time>2019-02-23T15:17:39Z</time><pdop>6.068</pdop><geoidheight>0.00</geoidheight><course>110.2</course><type>1</type></trkpt>
      <trkpt lat="38.5115612" lon="-6.60970195"><ele>775</ele><speed>8.88</speed><time>2019-02-23T15:17:41Z</time><pdop>6.068</pdop><geoidheight>0.00</geoidheight><course>103.9</course><type>1</type></trkpt>
      <trkpt lat="38.51151704" lon="-6.60950428"><ele>775</ele><speed>9.28</speed><time>2019-02-23T15:17:43Z</time><pdop>4.5509996</pdop><geoidheight>0.00</geoidheight><course>105.1</course><type>1</type></trkpt>
      <trkpt lat="38.51148733" lon="-6.60940324"><ele>776</ele><speed>9.38</speed><time>2019-02-23T15:17:44Z</time><pdop>4.5509996</pdop><geoidheight>0.00</geoidheight><course>111.7</course><type>1</type></trkpt>
      <trkpt lat="38.51145385" lon="-6.60930852"><ele>777</ele><speed>9.47</speed><time>2019-02-23T15:17:45Z</time><pdop>4.5509996</pdop><geoidheight>0.00</geoidheight><course>118.4</course><type>1</type></trkpt>
      <trkpt lat="38.51139861" lon="-6.60921064"><ele>778</ele><speed>9.37</speed><time>2019-02-23T15:17:46Z</time><pdop>4.5509996</pdop><geoidheight>0.00</geoidheight><course>120.2</course><type>1</type></trkpt>
      <trkpt lat="38.51134834" lon="-6.6091262"><ele>778</ele><speed>9.14</speed><time>2019-02-23T15:17:47Z</time><pdop>4.5509996</pdop><geoidheight>0.00</geoidheight><course>119.4</course><type>1</type></trkpt>
      <trkpt lat="38.51126675" lon="-6.60895227"><ele>780</ele><speed>8.95</speed><time>2019-02-23T15:17:49Z</time><pdop>6.068</pdop><geoidheight>0.00</geoidheight><course>120.5</course><type>1</type></trkpt>
      <trkpt lat="38.51116776" lon="-6.60877304"><ele>782</ele><speed>9.87</speed><time>2019-02-23T15:17:51Z</time><pdop>4.5509996</pdop><geoidheight>0.00</geoidheight><course>123.9</course><type>1</type></trkpt>
      <trkpt lat="38.51111551" lon="-6.60868979"><ele>783</ele><speed>9.36</speed><time>2019-02-23T15:17:52Z</time><pdop>4.5509996</pdop><geoidheight>0.00</geoidheight><course>122.1</course><type>1</type></trkpt>
      <trkpt lat="38.51107368" lon="-6.6085893"><ele>786</ele><speed>9.08</speed><time>2019-02-23T15:17:53Z</time><pdop>4.5509996</pdop><geoidheight>0.00</geoidheight><course>121.4</course><type>1</type></trkpt>
      <trkpt lat="38.51103576" lon="-6.60849366"><ele>786</ele><speed>9.02</speed><time>2019-02-23T15:17:54Z</time><pdop>4.5509996</pdop><geoidheight>0.00</geoidheight><course>119.2</course><type>1</type></trkpt>
      <trkpt lat="38.51099788" lon="-6.60841241"><ele>787</ele><speed>8.72</speed><time>2019-02-23T15:17:55Z</time><pdop>4.5509996</pdop><geoidheight>0.00</geoidheight><course>121.1</course><type>1</type></trkpt>
      <trkpt lat="38.51097107" lon="-6.60831842"><ele>787</ele><speed>8.59</speed><time>2019-02-23T15:17:56Z</time><pdop>4.5509996</pdop><geoidheight>0.00</geoidheight><course>123.2</course><type>1</type></trkpt>
      <trkpt lat="38.51088527" lon="-6.60813829"><ele>789</ele><speed>9.29</speed><time>2019-02-23T15:17:58Z</time><pdop>6.068</pdop><geoidheight>0.00</geoidheight><course>121.2</course><type>1</type></trkpt>
      <trkpt lat="38.51079469" lon="-6.60796316"><ele>791</ele><speed>8.95</speed><time>2019-02-23T15:18:00Z</time><pdop>6.068</pdop><geoidheight>0.00</geoidheight><course>121.5</course><type>1</type></trkpt>
      <trkpt lat="38.51071113" lon="-6.60778043"><ele>787</ele><speed>9.07</speed><time>2019-02-23T15:18:02Z</time><pdop>6.068</pdop><geoidheight>0.00</geoidheight><course>117.7</course><type>1</type></trkpt>
      <trkpt lat="38.51063446" lon="-6.60760077"><ele>786</ele><speed>8.29</speed><time>2019-02-23T15:18:04Z</time><pdop>6.068</pdop><geoidheight>0.00</geoidheight><course>115.9</course><type>1</type></trkpt>
      <trkpt lat="38.51059298" lon="-6.60746794"><ele>788</ele><speed>5.57</speed><time>2019-02-23T15:18:06Z</time><pdop>6.068</pdop><geoidheight>0.00</geoidheight><course>99.4</course><type>1</type></trkpt>
      <trkpt lat="38.51062152" lon="-6.60730857"><ele>789</ele><speed>4.49</speed><time>2019-02-23T15:18:09Z</time><pdop>6.068</pdop><geoidheight>0.00</geoidheight><course>69.8</course><type>1</type></trkpt>
      <trkpt lat="38.51068519" lon="-6.60719433"><ele>788</ele><speed>3.34</speed><time>2019-02-23T15:18:12Z</time><pdop>6.068</pdop><geoidheight>0.00</geoidheight><course>40.0</course><type>1</type></trkpt>
      <trkpt lat="38.51077652" lon="-6.60710652"><ele>788</ele><speed>4.10</speed><time>2019-02-23T15:18:15Z</time><pdop>6.068</pdop><geoidheight>0.00</geoidheight><course>46.7</course><type>1</type></trkpt>
      <trkpt lat="38.51085556" lon="-6.60700153"><ele>791</ele><speed>4.05</speed><time>2019-02-23T15:18:18Z</time><pdop>6.068</pdop><geoidheight>0.00</geoidheight><course>42.5</course><type>1</type></trkpt>
      <trkpt lat="38.51093821" lon="-6.6068949"><ele>788</ele><speed>3.93</speed><time>2019-02-23T15:18:21Z</time><pdop>6.068</pdop><geoidheight>0.00</geoidheight><course>45.6</course><type>1</type></trkpt>
      <trkpt lat="38.51102002" lon="-6.60679153"><ele>786</ele><speed>3.74</speed><time>2019-02-23T15:18:24Z</time><pdop>6.068</pdop><geoidheight>0.00</geoidheight><course>42.3</course><type>1</type></trkpt>
      <trkpt lat="38.51115626" lon="-6.60673362"><ele>790</ele><speed>3.54</speed><time>2019-02-23T15:18:29Z</time><pdop>7.585</pdop><geoidheight>0.00</geoidheight><course>351.3</course><type>1</type></trkpt>
      <trkpt lat="38.5112681" lon="-6.60684252"><ele>794</ele><speed>4.25</speed><time>2019-02-23T15:18:33Z</time><pdop>6.068</pdop><geoidheight>0.00</geoidheight><course>318.2</course><type>1</type></trkpt>
      <trkpt lat="38.51133807" lon="-6.60697126"><ele>787</ele><speed>4.16</speed><time>2019-02-23T15:18:36Z</time><pdop>6.068</pdop><geoidheight>0.00</geoidheight><course>316.6</course><type>1</type></trkpt>
      <trkpt lat="38.51141137" lon="-6.60707792"><ele>792</ele><speed>4.03</speed><time>2019-02-23T15:18:39Z</time><pdop>4.5509996</pdop><geoidheight>0.00</geoidheight><course>319.5</course><type>1</type></trkpt>
      <trkpt lat="38.51146758" lon="-6.60715202"><ele>794</ele><speed>4.53</speed><time>2019-02-23T15:18:41Z</time><pdop>4.5509996</pdop><geoidheight>0.00</geoidheight><course>320.3</course><type>1</type></trkpt>
      <trkpt lat="38.5115205" lon="-6.60721752"><ele>798</ele><speed>3.74</speed><time>2019-02-23T15:18:43Z</time><pdop>4.5509996</pdop><geoidheight>0.00</geoidheight><course>323.4</course><type>1</type></trkpt>
      <trkpt lat="38.51161859" lon="-6.60727776"><ele>801</ele><speed>4.26</speed><time>2019-02-23T15:18:46Z</time><pdop>4.5509996</pdop><geoidheight>0.00</geoidheight><course>340.3</course><type>1</type></trkpt>
      <trkpt lat="38.51171676" lon="-6.60732905"><ele>804</ele><speed>4.21</speed><time>2019-02-23T15:18:49Z</time><pdop>4.5509996</pdop><geoidheight>0.00</geoidheight><course>335.2</course><type>1</type></trkpt>
      <trkpt lat="38.51178447" lon="-6.60736156"><ele>806</ele><speed>4.13</speed><time>2019-02-23T15:18:51Z</time><pdop>4.5509996</pdop><geoidheight>0.00</geoidheight><course>338.1</course><type>1</type></trkpt>
      <trkpt lat="38.51189549" lon="-6.60741251"><ele>807</ele><speed>4.55</speed><time>2019-02-23T15:18:54Z</time><pdop>6.068</pdop><geoidheight>0.00</geoidheight><course>340.8</course><type>1</type></trkpt>
      <trkpt lat="38.5120199" lon="-6.60747433"><ele>809</ele><speed>4.90</speed><time>2019-02-23T15:18:57Z</time><pdop>6.068</pdop><geoidheight>0.00</geoidheight><course>321.8</course><type>1</type></trkpt>
      <trkpt lat="38.51213715" lon="-6.60758017"><ele>810</ele><speed>4.39</speed><time>2019-02-23T15:19:00Z</time><pdop>6.068</pdop><geoidheight>0.00</geoidheight><course>332.7</course><type>1</type></trkpt>
      <trkpt lat="38.51225836" lon="-6.60762934"><ele>795</ele><speed>3.58</speed><time>2019-02-23T15:19:04Z</time><pdop>6.068</pdop><geoidheight>0.00</geoidheight><course>333.8</course><type>1</type></trkpt>
      <trkpt lat="38.51239134" lon="-6.6076381"><ele>797</ele><speed>3.92</speed><time>2019-02-23T15:19:08Z</time><pdop>6.068</pdop><geoidheight>0.00</geoidheight><course>21.9</course><type>1</type></trkpt>
      <trkpt lat="38.51252734" lon="-6.6076477"><ele>807</ele><speed>4.49</speed><time>2019-02-23T15:19:13Z</time><pdop>6.068</pdop><geoidheight>0.00</geoidheight><course>326.8</course><type>1</type></trkpt>
      <trkpt lat="38.51257619" lon="-6.60777278"><ele>797</ele><speed>6.01</speed><time>2019-02-23T15:19:15Z</time><pdop>6.068</pdop><geoidheight>0.00</geoidheight><course>309.8</course><type>1</type></trkpt>
      <trkpt lat="38.51263371" lon="-6.60790132"><ele>808</ele><speed>5.86</speed><time>2019-02-23T15:19:17Z</time><pdop>6.068</pdop><geoidheight>0.00</geoidheight><course>283.9</course><type>1</type></trkpt>
      <trkpt lat="38.51263449" lon="-6.60811597"><ele>818</ele><speed>6.91</speed><time>2019-02-23T15:19:20Z</time><pdop>6.068</pdop><geoidheight>0.00</geoidheight><course>269.3</course><type>1</type></trkpt>
      <trkpt lat="38.51264131" lon="-6.60826432"><ele>823</ele><speed>5.67</speed><time>2019-02-23T15:19:22Z</time><pdop>6.068</pdop><geoidheight>0.00</geoidheight><course>263.7</course><type>1</type></trkpt>
      <trkpt lat="38.51260434" lon="-6.60841673"><ele>821</ele><speed>6.81</speed><time>2019-02-23T15:19:24Z</time><pdop>6.068</pdop><geoidheight>0.00</geoidheight><course>246.6</course><type>1</type></trkpt>
      <trkpt lat="38.51255335" lon="-6.60856268"><ele>820</ele><speed>8.51</speed><time>2019-02-23T15:19:26Z</time><pdop>6.068</pdop><geoidheight>0.00</geoidheight><course>241.0</course><type>1</type></trkpt>
      <trkpt lat="38.51244645" lon="-6.60872472"><ele>823</ele><speed>8.94</speed><time>2019-02-23T15:19:28Z</time><pdop>6.068</pdop><geoidheight>0.00</geoidheight><course>219.5</course><type>1</type></trkpt>
      <trkpt lat="38.51229717" lon="-6.60882302"><ele>824</ele><speed>9.76</speed><time>2019-02-23T15:19:30Z</time><pdop>6.068</pdop><geoidheight>0.00</geoidheight><course>192.7</course><type>1</type></trkpt>
      <trkpt lat="38.51218543" lon="-6.60882453"><ele>827</ele><speed>10.07</speed><time>2019-02-23T15:19:31Z</time><pdop>6.068</pdop><geoidheight>0.00</geoidheight><course>182.8</course><type>1</type></trkpt>
      <trkpt lat="38.51201892" lon="-6.60879841"><ele>828</ele><speed>9.94</speed><time>2019-02-23T15:19:33Z</time><pdop>6.068</pdop><geoidheight>0.00</geoidheight><course>161.4</course><type>1</type></trkpt>
      <trkpt lat="38.51185536" lon="-6.60867353"><ele>826</ele><speed>9.58</speed><time>2019-02-23T15:19:35Z</time><pdop>7.585</pdop><geoidheight>0.00</geoidheight><course>142.5</course><type>1</type></trkpt>
      <trkpt lat="38.51176184" lon="-6.60850993"><ele>830</ele><speed>9.10</speed><time>2019-02-23T15:19:37Z</time><pdop>7.585</pdop><geoidheight>0.00</geoidheight><course>121.3</course><type>1</type></trkpt>
      <trkpt lat="38.51170939" lon="-6.60834"><ele>835</ele><speed>6.98</speed><time>2019-02-23T15:19:39Z</time><pdop>7.585</pdop><geoidheight>0.00</geoidheight><course>101.6</course><type>1</type></trkpt>
      <trkpt lat="38.51171752" lon="-6.60813876"><ele>835</ele><speed>5.61</speed><time>2019-02-23T15:19:42Z</time><pdop>6.068</pdop><geoidheight>0.00</geoidheight><course>76.1</course><type>1</type></trkpt>
      <trkpt lat="38.51174289" lon="-6.60793479"><ele>847</ele><speed>5.88</speed><time>2019-02-23T15:19:45Z</time><pdop>6.068</pdop><geoidheight>0.00</geoidheight><course>89.2</course><type>1</type></trkpt>
      <trkpt lat="38.51170225" lon="-6.60774607"><ele>855</ele><speed>6.26</speed><time>2019-02-23T15:19:48Z</time><pdop>6.068</pdop><geoidheight>0.00</geoidheight><course>107.4</course><type>1</type></trkpt>
      <trkpt lat="38.51165035" lon="-6.60757309"><ele>858</ele><speed>8.31</speed><time>2019-02-23T15:19:50Z</time><pdop>6.068</pdop><geoidheight>0.00</geoidheight><course>112.3</course><type>1</type></trkpt>
      <trkpt lat="38.51158854" lon="-6.6074237"><ele>859</ele><speed>6.83</speed><time>2019-02-23T15:19:52Z</time><pdop>6.068</pdop><geoidheight>0.00</geoidheight><course>121.0</course><type>1</type></trkpt>
      <trkpt lat="38.51153638" lon="-6.60728074"><ele>860</ele><speed>7.11</speed><time>2019-02-23T15:19:54Z</time><pdop>6.068</pdop><geoidheight>0.00</geoidheight><course>106.5</course><type>1</type></trkpt>
      <trkpt lat="38.5115272" lon="-6.60712384"><ele>863</ele><speed>6.02</speed><time>2019-02-23T15:19:56Z</time><pdop>6.068</pdop><geoidheight>0.00</geoidheight><course>79.5</course><type>1</type></trkpt>
      <trkpt lat="38.51161043" lon="-6.60702306"><ele>865</ele><speed>2.27</speed><time>2019-02-23T15:20:00Z</time><pdop>6.068</pdop><geoidheight>0.00</geoidheight><course>18.6</course><type>1</type></trkpt>
      <trkpt lat="38.51172639" lon="-6.6069984"><ele>869</ele><speed>3.64</speed><time>2019-02-23T15:20:03Z</time><pdop>6.068</pdop><geoidheight>0.00</geoidheight><course>1.9</course><type>1</type></trkpt>
      <trkpt lat="38.51180578" lon="-6.60715081"><ele>867</ele><speed>5.88</speed><time>2019-02-23T15:20:08Z</time><pdop>6.068</pdop><geoidheight>0.00</geoidheight><course>297.9</course><type>1</type></trkpt>
      <trkpt lat="38.51186909" lon="-6.60730456"><ele>871</ele><speed>4.38</speed><time>2019-02-23T15:20:11Z</time><pdop>6.068</pdop><geoidheight>0.00</geoidheight><course>304.8</course><type>1</type></trkpt>
      <trkpt lat="38.51196293" lon="-6.60741927"><ele>871</ele><speed>4.44</speed><time>2019-02-23T15:20:14Z</time><pdop>6.068</pdop><geoidheight>0.00</geoidheight><course>315.5</course><type>1</type></trkpt>
      <trkpt lat="38.51205302" lon="-6.60752077"><ele>873</ele><speed>3.93</speed><time>2019-02-23T15:20:17Z</time><pdop>6.068</pdop><geoidheight>0.00</geoidheight><course>326.1</course><type>1</type></trkpt>
      <trkpt lat="38.51216491" lon="-6.60752835"><ele>874</ele><speed>4.22</speed><time>2019-02-23T15:20:21Z</time><pdop>6.068</pdop><geoidheight>0.00</geoidheight><course>359.9</course><type>1</type></trkpt>
      <trkpt lat="38.51230362" lon="-6.60746323"><ele>875</ele><speed>5.82</speed><time>2019-02-23T15:20:25Z</time><pdop>6.068</pdop><geoidheight>0.00</geoidheight><course>58.8</course><type>1</type></trkpt>
      <trkpt lat="38.51235547" lon="-6.60725093"><ele>872</ele><speed>7.76</speed><time>2019-02-23T15:20:28Z</time><pdop>6.068</pdop><geoidheight>0.00</geoidheight><course>90.5</course><type>1</type></trkpt>
      <trkpt lat="38.51232062" lon="-6.607044"><ele>869</ele><speed>9.21</speed><time>2019-02-23T15:20:30Z</time><pdop>6.068</pdop><geoidheight>0.00</geoidheight><course>109.9</course><type>1</type></trkpt>
      <trkpt lat="38.51222801" lon="-6.60683555"><ele>871</ele><speed>10.86</speed><time>2019-02-23T15:20:32Z</time><pdop>6.068</pdop><geoidheight>0.00</geoidheight><course>132.1</course><type>1</type></trkpt>
      <trkpt lat="38.51213924" lon="-6.60675735"><ele>871</ele><speed>10.97</speed><time>2019-02-23T15:20:33Z</time><pdop>6.068</pdop><geoidheight>0.00</geoidheight><course>148.6</course><type>1</type></trkpt>
      <trkpt lat="38.51194343" lon="-6.60670554"><ele>871</ele><speed>11.15</speed><time>2019-02-23T15:20:35Z</time><pdop>6.068</pdop><geoidheight>0.00</geoidheight><course>178.7</course><type>1</type></trkpt>
      <trkpt lat="38.51174665" lon="-6.60678186"><ele>870</ele><speed>11.28</speed><time>2019-02-23T15:20:37Z</time><pdop>6.068</pdop><geoidheight>0.00</geoidheight><course>207.9</course><type>1</type></trkpt>
      <trkpt lat="38.51162842" lon="-6.60695627"><ele>870</ele><speed>10.15</speed><time>2019-02-23T15:20:39Z</time><pdop>6.068</pdop><geoidheight>0.00</geoidheight><course>243.7</course><type>1</type></trkpt>
      <trkpt lat="38.5115832" lon="-6.60710762"><ele>874</ele><speed>4.53</speed><time>2019-02-23T15:20:41Z</time><pdop>6.068</pdop><geoidheight>0.00</geoidheight><course>259.9</course><type>1</type></trkpt>
      <trkpt lat="38.51156588" lon="-6.60725151"><ele>875</ele><speed>4.48</speed><time>2019-02-23T15:20:44Z</time><pdop>6.068</pdop><geoidheight>0.00</geoidheight><course>263.5</course><type>1</type></trkpt>
      <trkpt lat="38.5116129" lon="-6.60738862"><ele>873</ele><speed>4.85</speed><time>2019-02-23T15:20:47Z</time><pdop>6.068</pdop><geoidheight>0.00</geoidheight><course>317.8</course><type>1</type></trkpt>
      <trkpt lat="38.5117376" lon="-6.60740444"><ele>872</ele><speed>4.77</speed><time>2019-02-23T15:20:51Z</time><pdop>6.068</pdop><geoidheight>0.00</geoidheight><course>14.9</course><type>1</type></trkpt>
      <trkpt lat="38.51187449" lon="-6.60731891"><ele>872</ele><speed>5.19</speed><time>2019-02-23T15:20:54Z</time><pdop>6.068</pdop><geoidheight>0.00</geoidheight><course>36.9</course><type>1</type></trkpt>
      <trkpt lat="38.51198907" lon="-6.60717037"><ele>872</ele><speed>6.63</speed><time>2019-02-23T15:20:57Z</time><pdop>6.068</pdop><geoidheight>0.00</geoidheight><course>61.0</course><type>1</type></trkpt>
      <trkpt lat="38.51202188" lon="-6.60700672"><ele>873</ele><speed>7.68</speed><time>2019-02-23T15:20:59Z</time><pdop>6.068</pdop><geoidheight>0.00</geoidheight><course>79.5</course><type>1</type></trkpt>
      <trkpt lat="38.51203336" lon="-6.60682523"><ele>872</ele><speed>7.72</speed><time>2019-02-23T15:21:01Z</time><pdop>6.068</pdop><geoidheight>0.00</geoidheight><course>96.8</course><type>1</type></trkpt>
      <trkpt lat="38.51201728" lon="-6.60663222"><ele>870</ele><speed>8.71</speed><time>2019-02-23T15:21:03Z</time><pdop>6.068</pdop><geoidheight>0.00</geoidheight><course>98.3</course><type>1</type></trkpt>
      <trkpt lat="38.51199352" lon="-6.60643183"><ele>868</ele><speed>9.62</speed><time>2019-02-23T15:21:05Z</time><pdop>6.068</pdop><geoidheight>0.00</geoidheight><course>99.7</course><type>1</type></trkpt>
      <trkpt lat="38.51197803" lon="-6.60621704"><ele>868</ele><speed>7.86</speed><time>2019-02-23T15:21:07Z</time><pdop>6.068</pdop><geoidheight>0.00</geoidheight><course>88.1</course><type>1</type></trkpt>
      <trkpt lat="38.51201045" lon="-6.60608539"><ele>868</ele><speed>5.63</speed><time>2019-02-23T15:21:09Z</time><pdop>6.068</pdop><geoidheight>0.00</geoidheight><course>62.6</course><type>1</type></trkpt>
      <trkpt lat="38.51208671" lon="-6.60595183"><ele>869</ele><speed>5.05</speed><time>2019-02-23T15:21:12Z</time><pdop>6.068</pdop><geoidheight>0.00</geoidheight><course>47.0</course><type>1</type></trkpt>
      <trkpt lat="38.51221027" lon="-6.60582584"><ele>870</ele><speed>5.93</speed><time>2019-02-23T15:21:15Z</time><pdop>6.068</pdop><geoidheight>0.00</geoidheight><course>26.7</course><type>1</type></trkpt>
      <trkpt lat="38.51232008" lon="-6.60576215"><ele>871</ele><speed>2.85</speed><time>2019-02-23T15:21:19Z</time><pdop>6.068</pdop><geoidheight>0.00</geoidheight><course>8.9</course><type>1</type></trkpt>
      <trkpt lat="38.51244518" lon="-6.6057303"><ele>871</ele><speed>4.05</speed><time>2019-02-23T15:21:22Z</time><pdop>6.068</pdop><geoidheight>0.00</geoidheight><course>12.2</course><type>1</type></trkpt>
      <trkpt lat="38.51255789" lon="-6.60575825"><ele>869</ele><speed>4.47</speed><time>2019-02-23T15:21:26Z</time><pdop>6.068</pdop><geoidheight>0.00</geoidheight><course>345.3</course><type>1</type></trkpt>
      <trkpt lat="38.51268016" lon="-6.60579547"><ele>866</ele><speed>4.33</speed><time>2019-02-23T15:21:29Z</time><pdop>7.585</pdop><geoidheight>0.00</geoidheight><course>351.7</course><type>1</type></trkpt>
      <trkpt lat="38.51280078" lon="-6.6058446"><ele>865</ele><speed>3.57</speed><time>2019-02-23T15:21:33Z</time><pdop>7.585</pdop><geoidheight>0.00</geoidheight><course>337.5</course><type>1</type></trkpt>
      <trkpt lat="38.51296349" lon="-6.60587036"><ele>865</ele><speed>3.63</speed><time>2019-02-23T15:21:38Z</time><pdop>7.585</pdop><geoidheight>0.00</geoidheight><course>353.3</course><type>1</type></trkpt>
      <trkpt lat="38.51310149" lon="-6.60589677"><ele>866</ele><speed>3.02</speed><time>2019-02-23T15:21:42Z</time><pdop>7.585</pdop><geoidheight>0.00</geoidheight><course>354.1</course><type>1</type></trkpt>
      <trkpt lat="38.51322102" lon="-6.60597424"><ele>863</ele><speed>4.73</speed><time>2019-02-23T15:21:46Z</time><pdop>6.068</pdop><geoidheight>0.00</geoidheight><course>318.2</course><type>1</type></trkpt>
      <trkpt lat="38.51325895" lon="-6.60613022"><ele>861</ele><speed>5.23</speed><time>2019-02-23T15:21:49Z</time><pdop>6.068</pdop><geoidheight>0.00</geoidheight><course>283.7</course><type>1</type></trkpt>
      <trkpt lat="38.51328954" lon="-6.6062765"><ele>852</ele><speed>6.74</speed><time>2019-02-23T15:21:51Z</time><pdop>7.585</pdop><geoidheight>0.00</geoidheight><course>281.4</course><type>1</type></trkpt>
      <trkpt lat="38.51329466" lon="-6.60648161"><ele>857</ele><speed>6.90</speed><time>2019-02-23T15:21:54Z</time><pdop>7.585</pdop><geoidheight>0.00</geoidheight><course>255.2</course><type>1</type></trkpt>
      <trkpt lat="38.51326354" lon="-6.60664032"><ele>832</ele><speed>7.04</speed><time>2019-02-23T15:21:56Z</time><pdop>7.585</pdop><geoidheight>0.00</geoidheight><course>263.8</course><type>1</type></trkpt>
      <trkpt lat="38.51324057" lon="-6.60683194"><ele>833</ele><speed>5.30</speed><time>2019-02-23T15:21:59Z</time><pdop>7.585</pdop><geoidheight>0.00</geoidheight><course>264.8</course><type>1</type></trkpt>
      <trkpt lat="38.51323817" lon="-6.60705229"><ele>833</ele><speed>7.15</speed><time>2019-02-23T15:22:02Z</time><pdop>6.068</pdop><geoidheight>0.00</geoidheight><course>277.1</course><type>1</type></trkpt>
      <trkpt lat="38.51325655" lon="-6.60723712"><ele>799</ele><speed>5.33</speed><time>2019-02-23T15:22:05Z</time><pdop>7.585</pdop><geoidheight>0.00</geoidheight><course>278.9</course><type>1</type></trkpt>
      <trkpt lat="38.51331224" lon="-6.6074425"><ele>808</ele><speed>6.72</speed><time>2019-02-23T15:22:08Z</time><pdop>7.585</pdop><geoidheight>0.00</geoidheight><course>297.3</course><type>1</type></trkpt>
      <trkpt lat="38.513382" lon="-6.60756919"><ele>790</ele><speed>4.65</speed><time>2019-02-23T15:22:10Z</time><pdop>6.068</pdop><geoidheight>0.00</geoidheight><course>311.3</course><type>1</type></trkpt>
      <trkpt lat="38.51347598" lon="-6.60768457"><ele>790</ele><speed>6.35</speed><time>2019-02-23T15:22:13Z</time><pdop>6.068</pdop><geoidheight>0.00</geoidheight><course>311.2</course><type>1</type></trkpt>
      <trkpt lat="38.51359075" lon="-6.60778351"><ele>788</ele><speed>4.08</speed><time>2019-02-23T15:22:16Z</time><pdop>6.068</pdop><geoidheight>0.00</geoidheight><course>328.8</course><type>1</type></trkpt>
      <trkpt lat="38.51367761" lon="-6.60788377"><ele>811</ele><speed>5.22</speed><time>2019-02-23T15:22:19Z</time><pdop>7.585</pdop><geoidheight>0.00</geoidheight><course>318.0</course><type>1</type></trkpt>
      <trkpt lat="38.51377897" lon="-6.60799134"><ele>786</ele><speed>3.69</speed><time>2019-02-23T15:22:22Z</time><pdop>7.585</pdop><geoidheight>0.00</geoidheight><course>333.6</course><type>1</type></trkpt>
      <trkpt lat="38.51390468" lon="-6.60809894"><ele>806</ele><speed>5.09</speed><time>2019-02-23T15:22:27Z</time><pdop>7.585</pdop><geoidheight>0.00</geoidheight><course>340.2</course><type>1</type></trkpt>
      <trkpt lat="38.51406192" lon="-6.60813702"><ele>780</ele><speed>4.18</speed><time>2019-02-23T15:22:31Z</time><pdop>7.585</pdop><geoidheight>0.00</geoidheight><course>348.8</course><type>1</type></trkpt>
      <trkpt lat="38.51418723" lon="-6.60817963"><ele>801</ele><speed>4.38</speed><time>2019-02-23T15:22:34Z</time><pdop>7.585</pdop><geoidheight>0.00</geoidheight><course>343.0</course><type>1</type></trkpt>
      <trkpt lat="38.514315" lon="-6.60819084"><ele>800</ele><speed>4.49</speed><time>2019-02-23T15:22:37Z</time><pdop>7.585</pdop><geoidheight>0.00</geoidheight><course>350.3</course><type>1</type></trkpt>
      <trkpt lat="38.51444484" lon="-6.60821984"><ele>805</ele><speed>4.60</speed><time>2019-02-23T15:22:41Z</time><pdop>6.068</pdop><geoidheight>0.00</geoidheight><course>4.1</course><type>1</type></trkpt>
      <trkpt lat="38.51457213" lon="-6.6082136"><ele>792</ele><speed>3.63</speed><time>2019-02-23T15:22:44Z</time><pdop>6.068</pdop><geoidheight>0.00</geoidheight><course>3.4</course><type>1</type></trkpt>
      <trkpt lat="38.51468831" lon="-6.60820197"><ele>807</ele><speed>4.44</speed><time>2019-02-23T15:22:47Z</time><pdop>6.068</pdop><geoidheight>0.00</geoidheight><course>3.0</course><type>1</type></trkpt>
      <trkpt lat="38.51481058" lon="-6.60821007"><ele>799</ele><speed>4.35</speed><time>2019-02-23T15:22:50Z</time><pdop>6.068</pdop><geoidheight>0.00</geoidheight><course>347.0</course><type>1</type></trkpt>
      <trkpt lat="38.51489861" lon="-6.60829262"><ele>791</ele><speed>5.73</speed><time>2019-02-23T15:22:52Z</time><pdop>6.068</pdop><geoidheight>0.00</geoidheight><course>316.1</course><type>1</type></trkpt>
      <trkpt lat="38.51495575" lon="-6.60847084"><ele>780</ele><speed>5.79</speed><time>2019-02-23T15:22:55Z</time><pdop>6.068</pdop><geoidheight>0.00</geoidheight><course>285.7</course><type>1</type></trkpt>
      <trkpt lat="38.51499313" lon="-6.60865233"><ele>794</ele><speed>5.65</speed><time>2019-02-23T15:22:58Z</time><pdop>7.585</pdop><geoidheight>0.00</geoidheight><course>296.6</course><type>1</type></trkpt>
      <trkpt lat="38.51503559" lon="-6.60885147"><ele>802</ele><speed>5.70</speed><time>2019-02-23T15:23:01Z</time><pdop>7.585</pdop><geoidheight>0.00</geoidheight><course>286.4</course><type>1</type></trkpt>
      <trkpt lat="38.51503442" lon="-6.6090756"><ele>794</ele><speed>7.14</speed><time>2019-02-23T15:23:04Z</time><pdop>7.585</pdop><geoidheight>0.00</geoidheight><course>272.0</course><type>1</type></trkpt>
      <trkpt lat="38.51501401" lon="-6.60926121"><ele>799</ele><speed>7.69</speed><time>2019-02-23T15:23:06Z</time><pdop>6.068</pdop><geoidheight>0.00</geoidheight><course>252.5</course><type>1</type></trkpt>
      <trkpt lat="38.51493715" lon="-6.60942188"><ele>799</ele><speed>9.58</speed><time>2019-02-23T15:23:08Z</time><pdop>6.068</pdop><geoidheight>0.00</geoidheight><course>224.9</course><type>1</type></trkpt>
      <trkpt lat="38.51478535" lon="-6.60957096"><ele>790</ele><speed>10.88</speed><time>2019-02-23T15:23:10Z</time><pdop>6.068</pdop><geoidheight>0.00</geoidheight><course>210.7</course><type>1</type></trkpt>
      <trkpt lat="38.51468483" lon="-6.60962717"><ele>793</ele><speed>11.25</speed><time>2019-02-23T15:23:11Z</time><pdop>6.068</pdop><geoidheight>0.00</geoidheight><course>204.4</course><type>1</type></trkpt>
      <trkpt lat="38.51459314" lon="-6.60966461"><ele>795</ele><speed>11.42</speed><time>2019-02-23T15:23:12Z</time><pdop>4.5509996</pdop><geoidheight>0.00</geoidheight><course>193.8</course><type>1</type></trkpt>
      <trkpt lat="38.51448984" lon="-6.60969294"><ele>796</ele><speed>11.73</speed><time>2019-02-23T15:23:13Z</time><pdop>4.5509996</pdop><geoidheight>0.00</geoidheight><course>186.6</course><type>1</type></trkpt>
      <trkpt lat="38.51438085" lon="-6.60970462"><ele>797</ele><speed>12.06</speed><time>2019-02-23T15:23:14Z</time><pdop>4.5509996</pdop><geoidheight>0.00</geoidheight><course>183.2</course><type>1</type></trkpt>
      <trkpt lat="38.51427715" lon="-6.60970307"><ele>797</ele><speed>11.91</speed><time>2019-02-23T15:23:15Z</time><pdop>4.5509996</pdop><geoidheight>0.00</geoidheight><course>180.8</course><type>1</type></trkpt>
      <trkpt lat="38.51417245" lon="-6.60969451"><ele>796</ele><speed>11.72</speed><time>2019-02-23T15:23:16Z</time><pdop>4.5509996</pdop><geoidheight>0.00</geoidheight><course>176.7</course><type>1</type></trkpt>
      <trkpt lat="38.51406335" lon="-6.60967059"><ele>794</ele><speed>12.46</speed><time>2019-02-23T15:23:17Z</time><pdop>4.5509996</pdop><geoidheight>0.00</geoidheight><course>169.9</course><type>1</type></trkpt>
      <trkpt lat="38.51395461" lon="-6.60963224"><ele>794</ele><speed>12.75</speed><time>2019-02-23T15:23:18Z</time><pdop>6.068</pdop><geoidheight>0.00</geoidheight><course>164.3</course><type>1</type></trkpt>
      <trkpt lat="38.51376485" lon="-6.60953717"><ele>793</ele><speed>11.04</speed><time>2019-02-23T15:23:20Z</time><pdop>6.068</pdop><geoidheight>0.00</geoidheight><course>150.7</course><type>1</type></trkpt>
      <trkpt lat="38.51360084" lon="-6.60940734"><ele>771</ele><speed>11.06</speed><time>2019-02-23T15:23:22Z</time><pdop>6.068</pdop><geoidheight>0.00</geoidheight><course>146.3</course><type>1</type></trkpt>
      <trkpt lat="38.51345815" lon="-6.60926162"><ele>776</ele><speed>10.73</speed><time>2019-02-23T15:23:24Z</time><pdop>6.068</pdop><geoidheight>0.00</geoidheight><course>137.3</course><type>1</type></trkpt>
      <trkpt lat="38.51333912" lon="-6.60904702"><ele>777</ele><speed>10.25</speed><time>2019-02-23T15:23:26Z</time><pdop>6.068</pdop><geoidheight>0.00</geoidheight><course>122.2</course><type>1</type></trkpt>
      <trkpt lat="38.51322394" lon="-6.60883598"><ele>784</ele><speed>10.57</speed><time>2019-02-23T15:23:28Z</time><pdop>6.068</pdop><geoidheight>0.00</geoidheight><course>124.3</course><type>1</type></trkpt>
      <trkpt lat="38.51311391" lon="-6.60865207"><ele>786</ele><speed>9.27</speed><time>2019-02-23T15:23:30Z</time><pdop>6.068</pdop><geoidheight>0.00</geoidheight><course>126.2</course><type>1</type></trkpt>
      <trkpt lat="38.51302738" lon="-6.60848323"><ele>775</ele><speed>8.46</speed><time>2019-02-23T15:23:32Z</time><pdop>6.068</pdop><geoidheight>0.00</geoidheight><course>119.2</course><type>1</type></trkpt>
      <trkpt lat="38.51296515" lon="-6.60825934"><ele>768</ele><speed>10.29</speed><time>2019-02-23T15:23:34Z</time><pdop>6.068</pdop><geoidheight>0.00</geoidheight><course>118.2</course><type>1</type></trkpt>
      <trkpt lat="38.51287952" lon="-6.60804872"><ele>768</ele><speed>9.87</speed><time>2019-02-23T15:23:36Z</time><pdop>6.068</pdop><geoidheight>0.00</geoidheight><course>118.5</course><type>1</type></trkpt>
      <trkpt lat="38.51279388" lon="-6.60784885"><ele>776</ele><speed>9.62</speed><time>2019-02-23T15:23:38Z</time><pdop>7.585</pdop><geoidheight>0.00</geoidheight><course>116.9</course><type>1</type></trkpt>
      <trkpt lat="38.51272151" lon="-6.60761575"><ele>774</ele><speed>10.23</speed><time>2019-02-23T15:23:40Z</time><pdop>7.585</pdop><geoidheight>0.00</geoidheight><course>112.4</course><type>1</type></trkpt>
      <trkpt lat="38.51263841" lon="-6.60741507"><ele>782</ele><speed>8.93</speed><time>2019-02-23T15:23:42Z</time><pdop>7.585</pdop><geoidheight>0.00</geoidheight><course>113.4</course><type>1</type></trkpt>
      <trkpt lat="38.51258708" lon="-6.60720843"><ele>783</ele><speed>7.93</speed><time>2019-02-23T15:23:44Z</time><pdop>7.585</pdop><geoidheight>0.00</geoidheight><course>111.6</course><type>1</type></trkpt>
      <trkpt lat="38.51253463" lon="-6.60703678"><ele>782</ele><speed>8.37</speed><time>2019-02-23T15:23:46Z</time><pdop>6.068</pdop><geoidheight>0.00</geoidheight><course>105.2</course><type>1</type></trkpt>
      <trkpt lat="38.51249938" lon="-6.60683016"><ele>766</ele><speed>8.24</speed><time>2019-02-23T15:23:48Z</time><pdop>7.585</pdop><geoidheight>0.00</geoidheight><course>102.8</course><type>1</type></trkpt>
      <trkpt lat="38.51246536" lon="-6.60661634"><ele>772</ele><speed>7.54</speed><time>2019-02-23T15:23:51Z</time><pdop>7.585</pdop><geoidheight>0.00</geoidheight><course>100.3</course><type>1</type></trkpt>
      <trkpt lat="38.51241911" lon="-6.60643425"><ele>766</ele><speed>8.80</speed><time>2019-02-23T15:23:53Z</time><pdop>6.068</pdop><geoidheight>0.00</geoidheight><course>109.9</course><type>1</type></trkpt>
      <trkpt lat="38.51231805" lon="-6.60625671"><ele>764</ele><speed>11.09</speed><time>2019-02-23T15:23:55Z</time><pdop>6.068</pdop><geoidheight>0.00</geoidheight><course>139.8</course><type>1</type></trkpt>
      <trkpt lat="38.5122171" lon="-6.60619845"><ele>763</ele><speed>12.46</speed><time>2019-02-23T15:23:56Z</time><pdop>6.068</pdop><geoidheight>0.00</geoidheight><course>154.0</course><type>1</type></trkpt>
      <trkpt lat="38.5121088" lon="-6.60615359"><ele>764</ele><speed>13.26</speed><time>2019-02-23T15:23:57Z</time><pdop>6.068</pdop><geoidheight>0.00</geoidheight><course>165.5</course><type>1</type></trkpt>
      <trkpt lat="38.51188846" lon="-6.60615328"><ele>763</ele><speed>12.84</speed><time>2019-02-23T15:23:59Z</time><pdop>6.068</pdop><geoidheight>0.00</geoidheight><course>187.2</course><type>1</type></trkpt>
      <trkpt lat="38.51178379" lon="-6.6062024"><ele>766</ele><speed>11.66</speed><time>2019-02-23T15:24:00Z</time><pdop>6.068</pdop><geoidheight>0.00</geoidheight><course>196.3</course><type>1</type></trkpt>
      <trkpt lat="38.51161729" lon="-6.6063181"><ele>771</ele><speed>10.07</speed><time>2019-02-23T15:24:02Z</time><pdop>6.068</pdop><geoidheight>0.00</geoidheight><course>221.0</course><type>1</type></trkpt>
      <trkpt lat="38.51151171" lon="-6.60650301"><ele>774</ele><speed>9.52</speed><time>2019-02-23T15:24:04Z</time><pdop>4.5509996</pdop><geoidheight>0.00</geoidheight><course>234.4</course><type>1</type></trkpt>
      <trkpt lat="38.51146172" lon="-6.60659782"><ele>777</ele><speed>8.63</speed><time>2019-02-23T15:24:05Z</time><pdop>4.5509996</pdop><geoidheight>0.00</geoidheight><course>239.4</course><type>1</type></trkpt>
      <trkpt lat="38.51142938" lon="-6.60668593"><ele>779</ele><speed>7.58</speed><time>2019-02-23T15:24:06Z</time><pdop>4.5509996</pdop><geoidheight>0.00</geoidheight><course>246.7</course><type>1</type></trkpt>
      <trkpt lat="38.51139234" lon="-6.60682402"><ele>780</ele><speed>6.15</speed><time>2019-02-23T15:24:08Z</time><pdop>4.5509996</pdop><geoidheight>0.00</geoidheight><course>250.9</course><type>1</type></trkpt>
      <trkpt lat="38.51135078" lon="-6.60697507"><ele>779</ele><speed>7.25</speed><time>2019-02-23T15:24:10Z</time><pdop>4.5509996</pdop><geoidheight>0.00</geoidheight><course>256.6</course><type>1</type></trkpt>
      <trkpt lat="38.51133301" lon="-6.60713319"><ele>778</ele><speed>7.46</speed><time>2019-02-23T15:24:12Z</time><pdop>4.5509996</pdop><geoidheight>0.00</geoidheight><course>271.8</course><type>1</type></trkpt>
      <trkpt lat="38.51134671" lon="-6.60728456"><ele>779</ele><speed>5.77</speed><time>2019-02-23T15:24:14Z</time><pdop>4.5509996</pdop><geoidheight>0.00</geoidheight><course>276.8</course><type>1</type></trkpt>
      <trkpt lat="38.51136076" lon="-6.60743026"><ele>780</ele><speed>6.08</speed><time>2019-02-23T15:24:16Z</time><pdop>4.5509996</pdop><geoidheight>0.00</geoidheight><course>277.7</course><type>1</type></trkpt>
      <trkpt lat="38.51139908" lon="-6.60756409"><ele>780</ele><speed>6.23</speed><time>2019-02-23T15:24:18Z</time><pdop>6.068</pdop><geoidheight>0.00</geoidheight><course>293.5</course><type>1</type></trkpt>
      <trkpt lat="38.51145172" lon="-6.60771253"><ele>770</ele><speed>5.43</speed><time>2019-02-23T15:24:21Z</time><pdop>6.068</pdop><geoidheight>0.00</geoidheight><course>290.1</course><type>1</type></trkpt>
      <trkpt lat="38.51149101" lon="-6.60784172"><ele>766</ele><speed>6.17</speed><time>2019-02-23T15:24:23Z</time><pdop>6.068</pdop><geoidheight>0.00</geoidheight><course>292.0</course><type>1</type></trkpt>
      <trkpt lat="38.51153651" lon="-6.60799881"><ele>777</ele><speed>5.50</speed><time>2019-02-23T15:24:26Z</time><pdop>6.068</pdop><geoidheight>0.00</geoidheight><course>285.6</course><type>1</type></trkpt>
      <trkpt lat="38.51157295" lon="-6.60812864"><ele>768</ele><speed>6.08</speed><time>2019-02-23T15:24:28Z</time><pdop>6.068</pdop><geoidheight>0.00</geoidheight><course>294.6</course><type>1</type></trkpt>
      <trkpt lat="38.51163375" lon="-6.60828769"><ele>769</ele><speed>4.13</speed><time>2019-02-23T15:24:31Z</time><pdop>6.068</pdop><geoidheight>0.00</geoidheight><course>295.8</course><type>1</type></trkpt>
      <trkpt lat="38.51171952" lon="-6.60840803"><ele>773</ele><speed>5.88</speed><time>2019-02-23T15:24:34Z</time><pdop>6.068</pdop><geoidheight>0.00</geoidheight><course>312.4</course><type>1</type></trkpt>
      <trkpt lat="38.51181634" lon="-6.60857868"><ele>778</ele><speed>4.91</speed><time>2019-02-23T15:24:37Z</time><pdop>7.585</pdop><geoidheight>0.00</geoidheight><course>306.3</course><type>1</type></trkpt>
      <trkpt lat="38.511891" lon="-6.60876882"><ele>770</ele><speed>4.91</speed><time>2019-02-23T15:24:41Z</time><pdop>7.585</pdop><geoidheight>0.00</geoidheight><course>298.7</course><type>1</type></trkpt>
      <trkpt lat="38.51194457" lon="-6.6089651"><ele>783</ele><speed>6.69</speed><time>2019-02-23T15:24:44Z</time><pdop>6.068</pdop><geoidheight>0.00</geoidheight><course>274.7</course><type>1</type></trkpt>
      <trkpt lat="38.51195159" lon="-6.60914455"><ele>771</ele><speed>7.77</speed><time>2019-02-23T15:24:46Z</time><pdop>6.068</pdop><geoidheight>0.00</geoidheight><course>254.4</course><type>1</type></trkpt>
      <trkpt lat="38.51190272" lon="-6.60932717"><ele>777</ele><speed>8.71</speed><time>2019-02-23T15:24:48Z</time><pdop>6.068</pdop><geoidheight>0.00</geoidheight><course>251.9</course><type>1</type></trkpt>
      <trkpt lat="38.51185519" lon="-6.60951066"><ele>781</ele><speed>8.99</speed><time>2019-02-23T15:24:50Z</time><pdop>6.068</pdop><geoidheight>0.00</geoidheight><course>258.2</course><type>1</type></trkpt>
      <trkpt lat="38.51181357" lon="-6.60969778"><ele>783</ele><speed>8.07</speed><time>2019-02-23T15:24:52Z</time><pdop>4.5509996</pdop><geoidheight>0.00</geoidheight><course>260.8</course><type>1</type></trkpt>
      <trkpt lat="38.51182488" lon="-6.60988069"><ele>784</ele><speed>7.62</speed><time>2019-02-23T15:24:54Z</time><pdop>4.5509996</pdop><geoidheight>0.00</geoidheight><course>276.0</course><type>1</type></trkpt>
      <trkpt lat="38.51185787" lon="-6.61006406"><ele>785</ele><speed>7.91</speed><time>2019-02-23T15:24:56Z</time><pdop>4.5509996</pdop><geoidheight>0.00</geoidheight><course>282.4</course><type>1</type></trkpt>
      <trkpt lat="38.51186996" lon="-6.61015568"><ele>787</ele><speed>7.23</speed><time>2019-02-23T15:24:57Z</time><pdop>4.5509996</pdop><geoidheight>0.00</geoidheight><course>281.3</course><type>1</type></trkpt>
      <trkpt lat="38.51188705" lon="-6.61030324"><ele>789</ele><speed>5.87</speed><time>2019-02-23T15:24:59Z</time><pdop>6.068</pdop><geoidheight>0.00</geoidheight><course>278.3</course><type>1</type></trkpt>
      <trkpt lat="38.51192144" lon="-6.61047834"><ele>792</ele><speed>5.14</speed><time>2019-02-23T15:25:02Z</time><pdop>6.068</pdop><geoidheight>0.00</geoidheight><course>295.9</course><type>1</type></trkpt>
      <trkpt lat="38.51199205" lon="-6.61059306"><ele>795</ele><speed>3.92</speed><time>2019-02-23T15:25:05Z</time><pdop>6.068</pdop><geoidheight>0.00</geoidheight><course>306.5</course><type>1</type></trkpt>
      <trkpt lat="38.51207263" lon="-6.61069505"><ele>795</ele><speed>4.18</speed><time>2019-02-23T15:25:08Z</time><pdop>6.068</pdop><geoidheight>0.00</geoidheight><course>320.3</course><type>1</type></trkpt>
      <trkpt lat="38.5122123" lon="-6.61078355"><ele>775</ele><speed>3.52</speed><time>2019-02-23T15:25:12Z</time><pdop>6.068</pdop><geoidheight>0.00</geoidheight><course>332.7</course><type>1</type></trkpt>
      <trkpt lat="38.51229461" lon="-6.61067413"><ele>771</ele><speed>6.06</speed><time>2019-02-23T15:25:16Z</time><pdop>6.068</pdop><geoidheight>0.00</geoidheight><course>79.5</course><type>1</type></trkpt>
      <trkpt lat="38.51226169" lon="-6.61049867"><ele>771</ele><speed>9.66</speed><time>2019-02-23T15:25:18Z</time><pdop>6.068</pdop><geoidheight>0.00</geoidheight><course>107.5</course><type>1</type></trkpt>
      <trkpt lat="38.51215766" lon="-6.61029628"><ele>772</ele><speed>11.01</speed><time>2019-02-23T15:25:20Z</time><pdop>6.068</pdop><geoidheight>0.00</geoidheight><course>131.1</course><type>1</type></trkpt>
      <trkpt lat="38.51200902" lon="-6.61012452"><ele>782</ele><speed>11.34</speed><time>2019-02-23T15:25:22Z</time><pdop>6.068</pdop><geoidheight>0.00</geoidheight><course>135.0</course><type>1</type></trkpt>
      <trkpt lat="38.51187921" lon="-6.60993937"><ele>785</ele><speed>10.08</speed><time>2019-02-23T15:25:24Z</time><pdop>6.068</pdop><geoidheight>0.00</geoidheight><course>135.1</course><type>1</type></trkpt>
      <trkpt lat="38.51175897" lon="-6.60975281"><ele>771</ele><speed>10.43</speed><time>2019-02-23T15:25:26Z</time><pdop>6.068</pdop><geoidheight>0.00</geoidheight><course>133.1</course><type>1</type></trkpt>
      <trkpt lat="38.51164594" lon="-6.60957002"><ele>771</ele><speed>10.65</speed><time>2019-02-23T15:25:28Z</time><pdop>6.068</pdop><geoidheight>0.00</geoidheight><course>129.5</course><type>1</type></trkpt>
      <trkpt lat="38.51154767" lon="-6.60939478"><ele>773</ele><speed>8.82</speed><time>2019-02-23T15:25:30Z</time><pdop>6.068</pdop><geoidheight>0.00</geoidheight><course>122.5</course><type>1</type></trkpt>
      <trkpt lat="38.51148126" lon="-6.60922713"><ele>774</ele><speed>8.76</speed><time>2019-02-23T15:25:32Z</time><pdop>6.068</pdop><geoidheight>0.00</geoidheight><course>114.3</course><type>1</type></trkpt>
      <trkpt lat="38.51143636" lon="-6.60901727"><ele>783</ele><speed>9.06</speed><time>2019-02-23T15:25:34Z</time><pdop>6.068</pdop><geoidheight>0.00</geoidheight><course>109.9</course><type>1</type></trkpt>
      <trkpt lat="38.51137375" lon="-6.60883794"><ele>791</ele><speed>9.31</speed><time>2019-02-23T15:25:36Z</time><pdop>6.068</pdop><geoidheight>0.00</geoidheight><course>114.0</course><type>1</type></trkpt>
      <trkpt lat="38.51129764" lon="-6.6086155"><ele>795</ele><speed>9.85</speed><time>2019-02-23T15:25:38Z</time><pdop>6.068</pdop><geoidheight>0.00</geoidheight><course>111.3</course><type>1</type></trkpt>
      <trkpt lat="38.51124733" lon="-6.60841236"><ele>799</ele><speed>9.70</speed><time>2019-02-23T15:25:40Z</time><pdop>6.068</pdop><geoidheight>0.00</geoidheight><course>104.0</course><type>1</type></trkpt>
      <trkpt lat="38.5111679" lon="-6.60823192"><ele>794</ele><speed>9.18</speed><time>2019-02-23T15:25:42Z</time><pdop>6.068</pdop><geoidheight>0.00</geoidheight><course>111.0</course><type>1</type></trkpt>
      <trkpt lat="38.51111167" lon="-6.60806131"><ele>795</ele><speed>8.19</speed><time>2019-02-23T15:25:44Z</time><pdop>6.068</pdop><geoidheight>0.00</geoidheight><course>101.7</course><type>1</type></trkpt>
      <trkpt lat="38.5111344" lon="-6.60788657"><ele>795</ele><speed>7.05</speed><time>2019-02-23T15:25:46Z</time><pdop>6.068</pdop><geoidheight>0.00</geoidheight><course>78.0</course><type>1</type></trkpt>
      <trkpt lat="38.51117212" lon="-6.60773112"><ele>798</ele><speed>6.07</speed><time>2019-02-23T15:25:48Z</time><pdop>6.068</pdop><geoidheight>0.00</geoidheight><course>69.8</course><type>1</type></trkpt>
      <trkpt lat="38.51124372" lon="-6.6075927"><ele>801</ele><speed>5.42</speed><time>2019-02-23T15:25:51Z</time><pdop>6.068</pdop><geoidheight>0.00</geoidheight><course>36.0</course><type>1</type></trkpt>
      <trkpt lat="38.51134049" lon="-6.60751081"><ele>798</ele><speed>2.68</speed><time>2019-02-23T15:25:54Z</time><pdop>6.068</pdop><geoidheight>0.00</geoidheight><course>340.7</course><type>1</type></trkpt>
      <trkpt lat="38.51142503" lon="-6.6076094"><ele>797</ele><speed>4.66</speed><time>2019-02-23T15:25:57Z</time><pdop>6.068</pdop><geoidheight>0.00</geoidheight><course>321.4</course><type>1</type></trkpt>
      <trkpt lat="38.51148503" lon="-6.60775297"><ele>783</ele><speed>5.99</speed><time>2019-02-23T15:26:00Z</time><pdop>6.068</pdop><geoidheight>0.00</geoidheight><course>270.0</course><type>1</type></trkpt>
      <trkpt lat="38.51145951" lon="-6.60789716"><ele>783</ele><speed>7.37</speed><time>2019-02-23T15:26:02Z</time><pdop>6.068</pdop><geoidheight>0.00</geoidheight><course>255.9</course><type>1</type></trkpt>
      <trkpt lat="38.5114095" lon="-6.60807779"><ele>784</ele><speed>8.34</speed><time>2019-02-23T15:26:04Z</time><pdop>6.068</pdop><geoidheight>0.00</geoidheight><course>243.0</course><type>1</type></trkpt>
      <trkpt lat="38.51135092" lon="-6.60822933"><ele>796</ele><speed>5.63</speed><time>2019-02-23T15:26:06Z</time><pdop>6.068</pdop><geoidheight>0.00</geoidheight><course>253.6</course><type>1</type></trkpt>
      <trkpt lat="38.51139041" lon="-6.6084402"><ele>800</ele><speed>5.85</speed><time>2019-02-23T15:26:09Z</time><pdop>6.068</pdop><geoidheight>0.00</geoidheight><course>286.8</course><type>1</type></trkpt>
      <trkpt lat="38.51143962" lon="-6.60858927"><ele>794</ele><speed>4.48</speed><time>2019-02-23T15:26:12Z</time><pdop>6.068</pdop><geoidheight>0.00</geoidheight><course>314.8</course><type>1</type></trkpt>
      <trkpt lat="38.51157972" lon="-6.60857163"><ele>794</ele><speed>5.34</speed><time>2019-02-23T15:26:16Z</time><pdop>6.068</pdop><geoidheight>0.00</geoidheight><course>36.5</course><type>1</type></trkpt>
      <trkpt lat="38.51167233" lon="-6.60838889"><ele>794</ele><speed>7.23</speed><time>2019-02-23T15:26:19Z</time><pdop>6.068</pdop><geoidheight>0.00</geoidheight><course>74.1</course><type>1</type></trkpt>
      <trkpt lat="38.51170154" lon="-6.60818197"><ele>780</ele><speed>8.94</speed><time>2019-02-23T15:26:21Z</time><pdop>6.068</pdop><geoidheight>0.00</geoidheight><course>92.7</course><type>1</type></trkpt>
      <trkpt lat="38.51164844" lon="-6.60798235"><ele>781</ele><speed>10.28</speed><time>2019-02-23T15:26:23Z</time><pdop>6.068</pdop><geoidheight>0.00</geoidheight><course>115.4</course><type>1</type></trkpt>
      <trkpt lat="38.511515" lon="-6.607798"><ele>780</ele><speed>11.14</speed><time>2019-02-23T15:26:25Z</time><pdop>6.068</pdop><geoidheight>0.00</geoidheight><course>138.4</course><type>1</type></trkpt>
      <trkpt lat="38.51133394" lon="-6.60766313"><ele>794</ele><speed>11.98</speed><time>2019-02-23T15:26:27Z</time><pdop>6.068</pdop><geoidheight>0.00</geoidheight><course>159.6</course><type>1</type></trkpt>
      <trkpt lat="38.51111955" lon="-6.60764254"><ele>801</ele><speed>11.63</speed><time>2019-02-23T15:26:29Z</time><pdop>6.068</pdop><geoidheight>0.00</geoidheight><course>185.5</course><type>1</type></trkpt>
      <trkpt lat="38.51100791" lon="-6.60768183"><ele>802</ele><speed>11.21</speed><time>2019-02-23T15:26:30Z</time><pdop>6.068</pdop><geoidheight>0.00</geoidheight><course>202.5</course><type>1</type></trkpt>
      <trkpt lat="38.5108702" lon="-6.6078261"><ele>781</ele><speed>9.94</speed><time>2019-02-23T15:26:32Z</time><pdop>6.068</pdop><geoidheight>0.00</geoidheight><course>235.7</course><type>1</type></trkpt>
      <trkpt lat="38.51084044" lon="-6.60800435"><ele>793</ele><speed>7.85</speed><time>2019-02-23T15:26:34Z</time><pdop>6.068</pdop><geoidheight>0.00</geoidheight><course>268.3</course><type>1</type></trkpt>
      <trkpt lat="38.51084897" lon="-6.60814911"><ele>800</ele><speed>5.98</speed><time>2019-02-23T15:26:36Z</time><pdop>6.068</pdop><geoidheight>0.00</geoidheight><course>273.3</course><type>1</type></trkpt>
      <trkpt lat="38.51086242" lon="-6.60833283"><ele>799</ele><speed>4.67</speed><time>2019-02-23T15:26:39Z</time><pdop>7.585</pdop><geoidheight>0.00</geoidheight><course>279.3</course><type>1</type></trkpt>
      <trkpt lat="38.51088944" lon="-6.60851246"><ele>781</ele><speed>3.18</speed><time>2019-02-23T15:26:43Z</time><pdop>7.585</pdop><geoidheight>0.00</geoidheight><course>281.6</course><type>1</type></trkpt>
      <trkpt lat="38.51094578" lon="-6.60868376"><ele>784</ele><speed>4.50</speed><time>2019-02-23T15:26:47Z</time><pdop>6.068</pdop><geoidheight>0.00</geoidheight><course>302.5</course><type>1</type></trkpt>
      <trkpt lat="38.51100518" lon="-6.60881201"><ele>791</ele><speed>3.92</speed><time>2019-02-23T15:26:51Z</time><pdop>6.068</pdop><geoidheight>0.00</geoidheight><course>301.8</course><type>1</type></trkpt>
      <trkpt lat="38.51109677" lon="-6.6088946"><ele>791</ele><speed>3.08</speed><time>2019-02-23T15:26:55Z</time><pdop>6.068</pdop><geoidheight>0.00</geoidheight><course>33.9</course><type>1</type></trkpt>
      <trkpt lat="38.51117781" lon="-6.60877258"><ele>788</ele><speed>5.28</speed><time>2019-02-23T15:26:58Z</time><pdop>6.068</pdop><geoidheight>0.00</geoidheight><course>75.1</course><type>1</type></trkpt>
      <trkpt lat="38.51116081" lon="-6.60860575"><ele>798</ele><speed>8.51</speed><time>2019-02-23T15:27:00Z</time><pdop>6.068</pdop><geoidheight>0.00</geoidheight><course>102.8</course><type>1</type></trkpt>
      <trkpt lat="38.51109579" lon="-6.60836212"><ele>779</ele><speed>10.82</speed><time>2019-02-23T15:27:02Z</time><pdop>6.068</pdop><geoidheight>0.00</geoidheight><course>116.7</course><type>1</type></trkpt>
      <trkpt lat="38.51096806" lon="-6.60815068"><ele>789</ele><speed>11.12</speed><time>2019-02-23T15:27:04Z</time><pdop>6.068</pdop><geoidheight>0.00</geoidheight><course>134.4</course><type>1</type></trkpt>
      <trkpt lat="38.5108333" lon="-6.60798239"><ele>802</ele><speed>10.40</speed><time>2019-02-23T15:27:06Z</time><pdop>6.068</pdop><geoidheight>0.00</geoidheight><course>128.4</course><type>1</type></trkpt>
      <trkpt lat="38.5107408" lon="-6.60778176"><ele>809</ele><speed>10.91</speed><time>2019-02-23T15:27:08Z</time><pdop>6.068</pdop><geoidheight>0.00</geoidheight><course>116.3</course><type>1</type></trkpt>
      <trkpt lat="38.51066507" lon="-6.6075585"><ele>785</ele><speed>10.52</speed><time>2019-02-23T15:27:10Z</time><pdop>6.068</pdop><geoidheight>0.00</geoidheight><course>114.6</course><type>1</type></trkpt>
      <trkpt lat="38.5106062" lon="-6.60732821"><ele>806</ele><speed>10.43</speed><time>2019-02-23T15:27:12Z</time><pdop>6.068</pdop><geoidheight>0.00</geoidheight><course>102.5</course><type>1</type></trkpt>
      <trkpt lat="38.51058954" lon="-6.60710125"><ele>817</ele><speed>9.21</speed><time>2019-02-23T15:27:14Z</time><pdop>6.068</pdop><geoidheight>0.00</geoidheight><course>94.1</course><type>1</type></trkpt>
      <trkpt lat="38.51057424" lon="-6.60692151"><ele>828</ele><speed>6.74</speed><time>2019-02-23T15:27:16Z</time><pdop>4.5509996</pdop><geoidheight>0.00</geoidheight><course>94.9</course><type>1</type></trkpt>
      <trkpt lat="38.51057834" lon="-6.60675502"><ele>830</ele><speed>7.09</speed><time>2019-02-23T15:27:18Z</time><pdop>4.5509996</pdop><geoidheight>0.00</geoidheight><course>82.6</course><type>1</type></trkpt>
      <trkpt lat="38.51062176" lon="-6.60658324"><ele>831</ele><speed>7.86</speed><time>2019-02-23T15:27:20Z</time><pdop>6.068</pdop><geoidheight>0.00</geoidheight><course>71.7</course><type>1</type></trkpt>
      <trkpt lat="38.51067833" lon="-6.60644537"><ele>833</ele><speed>6.10</speed><time>2019-02-23T15:27:22Z</time><pdop>4.5509996</pdop><geoidheight>0.00</geoidheight><course>65.4</course><type>1</type></trkpt>
      <trkpt lat="38.51073077" lon="-6.60631835"><ele>835</ele><speed>5.99</speed><time>2019-02-23T15:27:24Z</time><pdop>6.068</pdop><geoidheight>0.00</geoidheight><course>68.1</course><type>1</type></trkpt>
      <trkpt lat="38.51076727" lon="-6.6061629"><ele>834</ele><speed>7.69</speed><time>2019-02-23T15:27:26Z</time><pdop>6.068</pdop><geoidheight>0.00</geoidheight><course>74.4</course><type>1</type></trkpt>
      <trkpt lat="38.51079157" lon="-6.60599045"><ele>836</ele><speed>6.91</speed><time>2019-02-23T15:27:28Z</time><pdop>6.068</pdop><geoidheight>0.00</geoidheight><course>72.6</course><type>1</type></trkpt>
      <trkpt lat="38.51083457" lon="-6.60585093"><ele>836</ele><speed>5.06</speed><time>2019-02-23T15:27:30Z</time><pdop>6.068</pdop><geoidheight>0.00</geoidheight><course>59.6</course><type>1</type></trkpt>
      <trkpt lat="38.51093717" lon="-6.60569728"><ele>794</ele><speed>6.71</speed><time>2019-02-23T15:27:33Z</time><pdop>6.068</pdop><geoidheight>0.00</geoidheight><course>46.4</course><type>1</type></trkpt>
      <trkpt lat="38.51102477" lon="-6.60559824"><ele>807</ele><speed>3.18</speed><time>2019-02-23T15:27:36Z</time><pdop>6.068</pdop><geoidheight>0.00</geoidheight><course>41.7</course><type>1</type></trkpt>
      <trkpt lat="38.51113135" lon="-6.60548006"><ele>793</ele><speed>5.69</speed><time>2019-02-23T15:27:39Z</time><pdop>6.068</pdop><geoidheight>0.00</geoidheight><course>33.5</course><type>1</type></trkpt>
      <trkpt lat="38.51123077" lon="-6.60537788"><ele>816</ele><speed>4.52</speed><time>2019-02-23T15:27:42Z</time><pdop>6.068</pdop><geoidheight>0.00</geoidheight><course>38.2</course><type>1</type></trkpt>
      <trkpt lat="38.51133663" lon="-6.60532228"><ele>795</ele><speed>4.29</speed><time>2019-02-23T15:27:45Z</time><pdop>6.068</pdop><geoidheight>0.00</geoidheight><course>10.2</course><type>1</type></trkpt>
      <trkpt lat="38.51143872" lon="-6.60537752"><ele>812</ele><speed>4.46</speed><time>2019-02-23T15:27:48Z</time><pdop>6.068</pdop><geoidheight>0.00</geoidheight><course>318.0</course><type>1</type></trkpt>
      <trkpt lat="38.51148145" lon="-6.60552027"><ele>790</ele><speed>5.37</speed><time>2019-02-23T15:27:51Z</time><pdop>7.585</pdop><geoidheight>0.00</geoidheight><course>283.2</course><type>1</type></trkpt>
      <trkpt lat="38.51150648" lon="-6.60571595"><ele>812</ele><speed>5.65</speed><time>2019-02-23T15:27:54Z</time><pdop>7.585</pdop><geoidheight>0.00</geoidheight><course>275.3</course><type>1</type></trkpt>
      <trkpt lat="38.51152191" lon="-6.6059137"><ele>806</ele><speed>5.87</speed><time>2019-02-23T15:27:57Z</time><pdop>7.585</pdop><geoidheight>0.00</geoidheight><course>280.6</course><type>1</type></trkpt>
      <trkpt lat="38.51153824" lon="-6.6060989"><ele>822</ele><speed>5.21</speed><time>2019-02-23T15:28:00Z</time><pdop>6.068</pdop><geoidheight>0.00</geoidheight><course>274.8</course><type>1</type></trkpt>
      <trkpt lat="38.51159377" lon="-6.60627955"><ele>809</ele><speed>5.50</speed><time>2019-02-23T15:28:03Z</time><pdop>6.068</pdop><geoidheight>0.00</geoidheight><course>296.8</course><type>1</type></trkpt>
      <trkpt lat="38.51168673" lon="-6.6064248"><ele>819</ele><speed>4.53</speed><time>2019-02-23T15:28:06Z</time><pdop>6.068</pdop><geoidheight>0.00</geoidheight><course>314.4</course><type>1</type></trkpt>
      <trkpt lat="38.51177793" lon="-6.60652723"><ele>816</ele><speed>5.16</speed><time>2019-02-23T15:28:09Z</time><pdop>6.068</pdop><geoidheight>0.00</geoidheight><course>322.0</course><type>1</type></trkpt>
      <trkpt lat="38.51186109" lon="-6.60664618"><ele>819</ele><speed>4.50</speed><time>2019-02-23T15:28:12Z</time><pdop>7.585</pdop><geoidheight>0.00</geoidheight><course>302.2</course><type>1</type></trkpt>
      <trkpt lat="38.51190759" lon="-6.60682411"><ele>806</ele><speed>6.52</speed><time>2019-02-23T15:28:15Z</time><pdop>7.585</pdop><geoidheight>0.00</geoidheight><course>269.8</course><type>1</type></trkpt>
      <trkpt lat="38.51189015" lon="-6.60699017"><ele>809</ele><speed>7.08</speed><time>2019-02-23T15:28:17Z</time><pdop>7.585</pdop><geoidheight>0.00</geoidheight><course>252.7</course><type>1</type></trkpt>
      <trkpt lat="38.51182994" lon="-6.60716417"><ele>797</ele><speed>7.49</speed><time>2019-02-23T15:28:19Z</time><pdop>6.068</pdop><geoidheight>0.00</geoidheight><course>242.0</course><type>1</type></trkpt>
      <trkpt lat="38.51172629" lon="-6.60731118"><ele>804</ele><speed>9.27</speed><time>2019-02-23T15:28:21Z</time><pdop>6.068</pdop><geoidheight>0.00</geoidheight><course>221.9</course><type>1</type></trkpt>
      <trkpt lat="38.51156517" lon="-6.60744542"><ele>807</ele><speed>11.25</speed><time>2019-02-23T15:28:23Z</time><pdop>6.068</pdop><geoidheight>0.00</geoidheight><course>209.6</course><type>1</type></trkpt>
      <trkpt lat="38.51141874" lon="-6.60758323"><ele>809</ele><speed>9.64</speed><time>2019-02-23T15:28:25Z</time><pdop>6.068</pdop><geoidheight>0.00</geoidheight><course>225.4</course><type>1</type></trkpt>
      <trkpt lat="38.51132584" lon="-6.60775666"><ele>809</ele><speed>8.67</speed><time>2019-02-23T15:28:27Z</time><pdop>6.068</pdop><geoidheight>0.00</geoidheight><course>236.7</course><type>1</type></trkpt>
      <trkpt lat="38.51123683" lon="-6.60792812"><ele>808</ele><speed>7.94</speed><time>2019-02-23T15:28:29Z</time><pdop>6.068</pdop><geoidheight>0.00</geoidheight><course>240.7</course><type>1</type></trkpt>
      <trkpt lat="38.51117824" lon="-6.60808526"><ele>808</ele><speed>7.26</speed><time>2019-02-23T15:28:31Z</time><pdop>6.068</pdop><geoidheight>0.00</geoidheight><course>251.8</course><type>1</type></trkpt>
      <trkpt lat="38.51114793" lon="-6.6082379"><ele>809</ele><speed>6.85</speed><time>2019-02-23T15:28:33Z</time><pdop>6.068</pdop><geoidheight>0.00</geoidheight><course>256.2</course><type>1</type></trkpt>
      <trkpt lat="38.51110815" lon="-6.60838388"><ele>798</ele><speed>5.98</speed><time>2019-02-23T15:28:35Z</time><pdop>6.068</pdop><geoidheight>0.00</geoidheight><course>260.5</course><type>1</type></trkpt>
      <trkpt lat="38.51110649" lon="-6.60857014"><ele>793</ele><speed>5.91</speed><time>2019-02-23T15:28:38Z</time><pdop>6.068</pdop><geoidheight>0.00</geoidheight><course>275.3</course><type>1</type></trkpt>
      <trkpt lat="38.51113665" lon="-6.60877728"><ele>802</ele><speed>4.82</speed><time>2019-02-23T15:28:41Z</time><pdop>6.068</pdop><geoidheight>0.00</geoidheight><course>278.6</course><type>1</type></trkpt>
      <trkpt lat="38.51116773" lon="-6.60894305"><ele>804</ele><speed>5.50</speed><time>2019-02-23T15:28:44Z</time><pdop>6.068</pdop><geoidheight>0.00</geoidheight><course>287.5</course><type>1</type></trkpt>
      <trkpt lat="38.51121599" lon="-6.60908802"><ele>793</ele><speed>5.37</speed><time>2019-02-23T15:28:47Z</time><pdop>6.068</pdop><geoidheight>0.00</geoidheight><course>283.1</course><type>1</type></trkpt>
      <trkpt lat="38.51123895" lon="-6.60927546"><ele>800</ele><speed>5.76</speed><time>2019-02-23T15:28:50Z</time><pdop>6.068</pdop><geoidheight>0.00</geoidheight><course>286.0</course><type>1</type></trkpt>
      <trkpt lat="38.5112678" lon="-6.60941737"><ele>802</ele><speed>5.63</speed><time>2019-02-23T15:28:52Z</time><pdop>6.068</pdop><geoidheight>0.00</geoidheight><course>284.2</course><type>1</type></trkpt>
      <trkpt lat="38.51128367" lon="-6.60960691"><ele>804</ele><speed>5.77</speed><time>2019-02-23T15:28:55Z</time><pdop>6.068</pdop><geoidheight>0.00</geoidheight><course>276.9</course><type>1</type></trkpt>
      <trkpt lat="38.51129131" lon="-6.6097503"><ele>804</ele><speed>6.86</speed><time>2019-02-23T15:28:57Z</time><pdop>6.068</pdop><geoidheight>0.00</geoidheight><course>279.5</course><type>1</type></trkpt>
      <trkpt lat="38.51130242" lon="-6.60991366"><ele>796</ele><speed>6.60</speed><time>2019-02-23T15:28:59Z</time><pdop>6.068</pdop><geoidheight>0.00</geoidheight><course>275.4</course><type>1</type></trkpt>
      <trkpt lat="38.51131138" lon="-6.61005195"><ele>800</ele><speed>6.48</speed><time>2019-02-23T15:29:01Z</time><pdop>6.068</pdop><geoidheight>0.00</geoidheight><course>276.1</course><type>1</type></trkpt>
      <trkpt lat="38.51132864" lon="-6.61018801"><ele>801</ele><speed>6.86</speed><time>2019-02-23T15:29:03Z</time><pdop>6.068</pdop><geoidheight>0.00</geoidheight><course>280.6</course><type>1</type></trkpt>
      <trkpt lat="38.51137267" lon="-6.61039491"><ele>804</ele><speed>5.44</speed><time>2019-02-23T15:29:06Z</time><pdop>6.068</pdop><geoidheight>0.00</geoidheight><course>288.3</course><type>1</type></trkpt>
      <trkpt lat="38.51144821" lon="-6.61052779"><ele>804</ele><speed>4.95</speed><time>2019-02-23T15:29:09Z</time><pdop>6.068</pdop><geoidheight>0.00</geoidheight><course>299.8</course><type>1</type></trkpt>
      <trkpt lat="38.51150982" lon="-6.6106679"><ele>805</ele><speed>4.57</speed><time>2019-02-23T15:29:12Z</time><pdop>6.068</pdop><geoidheight>0.00</geoidheight><course>306.5</course><type>1</type></trkpt>
      <trkpt lat="38.51159556" lon="-6.61077954"><ele>805</ele><speed>4.54</speed><time>2019-02-23T15:29:15Z</time><pdop>6.068</pdop><geoidheight>0.00</geoidheight><course>317.7</course><type>1</type></trkpt>
      <trkpt lat="38.51169982" lon="-6.61089008"><ele>809</ele><speed>4.52</speed><time>2019-02-23T15:29:18Z</time><pdop>6.068</pdop><geoidheight>0.00</geoidheight><course>313.8</course><type>1</type></trkpt>
      <trkpt lat="38.51177944" lon="-6.61100623"><ele>808</ele><speed>4.23</speed><time>2019-02-23T15:29:21Z</time><pdop>7.585</pdop><geoidheight>0.00</geoidheight><course>308.1</course><type>1</type></trkpt>
      <trkpt lat="38.51185683" lon="-6.61112861"><ele>806</ele><speed>5.17</speed><time>2019-02-23T15:29:24Z</time><pdop>6.068</pdop><geoidheight>0.00</geoidheight><course>316.0</course><type>1</type></trkpt>
      <trkpt lat="38.51194428" lon="-6.61123367"><ele>808</ele><speed>2.60</speed><time>2019-02-23T15:29:27Z</time><pdop>6.068</pdop><geoidheight>0.00</geoidheight><course>341.7</course><type>1</type></trkpt>
      <trkpt lat="38.51205106" lon="-6.6113197"><ele>804</ele><speed>5.72</speed><time>2019-02-23T15:29:31Z</time><pdop>6.068</pdop><geoidheight>0.00</geoidheight><course>307.7</course><type>1</type></trkpt>
      <trkpt lat="38.51211938" lon="-6.61147425"><ele>806</ele><speed>4.22</speed><time>2019-02-23T15:29:34Z</time><pdop>6.068</pdop><geoidheight>0.00</geoidheight><course>287.0</course><type>1</type></trkpt>
      <trkpt lat="38.51214282" lon="-6.61165544"><ele>807</ele><speed>6.45</speed><time>2019-02-23T15:29:37Z</time><pdop>6.068</pdop><geoidheight>0.00</geoidheight><course>282.5</course><type>1</type></trkpt>
      <trkpt lat="38.51216891" lon="-6.61181826"><ele>806</ele><speed>7.04</speed><time>2019-02-23T15:29:39Z</time><pdop>6.068</pdop><geoidheight>0.00</geoidheight><course>282.5</course><type>1</type></trkpt>
      <trkpt lat="38.5121904" lon="-6.61197415"><ele>806</ele><speed>5.69</speed><time>2019-02-23T15:29:41Z</time><pdop>6.068</pdop><geoidheight>0.00</geoidheight><course>281.0</course><type>1</type></trkpt>
      <trkpt lat="38.51221492" lon="-6.61212727"><ele>805</ele><speed>6.82</speed><time>2019-02-23T15:29:43Z</time><pdop>6.068</pdop><geoidheight>0.00</geoidheight><course>283.6</course><type>1</type></trkpt>
      <trkpt lat="38.5122335" lon="-6.61230731"><ele>806</ele><speed>7.71</speed><time>2019-02-23T15:29:45Z</time><pdop>6.068</pdop><geoidheight>0.00</geoidheight><course>280.7</course><type>1</type></trkpt>
      <trkpt lat="38.51223583" lon="-6.61247362"><ele>805</ele><speed>6.55</speed><time>2019-02-23T15:29:47Z</time><pdop>6.068</pdop><geoidheight>0.00</geoidheight><course>271.3</course><type>1</type></trkpt>
      <trkpt lat="38.51226007" lon="-6.6126653"><ele>806</ele><speed>6.69</speed><time>2019-02-23T15:29:50Z</time><pdop>6.068</pdop><geoidheight>0.00</geoidheight><course>280.7</course><type>1</type></trkpt>
      <trkpt lat="38.51229608" lon="-6.61281228"><ele>807</ele><speed>6.32</speed><time>2019-02-23T15:29:52Z</time><pdop>6.068</pdop><geoidheight>0.00</geoidheight><course>296.4</course><type>1</type></trkpt>
      <trkpt lat="38.51233802" lon="-6.61294103"><ele>806</ele><speed>5.98</speed><time>2019-02-23T15:29:54Z</time><pdop>6.068</pdop><geoidheight>0.00</geoidheight><course>291.5</course><type>1</type></trkpt>
      <trkpt lat="38.51238625" lon="-6.61307333"><ele>804</ele><speed>6.15</speed><time>2019-02-23T15:29:56Z</time><pdop>6.068</pdop><geoidheight>0.00</geoidheight><course>292.2</course><type>1</type></trkpt>
      <trkpt lat="38.51244682" lon="-6.61320639"><ele>807</ele><speed>6.77</speed><time>2019-02-23T15:29:58Z</time><pdop>6.068</pdop><geoidheight>0.00</geoidheight><course>294.7</course><type>1</type></trkpt>
      <trkpt lat="38.51250069" lon="-6.6133389"><ele>805</ele><speed>6.14</speed><time>2019-02-23T15:30:00Z</time><pdop>6.068</pdop><geoidheight>0.00</geoidheight><course>289.8</course><type>1</type></trkpt>
      <trkpt lat="38.51254234" lon="-6.61346751"><ele>808</ele><speed>5.85</speed><time>2019-02-23T15:30:02Z</time><pdop>6.068</pdop><geoidheight>0.00</geoidheight><course>290.0</course><type>1</type></trkpt>
      <trkpt lat="38.51257867" lon="-6.61360226"><ele>808</ele><speed>6.60</speed><time>2019-02-23T15:30:04Z</time><pdop>6.068</pdop><geoidheight>0.00</geoidheight><course>294.8</course><type>1</type></trkpt>
      <trkpt lat="38.51263393" lon="-6.61374085"><ele>811</ele><speed>4.50</speed><time>2019-02-23T15:30:07Z</time><pdop>6.068</pdop><geoidheight>0.00</geoidheight><course>292.8</course><type>1</type></trkpt>
      <trkpt lat="38.51269807" lon="-6.61387626"><ele>812</ele><speed>3.34</speed><time>2019-02-23T15:30:11Z</time><pdop>6.068</pdop><geoidheight>0.00</geoidheight><course>310.2</course><type>1</type></trkpt>
      <trkpt lat="38.51281773" lon="-6.61387448"><ele>814</ele><speed>4.07</speed><time>2019-02-23T15:30:15Z</time><pdop>6.068</pdop><geoidheight>0.00</geoidheight><course>51.4</course><type>1</type></trkpt>
      <trkpt lat="38.51284974" lon="-6.61371765"><ele>815</ele><speed>5.87</speed><time>2019-02-23T15:30:18Z</time><pdop>6.068</pdop><geoidheight>0.00</geoidheight><course>86.3</course><type>1</type></trkpt>
      <trkpt lat="38.51284112" lon="-6.6135534"><ele>816</ele><speed>8.10</speed><time>2019-02-23T15:30:20Z</time><pdop>6.068</pdop><geoidheight>0.00</geoidheight><course>103.4</course><type>1</type></trkpt>
      <trkpt lat="38.51279662" lon="-6.61335305"><ele>816</ele><speed>8.58</speed><time>2019-02-23T15:30:22Z</time><pdop>6.068</pdop><geoidheight>0.00</geoidheight><course>121.8</course><type>1</type></trkpt>
      <trkpt lat="38.51270314" lon="-6.61320358"><ele>817</ele><speed>8.80</speed><time>2019-02-23T15:30:24Z</time><pdop>6.068</pdop><geoidheight>0.00</geoidheight><course>136.6</course><type>1</type></trkpt>
      <trkpt lat="38.51256507" lon="-6.61307997"><ele>819</ele><speed>10.07</speed><time>2019-02-23T15:30:26Z</time><pdop>6.068</pdop><geoidheight>0.00</geoidheight><course>149.3</course><type>1</type></trkpt>
      <trkpt lat="38.51240289" lon="-6.61296939"><ele>818</ele><speed>9.91</speed><time>2019-02-23T15:30:28Z</time><pdop>6.068</pdop><geoidheight>0.00</geoidheight><course>159.3</course><type>1</type></trkpt>
      <trkpt lat="38.51225475" lon="-6.61286786"><ele>820</ele><speed>9.71</speed><time>2019-02-23T15:30:30Z</time><pdop>6.068</pdop><geoidheight>0.00</geoidheight><course>139.7</course><type>1</type></trkpt>
      <trkpt lat="38.51216945" lon="-6.61271381"><ele>821</ele><speed>7.58</speed><time>2019-02-23T15:30:32Z</time><pdop>6.068</pdop><geoidheight>0.00</geoidheight><course>110.6</course><type>1</type></trkpt>
      <trkpt lat="38.51220578" lon="-6.61255514"><ele>812</ele><speed>3.98</speed><time>2019-02-23T15:30:35Z</time><pdop>6.068</pdop><geoidheight>0.00</geoidheight><course>26.8</course><type>1</type></trkpt>
      <trkpt lat="38.51229623" lon="-6.61268892"><ele>818</ele><speed>6.01</speed><time>2019-02-23T15:30:39Z</time><pdop>6.068</pdop><geoidheight>0.00</geoidheight><course>285.1</course><type>1</type></trkpt>
      <trkpt lat="38.51233422" lon="-6.61289065"><ele>808</ele><speed>6.03</speed><time>2019-02-23T15:30:42Z</time><pdop>6.068</pdop><geoidheight>0.00</geoidheight><course>289.5</course><type>1</type></trkpt>
      <trkpt lat="38.51241115" lon="-6.61306295"><ele>814</ele><speed>6.86</speed><time>2019-02-23T15:30:45Z</time><pdop>7.585</pdop><geoidheight>0.00</geoidheight><course>300.6</course><type>1</type></trkpt>
      <trkpt lat="38.51252427" lon="-6.61323593"><ele>820</ele><speed>4.61</speed><time>2019-02-23T15:30:48Z</time><pdop>7.585</pdop><geoidheight>0.00</geoidheight><course>304.3</course><type>1</type></trkpt>
      <trkpt lat="38.51261831" lon="-6.61341234"><ele>849</ele><speed>5.53</speed><time>2019-02-23T15:30:52Z</time><pdop>7.585</pdop><geoidheight>0.00</geoidheight><course>301.9</course><type>1</type></trkpt>
      <trkpt lat="38.51273073" lon="-6.61350776"><ele>844</ele><speed>3.87</speed><time>2019-02-23T15:30:56Z</time><pdop>7.585</pdop><geoidheight>0.00</geoidheight><course>10.5</course><type>1</type></trkpt>
      <trkpt lat="38.51284135" lon="-6.61338834"><ele>845</ele><speed>5.29</speed><time>2019-02-23T15:31:00Z</time><pdop>6.068</pdop><geoidheight>0.00</geoidheight><course>64.4</course><type>1</type></trkpt>
      <trkpt lat="38.51285948" lon="-6.613247"><ele>843</ele><speed>7.50</speed><time>2019-02-23T15:31:02Z</time><pdop>6.068</pdop><geoidheight>0.00</geoidheight><course>82.8</course><type>1</type></trkpt>
      <trkpt lat="38.51282076" lon="-6.61306152"><ele>842</ele><speed>9.18</speed><time>2019-02-23T15:31:04Z</time><pdop>6.068</pdop><geoidheight>0.00</geoidheight><course>104.2</course><type>1</type></trkpt>
      <trkpt lat="38.51273968" lon="-6.61287809"><ele>829</ele><speed>9.68</speed><time>2019-02-23T15:31:06Z</time><pdop>6.068</pdop><geoidheight>0.00</geoidheight><course>120.2</course><type>1</type></trkpt>
      <trkpt lat="38.51264042" lon="-6.6126954"><ele>834</ele><speed>10.30</speed><time>2019-02-23T15:31:08Z</time><pdop>6.068</pdop><geoidheight>0.00</geoidheight><course>121.7</course><type>1</type></trkpt>
      <trkpt lat="38.51256103" lon="-6.61247013"><ele>836</ele><speed>10.64</speed><time>2019-02-23T15:31:10Z</time><pdop>6.068</pdop><geoidheight>0.00</geoidheight><course>112.7</course><type>1</type></trkpt>
      <trkpt lat="38.51253632" lon="-6.61227568"><ele>839</ele><speed>8.06</speed><time>2019-02-23T15:31:12Z</time><pdop>6.068</pdop><geoidheight>0.00</geoidheight><course>90.6</course><type>1</type></trkpt>
      <trkpt lat="38.51255766" lon="-6.6121529"><ele>840</ele><speed>5.54</speed><time>2019-02-23T15:31:14Z</time><pdop>4.5509996</pdop><geoidheight>0.00</geoidheight><course>72.8</course><type>1</type></trkpt>
      <trkpt lat="38.51263737" lon="-6.61207464"><ele>839</ele><speed>3.71</speed><time>2019-02-23T15:31:16Z</time><pdop>4.5509996</pdop><geoidheight>0.00</geoidheight><course>15.9</course><type>1</type></trkpt>
      <trkpt lat="38.51271675" lon="-6.61214727"><ele>838</ele><speed>4.25</speed><time>2019-02-23T15:31:20Z</time><pdop>6.068</pdop><geoidheight>0.00</geoidheight><course>288.8</course><type>1</type></trkpt>
      <trkpt lat="38.51278335" lon="-6.61228733"><ele>794</ele><speed>4.14</speed><time>2019-02-23T15:31:23Z</time><pdop>6.068</pdop><geoidheight>0.00</geoidheight><course>298.3</course><type>1</type></trkpt>
      <trkpt lat="38.5128365" lon="-6.61244144"><ele>793</ele><speed>4.57</speed><time>2019-02-23T15:31:27Z</time><pdop>6.068</pdop><geoidheight>0.00</geoidheight><course>301.0</course><type>1</type></trkpt>
      <trkpt lat="38.51290082" lon="-6.61259175"><ele>814</ele><speed>3.78</speed><time>2019-02-23T15:31:32Z</time><pdop>7.585</pdop><geoidheight>0.00</geoidheight><course>312.2</course><type>1</type></trkpt>
      <trkpt lat="38.51300398" lon="-6.61273289"><ele>805</ele><speed>3.62</speed><time>2019-02-23T15:31:36Z</time><pdop>7.585</pdop><geoidheight>0.00</geoidheight><course>309.4</course><type>1</type></trkpt>
      <trkpt lat="38.51308726" lon="-6.61290286"><ele>824</ele><speed>4.09</speed><time>2019-02-23T15:31:40Z</time><pdop>7.585</pdop><geoidheight>0.00</geoidheight><course>285.9</course><type>1</type></trkpt>
      <trkpt lat="38.51307982" lon="-6.61308423"><ele>815</ele><speed>3.84</speed><time>2019-02-23T15:31:44Z</time><pdop>7.585</pdop><geoidheight>0.00</geoidheight><course>281.0</course><type>1</type></trkpt>
      <trkpt lat="38.51313223" lon="-6.61323337"><ele>824</ele><speed>3.06</speed><time>2019-02-23T15:31:48Z</time><pdop>7.585</pdop><geoidheight>0.00</geoidheight><course>328.3</course><type>1</type></trkpt>
      <trkpt lat="38.51322921" lon="-6.61314591"><ele>794</ele><speed>4.59</speed><time>2019-02-23T15:31:51Z</time><pdop>6.068</pdop><geoidheight>0.00</geoidheight><course>60.6</course><type>1</type></trkpt>
      <trkpt lat="38.51324978" lon="-6.61293809"><ele>809</ele><speed>7.08</speed><time>2019-02-23T15:31:53Z</time><pdop>6.068</pdop><geoidheight>0.00</geoidheight><course>80.9</course><type>1</type></trkpt>
      <trkpt lat="38.51324646" lon="-6.6127628"><ele>831</ele><speed>8.36</speed><time>2019-02-23T15:31:55Z</time><pdop>6.068</pdop><geoidheight>0.00</geoidheight><course>96.5</course><type>1</type></trkpt>
      <trkpt lat="38.51322754" lon="-6.61254796"><ele>841</ele><speed>8.73</speed><time>2019-02-23T15:31:57Z</time><pdop>6.068</pdop><geoidheight>0.00</geoidheight><course>100.4</course><type>1</type></trkpt>
      <trkpt lat="38.5131815" lon="-6.61233073"><ele>800</ele><speed>9.02</speed><time>2019-02-23T15:31:59Z</time><pdop>6.068</pdop><geoidheight>0.00</geoidheight><course>103.8</course><type>1</type></trkpt>
      <trkpt lat="38.51312175" lon="-6.61213016"><ele>829</ele><speed>9.43</speed><time>2019-02-23T15:32:01Z</time><pdop>6.068</pdop><geoidheight>0.00</geoidheight><course>114.1</course><type>1</type></trkpt>
      <trkpt lat="38.51304603" lon="-6.61193964"><ele>843</ele><speed>9.39</speed><time>2019-02-23T15:32:03Z</time><pdop>6.068</pdop><geoidheight>0.00</geoidheight><course>114.4</course><type>1</type></trkpt>
      <trkpt lat="38.51299306" lon="-6.61172418"><ele>852</ele><speed>8.57</speed><time>2019-02-23T15:32:05Z</time><pdop>6.068</pdop><geoidheight>0.00</geoidheight><course>110.5</course><type>1</type></trkpt>
      <trkpt lat="38.51294048" lon="-6.61154911"><ele>811</ele><speed>8.73</speed><time>2019-02-23T15:32:07Z</time><pdop>6.068</pdop><geoidheight>0.00</geoidheight><course>109.8</course><type>1</type></trkpt>
      <trkpt lat="38.51288167" lon="-6.61135263"><ele>811</ele><speed>9.32</speed><time>2019-02-23T15:32:09Z</time><pdop>6.068</pdop><geoidheight>0.00</geoidheight><course>107.7</course><type>1</type></trkpt>
      <trkpt lat="38.51285271" lon="-6.6111672"><ele>807</ele><speed>7.16</speed><time>2019-02-23T15:32:11Z</time><pdop>6.068</pdop><geoidheight>0.00</geoidheight><course>95.7</course><type>1</type></trkpt>
      <trkpt lat="38.5128631" lon="-6.61102553"><ele>822</ele><speed>4.54</speed><time>2019-02-23T15:32:13Z</time><pdop>6.068</pdop><geoidheight>0.00</geoidheight><course>66.6</course><type>1</type></trkpt>
      <trkpt lat="38.51298693" lon="-6.61110071"><ele>801</ele><speed>4.14</speed><time>2019-02-23T15:32:19Z</time><pdop>6.068</pdop><geoidheight>0.00</geoidheight><course>306.7</course><type>1</type></trkpt>
      <trkpt lat="38.51305448" lon="-6.61125804"><ele>837</ele><speed>4.57</speed><time>2019-02-23T15:32:22Z</time><pdop>6.068</pdop><geoidheight>0.00</geoidheight><course>298.8</course><type>1</type></trkpt>
      <trkpt lat="38.51312372" lon="-6.61139596"><ele>816</ele><speed>4.66</speed><time>2019-02-23T15:32:25Z</time><pdop>6.068</pdop><geoidheight>0.00</geoidheight><course>297.8</course><type>1</type></trkpt>
      <trkpt lat="38.51316868" lon="-6.61158552"><ele>836</ele><speed>5.45</speed><time>2019-02-23T15:32:28Z</time><pdop>7.585</pdop><geoidheight>0.00</geoidheight><course>298.1</course><type>1</type></trkpt>
      <trkpt lat="38.51324473" lon="-6.61177922"><ele>813</ele><speed>5.17</speed><time>2019-02-23T15:32:32Z</time><pdop>6.068</pdop><geoidheight>0.00</geoidheight><course>285.8</course><type>1</type></trkpt>
      <trkpt lat="38.51326318" lon="-6.61192736"><ele>795</ele><speed>6.37</speed><time>2019-02-23T15:32:34Z</time><pdop>7.585</pdop><geoidheight>0.00</geoidheight><course>276.7</course><type>1</type></trkpt>
      <trkpt lat="38.5132808" lon="-6.61214349"><ele>823</ele><speed>7.46</speed><time>2019-02-23T15:32:37Z</time><pdop>6.068</pdop><geoidheight>0.00</geoidheight><course>273.1</course><type>1</type></trkpt>
      <trkpt lat="38.5132896" lon="-6.61232193"><ele>818</ele><speed>7.93</speed><time>2019-02-23T15:32:39Z</time><pdop>7.585</pdop><geoidheight>0.00</geoidheight><course>271.0</course><type>1</type></trkpt>
      <trkpt lat="38.51328752" lon="-6.61249268"><ele>828</ele><speed>7.17</speed><time>2019-02-23T15:32:41Z</time><pdop>7.585</pdop><geoidheight>0.00</geoidheight><course>273.9</course><type>1</type></trkpt>
      <trkpt lat="38.5133072" lon="-6.61266521"><ele>832</ele><speed>7.63</speed><time>2019-02-23T15:32:43Z</time><pdop>7.585</pdop><geoidheight>0.00</geoidheight><course>274.2</course><type>1</type></trkpt>
      <trkpt lat="38.51331666" lon="-6.61283991"><ele>834</ele><speed>7.91</speed><time>2019-02-23T15:32:45Z</time><pdop>7.585</pdop><geoidheight>0.00</geoidheight><course>275.1</course><type>1</type></trkpt>
      <trkpt lat="38.51333904" lon="-6.61307002"><ele>836</ele><speed>6.10</speed><time>2019-02-23T15:32:48Z</time><pdop>7.585</pdop><geoidheight>0.00</geoidheight><course>280.3</course><type>1</type></trkpt>
      <trkpt lat="38.51338116" lon="-6.61324417"><ele>811</ele><speed>6.79</speed><time>2019-02-23T15:32:50Z</time><pdop>7.585</pdop><geoidheight>0.00</geoidheight><course>281.6</course><type>1</type></trkpt>
      <trkpt lat="38.51340952" lon="-6.61342785"><ele>820</ele><speed>6.73</speed><time>2019-02-23T15:32:52Z</time><pdop>7.585</pdop><geoidheight>0.00</geoidheight><course>278.3</course><type>1</type></trkpt>
      <trkpt lat="38.51344657" lon="-6.61358908"><ele>827</ele><speed>5.69</speed><time>2019-02-23T15:32:55Z</time><pdop>7.585</pdop><geoidheight>0.00</geoidheight><course>290.7</course><type>1</type></trkpt>
      <trkpt lat="38.51351285" lon="-6.6137866"><ele>786</ele><speed>5.74</speed><time>2019-02-23T15:32:58Z</time><pdop>7.585</pdop><geoidheight>0.00</geoidheight><course>293.2</course><type>1</type></trkpt>
      <trkpt lat="38.51354549" lon="-6.61396511"><ele>813</ele><speed>5.67</speed><time>2019-02-23T15:33:01Z</time><pdop>6.068</pdop><geoidheight>0.00</geoidheight><course>289.3</course><type>1</type></trkpt>
      <trkpt lat="38.51357109" lon="-6.6141039"><ele>787</ele><speed>6.74</speed><time>2019-02-23T15:33:03Z</time><pdop>6.068</pdop><geoidheight>0.00</geoidheight><course>285.7</course><type>1</type></trkpt>
      <trkpt lat="38.51360488" lon="-6.61425869"><ele>793</ele><speed>6.65</speed><time>2019-02-23T15:33:05Z</time><pdop>7.585</pdop><geoidheight>0.00</geoidheight><course>276.9</course><type>1</type></trkpt>
      <trkpt lat="38.51358662" lon="-6.61442599"><ele>783</ele><speed>8.36</speed><time>2019-02-23T15:33:07Z</time><pdop>7.585</pdop><geoidheight>0.00</geoidheight><course>235.8</course><type>1</type></trkpt>
      <trkpt lat="38.51343566" lon="-6.61457517"><ele>784</ele><speed>12.18</speed><time>2019-02-23T15:33:09Z</time><pdop>6.068</pdop><geoidheight>0.00</geoidheight><course>204.0</course><type>1</type></trkpt>
      <trkpt lat="38.51331687" lon="-6.61461659"><ele>783</ele><speed>12.60</speed><time>2019-02-23T15:33:10Z</time><pdop>6.068</pdop><geoidheight>0.00</geoidheight><course>188.6</course><type>1</type></trkpt>
      <trkpt lat="38.51320395" lon="-6.61462013"><ele>783</ele><speed>12.35</speed><time>2019-02-23T15:33:11Z</time><pdop>6.068</pdop><geoidheight>0.00</geoidheight><course>170.9</course><type>1</type></trkpt>
      <trkpt lat="38.51301603" lon="-6.61449926"><ele>791</ele><speed>11.13</speed><time>2019-02-23T15:33:13Z</time><pdop>6.068</pdop><geoidheight>0.00</geoidheight><course>141.4</course><type>1</type></trkpt>
      <trkpt lat="38.51288288" lon="-6.61432394"><ele>801</ele><speed>9.61</speed><time>2019-02-23T15:33:15Z</time><pdop>6.068</pdop><geoidheight>0.00</geoidheight><course>131.2</course><type>1</type></trkpt>
      <trkpt lat="38.51277179" lon="-6.61415868"><ele>806</ele><speed>8.19</speed><time>2019-02-23T15:33:17Z</time><pdop>6.068</pdop><geoidheight>0.00</geoidheight><course>119.5</course><type>1</type></trkpt>
      <trkpt lat="38.51272189" lon="-6.61397554"><ele>780</ele><speed>8.12</speed><time>2019-02-23T15:33:19Z</time><pdop>6.068</pdop><geoidheight>0.00</geoidheight><course>110.3</course><type>1</type></trkpt>
      <trkpt lat="38.51269739" lon="-6.61375193"><ele>791</ele><speed>8.05</speed><time>2019-02-23T15:33:21Z</time><pdop>7.585</pdop><geoidheight>0.00</geoidheight><course>111.9</course><type>1</type></trkpt>
      <trkpt lat="38.51264829" lon="-6.61357956"><ele>798</ele><speed>7.24</speed><time>2019-02-23T15:33:23Z</time><pdop>7.585</pdop><geoidheight>0.00</geoidheight><course>111.4</course><type>1</type></trkpt>
      <trkpt lat="38.51260584" lon="-6.61343304"><ele>803</ele><speed>7.22</speed><time>2019-02-23T15:33:25Z</time><pdop>6.068</pdop><geoidheight>0.00</geoidheight><course>104.1</course><type>1</type></trkpt>
      <trkpt lat="38.51259292" lon="-6.61327242"><ele>794</ele><speed>7.70</speed><time>2019-02-23T15:33:27Z</time><pdop>6.068</pdop><geoidheight>0.00</geoidheight><course>97.2</course><type>1</type></trkpt>
      <trkpt lat="38.51259591" lon="-6.6131158"><ele>801</ele><speed>6.60</speed><time>2019-02-23T15:33:29Z</time><pdop>6.068</pdop><geoidheight>0.00</geoidheight><course>93.0</course><type>1</type></trkpt>
      <trkpt lat="38.51257598" lon="-6.6129661"><ele>805</ele><speed>6.27</speed><time>2019-02-23T15:33:31Z</time><pdop>6.068</pdop><geoidheight>0.00</geoidheight><course>97.7</course><type>1</type></trkpt>
      <trkpt lat="38.51254456" lon="-6.61282454"><ele>806</ele><speed>7.61</speed><time>2019-02-23T15:33:33Z</time><pdop>6.068</pdop><geoidheight>0.00</geoidheight><course>103.9</course><type>1</type></trkpt>
      <trkpt lat="38.51249351" lon="-6.61265962"><ele>789</ele><speed>7.88</speed><time>2019-02-23T15:33:35Z</time><pdop>6.068</pdop><geoidheight>0.00</geoidheight><course>113.2</course><type>1</type></trkpt>
      <trkpt lat="38.51243072" lon="-6.61249633"><ele>782</ele><speed>7.81</speed><time>2019-02-23T15:33:37Z</time><pdop>6.068</pdop><geoidheight>0.00</geoidheight><course>117.9</course><type>1</type></trkpt>
      <trkpt lat="38.51236662" lon="-6.61233878"><ele>795</ele><speed>8.24</speed><time>2019-02-23T15:33:39Z</time><pdop>6.068</pdop><geoidheight>0.00</geoidheight><course>113.9</course><type>1</type></trkpt>
      <trkpt lat="38.51232027" lon="-6.6121767"><ele>788</ele><speed>7.73</speed><time>2019-02-23T15:33:41Z</time><pdop>6.068</pdop><geoidheight>0.00</geoidheight><course>105.5</course><type>1</type></trkpt>
      <trkpt lat="38.51229421" lon="-6.61200109"><ele>797</ele><speed>7.51</speed><time>2019-02-23T15:33:43Z</time><pdop>6.068</pdop><geoidheight>0.00</geoidheight><course>106.0</course><type>1</type></trkpt>
      <trkpt lat="38.51224135" lon="-6.61183672"><ele>801</ele><speed>8.37</speed><time>2019-02-23T15:33:45Z</time><pdop>6.068</pdop><geoidheight>0.00</geoidheight><course>109.9</course><type>1</type></trkpt>
      <trkpt lat="38.51220463" lon="-6.61164907"><ele>778</ele><speed>7.93</speed><time>2019-02-23T15:33:47Z</time><pdop>6.068</pdop><geoidheight>0.00</geoidheight><course>104.7</course><type>1</type></trkpt>
      <trkpt lat="38.51217639" lon="-6.61148577"><ele>779</ele><speed>6.90</speed><time>2019-02-23T15:33:49Z</time><pdop>6.068</pdop><geoidheight>0.00</geoidheight><course>91.9</course><type>1</type></trkpt>
      <trkpt lat="38.51218642" lon="-6.61130209"><ele>791</ele><speed>6.90</speed><time>2019-02-23T15:33:51Z</time><pdop>6.068</pdop><geoidheight>0.00</geoidheight><course>86.6</course><type>1</type></trkpt>
      <trkpt lat="38.51219987" lon="-6.61114574"><ele>797</ele><speed>6.66</speed><time>2019-02-23T15:33:53Z</time><pdop>6.068</pdop><geoidheight>0.00</geoidheight><course>73.1</course><type>1</type></trkpt>
      <trkpt lat="38.51225949" lon="-6.61094242"><ele>776</ele><speed>6.56</speed><time>2019-02-23T15:33:56Z</time><pdop>7.585</pdop><geoidheight>0.00</geoidheight><course>68.5</course><type>1</type></trkpt>
      <trkpt lat="38.51233021" lon="-6.61075578"><ele>792</ele><speed>7.01</speed><time>2019-02-23T15:33:59Z</time><pdop>7.585</pdop><geoidheight>0.00</geoidheight><course>66.9</course><type>1</type></trkpt>
      <trkpt lat="38.5124039" lon="-6.61054018"><ele>800</ele><speed>6.06</speed><time>2019-02-23T15:34:02Z</time><pdop>7.585</pdop><geoidheight>0.00</geoidheight><course>62.3</course><type>1</type></trkpt>
      <trkpt lat="38.512464" lon="-6.6103341"><ele>780</ele><speed>6.97</speed><time>2019-02-23T15:34:05Z</time><pdop>7.585</pdop><geoidheight>0.00</geoidheight><course>55.6</course><type>1</type></trkpt>
      <trkpt lat="38.51256655" lon="-6.6101417"><ele>794</ele><speed>6.45</speed><time>2019-02-23T15:34:08Z</time><pdop>7.585</pdop><geoidheight>0.00</geoidheight><course>58.6</course><type>1</type></trkpt>
      <trkpt lat="38.51265699" lon="-6.60994246"><ele>775</ele><speed>7.36</speed><time>2019-02-23T15:34:11Z</time><pdop>7.585</pdop><geoidheight>0.00</geoidheight><course>54.8</course><type>1</type></trkpt>
      <trkpt lat="38.51273233" lon="-6.60979474"><ele>787</ele><speed>7.37</speed><time>2019-02-23T15:34:13Z</time><pdop>7.585</pdop><geoidheight>0.00</geoidheight><course>54.1</course><type>1</type></trkpt>
      <trkpt lat="38.51284332" lon="-6.60963441"><ele>799</ele><speed>5.84</speed><time>2019-02-23T15:34:16Z</time><pdop>7.585</pdop><geoidheight>0.00</geoidheight><course>55.6</course><type>1</type></trkpt>
      <trkpt lat="38.51296075" lon="-6.60946786"><ele>774</ele><speed>6.73</speed><time>2019-02-23T15:34:19Z</time><pdop>7.585</pdop><geoidheight>0.00</geoidheight><course>53.4</course><type>1</type></trkpt>
      <trkpt lat="38.51304089" lon="-6.60934366"><ele>790</ele><speed>6.92</speed><time>2019-02-23T15:34:21Z</time><pdop>7.585</pdop><geoidheight>0.00</geoidheight><course>51.3</course><type>1</type></trkpt>
      <trkpt lat="38.51311812" lon="-6.60916197"><ele>778</ele><speed>6.09</speed><time>2019-02-23T15:34:24Z</time><pdop>7.585</pdop><geoidheight>0.00</geoidheight><course>69.4</course><type>1</type></trkpt>
      <trkpt lat="38.51318799" lon="-6.60901869"><ele>790</ele><speed>6.87</speed><time>2019-02-23T15:34:26Z</time><pdop>7.585</pdop><geoidheight>0.00</geoidheight><course>61.9</course><type>1</type></trkpt>
      <trkpt lat="38.5132418" lon="-6.60886443"><ele>798</ele><speed>7.26</speed><time>2019-02-23T15:34:28Z</time><pdop>7.585</pdop><geoidheight>0.00</geoidheight><course>66.7</course><type>1</type></trkpt>
      <trkpt lat="38.51328772" lon="-6.60869219"><ele>784</ele><speed>7.38</speed><time>2019-02-23T15:34:30Z</time><pdop>7.585</pdop><geoidheight>0.00</geoidheight><course>77.3</course><type>1</type></trkpt>
      <trkpt lat="38.51331823" lon="-6.60850902"><ele>777</ele><speed>6.98</speed><time>2019-02-23T15:34:32Z</time><pdop>7.585</pdop><geoidheight>0.00</geoidheight><course>75.3</course><type>1</type></trkpt>
      <trkpt lat="38.51338023" lon="-6.60829116"><ele>795</ele><speed>7.80</speed><time>2019-02-23T15:34:35Z</time><pdop>7.585</pdop><geoidheight>0.00</geoidheight><course>72.9</course><type>1</type></trkpt>
      <trkpt lat="38.51340685" lon="-6.60810242"><ele>780</ele><speed>8.67</speed><time>2019-02-23T15:34:37Z</time><pdop>7.585</pdop><geoidheight>0.00</geoidheight><course>78.1</course><type>1</type></trkpt>
      <trkpt lat="38.51340823" lon="-6.60789237"><ele>794</ele><speed>9.60</speed><time>2019-02-23T15:34:39Z</time><pdop>6.068</pdop><geoidheight>0.00</geoidheight><course>90.9</course><type>1</type></trkpt>
      <trkpt lat="38.51339373" lon="-6.6076872"><ele>803</ele><speed>9.29</speed><time>2019-02-23T15:34:41Z</time><pdop>6.068</pdop><geoidheight>0.00</geoidheight><course>103.1</course><type>1</type></trkpt>
      <trkpt lat="38.51334344" lon="-6.60748872"><ele>807</ele><speed>10.04</speed><time>2019-02-23T15:34:43Z</time><pdop>6.068</pdop><geoidheight>0.00</geoidheight><course>109.7</course><type>1</type></trkpt>
      <trkpt lat="38.51327059" lon="-6.60725509"><ele>800</ele><speed>10.80</speed><time>2019-02-23T15:34:45Z</time><pdop>7.585</pdop><geoidheight>0.00</geoidheight><course>116.3</course><type>1</type></trkpt>
      <trkpt lat="38.51319381" lon="-6.60703631"><ele>802</ele><speed>9.88</speed><time>2019-02-23T15:34:47Z</time><pdop>6.068</pdop><geoidheight>0.00</geoidheight><course>118.6</course><type>1</type></trkpt>
      <trkpt lat="38.51309323" lon="-6.60685555"><ele>803</ele><speed>9.92</speed><time>2019-02-23T15:34:49Z</time><pdop>6.068</pdop><geoidheight>0.00</geoidheight><course>117.0</course><type>1</type></trkpt>
      <trkpt lat="38.51301329" lon="-6.60661725"><ele>804</ele><speed>10.59</speed><time>2019-02-23T15:34:51Z</time><pdop>6.068</pdop><geoidheight>0.00</geoidheight><course>117.0</course><type>1</type></trkpt>
      <trkpt lat="38.51294811" lon="-6.60643055"><ele>803</ele><speed>10.84</speed><time>2019-02-23T15:34:53Z</time><pdop>6.068</pdop><geoidheight>0.00</geoidheight><course>132.4</course><type>1</type></trkpt>
      <trkpt lat="38.51277919" lon="-6.60628643"><ele>777</ele><speed>12.12</speed><time>2019-02-23T15:34:55Z</time><pdop>6.068</pdop><geoidheight>0.00</geoidheight><course>153.3</course><type>1</type></trkpt>
      <trkpt lat="38.51260586" lon="-6.60622193"><ele>809</ele><speed>11.72</speed><time>2019-02-23T15:34:57Z</time><pdop>6.068</pdop><geoidheight>0.00</geoidheight><course>166.0</course><type>1</type></trkpt>
      <trkpt lat="38.51249377" lon="-6.60619978"><ele>806</ele><speed>11.74</speed><time>2019-02-23T15:34:58Z</time><pdop>6.068</pdop><geoidheight>0.00</geoidheight><course>172.0</course><type>1</type></trkpt>
      <trkpt lat="38.51227757" lon="-6.60618586"><ele>795</ele><speed>12.45</speed><time>2019-02-23T15:35:00Z</time><pdop>6.068</pdop><geoidheight>0.00</geoidheight><course>185.5</course><type>1</type></trkpt>
      <trkpt lat="38.51216165" lon="-6.60621178"><ele>794</ele><speed>12.69</speed><time>2019-02-23T15:35:01Z</time><pdop>7.585</pdop><geoidheight>0.00</geoidheight><course>192.6</course><type>1</type></trkpt>
      <trkpt lat="38.5119469" lon="-6.60632128"><ele>792</ele><speed>11.30</speed><time>2019-02-23T15:35:03Z</time><pdop>6.068</pdop><geoidheight>0.00</geoidheight><course>211.2</course><type>1</type></trkpt>
      <trkpt lat="38.51182907" lon="-6.60646247"><ele>791</ele><speed>8.87</speed><time>2019-02-23T15:35:05Z</time><pdop>6.068</pdop><geoidheight>0.00</geoidheight><course>233.4</course><type>1</type></trkpt>
      <trkpt lat="38.51177866" lon="-6.60663632"><ele>789</ele><speed>7.71</speed><time>2019-02-23T15:35:07Z</time><pdop>6.068</pdop><geoidheight>0.00</geoidheight><course>266.4</course><type>1</type></trkpt>
      <trkpt lat="38.51178319" lon="-6.6067971"><ele>787</ele><speed>7.09</speed><time>2019-02-23T15:35:09Z</time><pdop>6.068</pdop><geoidheight>0.00</geoidheight><course>278.8</course><type>1</type></trkpt>
      <trkpt lat="38.51177729" lon="-6.606949"><ele>786</ele><speed>6.58</speed><time>2019-02-23T15:35:11Z</time><pdop>6.068</pdop><geoidheight>0.00</geoidheight><course>268.2</course><type>1</type></trkpt>
      <trkpt lat="38.51179943" lon="-6.60716977"><ele>786</ele><speed>6.14</speed><time>2019-02-23T15:35:14Z</time><pdop>7.585</pdop><geoidheight>0.00</geoidheight><course>285.8</course><type>1</type></trkpt>
      <trkpt lat="38.51187061" lon="-6.6073487"><ele>786</ele><speed>5.97</speed><time>2019-02-23T15:35:17Z</time><pdop>7.585</pdop><geoidheight>0.00</geoidheight><course>297.3</course><type>1</type></trkpt>
      <trkpt lat="38.51194772" lon="-6.607511"><ele>781</ele><speed>5.19</speed><time>2019-02-23T15:35:20Z</time><pdop>7.585</pdop><geoidheight>0.00</geoidheight><course>305.2</course><type>1</type></trkpt>
      <trkpt lat="38.5120436" lon="-6.60766034"><ele>784</ele><speed>5.27</speed><time>2019-02-23T15:35:23Z</time><pdop>7.585</pdop><geoidheight>0.00</geoidheight><course>314.1</course><type>1</type></trkpt>
      <trkpt lat="38.5121517" lon="-6.6078044"><ele>785</ele><speed>4.95</speed><time>2019-02-23T15:35:27Z</time><pdop>7.585</pdop><geoidheight>0.00</geoidheight><course>321.7</course><type>1</type></trkpt>
      <trkpt lat="38.51225404" lon="-6.60789835"><ele>789</ele><speed>3.57</speed><time>2019-02-23T15:35:30Z</time><pdop>7.585</pdop><geoidheight>0.00</geoidheight><course>331.5</course><type>1</type></trkpt>
      <trkpt lat="38.51238368" lon="-6.60795925"><ele>788</ele><speed>2.70</speed><time>2019-02-23T15:35:35Z</time><pdop>7.585</pdop><geoidheight>0.00</geoidheight><course>334.0</course><type>1</type></trkpt>
      <trkpt lat="38.51249892" lon="-6.60808442"><ele>791</ele><speed>3.03</speed><time>2019-02-23T15:35:40Z</time><pdop>7.585</pdop><geoidheight>0.00</geoidheight><course>335.2</course><type>1</type></trkpt>
      <trkpt lat="38.51261617" lon="-6.60816591"><ele>788</ele><speed>4.34</speed><time>2019-02-23T15:35:45Z</time><pdop>7.585</pdop><geoidheight>0.00</geoidheight><course>333.6</course><type>1</type></trkpt>
      <trkpt lat="38.51272397" lon="-6.60832649"><ele>790</ele><speed>4.43</speed><time>2019-02-23T15:35:50Z</time><pdop>7.585</pdop><geoidheight>0.00</geoidheight><course>285.5</course><type>1</type></trkpt>
      <trkpt lat="38.51274371" lon="-6.6085377"><ele>844</ele><speed>4.42</speed><time>2019-02-23T15:35:54Z</time><pdop>7.585</pdop><geoidheight>0.00</geoidheight><course>273.6</course><type>1</type></trkpt>
      <trkpt lat="38.51272172" lon="-6.60871236"><ele>842</ele><speed>6.72</speed><time>2019-02-23T15:35:56Z</time><pdop>7.585</pdop><geoidheight>0.00</geoidheight><course>254.1</course><type>1</type></trkpt>
      <trkpt lat="38.51265706" lon="-6.60886475"><ele>827</ele><speed>6.67</speed><time>2019-02-23T15:35:58Z</time><pdop>7.585</pdop><geoidheight>0.00</geoidheight><course>234.0</course><type>1</type></trkpt>
      <trkpt lat="38.51257523" lon="-6.60897567"><ele>818</ele><speed>6.71</speed><time>2019-02-23T15:36:00Z</time><pdop>6.068</pdop><geoidheight>0.00</geoidheight><course>221.9</course><type>1</type></trkpt>
      <trkpt lat="38.51242898" lon="-6.60908045"><ele>812</ele><speed>9.99</speed><time>2019-02-23T15:36:02Z</time><pdop>6.068</pdop><geoidheight>0.00</geoidheight><course>206.2</course><type>1</type></trkpt>
      <trkpt lat="38.51222699" lon="-6.60913848"><ele>809</ele><speed>12.89</speed><time>2019-02-23T15:36:04Z</time><pdop>6.068</pdop><geoidheight>0.00</geoidheight><course>183.6</course><type>1</type></trkpt>
      <trkpt lat="38.51210834" lon="-6.60913996"><ele>806</ele><speed>13.02</speed><time>2019-02-23T15:36:05Z</time><pdop>6.068</pdop><geoidheight>0.00</geoidheight><course>174.0</course><type>1</type></trkpt>
      <trkpt lat="38.51199502" lon="-6.60910802"><ele>806</ele><speed>12.94</speed><time>2019-02-23T15:36:06Z</time><pdop>6.068</pdop><geoidheight>0.00</geoidheight><course>165.9</course><type>1</type></trkpt>
      <trkpt lat="38.51188491" lon="-6.60906712"><ele>806</ele><speed>12.87</speed><time>2019-02-23T15:36:07Z</time><pdop>6.068</pdop><geoidheight>0.00</geoidheight><course>158.4</course><type>1</type></trkpt>
      <trkpt lat="38.5117854" lon="-6.60901048"><ele>805</ele><speed>12.82</speed><time>2019-02-23T15:36:08Z</time><pdop>6.068</pdop><geoidheight>0.00</geoidheight><course>154.3</course><type>1</type></trkpt>
      <trkpt lat="38.51168775" lon="-6.60894787"><ele>805</ele><speed>12.75</speed><time>2019-02-23T15:36:09Z</time><pdop>6.068</pdop><geoidheight>0.00</geoidheight><course>151.7</course><type>1</type></trkpt>
      <trkpt lat="38.51157762" lon="-6.60887397"><ele>804</ele><speed>12.78</speed><time>2019-02-23T15:36:10Z</time><pdop>6.068</pdop><geoidheight>0.00</geoidheight><course>149.2</course><type>1</type></trkpt>
      <trkpt lat="38.51148585" lon="-6.60878079"><ele>803</ele><speed>12.70</speed><time>2019-02-23T15:36:11Z</time><pdop>7.585</pdop><geoidheight>0.00</geoidheight><course>144.9</course><type>1</type></trkpt>
      <trkpt lat="38.51130422" lon="-6.60856707"><ele>803</ele><speed>12.62</speed><time>2019-02-23T15:36:13Z</time><pdop>7.585</pdop><geoidheight>0.00</geoidheight><course>134.7</course><type>1</type></trkpt>
      <trkpt lat="38.51117589" lon="-6.608318"><ele>802</ele><speed>12.04</speed><time>2019-02-23T15:36:15Z</time><pdop>7.585</pdop><geoidheight>0.00</geoidheight><course>124.3</course><type>1</type></trkpt>
      <trkpt lat="38.51108968" lon="-6.60806052"><ele>802</ele><speed>11.17</speed><time>2019-02-23T15:36:17Z</time><pdop>7.585</pdop><geoidheight>0.00</geoidheight><course>117.3</course><type>1</type></trkpt>
      <trkpt lat="38.5110145" lon="-6.60783372"><ele>804</ele><speed>10.96</speed><time>2019-02-23T15:36:19Z</time><pdop>7.585</pdop><geoidheight>0.00</geoidheight><course>111.5</course><type>1</type></trkpt>
      <trkpt lat="38.5109453" lon="-6.60761835"><ele>806</ele><speed>9.56</speed><time>2019-02-23T15:36:21Z</time><pdop>7.585</pdop><geoidheight>0.00</geoidheight><course>111.3</course><type>1</type></trkpt>
      <trkpt lat="38.51087413" lon="-6.60740802"><ele>808</ele><speed>9.57</speed><time>2019-02-23T15:36:23Z</time><pdop>7.585</pdop><geoidheight>0.00</geoidheight><course>105.0</course><type>1</type></trkpt>
      <trkpt lat="38.51085526" lon="-6.60718987"><ele>812</ele><speed>8.57</speed><time>2019-02-23T15:36:25Z</time><pdop>7.585</pdop><geoidheight>0.00</geoidheight><course>93.2</course><type>1</type></trkpt>
      <trkpt lat="38.51089125" lon="-6.60698894"><ele>815</ele><speed>5.58</speed><time>2019-02-23T15:36:28Z</time><pdop>7.585</pdop><geoidheight>0.00</geoidheight><course>74.3</course><type>1</type></trkpt>
      <trkpt lat="38.51096846" lon="-6.60678227"><ele>849</ele><speed>7.21</speed><time>2019-02-23T15:36:31Z</time><pdop>7.585</pdop><geoidheight>0.00</geoidheight><course>52.5</course><type>1</type></trkpt>
      <trkpt lat="38.51107611" lon="-6.60666223"><ele>838</ele><speed>3.64</speed><time>2019-02-23T15:36:34Z</time><pdop>7.585</pdop><geoidheight>0.00</geoidheight><course>20.4</course><type>1</type></trkpt>
      <trkpt lat="38.5112035" lon="-6.6066372"><ele>851</ele><speed>5.39</speed><time>2019-02-23T15:36:37Z</time><pdop>7.585</pdop><geoidheight>0.00</geoidheight><course>8.5</course><type>1</type></trkpt>
      <trkpt lat="38.51134052" lon="-6.6066078"><ele>853</ele><speed>3.42</speed><time>2019-02-23T15:36:41Z</time><pdop>7.585</pdop><geoidheight>0.00</geoidheight><course>13.8</course><type>1</type></trkpt>
      <trkpt lat="38.51147261" lon="-6.60655908"><ele>843</ele><speed>3.49</speed><time>2019-02-23T15:36:47Z</time><pdop>7.585</pdop><geoidheight>0.00</geoidheight><course>353.6</course><type>1</type></trkpt>
      <trkpt lat="38.5116174" lon="-6.6066114"><ele>851</ele><speed>4.55</speed><time>2019-02-23T15:36:51Z</time><pdop>7.585</pdop><geoidheight>0.00</geoidheight><course>332.2</course><type>1</type></trkpt>
      <trkpt lat="38.51176973" lon="-6.60665426"><ele>852</ele><speed>3.99</speed><time>2019-02-23T15:36:55Z</time><pdop>7.585</pdop><geoidheight>0.00</geoidheight><course>353.1</course><type>1</type></trkpt>
      <trkpt lat="38.5119267" lon="-6.60666131"><ele>847</ele><speed>3.55</speed><time>2019-02-23T15:36:59Z</time><pdop>7.585</pdop><geoidheight>0.00</geoidheight><course>359.2</course><type>1</type></trkpt>
      <trkpt lat="38.51207403" lon="-6.60656136"><ele>842</ele><speed>4.36</speed><time>2019-02-23T15:37:03Z</time><pdop>9.101999</pdop><geoidheight>0.00</geoidheight><course>29.9</course><type>1</type></trkpt>
      <trkpt lat="38.51224953" lon="-6.60657777"><ele>833</ele><speed>2.94</speed><time>2019-02-23T15:37:08Z</time><pdop>7.585</pdop><geoidheight>0.00</geoidheight><course>302.9</course><type>1</type></trkpt>
      <trkpt lat="38.51229594" lon="-6.60677218"><ele>853</ele><speed>4.88</speed><time>2019-02-23T15:37:12Z</time><pdop>9.101999</pdop><geoidheight>0.00</geoidheight><course>279.6</course><type>1</type></trkpt>
      <trkpt lat="38.51226607" lon="-6.60701146"><ele>851</ele><speed>4.76</speed><time>2019-02-23T15:37:16Z</time><pdop>9.101999</pdop><geoidheight>0.00</geoidheight><course>262.6</course><type>1</type></trkpt>
      <trkpt lat="38.51220598" lon="-6.60724189"><ele>846</ele><speed>6.49</speed><time>2019-02-23T15:37:19Z</time><pdop>7.585</pdop><geoidheight>0.00</geoidheight><course>243.8</course><type>1</type></trkpt>
      <trkpt lat="38.51215569" lon="-6.60744949"><ele>839</ele><speed>7.39</speed><time>2019-02-23T15:37:22Z</time><pdop>6.068</pdop><geoidheight>0.00</geoidheight><course>261.9</course><type>1</type></trkpt>
      <trkpt lat="38.51214351" lon="-6.60761469"><ele>844</ele><speed>6.90</speed><time>2019-02-23T15:37:24Z</time><pdop>6.068</pdop><geoidheight>0.00</geoidheight><course>258.9</course><type>1</type></trkpt>
      <trkpt lat="38.51212163" lon="-6.60775013"><ele>843</ele><speed>6.33</speed><time>2019-02-23T15:37:26Z</time><pdop>6.068</pdop><geoidheight>0.00</geoidheight><course>257.4</course><type>1</type></trkpt>
      <trkpt lat="38.51209374" lon="-6.60791343"><ele>835</ele><speed>7.70</speed><time>2019-02-23T15:37:28Z</time><pdop>6.068</pdop><geoidheight>0.00</geoidheight><course>267.3</course><type>1</type></trkpt>
      <trkpt lat="38.51209184" lon="-6.6080939"><ele>831</ele><speed>7.05</speed><time>2019-02-23T15:37:30Z</time><pdop>6.068</pdop><geoidheight>0.00</geoidheight><course>263.8</course><type>1</type></trkpt>
      <trkpt lat="38.51207469" lon="-6.60825429"><ele>830</ele><speed>7.05</speed><time>2019-02-23T15:37:32Z</time><pdop>6.068</pdop><geoidheight>0.00</geoidheight><course>260.5</course><type>1</type></trkpt>
      <trkpt lat="38.51204491" lon="-6.6084122"><ele>828</ele><speed>7.90</speed><time>2019-02-23T15:37:34Z</time><pdop>6.068</pdop><geoidheight>0.00</geoidheight><course>260.7</course><type>1</type></trkpt>
      <trkpt lat="38.51200825" lon="-6.60860519"><ele>827</ele><speed>8.65</speed><time>2019-02-23T15:37:36Z</time><pdop>6.068</pdop><geoidheight>0.00</geoidheight><course>255.3</course><type>1</type></trkpt>
      <trkpt lat="38.51196164" lon="-6.60876848"><ele>827</ele><speed>7.64</speed><time>2019-02-23T15:37:38Z</time><pdop>6.068</pdop><geoidheight>0.00</geoidheight><course>251.4</course><type>1</type></trkpt>
      <trkpt lat="38.51194009" lon="-6.60890914"><ele>822</ele><speed>5.07</speed><time>2019-02-23T15:37:40Z</time><pdop>6.068</pdop><geoidheight>0.00</geoidheight><course>290.7</course><type>1</type></trkpt>
      <trkpt lat="38.51200074" lon="-6.60871648"><ele>816</ele><speed>8.47</speed><time>2019-02-23T15:37:47Z</time><pdop>6.068</pdop><geoidheight>0.00</geoidheight><course>107.3</course><type>1</type></trkpt>
      <trkpt lat="38.51189529" lon="-6.60853117"><ele>812</ele><speed>10.82</speed><time>2019-02-23T15:37:49Z</time><pdop>6.068</pdop><geoidheight>0.00</geoidheight><course>125.2</course><type>1</type></trkpt>
      <trkpt lat="38.5117569" lon="-6.60832215"><ele>812</ele><speed>12.89</speed><time>2019-02-23T15:37:51Z</time><pdop>6.068</pdop><geoidheight>0.00</geoidheight><course>129.1</course><type>1</type></trkpt>
      <trkpt lat="38.51168424" lon="-6.60820873"><ele>811</ele><speed>12.16</speed><time>2019-02-23T15:37:52Z</time><pdop>6.068</pdop><geoidheight>0.00</geoidheight><course>125.0</course><type>1</type></trkpt>
      <trkpt lat="38.51157963" lon="-6.60797504"><ele>809</ele><speed>11.48</speed><time>2019-02-23T15:37:54Z</time><pdop>7.585</pdop><geoidheight>0.00</geoidheight><course>119.9</course><type>1</type></trkpt>
      <trkpt lat="38.51144434" lon="-6.60775751"><ele>807</ele><speed>12.10</speed><time>2019-02-23T15:37:56Z</time><pdop>7.585</pdop><geoidheight>0.00</geoidheight><course>124.4</course><type>1</type></trkpt>
      <trkpt lat="38.51130301" lon="-6.60749278"><ele>807</ele><speed>12.59</speed><time>2019-02-23T15:37:58Z</time><pdop>7.585</pdop><geoidheight>0.00</geoidheight><course>123.1</course><type>1</type></trkpt>
      <trkpt lat="38.51118847" lon="-6.60725449"><ele>806</ele><speed>12.40</speed><time>2019-02-23T15:38:00Z</time><pdop>7.585</pdop><geoidheight>0.00</geoidheight><course>123.2</course><type>1</type></trkpt>
      <trkpt lat="38.51106403" lon="-6.6070238"><ele>807</ele><speed>12.35</speed><time>2019-02-23T15:38:02Z</time><pdop>7.585</pdop><geoidheight>0.00</geoidheight><course>124.6</course><type>1</type></trkpt>
      <trkpt lat="38.51093094" lon="-6.60680429"><ele>808</ele><speed>10.83</speed><time>2019-02-23T15:38:04Z</time><pdop>7.585</pdop><geoidheight>0.00</geoidheight><course>128.7</course><type>1</type></trkpt>
      <trkpt lat="38.51079565" lon="-6.6065999"><ele>806</ele><speed>11.69</speed><time>2019-02-23T15:38:06Z</time><pdop>7.585</pdop><geoidheight>0.00</geoidheight><course>135.1</course><type>1</type></trkpt>
      <trkpt lat="38.51066156" lon="-6.60641422"><ele>807</ele><speed>12.38</speed><time>2019-02-23T15:38:08Z</time><pdop>7.585</pdop><geoidheight>0.00</geoidheight><course>125.6</course><type>1</type></trkpt>
      <trkpt lat="38.5105975" lon="-6.60619343"><ele>808</ele><speed>10.48</speed><time>2019-02-23T15:38:10Z</time><pdop>7.585</pdop><geoidheight>0.00</geoidheight><course>106.0</course><type>1</type></trkpt>
      <trkpt lat="38.51058512" lon="-6.60597653"><ele>810</ele><speed>8.60</speed><time>2019-02-23T15:38:12Z</time><pdop>7.585</pdop><geoidheight>0.00</geoidheight><course>89.9</course><type>1</type></trkpt>
      <trkpt lat="38.51062051" lon="-6.60581698"><ele>811</ele><speed>6.24</speed><time>2019-02-23T15:38:14Z</time><pdop>7.585</pdop><geoidheight>0.00</geoidheight><course>62.1</course><type>1</type></trkpt>
      <trkpt lat="38.51074708" lon="-6.60575161"><ele>812</ele><speed>4.48</speed><time>2019-02-23T15:38:17Z</time><pdop>7.585</pdop><geoidheight>0.00</geoidheight><course>1.9</course><type>1</type></trkpt>
      <trkpt lat="38.51087553" lon="-6.60577039"><ele>811</ele><speed>3.51</speed><time>2019-02-23T15:38:21Z</time><pdop>6.068</pdop><geoidheight>0.00</geoidheight><course>337.7</course><type>1</type></trkpt>
      <trkpt lat="38.51096155" lon="-6.60587782"><ele>777</ele><speed>4.42</speed><time>2019-02-23T15:38:24Z</time><pdop>7.585</pdop><geoidheight>0.00</geoidheight><course>315.5</course><type>1</type></trkpt>
      <trkpt lat="38.51099914" lon="-6.60602418"><ele>796</ele><speed>5.13</speed><time>2019-02-23T15:38:27Z</time><pdop>6.068</pdop><geoidheight>0.00</geoidheight><course>281.0</course><type>1</type></trkpt>
      <trkpt lat="38.51101739" lon="-6.60621676"><ele>804</ele><speed>6.05</speed><time>2019-02-23T15:38:30Z</time><pdop>4.5509996</pdop><geoidheight>0.00</geoidheight><course>271.7</course><type>1</type></trkpt>
      <trkpt lat="38.51100245" lon="-6.60633803"><ele>805</ele><speed>6.39</speed><time>2019-02-23T15:38:32Z</time><pdop>6.068</pdop><geoidheight>0.00</geoidheight><course>256.3</course><type>1</type></trkpt>
      <trkpt lat="38.51097657" lon="-6.6064817"><ele>802</ele><speed>7.37</speed><time>2019-02-23T15:38:34Z</time><pdop>6.068</pdop><geoidheight>0.00</geoidheight><course>265.0</course><type>1</type></trkpt>
      <trkpt lat="38.51098297" lon="-6.60663851"><ele>800</ele><speed>6.52</speed><time>2019-02-23T15:38:36Z</time><pdop>6.068</pdop><geoidheight>0.00</geoidheight><course>280.3</course><type>1</type></trkpt>
      <trkpt lat="38.51103696" lon="-6.60680082"><ele>798</ele><speed>5.08</speed><time>2019-02-23T15:38:39Z</time><pdop>6.068</pdop><geoidheight>0.00</geoidheight><course>292.8</course><type>1</type></trkpt>
      <trkpt lat="38.51107369" lon="-6.60698863"><ele>796</ele><speed>5.21</speed><time>2019-02-23T15:38:42Z</time><pdop>6.068</pdop><geoidheight>0.00</geoidheight><course>283.1</course><type>1</type></trkpt>
      <trkpt lat="38.51111104" lon="-6.60713464"><ele>793</ele><speed>3.65</speed><time>2019-02-23T15:38:45Z</time><pdop>6.068</pdop><geoidheight>0.00</geoidheight><course>306.2</course><type>1</type></trkpt>
      <trkpt lat="38.51118808" lon="-6.60725345"><ele>788</ele><speed>3.52</speed><time>2019-02-23T15:38:48Z</time><pdop>6.068</pdop><geoidheight>0.00</geoidheight><course>309.8</course><type>1</type></trkpt>
      <trkpt lat="38.51123376" lon="-6.60738858"><ele>770</ele><speed>5.16</speed><time>2019-02-23T15:38:51Z</time><pdop>6.068</pdop><geoidheight>0.00</geoidheight><course>299.6</course><type>1</type></trkpt>
      <trkpt lat="38.51127925" lon="-6.60754452"><ele>770</ele><speed>4.81</speed><time>2019-02-23T15:38:54Z</time><pdop>4.5509996</pdop><geoidheight>0.00</geoidheight><course>281.6</course><type>1</type></trkpt>
      <trkpt lat="38.51126062" lon="-6.60768086"><ele>776</ele><speed>7.92</speed><time>2019-02-23T15:38:56Z</time><pdop>4.5509996</pdop><geoidheight>0.00</geoidheight><course>246.3</course><type>1</type></trkpt>
      <trkpt lat="38.51121303" lon="-6.6077718"><ele>777</ele><speed>9.64</speed><time>2019-02-23T15:38:57Z</time><pdop>4.5509996</pdop><geoidheight>0.00</geoidheight><course>231.0</course><type>1</type></trkpt>
      <trkpt lat="38.51115401" lon="-6.60784289"><ele>778</ele><speed>10.21</speed><time>2019-02-23T15:38:58Z</time><pdop>4.5509996</pdop><geoidheight>0.00</geoidheight><course>223.9</course><type>1</type></trkpt>
      <trkpt lat="38.5110948" lon="-6.60791795"><ele>778</ele><speed>9.13</speed><time>2019-02-23T15:38:59Z</time><pdop>4.5509996</pdop><geoidheight>0.00</geoidheight><course>227.5</course><type>1</type></trkpt>
      <trkpt lat="38.51104637" lon="-6.60800556"><ele>778</ele><speed>8.17</speed><time>2019-02-23T15:39:00Z</time><pdop>4.5509996</pdop><geoidheight>0.00</geoidheight><course>239.2</course><type>1</type></trkpt>
      <trkpt lat="38.51099841" lon="-6.60815429"><ele>777</ele><speed>7.39</speed><time>2019-02-23T15:39:02Z</time><pdop>4.5509996</pdop><geoidheight>0.00</geoidheight><course>254.4</course><type>1</type></trkpt>
      <trkpt lat="38.51098233" lon="-6.60829355"><ele>776</ele><speed>7.02</speed><time>2019-02-23T15:39:04Z</time><pdop>4.5509996</pdop><geoidheight>0.00</geoidheight><course>269.1</course><type>1</type></trkpt>
      <trkpt lat="38.51099352" lon="-6.608444"><ele>775</ele><speed>6.27</speed><time>2019-02-23T15:39:06Z</time><pdop>4.5509996</pdop><geoidheight>0.00</geoidheight><course>284.1</course><type>1</type></trkpt>
      <trkpt lat="38.51103468" lon="-6.60858899"><ele>775</ele><speed>5.95</speed><time>2019-02-23T15:39:08Z</time><pdop>4.5509996</pdop><geoidheight>0.00</geoidheight><course>283.0</course><type>1</type></trkpt>
      <trkpt lat="38.51105852" lon="-6.60871402"><ele>774</ele><speed>5.32</speed><time>2019-02-23T15:39:10Z</time><pdop>4.5509996</pdop><geoidheight>0.00</geoidheight><course>285.5</course><type>1</type></trkpt>
      <trkpt lat="38.511107" lon="-6.60881387"><ele>774</ele><speed>4.76</speed><time>2019-02-23T15:39:12Z</time><pdop>4.5509996</pdop><geoidheight>0.00</geoidheight><course>301.6</course><type>1</type></trkpt>
      <trkpt lat="38.51114823" lon="-6.6089077"><ele>775</ele><speed>5.22</speed><time>2019-02-23T15:39:14Z</time><pdop>4.5509996</pdop><geoidheight>0.00</geoidheight><course>298.2</course><type>1</type></trkpt>
      <trkpt lat="38.51118782" lon="-6.60902023"><ele>775</ele><speed>5.11</speed><time>2019-02-23T15:39:16Z</time><pdop>4.5509996</pdop><geoidheight>0.00</geoidheight><course>295.2</course><type>1</type></trkpt>
      <trkpt lat="38.51122155" lon="-6.60913194"><ele>775</ele><speed>4.84</speed><time>2019-02-23T15:39:18Z</time><pdop>6.068</pdop><geoidheight>0.00</geoidheight><course>296.9</course><type>1</type></trkpt>
      <trkpt lat="38.51130317" lon="-6.60926305"><ele>777</ele><speed>4.21</speed><time>2019-02-23T15:39:21Z</time><pdop>6.068</pdop><geoidheight>0.00</geoidheight><course>308.4</course><type>1</type></trkpt>
      <trkpt lat="38.51140126" lon="-6.60939635"><ele>766</ele><speed>4.43</speed><time>2019-02-23T15:39:25Z</time><pdop>6.068</pdop><geoidheight>0.00</geoidheight><course>332.8</course><type>1</type></trkpt>
      <trkpt lat="38.5115097" lon="-6.60939656"><ele>775</ele><speed>2.21</speed><time>2019-02-23T15:39:29Z</time><pdop>6.068</pdop><geoidheight>0.00</geoidheight><course>61.6</course><type>1</type></trkpt>
      <trkpt lat="38.51154022" lon="-6.60923828"><ele>780</ele><speed>6.33</speed><time>2019-02-23T15:39:32Z</time><pdop>6.068</pdop><geoidheight>0.00</geoidheight><course>78.4</course><type>1</type></trkpt>
      <trkpt lat="38.51155454" lon="-6.60903485"><ele>772</ele><speed>8.60</speed><time>2019-02-23T15:39:34Z</time><pdop>6.068</pdop><geoidheight>0.00</geoidheight><course>102.2</course><type>1</type></trkpt>
      <trkpt lat="38.51149144" lon="-6.60884442"><ele>768</ele><speed>9.94</speed><time>2019-02-23T15:39:36Z</time><pdop>6.068</pdop><geoidheight>0.00</geoidheight><course>121.6</course><type>1</type></trkpt>
      <trkpt lat="38.51140526" lon="-6.60862336"><ele>774</ele><speed>11.19</speed><time>2019-02-23T15:39:38Z</time><pdop>6.068</pdop><geoidheight>0.00</geoidheight><course>123.3</course><type>1</type></trkpt>
      <trkpt lat="38.51128985" lon="-6.60839627"><ele>777</ele><speed>11.35</speed><time>2019-02-23T15:39:40Z</time><pdop>6.068</pdop><geoidheight>0.00</geoidheight><course>129.0</course><type>1</type></trkpt>
      <trkpt lat="38.51115378" lon="-6.60822213"><ele>781</ele><speed>10.76</speed><time>2019-02-23T15:39:42Z</time><pdop>6.068</pdop><geoidheight>0.00</geoidheight><course>132.8</course><type>1</type></trkpt>
      <trkpt lat="38.51106729" lon="-6.60812918"><ele>774</ele><speed>10.59</speed><time>2019-02-23T15:39:43Z</time><pdop>6.068</pdop><geoidheight>0.00</geoidheight><course>126.9</course><type>1</type></trkpt>
      <trkpt lat="38.51099614" lon="-6.60801025"><ele>773</ele><speed>10.88</speed><time>2019-02-23T15:39:44Z</time><pdop>6.068</pdop><geoidheight>0.00</geoidheight><course>124.9</course><type>1</type></trkpt>
      <trkpt lat="38.51087179" lon="-6.60779497"><ele>777</ele><speed>11.21</speed><time>2019-02-23T15:39:46Z</time><pdop>6.068</pdop><geoidheight>0.00</geoidheight><course>127.0</course><type>1</type></trkpt>
      <trkpt lat="38.51075965" lon="-6.60759404"><ele>782</ele><speed>10.15</speed><time>2019-02-23T15:39:48Z</time><pdop>6.068</pdop><geoidheight>0.00</geoidheight><course>119.9</course><type>1</type></trkpt>
      <trkpt lat="38.51071015" lon="-6.60739495"><ele>784</ele><speed>8.88</speed><time>2019-02-23T15:39:50Z</time><pdop>6.068</pdop><geoidheight>0.00</geoidheight><course>99.1</course><type>1</type></trkpt>
      <trkpt lat="38.51071413" lon="-6.60721492"><ele>787</ele><speed>6.69</speed><time>2019-02-23T15:39:52Z</time><pdop>7.585</pdop><geoidheight>0.00</geoidheight><course>80.8</course><type>1</type></trkpt>
      <trkpt lat="38.51082527" lon="-6.60709648"><ele>787</ele><speed>2.82</speed><time>2019-02-23T15:39:57Z</time><pdop>6.068</pdop><geoidheight>0.00</geoidheight><course>4.3</course><type>1</type></trkpt>
      <trkpt lat="38.51093945" lon="-6.60711826"><ele>787</ele><speed>3.10</speed><time>2019-02-23T15:40:01Z</time><pdop>6.068</pdop><geoidheight>0.00</geoidheight><course>330.7</course><type>1</type></trkpt>
      <trkpt lat="38.51103146" lon="-6.60721915"><ele>787</ele><speed>4.33</speed><time>2019-02-23T15:40:04Z</time><pdop>6.068</pdop><geoidheight>0.00</geoidheight><course>308.5</course><type>1</type></trkpt>
      <trkpt lat="38.51110018" lon="-6.60733218"><ele>791</ele><speed>3.64</speed><time>2019-02-23T15:40:07Z</time><pdop>6.068</pdop><geoidheight>0.00</geoidheight><course>306.8</course><type>1</type></trkpt>
      <trkpt lat="38.51114603" lon="-6.60747893"><ele>786</ele><speed>3.49</speed><time>2019-02-23T15:40:11Z</time><pdop>7.585</pdop><geoidheight>0.00</geoidheight><course>287.0</course><type>1</type></trkpt>
      <trkpt lat="38.51125493" lon="-6.60764611"><ele>786</ele><speed>3.17</speed><time>2019-02-23T15:40:17Z</time><pdop>7.585</pdop><geoidheight>0.00</geoidheight><course>324.2</course><type>1</type></trkpt>
      <trkpt lat="38.51137589" lon="-6.60775941"><ele>770</ele><speed>3.56</speed><time>2019-02-23T15:40:22Z</time><pdop>7.585</pdop><geoidheight>0.00</geoidheight><course>322.7</course><type>1</type></trkpt>
      <trkpt lat="38.51147188" lon="-6.60785669"><ele>775</ele><speed>3.01</speed><time>2019-02-23T15:40:27Z</time><pdop>6.068</pdop><geoidheight>0.00</geoidheight><course>321.6</course><type>1</type></trkpt>
      <trkpt lat="38.51157458" lon="-6.60793644"><ele>780</ele><speed>1.96</speed><time>2019-02-23T15:40:32Z</time><pdop>6.068</pdop><geoidheight>0.00</geoidheight><course>351.2</course><type>1</type></trkpt>
      <trkpt lat="38.51169194" lon="-6.60797613"><ele>786</ele><speed>2.14</speed><time>2019-02-23T15:40:37Z</time><pdop>6.068</pdop><geoidheight>0.00</geoidheight><course>335.2</course><type>1</type></trkpt>
      <trkpt lat="38.51174311" lon="-6.60813286"><ele>771</ele><speed>5.69</speed><time>2019-02-23T15:40:42Z</time><pdop>6.068</pdop><geoidheight>0.00</geoidheight><course>261.6</course><type>1</type></trkpt>
      <trkpt lat="38.51169838" lon="-6.6082629"><ele>767</ele><speed>6.40</speed><time>2019-02-23T15:40:44Z</time><pdop>6.068</pdop><geoidheight>0.00</geoidheight><course>237.8</course><type>1</type></trkpt>
      <trkpt lat="38.51161773" lon="-6.60839082"><ele>767</ele><speed>7.89</speed><time>2019-02-23T15:40:46Z</time><pdop>6.068</pdop><geoidheight>0.00</geoidheight><course>236.5</course><type>1</type></trkpt>
      <trkpt lat="38.51152925" lon="-6.60856986"><ele>772</ele><speed>9.17</speed><time>2019-02-23T15:40:48Z</time><pdop>6.068</pdop><geoidheight>0.00</geoidheight><course>233.1</course><type>1</type></trkpt>
      <trkpt lat="38.51142516" lon="-6.60872165"><ele>768</ele><speed>7.74</speed><time>2019-02-23T15:40:50Z</time><pdop>6.068</pdop><geoidheight>0.00</geoidheight><course>230.1</course><type>1</type></trkpt>
      <trkpt lat="38.51134507" lon="-6.60886611"><ele>774</ele><speed>7.03</speed><time>2019-02-23T15:40:52Z</time><pdop>6.068</pdop><geoidheight>0.00</geoidheight><course>242.3</course><type>1</type></trkpt>
      <trkpt lat="38.51128756" lon="-6.6090137"><ele>765</ele><speed>7.21</speed><time>2019-02-23T15:40:54Z</time><pdop>6.068</pdop><geoidheight>0.00</geoidheight><course>249.1</course><type>1</type></trkpt>
      <trkpt lat="38.51125006" lon="-6.60915946"><ele>770</ele><speed>5.76</speed><time>2019-02-23T15:40:56Z</time><pdop>6.068</pdop><geoidheight>0.00</geoidheight><course>254.8</course><type>1</type></trkpt>
      <trkpt lat="38.5112195" lon="-6.609325"><ele>777</ele><speed>5.55</speed><time>2019-02-23T15:40:59Z</time><pdop>6.068</pdop><geoidheight>0.00</geoidheight><course>262.1</course><type>1</type></trkpt>
      <trkpt lat="38.51121915" lon="-6.60947301"><ele>771</ele><speed>5.65</speed><time>2019-02-23T15:41:01Z</time><pdop>6.068</pdop><geoidheight>0.00</geoidheight><course>274.1</course><type>1</type></trkpt>
      <trkpt lat="38.51124831" lon="-6.60964496"><ele>766</ele><speed>4.93</speed><time>2019-02-23T15:41:04Z</time><pdop>6.068</pdop><geoidheight>0.00</geoidheight><course>275.4</course><type>1</type></trkpt>
      <trkpt lat="38.51126877" lon="-6.60981498"><ele>777</ele><speed>5.10</speed><time>2019-02-23T15:41:07Z</time><pdop>6.068</pdop><geoidheight>0.00</geoidheight><course>280.7</course><type>1</type></trkpt>
      <trkpt lat="38.51131003" lon="-6.61000378"><ele>768</ele><speed>4.48</speed><time>2019-02-23T15:41:11Z</time><pdop>7.585</pdop><geoidheight>0.00</geoidheight><course>289.5</course><type>1</type></trkpt>
      <trkpt lat="38.51134432" lon="-6.61020331"><ele>770</ele><speed>4.11</speed><time>2019-02-23T15:41:15Z</time><pdop>7.585</pdop><geoidheight>0.00</geoidheight><course>294.0</course><type>1</type></trkpt>
      <trkpt lat="38.51140552" lon="-6.61035382"><ele>777</ele><speed>3.52</speed><time>2019-02-23T15:41:19Z</time><pdop>6.068</pdop><geoidheight>0.00</geoidheight><course>302.8</course><type>1</type></trkpt>
      <trkpt lat="38.51149544" lon="-6.61049704"><ele>788</ele><speed>4.07</speed><time>2019-02-23T15:41:23Z</time><pdop>6.068</pdop><geoidheight>0.00</geoidheight><course>314.0</course><type>1</type></trkpt>
      <trkpt lat="38.51158532" lon="-6.61063204"><ele>783</ele><speed>3.92</speed><time>2019-02-23T15:41:27Z</time><pdop>6.068</pdop><geoidheight>0.00</geoidheight><course>301.7</course><type>1</type></trkpt>
      <trkpt lat="38.51163912" lon="-6.61076381"><ele>786</ele><speed>4.26</speed><time>2019-02-23T15:41:30Z</time><pdop>6.068</pdop><geoidheight>0.00</geoidheight><course>293.7</course><type>1</type></trkpt>
      <trkpt lat="38.51168141" lon="-6.61091058"><ele>772</ele><speed>4.18</speed><time>2019-02-23T15:41:33Z</time><pdop>7.585</pdop><geoidheight>0.00</geoidheight><course>292.6</course><type>1</type></trkpt>
      <trkpt lat="38.51176393" lon="-6.61105427"><ele>790</ele><speed>4.56</speed><time>2019-02-23T15:41:37Z</time><pdop>6.068</pdop><geoidheight>0.00</geoidheight><course>311.4</course><type>1</type></trkpt>
      <trkpt lat="38.51184414" lon="-6.61119353"><ele>774</ele><speed>3.20</speed><time>2019-02-23T15:41:41Z</time><pdop>6.068</pdop><geoidheight>0.00</geoidheight><course>301.7</course><type>1</type></trkpt>
      <trkpt lat="38.51190218" lon="-6.61131425"><ele>787</ele><speed>5.19</speed><time>2019-02-23T15:41:44Z</time><pdop>6.068</pdop><geoidheight>0.00</geoidheight><course>298.2</course><type>1</type></trkpt>
      <trkpt lat="38.511965" lon="-6.61146688"><ele>776</ele><speed>4.59</speed><time>2019-02-23T15:41:47Z</time><pdop>6.068</pdop><geoidheight>0.00</geoidheight><course>296.3</course><type>1</type></trkpt>
      <trkpt lat="38.51200987" lon="-6.61162581"><ele>789</ele><speed>4.46</speed><time>2019-02-23T15:41:51Z</time><pdop>6.068</pdop><geoidheight>0.00</geoidheight><course>280.7</course><type>1</type></trkpt>
      <trkpt lat="38.51208146" lon="-6.61177957"><ele>791</ele><speed>3.92</speed><time>2019-02-23T15:41:55Z</time><pdop>7.585</pdop><geoidheight>0.00</geoidheight><course>297.2</course><type>1</type></trkpt>
      <trkpt lat="38.51210555" lon="-6.61192874"><ele>775</ele><speed>4.63</speed><time>2019-02-23T15:41:58Z</time><pdop>6.068</pdop><geoidheight>0.00</geoidheight><course>274.7</course><type>1</type></trkpt>
      <trkpt lat="38.51211053" lon="-6.61210411"><ele>776</ele><speed>4.57</speed><time>2019-02-23T15:42:01Z</time><pdop>6.068</pdop><geoidheight>0.00</geoidheight><course>271.9</course><type>1</type></trkpt>
      <trkpt lat="38.51212605" lon="-6.61229811"><ele>782</ele><speed>5.01</speed><time>2019-02-23T15:42:04Z</time><pdop>7.585</pdop><geoidheight>0.00</geoidheight><course>277.3</course><type>1</type></trkpt>
      <trkpt lat="38.51215322" lon="-6.61247004"><ele>775</ele><speed>4.37</speed><time>2019-02-23T15:42:08Z</time><pdop>6.068</pdop><geoidheight>0.00</geoidheight><course>299.5</course><type>1</type></trkpt>
      <trkpt lat="38.51221853" lon="-6.61261339"><ele>787</ele><speed>4.21</speed><time>2019-02-23T15:42:11Z</time><pdop>6.068</pdop><geoidheight>0.00</geoidheight><course>292.3</course><type>1</type></trkpt>
      <trkpt lat="38.5122629" lon="-6.61274533"><ele>785</ele><speed>3.70</speed><time>2019-02-23T15:42:14Z</time><pdop>6.068</pdop><geoidheight>0.00</geoidheight><course>304.3</course><type>1</type></trkpt>
      <trkpt lat="38.51237054" lon="-6.61284098"><ele>800</ele><speed>3.03</speed><time>2019-02-23T15:42:18Z</time><pdop>7.585</pdop><geoidheight>0.00</geoidheight><course>343.9</course><type>1</type></trkpt>
      <trkpt lat="38.51250749" lon="-6.61284138"><ele>793</ele><speed>3.47</speed><time>2019-02-23T15:42:23Z</time><pdop>7.585</pdop><geoidheight>0.00</geoidheight><course>30.2</course><type>1</type></trkpt>
      <trkpt lat="38.51259348" lon="-6.61273039"><ele>778</ele><speed>3.94</speed><time>2019-02-23T15:42:26Z</time><pdop>6.068</pdop><geoidheight>0.00</geoidheight><course>55.3</course><type>1</type></trkpt>
      <trkpt lat="38.51258516" lon="-6.61259129"><ele>778</ele><speed>5.14</speed><time>2019-02-23T15:42:29Z</time><pdop>6.068</pdop><geoidheight>0.00</geoidheight><course>90.6</course><type>1</type></trkpt>
      <trkpt lat="38.51256266" lon="-6.6123923"><ele>786</ele><speed>9.30</speed><time>2019-02-23T15:42:31Z</time><pdop>6.068</pdop><geoidheight>0.00</geoidheight><course>107.5</course><type>1</type></trkpt>
      <trkpt lat="38.51248126" lon="-6.61217116"><ele>780</ele><speed>9.99</speed><time>2019-02-23T15:42:33Z</time><pdop>6.068</pdop><geoidheight>0.00</geoidheight><course>121.1</course><type>1</type></trkpt>
      <trkpt lat="38.51238028" lon="-6.61196583"><ele>795</ele><speed>8.94</speed><time>2019-02-23T15:42:35Z</time><pdop>6.068</pdop><geoidheight>0.00</geoidheight><course>122.3</course><type>1</type></trkpt>
      <trkpt lat="38.51230165" lon="-6.611789"><ele>803</ele><speed>9.33</speed><time>2019-02-23T15:42:37Z</time><pdop>6.068</pdop><geoidheight>0.00</geoidheight><course>121.9</course><type>1</type></trkpt>
      <trkpt lat="38.51221581" lon="-6.61159028"><ele>778</ele><speed>10.49</speed><time>2019-02-23T15:42:39Z</time><pdop>7.585</pdop><geoidheight>0.00</geoidheight><course>122.0</course><type>1</type></trkpt>
      <trkpt lat="38.51212011" lon="-6.61134079"><ele>777</ele><speed>9.49</speed><time>2019-02-23T15:42:41Z</time><pdop>7.585</pdop><geoidheight>0.00</geoidheight><course>120.2</course><type>1</type></trkpt>
      <trkpt lat="38.5120227" lon="-6.61113936"><ele>790</ele><speed>9.25</speed><time>2019-02-23T15:42:43Z</time><pdop>7.585</pdop><geoidheight>0.00</geoidheight><course>120.5</course><type>1</type></trkpt>
      <trkpt lat="38.51193444" lon="-6.61095903"><ele>799</ele><speed>9.72</speed><time>2019-02-23T15:42:45Z</time><pdop>7.585</pdop><geoidheight>0.00</geoidheight><course>119.1</course><type>1</type></trkpt>
      <trkpt lat="38.51187018" lon="-6.61075812"><ele>779</ele><speed>9.35</speed><time>2019-02-23T15:42:47Z</time><pdop>6.068</pdop><geoidheight>0.00</geoidheight><course>112.0</course><type>1</type></trkpt>
      <trkpt lat="38.51179792" lon="-6.61058665"><ele>792</ele><speed>8.64</speed><time>2019-02-23T15:42:49Z</time><pdop>7.585</pdop><geoidheight>0.00</geoidheight><course>116.8</course><type>1</type></trkpt>
      <trkpt lat="38.51172398" lon="-6.6104185"><ele>785</ele><speed>9.11</speed><time>2019-02-23T15:42:51Z</time><pdop>7.585</pdop><geoidheight>0.00</geoidheight><course>120.8</course><type>1</type></trkpt>
      <trkpt lat="38.51164255" lon="-6.6102042"><ele>794</ele><speed>9.78</speed><time>2019-02-23T15:42:53Z</time><pdop>7.585</pdop><geoidheight>0.00</geoidheight><course>114.7</course><type>1</type></trkpt>
      <trkpt lat="38.5115754" lon="-6.61002628"><ele>796</ele><speed>8.44</speed><time>2019-02-23T15:42:55Z</time><pdop>7.585</pdop><geoidheight>0.00</geoidheight><course>115.9</course><type>1</type></trkpt>
      <trkpt lat="38.51151166" lon="-6.60985819"><ele>797</ele><speed>8.94</speed><time>2019-02-23T15:42:57Z</time><pdop>7.585</pdop><geoidheight>0.00</geoidheight><course>115.6</course><type>1</type></trkpt>
      <trkpt lat="38.51145153" lon="-6.60966431"><ele>796</ele><speed>9.87</speed><time>2019-02-23T15:42:59Z</time><pdop>7.585</pdop><geoidheight>0.00</geoidheight><course>113.8</course><type>1</type></trkpt>
      <trkpt lat="38.51140199" lon="-6.60944199"><ele>796</ele><speed>8.80</speed><time>2019-02-23T15:43:01Z</time><pdop>7.585</pdop><geoidheight>0.00</geoidheight><course>110.2</course><type>1</type></trkpt>
      <trkpt lat="38.51133838" lon="-6.6092802"><ele>796</ele><speed>9.11</speed><time>2019-02-23T15:43:03Z</time><pdop>7.585</pdop><geoidheight>0.00</geoidheight><course>116.0</course><type>1</type></trkpt>
      <trkpt lat="38.51124729" lon="-6.60909063"><ele>798</ele><speed>9.84</speed><time>2019-02-23T15:43:05Z</time><pdop>7.585</pdop><geoidheight>0.00</geoidheight><course>121.0</course><type>1</type></trkpt>
      <trkpt lat="38.51115228" lon="-6.60889753"><ele>796</ele><speed>9.82</speed><time>2019-02-23T15:43:07Z</time><pdop>7.585</pdop><geoidheight>0.00</geoidheight><course>120.6</course><type>1</type></trkpt>
      <trkpt lat="38.51105084" lon="-6.60870285"><ele>795</ele><speed>10.39</speed><time>2019-02-23T15:43:09Z</time><pdop>9.101999</pdop><geoidheight>0.00</geoidheight><course>124.5</course><type>1</type></trkpt>
      <trkpt lat="38.51094809" lon="-6.60849845"><ele>794</ele><speed>11.01</speed><time>2019-02-23T15:43:11Z</time><pdop>9.101999</pdop><geoidheight>0.00</geoidheight><course>126.5</course><type>1</type></trkpt>
      <trkpt lat="38.51084265" lon="-6.60830131"><ele>794</ele><speed>10.69</speed><time>2019-02-23T15:43:13Z</time><pdop>10.6189995</pdop><geoidheight>0.00</geoidheight><course>123.1</course><type>1</type></trkpt>
      <trkpt lat="38.51074213" lon="-6.60811064"><ele>804</ele><speed>9.86</speed><time>2019-02-23T15:43:15Z</time><pdop>9.101999</pdop><geoidheight>0.00</geoidheight><course>123.3</course><type>1</type></trkpt>
      <trkpt lat="38.51066199" lon="-6.60791661"><ele>801</ele><speed>10.08</speed><time>2019-02-23T15:43:17Z</time><pdop>9.101999</pdop><geoidheight>0.00</geoidheight><course>119.6</course><type>1</type></trkpt>
      <trkpt lat="38.51054774" lon="-6.60774028"><ele>797</ele><speed>10.25</speed><time>2019-02-23T15:43:19Z</time><pdop>7.585</pdop><geoidheight>0.00</geoidheight><course>121.6</course><type>1</type></trkpt>
      <trkpt lat="38.51044971" lon="-6.60754997"><ele>805</ele><speed>10.55</speed><time>2019-02-23T15:43:21Z</time><pdop>6.068</pdop><geoidheight>0.00</geoidheight><course>120.9</course><type>1</type></trkpt>
      <trkpt lat="38.5103388" lon="-6.60737692"><ele>802</ele><speed>10.42</speed><time>2019-02-23T15:43:23Z</time><pdop>6.068</pdop><geoidheight>0.00</geoidheight><course>116.6</course><type>1</type></trkpt>
      <trkpt lat="38.51026144" lon="-6.60715904"><ele>801</ele><speed>10.18</speed><time>2019-02-23T15:43:25Z</time><pdop>6.068</pdop><geoidheight>0.00</geoidheight><course>115.1</course><type>1</type></trkpt>
      <trkpt lat="38.51019886" lon="-6.60695949"><ele>804</ele><speed>9.93</speed><time>2019-02-23T15:43:27Z</time><pdop>6.068</pdop><geoidheight>0.00</geoidheight><course>109.1</course><type>1</type></trkpt>
      <trkpt lat="38.51014545" lon="-6.6067376"><ele>808</ele><speed>9.90</speed><time>2019-02-23T15:43:29Z</time><pdop>9.101999</pdop><geoidheight>0.00</geoidheight><course>108.8</course><type>1</type></trkpt>
      <trkpt lat="38.51009321" lon="-6.60653914"><ele>816</ele><speed>7.63</speed><time>2019-02-23T15:43:31Z</time><pdop>6.068</pdop><geoidheight>0.00</geoidheight><course>104.6</course><type>1</type></trkpt>
      <trkpt lat="38.51014659" lon="-6.60642865"><ele>808</ele><speed>3.80</speed><time>2019-02-23T15:43:34Z</time><pdop>4.5509996</pdop><geoidheight>0.00</geoidheight><course>8.4</course><type>1</type></trkpt>
      <trkpt lat="38.51019168" lon="-6.60654183"><ele>819</ele><speed>4.00</speed><time>2019-02-23T15:43:37Z</time><pdop>4.5509996</pdop><geoidheight>0.00</geoidheight><course>279.9</course><type>1</type></trkpt>
      <trkpt lat="38.5101968" lon="-6.60667786"><ele>822</ele><speed>4.46</speed><time>2019-02-23T15:43:40Z</time><pdop>4.5509996</pdop><geoidheight>0.00</geoidheight><course>277.8</course><type>1</type></trkpt>
      <trkpt lat="38.51020387" lon="-6.60679098"><ele>823</ele><speed>4.57</speed><time>2019-02-23T15:43:42Z</time><pdop>4.5509996</pdop><geoidheight>0.00</geoidheight><course>280.8</course><type>1</type></trkpt>
      <trkpt lat="38.51021444" lon="-6.60688504"><ele>823</ele><speed>4.11</speed><time>2019-02-23T15:43:44Z</time><pdop>4.5509996</pdop><geoidheight>0.00</geoidheight><course>280.4</course><type>1</type></trkpt>
      <trkpt lat="38.51022252" lon="-6.60699524"><ele>822</ele><speed>5.47</speed><time>2019-02-23T15:43:46Z</time><pdop>4.5509996</pdop><geoidheight>0.00</geoidheight><course>278.8</course><type>1</type></trkpt>
      <trkpt lat="38.5102579" lon="-6.60711943"><ele>820</ele><speed>4.74</speed><time>2019-02-23T15:43:48Z</time><pdop>4.5509996</pdop><geoidheight>0.00</geoidheight><course>275.9</course><type>1</type></trkpt>
      <trkpt lat="38.51028124" lon="-6.6072856"><ele>818</ele><speed>4.85</speed><time>2019-02-23T15:43:51Z</time><pdop>6.068</pdop><geoidheight>0.00</geoidheight><course>282.5</course><type>1</type></trkpt>
      <trkpt lat="38.51030689" lon="-6.60745261"><ele>817</ele><speed>4.44</speed><time>2019-02-23T15:43:54Z</time><pdop>6.068</pdop><geoidheight>0.00</geoidheight><course>284.4</course><type>1</type></trkpt>
      <trkpt lat="38.51037284" lon="-6.60760909"><ele>785</ele><speed>4.47</speed><time>2019-02-23T15:43:58Z</time><pdop>6.068</pdop><geoidheight>0.00</geoidheight><course>284.1</course><type>1</type></trkpt>
      <trkpt lat="38.51040227" lon="-6.60774966"><ele>790</ele><speed>3.55</speed><time>2019-02-23T15:44:01Z</time><pdop>6.068</pdop><geoidheight>0.00</geoidheight><course>299.4</course><type>1</type></trkpt>
      <trkpt lat="38.51045126" lon="-6.60791393"><ele>806</ele><speed>5.01</speed><time>2019-02-23T15:44:05Z</time><pdop>7.585</pdop><geoidheight>0.00</geoidheight><course>278.7</course><type>1</type></trkpt>
      <trkpt lat="38.51044514" lon="-6.60807579"><ele>781</ele><speed>5.05</speed><time>2019-02-23T15:44:08Z</time><pdop>6.068</pdop><geoidheight>0.00</geoidheight><course>279.9</course><type>1</type></trkpt>
      <trkpt lat="38.51044537" lon="-6.60824385"><ele>798</ele><speed>4.86</speed><time>2019-02-23T15:44:11Z</time><pdop>6.068</pdop><geoidheight>0.00</geoidheight><course>273.0</course><type>1</type></trkpt>
      <trkpt lat="38.51046367" lon="-6.6084092"><ele>784</ele><speed>5.05</speed><time>2019-02-23T15:44:14Z</time><pdop>6.068</pdop><geoidheight>0.00</geoidheight><course>280.4</course><type>1</type></trkpt>
      <trkpt lat="38.51049707" lon="-6.60856551"><ele>794</ele><speed>4.25</speed><time>2019-02-23T15:44:17Z</time><pdop>6.068</pdop><geoidheight>0.00</geoidheight><course>278.3</course><type>1</type></trkpt>
      <trkpt lat="38.51051758" lon="-6.60871451"><ele>796</ele><speed>4.36</speed><time>2019-02-23T15:44:20Z</time><pdop>6.068</pdop><geoidheight>0.00</geoidheight><course>280.0</course><type>1</type></trkpt>
      <trkpt lat="38.51052691" lon="-6.60886503"><ele>785</ele><speed>4.21</speed><time>2019-02-23T15:44:23Z</time><pdop>6.068</pdop><geoidheight>0.00</geoidheight><course>282.3</course><type>1</type></trkpt>
      <trkpt lat="38.51055476" lon="-6.60902005"><ele>807</ele><speed>3.90</speed><time>2019-02-23T15:44:26Z</time><pdop>7.585</pdop><geoidheight>0.00</geoidheight><course>277.5</course><type>1</type></trkpt>
      <trkpt lat="38.51060508" lon="-6.60917686"><ele>809</ele><speed>3.20</speed><time>2019-02-23T15:44:30Z</time><pdop>7.585</pdop><geoidheight>0.00</geoidheight><course>296.6</course><type>1</type></trkpt>
      <trkpt lat="38.5106736" lon="-6.60932081"><ele>805</ele><speed>3.76</speed><time>2019-02-23T15:44:34Z</time><pdop>7.585</pdop><geoidheight>0.00</geoidheight><course>294.4</course><type>1</type></trkpt>
      <trkpt lat="38.51073964" lon="-6.60947021"><ele>789</ele><speed>2.99</speed><time>2019-02-23T15:44:38Z</time><pdop>6.068</pdop><geoidheight>0.00</geoidheight><course>293.9</course><type>1</type></trkpt>
      <trkpt lat="38.51079589" lon="-6.60960881"><ele>825</ele><speed>3.57</speed><time>2019-02-23T15:44:42Z</time><pdop>6.068</pdop><geoidheight>0.00</geoidheight><course>295.4</course><type>1</type></trkpt>
      <trkpt lat="38.51085763" lon="-6.60976077"><ele>794</ele><speed>3.79</speed><time>2019-02-23T15:44:46Z</time><pdop>6.068</pdop><geoidheight>0.00</geoidheight><course>287.1</course><type>1</type></trkpt>
      <trkpt lat="38.51090153" lon="-6.60989267"><ele>795</ele><speed>4.11</speed><time>2019-02-23T15:44:49Z</time><pdop>6.068</pdop><geoidheight>0.00</geoidheight><course>290.0</course><type>1</type></trkpt>
      <trkpt lat="38.51092808" lon="-6.61007522"><ele>795</ele><speed>4.55</speed><time>2019-02-23T15:44:53Z</time><pdop>6.068</pdop><geoidheight>0.00</geoidheight><course>269.5</course><type>1</type></trkpt>
      <trkpt lat="38.5109537" lon="-6.61021287"><ele>811</ele><speed>1.75</speed><time>2019-02-23T15:44:57Z</time><pdop>6.068</pdop><geoidheight>0.00</geoidheight><course>312.7</course><type>1</type></trkpt>
      <trkpt lat="38.51102664" lon="-6.61034095"><ele>813</ele><speed>2.83</speed><time>2019-02-23T15:45:02Z</time><pdop>7.585</pdop><geoidheight>0.00</geoidheight><course>293.7</course><type>1</type></trkpt>
      <trkpt lat="38.51110543" lon="-6.61049938"><ele>828</ele><speed>3.42</speed><time>2019-02-23T15:45:09Z</time><pdop>6.068</pdop><geoidheight>0.00</geoidheight><course>296.0</course><type>1</type></trkpt>
      <trkpt lat="38.51114695" lon="-6.61066281"><ele>792</ele><speed>2.75</speed><time>2019-02-23T15:45:14Z</time><pdop>7.585</pdop><geoidheight>0.00</geoidheight><course>309.1</course><type>1</type></trkpt>
      <trkpt lat="38.51129105" lon="-6.61072537"><ele>825</ele><speed>2.72</speed><time>2019-02-23T15:45:21Z</time><pdop>7.585</pdop><geoidheight>0.00</geoidheight><course>351.2</course><type>1</type></trkpt>
      <trkpt lat="38.51142009" lon="-6.61072143"><ele>807</ele><speed>3.02</speed><time>2019-02-23T15:45:27Z</time><pdop>7.585</pdop><geoidheight>0.00</geoidheight><course>32.2</course><type>1</type></trkpt>
      <trkpt lat="38.51139371" lon="-6.61052233"><ele>782</ele><speed>7.22</speed><time>2019-02-23T15:45:30Z</time><pdop>7.585</pdop><geoidheight>0.00</geoidheight><course>95.5</course><type>1</type></trkpt>
      <trkpt lat="38.51133842" lon="-6.61035496"><ele>782</ele><speed>9.04</speed><time>2019-02-23T15:45:32Z</time><pdop>7.585</pdop><geoidheight>0.00</geoidheight><course>113.9</course><type>1</type></trkpt>
      <trkpt lat="38.51124659" lon="-6.610177"><ele>794</ele><speed>10.37</speed><time>2019-02-23T15:45:34Z</time><pdop>7.585</pdop><geoidheight>0.00</geoidheight><course>128.3</course><type>1</type></trkpt>
      <trkpt lat="38.51111525" lon="-6.60999144"><ele>799</ele><speed>9.79</speed><time>2019-02-23T15:45:36Z</time><pdop>6.068</pdop><geoidheight>0.00</geoidheight><course>123.7</course><type>1</type></trkpt>
      <trkpt lat="38.51101519" lon="-6.60979813"><ele>787</ele><speed>9.51</speed><time>2019-02-23T15:45:38Z</time><pdop>7.585</pdop><geoidheight>0.00</geoidheight><course>115.5</course><type>1</type></trkpt>
      <trkpt lat="38.51093314" lon="-6.60962678"><ele>790</ele><speed>9.13</speed><time>2019-02-23T15:45:40Z</time><pdop>6.068</pdop><geoidheight>0.00</geoidheight><course>126.9</course><type>1</type></trkpt>
      <trkpt lat="38.51081591" lon="-6.60944732"><ele>801</ele><speed>10.75</speed><time>2019-02-23T15:45:42Z</time><pdop>6.068</pdop><geoidheight>0.00</geoidheight><course>118.5</course><type>1</type></trkpt>
      <trkpt lat="38.51075826" lon="-6.6092402"><ele>820</ele><speed>8.84</speed><time>2019-02-23T15:45:44Z</time><pdop>4.5509996</pdop><geoidheight>0.00</geoidheight><course>102.9</course><type>1</type></trkpt>
      <trkpt lat="38.51074608" lon="-6.60907403"><ele>824</ele><speed>6.18</speed><time>2019-02-23T15:45:46Z</time><pdop>6.068</pdop><geoidheight>0.00</geoidheight><course>97.8</course><type>1</type></trkpt>
      <trkpt lat="38.51079292" lon="-6.60892669"><ele>810</ele><speed>3.37</speed><time>2019-02-23T15:45:49Z</time><pdop>6.068</pdop><geoidheight>0.00</geoidheight><course>25.1</course><type>1</type></trkpt>
      <trkpt lat="38.51088467" lon="-6.60907381"><ele>798</ele><speed>3.73</speed><time>2019-02-23T15:45:54Z</time><pdop>6.068</pdop><geoidheight>0.00</geoidheight><course>268.6</course><type>1</type></trkpt>
      <trkpt lat="38.5109436" lon="-6.60926057"><ele>810</ele><speed>5.98</speed><time>2019-02-23T15:45:57Z</time><pdop>6.068</pdop><geoidheight>0.00</geoidheight><course>279.2</course><type>1</type></trkpt>
      <trkpt lat="38.51091047" lon="-6.6094431"><ele>783</ele><speed>5.64</speed><time>2019-02-23T15:46:00Z</time><pdop>6.068</pdop><geoidheight>0.00</geoidheight><course>254.4</course><type>1</type></trkpt>
      <trkpt lat="38.51087592" lon="-6.60957537"><ele>782</ele><speed>5.92</speed><time>2019-02-23T15:46:02Z</time><pdop>6.068</pdop><geoidheight>0.00</geoidheight><course>265.2</course><type>1</type></trkpt>
      <trkpt lat="38.5108927" lon="-6.60978644"><ele>792</ele><speed>5.67</speed><time>2019-02-23T15:46:05Z</time><pdop>6.068</pdop><geoidheight>0.00</geoidheight><course>268.1</course><type>1</type></trkpt>
      <trkpt lat="38.51087237" lon="-6.60997053"><ele>810</ele><speed>4.91</speed><time>2019-02-23T15:46:08Z</time><pdop>6.068</pdop><geoidheight>0.00</geoidheight><course>272.0</course><type>1</type></trkpt>
      <trkpt lat="38.51090352" lon="-6.61010462"><ele>808</ele><speed>5.48</speed><time>2019-02-23T15:46:11Z</time><pdop>6.068</pdop><geoidheight>0.00</geoidheight><course>279.9</course><type>1</type></trkpt>
      <trkpt lat="38.51090867" lon="-6.61027615"><ele>782</ele><speed>4.44</speed><time>2019-02-23T15:46:14Z</time><pdop>7.585</pdop><geoidheight>0.00</geoidheight><course>273.3</course><type>1</type></trkpt>
      <trkpt lat="38.51093932" lon="-6.61045428"><ele>809</ele><speed>3.35</speed><time>2019-02-23T15:46:18Z</time><pdop>7.585</pdop><geoidheight>0.00</geoidheight><course>289.5</course><type>1</type></trkpt>
      <trkpt lat="38.51102045" lon="-6.61059309"><ele>778</ele><speed>4.06</speed><time>2019-02-23T15:46:23Z</time><pdop>7.585</pdop><geoidheight>0.00</geoidheight><course>298.9</course><type>1</type></trkpt>
      <trkpt lat="38.51106877" lon="-6.61076954"><ele>791</ele><speed>3.75</speed><time>2019-02-23T15:46:28Z</time><pdop>7.585</pdop><geoidheight>0.00</geoidheight><course>296.3</course><type>1</type></trkpt>
      <trkpt lat="38.51115222" lon="-6.61093103"><ele>807</ele><speed>3.03</speed><time>2019-02-23T15:46:33Z</time><pdop>7.585</pdop><geoidheight>0.00</geoidheight><course>303.8</course><type>1</type></trkpt>
      <trkpt lat="38.51128483" lon="-6.61096945"><ele>796</ele><speed>1.64</speed><time>2019-02-23T15:46:39Z</time><pdop>7.585</pdop><geoidheight>0.00</geoidheight><course>37.9</course><type>1</type></trkpt>
      <trkpt lat="38.51141571" lon="-6.6109133"><ele>791</ele><speed>2.61</speed><time>2019-02-23T15:46:45Z</time><pdop>6.068</pdop><geoidheight>0.00</geoidheight><course>331.4</course><type>1</type></trkpt>
      <trkpt lat="38.5115299" lon="-6.61104284"><ele>825</ele><speed>5.02</speed><time>2019-02-23T15:46:50Z</time><pdop>6.068</pdop><geoidheight>0.00</geoidheight><course>289.6</course><type>1</type></trkpt>
      <trkpt lat="38.51152624" lon="-6.61120471"><ele>821</ele><speed>4.45</speed><time>2019-02-23T15:46:53Z</time><pdop>7.585</pdop><geoidheight>0.00</geoidheight><course>280.6</course><type>1</type></trkpt>
      <trkpt lat="38.51155261" lon="-6.61138913"><ele>827</ele><speed>5.95</speed><time>2019-02-23T15:46:56Z</time><pdop>7.585</pdop><geoidheight>0.00</geoidheight><course>274.7</course><type>1</type></trkpt>
      <trkpt lat="38.51153655" lon="-6.61157814"><ele>833</ele><speed>4.19</speed><time>2019-02-23T15:46:59Z</time><pdop>7.585</pdop><geoidheight>0.00</geoidheight><course>257.5</course><type>1</type></trkpt>
      <trkpt lat="38.51156149" lon="-6.61173869"><ele>826</ele><speed>3.52</speed><time>2019-02-23T15:47:03Z</time><pdop>7.585</pdop><geoidheight>0.00</geoidheight><course>283.7</course><type>1</type></trkpt>
      <trkpt lat="38.51163216" lon="-6.61189278"><ele>822</ele><speed>2.95</speed><time>2019-02-23T15:47:08Z</time><pdop>7.585</pdop><geoidheight>0.00</geoidheight><course>310.3</course><type>1</type></trkpt>
      <trkpt lat="38.51171757" lon="-6.61201135"><ele>835</ele><speed>2.47</speed><time>2019-02-23T15:47:13Z</time><pdop>7.585</pdop><geoidheight>0.00</geoidheight><course>308.5</course><type>1</type></trkpt>
      <trkpt lat="38.51182379" lon="-6.61211596"><ele>821</ele><speed>2.67</speed><time>2019-02-23T15:47:19Z</time><pdop>6.068</pdop><geoidheight>0.00</geoidheight><course>315.3</course><type>1</type></trkpt>
      <trkpt lat="38.51190045" lon="-6.61223825"><ele>830</ele><speed>3.18</speed><time>2019-02-23T15:47:23Z</time><pdop>6.068</pdop><geoidheight>0.00</geoidheight><course>292.0</course><type>1</type></trkpt>
      <trkpt lat="38.51194379" lon="-6.61238313"><ele>830</ele><speed>2.50</speed><time>2019-02-23T15:47:28Z</time><pdop>7.585</pdop><geoidheight>0.00</geoidheight><course>304.7</course><type>1</type></trkpt>
      <trkpt lat="38.51202909" lon="-6.61252194"><ele>836</ele><speed>2.00</speed><time>2019-02-23T15:47:34Z</time><pdop>7.585</pdop><geoidheight>0.00</geoidheight><course>305.8</course><type>1</type></trkpt>
      <trkpt lat="38.51213633" lon="-6.61262582"><ele>848</ele><speed>1.80</speed><time>2019-02-23T15:47:41Z</time><pdop>7.585</pdop><geoidheight>0.00</geoidheight><course>327.8</course><type>1</type></trkpt>
      <trkpt lat="38.51224028" lon="-6.61274318"><ele>853</ele><speed>1.98</speed><time>2019-02-23T15:47:47Z</time><pdop>7.585</pdop><geoidheight>0.00</geoidheight><course>303.3</course><type>1</type></trkpt>
      <trkpt lat="38.51230162" lon="-6.61291305"><ele>857</ele><speed>2.40</speed><time>2019-02-23T15:47:54Z</time><pdop>6.068</pdop><geoidheight>0.00</geoidheight><course>288.5</course><type>1</type></trkpt>
      <trkpt lat="38.51234243" lon="-6.61304695"><ele>851</ele><speed>1.91</speed><time>2019-02-23T15:48:00Z</time><pdop>6.068</pdop><geoidheight>0.00</geoidheight><course>313.2</course><type>1</type></trkpt>
      <trkpt lat="38.51242881" lon="-6.6131512"><ele>857</ele><speed>1.93</speed><time>2019-02-23T15:48:06Z</time><pdop>6.068</pdop><geoidheight>0.00</geoidheight><course>321.5</course><type>1</type></trkpt>
      <trkpt lat="38.51255257" lon="-6.61320165"><ele>846</ele><speed>2.95</speed><time>2019-02-23T15:48:12Z</time><pdop>6.068</pdop><geoidheight>0.00</geoidheight><course>352.4</course><type>1</type></trkpt>
      <trkpt lat="38.51266398" lon="-6.61317446"><ele>853</ele><speed>2.28</speed><time>2019-02-23T15:48:18Z</time><pdop>6.068</pdop><geoidheight>0.00</geoidheight><course>326.4</course><type>1</type></trkpt>
      <trkpt lat="38.51272408" lon="-6.61331879"><ele>855</ele><speed>3.83</speed><time>2019-02-23T15:48:23Z</time><pdop>6.068</pdop><geoidheight>0.00</geoidheight><course>288.4</course><type>1</type></trkpt>
      <trkpt lat="38.51274348" lon="-6.61347271"><ele>856</ele><speed>4.59</speed><time>2019-02-23T15:48:26Z</time><pdop>6.068</pdop><geoidheight>0.00</geoidheight><course>280.3</course><type>1</type></trkpt>
      <trkpt lat="38.51276353" lon="-6.61362458"><ele>855</ele><speed>4.39</speed><time>2019-02-23T15:48:29Z</time><pdop>6.068</pdop><geoidheight>0.00</geoidheight><course>276.6</course><type>1</type></trkpt>
      <trkpt lat="38.51277285" lon="-6.61376244"><ele>855</ele><speed>3.69</speed><time>2019-02-23T15:48:32Z</time><pdop>6.068</pdop><geoidheight>0.00</geoidheight><course>277.3</course><type>1</type></trkpt>
      <trkpt lat="38.51279881" lon="-6.61392177"><ele>856</ele><speed>3.01</speed><time>2019-02-23T15:48:37Z</time><pdop>6.068</pdop><geoidheight>0.00</geoidheight><course>298.8</course><type>1</type></trkpt>
      <trkpt lat="38.51286051" lon="-6.61407581"><ele>852</ele><speed>3.37</speed><time>2019-02-23T15:48:42Z</time><pdop>6.068</pdop><geoidheight>0.00</geoidheight><course>297.8</course><type>1</type></trkpt>
      <trkpt lat="38.51290184" lon="-6.61421388"><ele>851</ele><speed>2.42</speed><time>2019-02-23T15:48:46Z</time><pdop>6.068</pdop><geoidheight>0.00</geoidheight><course>284.2</course><type>1</type></trkpt>
      <trkpt lat="38.51296405" lon="-6.61434893"><ele>847</ele><speed>4.07</speed><time>2019-02-23T15:48:50Z</time><pdop>4.5509996</pdop><geoidheight>0.00</geoidheight><course>305.8</course><type>1</type></trkpt>
      <trkpt lat="38.51300558" lon="-6.61446334"><ele>843</ele><speed>3.27</speed><time>2019-02-23T15:48:53Z</time><pdop>6.068</pdop><geoidheight>0.00</geoidheight><course>289.8</course><type>1</type></trkpt>
      <trkpt lat="38.51311995" lon="-6.61454344"><ele>837</ele><speed>3.75</speed><time>2019-02-23T15:48:59Z</time><pdop>6.068</pdop><geoidheight>0.00</geoidheight><course>0.2</course><type>1</type></trkpt>
      <trkpt lat="38.51322759" lon="-6.61456424"><ele>832</ele><speed>2.49</speed><time>2019-02-23T15:49:03Z</time><pdop>4.5509996</pdop><geoidheight>0.00</geoidheight><course>351.3</course><type>1</type></trkpt>
      <trkpt lat="38.51334185" lon="-6.61458674"><ele>832</ele><speed>3.28</speed><time>2019-02-23T15:49:07Z</time><pdop>6.068</pdop><geoidheight>0.00</geoidheight><course>352.1</course><type>1</type></trkpt>
      <trkpt lat="38.51344636" lon="-6.61462243"><ele>831</ele><speed>4.41</speed><time>2019-02-23T15:49:12Z</time><pdop>6.068</pdop><geoidheight>0.00</geoidheight><course>341.7</course><type>1</type></trkpt>
      <trkpt lat="38.513555" lon="-6.61469818"><ele>831</ele><speed>1.71</speed><time>2019-02-23T15:49:16Z</time><pdop>6.068</pdop><geoidheight>0.00</geoidheight><course>347.9</course><type>1</type></trkpt>
      <trkpt lat="38.51363698" lon="-6.61484"><ele>822</ele><speed>4.13</speed><time>2019-02-23T15:49:22Z</time><pdop>6.068</pdop><geoidheight>0.00</geoidheight><course>285.0</course><type>1</type></trkpt>
      <trkpt lat="38.51360733" lon="-6.61502027"><ele>823</ele><speed>5.31</speed><time>2019-02-23T15:49:25Z</time><pdop>6.068</pdop><geoidheight>0.00</geoidheight><course>274.1</course><type>1</type></trkpt>
      <trkpt lat="38.51360376" lon="-6.61517048"><ele>820</ele><speed>5.07</speed><time>2019-02-23T15:49:28Z</time><pdop>6.068</pdop><geoidheight>0.00</geoidheight><course>266.8</course><type>1</type></trkpt>
      <trkpt lat="38.51359125" lon="-6.61531254"><ele>818</ele><speed>5.90</speed><time>2019-02-23T15:49:30Z</time><pdop>6.068</pdop><geoidheight>0.00</geoidheight><course>269.6</course><type>1</type></trkpt>
      <trkpt lat="38.51358581" lon="-6.61552138"><ele>822</ele><speed>5.86</speed><time>2019-02-23T15:49:33Z</time><pdop>7.585</pdop><geoidheight>0.00</geoidheight><course>263.8</course><type>1</type></trkpt>
      <trkpt lat="38.51356449" lon="-6.61572559"><ele>821</ele><speed>5.35</speed><time>2019-02-23T15:49:36Z</time><pdop>7.585</pdop><geoidheight>0.00</geoidheight><course>263.6</course><type>1</type></trkpt>
      <trkpt lat="38.51357414" lon="-6.61589275"><ele>822</ele><speed>3.63</speed><time>2019-02-23T15:49:39Z</time><pdop>7.585</pdop><geoidheight>0.00</geoidheight><course>293.2</course><type>1</type></trkpt>
      <trkpt lat="38.51362202" lon="-6.61605547"><ele>818</ele><speed>2.99</speed><time>2019-02-23T15:49:44Z</time><pdop>7.585</pdop><geoidheight>0.00</geoidheight><course>306.9</course><type>1</type></trkpt>
      <trkpt lat="38.51373624" lon="-6.61615202"><ele>818</ele><speed>3.09</speed><time>2019-02-23T15:49:51Z</time><pdop>7.585</pdop><geoidheight>0.00</geoidheight><course>347.1</course><type>1</type></trkpt>
      <trkpt lat="38.51387303" lon="-6.6161309"><ele>818</ele><speed>3.47</speed><time>2019-02-23T15:49:57Z</time><pdop>6.068</pdop><geoidheight>0.00</geoidheight><course>11.1</course><type>1</type></trkpt>
      <trkpt lat="38.51399397" lon="-6.61606923"><ele>818</ele><speed>3.11</speed><time>2019-02-23T15:50:02Z</time><pdop>6.068</pdop><geoidheight>0.00</geoidheight><course>10.3</course><type>1</type></trkpt>
      <trkpt lat="38.5141042" lon="-6.61607132"><ele>816</ele><speed>1.96</speed><time>2019-02-23T15:50:06Z</time><pdop>6.068</pdop><geoidheight>0.00</geoidheight><course>347.4</course><type>1</type></trkpt>
      <trkpt lat="38.51413261" lon="-6.61624626"><ele>814</ele><speed>7.26</speed><time>2019-02-23T15:50:11Z</time><pdop>6.068</pdop><geoidheight>0.00</geoidheight><course>244.3</course><type>1</type></trkpt>
      <trkpt lat="38.51402708" lon="-6.61640259"><ele>813</ele><speed>8.52</speed><time>2019-02-23T15:50:13Z</time><pdop>6.068</pdop><geoidheight>0.00</geoidheight><course>228.8</course><type>1</type></trkpt>
      <trkpt lat="38.51393241" lon="-6.61653631"><ele>813</ele><speed>8.18</speed><time>2019-02-23T15:50:15Z</time><pdop>6.068</pdop><geoidheight>0.00</geoidheight><course>230.8</course><type>1</type></trkpt>
      <trkpt lat="38.51386629" lon="-6.61667079"><ele>811</ele><speed>7.61</speed><time>2019-02-23T15:50:17Z</time><pdop>7.585</pdop><geoidheight>0.00</geoidheight><course>241.1</course><type>1</type></trkpt>
      <trkpt lat="38.51384179" lon="-6.61684715"><ele>811</ele><speed>3.35</speed><time>2019-02-23T15:50:20Z</time><pdop>7.585</pdop><geoidheight>0.00</geoidheight><course>308.8</course><type>1</type></trkpt>
      <trkpt lat="38.51394497" lon="-6.61694434"><ele>809</ele><speed>2.85</speed><time>2019-02-23T15:50:24Z</time><pdop>7.585</pdop><geoidheight>0.00</geoidheight><course>320.6</course><type>1</type></trkpt>
      <trkpt lat="38.51406991" lon="-6.61699894"><ele>806</ele><speed>2.58</speed><time>2019-02-23T15:50:28Z</time><pdop>7.585</pdop><geoidheight>0.00</geoidheight><course>352.1</course><type>1</type></trkpt>
      <trkpt lat="38.51418525" lon="-6.61707401"><ele>809</ele><speed>2.90</speed><time>2019-02-23T15:50:33Z</time><pdop>7.585</pdop><geoidheight>0.00</geoidheight><course>328.0</course><type>1</type></trkpt>
      <trkpt lat="38.51427382" lon="-6.61719832"><ele>809</ele><speed>3.79</speed><time>2019-02-23T15:50:38Z</time><pdop>7.585</pdop><geoidheight>0.00</geoidheight><course>289.3</course><type>1</type></trkpt>
      <trkpt lat="38.51428895" lon="-6.6173649"><ele>805</ele><speed>4.23</speed><time>2019-02-23T15:50:42Z</time><pdop>7.585</pdop><geoidheight>0.00</geoidheight><course>270.7</course><type>1</type></trkpt>
      <trkpt lat="38.51427422" lon="-6.6175645"><ele>805</ele><speed>3.46</speed><time>2019-02-23T15:50:46Z</time><pdop>9.101999</pdop><geoidheight>0.00</geoidheight><course>268.9</course><type>1</type></trkpt>
      <trkpt lat="38.51428815" lon="-6.61775263"><ele>807</ele><speed>3.20</speed><time>2019-02-23T15:50:51Z</time><pdop>7.585</pdop><geoidheight>0.00</geoidheight><course>288.8</course><type>1</type></trkpt>
      <trkpt lat="38.51438623" lon="-6.61786824"><ele>802</ele><speed>1.98</speed><time>2019-02-23T15:50:57Z</time><pdop>7.585</pdop><geoidheight>0.00</geoidheight><course>347.9</course><type>1</type></trkpt>
      <trkpt lat="38.51444402" lon="-6.61767759"><ele>805</ele><speed>7.04</speed><time>2019-02-23T15:51:02Z</time><pdop>7.585</pdop><geoidheight>0.00</geoidheight><course>92.9</course><type>1</type></trkpt>
      <trkpt lat="38.5143929" lon="-6.61746826"><ele>801</ele><speed>10.63</speed><time>2019-02-23T15:51:04Z</time><pdop>7.585</pdop><geoidheight>0.00</geoidheight><course>111.6</course><type>1</type></trkpt>
      <trkpt lat="38.51430209" lon="-6.61724156"><ele>803</ele><speed>10.71</speed><time>2019-02-23T15:51:06Z</time><pdop>7.585</pdop><geoidheight>0.00</geoidheight><course>123.3</course><type>1</type></trkpt>
      <trkpt lat="38.51418105" lon="-6.61703567"><ele>801</ele><speed>11.61</speed><time>2019-02-23T15:51:08Z</time><pdop>7.585</pdop><geoidheight>0.00</geoidheight><course>126.1</course><type>1</type></trkpt>
      <trkpt lat="38.51405967" lon="-6.61682153"><ele>785</ele><speed>11.83</speed><time>2019-02-23T15:51:10Z</time><pdop>7.585</pdop><geoidheight>0.00</geoidheight><course>122.9</course><type>1</type></trkpt>
      <trkpt lat="38.51395121" lon="-6.61658961"><ele>787</ele><speed>11.56</speed><time>2019-02-23T15:51:12Z</time><pdop>7.585</pdop><geoidheight>0.00</geoidheight><course>122.7</course><type>1</type></trkpt>
      <trkpt lat="38.51384643" lon="-6.61636746"><ele>786</ele><speed>11.46</speed><time>2019-02-23T15:51:14Z</time><pdop>7.585</pdop><geoidheight>0.00</geoidheight><course>120.8</course><type>1</type></trkpt>
      <trkpt lat="38.51373728" lon="-6.61613653"><ele>788</ele><speed>11.15</speed><time>2019-02-23T15:51:16Z</time><pdop>7.585</pdop><geoidheight>0.00</geoidheight><course>119.0</course><type>1</type></trkpt>
      <trkpt lat="38.51362714" lon="-6.61591299"><ele>787</ele><speed>10.87</speed><time>2019-02-23T15:51:18Z</time><pdop>7.585</pdop><geoidheight>0.00</geoidheight><course>119.0</course><type>1</type></trkpt>
      <trkpt lat="38.51351274" lon="-6.61568837"><ele>786</ele><speed>10.65</speed><time>2019-02-23T15:51:20Z</time><pdop>7.585</pdop><geoidheight>0.00</geoidheight><course>120.8</course><type>1</type></trkpt>
      <trkpt lat="38.51341891" lon="-6.61549831"><ele>786</ele><speed>10.92</speed><time>2019-02-23T15:51:22Z</time><pdop>6.068</pdop><geoidheight>0.00</geoidheight><course>119.7</course><type>1</type></trkpt>
      <trkpt lat="38.51333843" lon="-6.61527481"><ele>787</ele><speed>10.26</speed><time>2019-02-23T15:51:24Z</time><pdop>7.585</pdop><geoidheight>0.00</geoidheight><course>114.9</course><type>1</type></trkpt>
      <trkpt lat="38.513267" lon="-6.61505537"><ele>789</ele><speed>9.48</speed><time>2019-02-23T15:51:26Z</time><pdop>7.585</pdop><geoidheight>0.00</geoidheight><course>115.7</course><type>1</type></trkpt>
      <trkpt lat="38.51317825" lon="-6.6148784"><ele>787</ele><speed>9.58</speed><time>2019-02-23T15:51:28Z</time><pdop>7.585</pdop><geoidheight>0.00</geoidheight><course>116.4</course><type>1</type></trkpt>
      <trkpt lat="38.51311058" lon="-6.61466786"><ele>789</ele><speed>10.08</speed><time>2019-02-23T15:51:30Z</time><pdop>7.585</pdop><geoidheight>0.00</geoidheight><course>111.1</course><type>1</type></trkpt>
      <trkpt lat="38.51302979" lon="-6.61443946"><ele>794</ele><speed>9.82</speed><time>2019-02-23T15:51:32Z</time><pdop>6.068</pdop><geoidheight>0.00</geoidheight><course>112.9</course><type>1</type></trkpt>
      <trkpt lat="38.5129505" lon="-6.61422748"><ele>793</ele><speed>9.53</speed><time>2019-02-23T15:51:34Z</time><pdop>6.068</pdop><geoidheight>0.00</geoidheight><course>119.6</course><type>1</type></trkpt>
      <trkpt lat="38.5128731" lon="-6.61405553"><ele>798</ele><speed>9.47</speed><time>2019-02-23T15:51:36Z</time><pdop>6.068</pdop><geoidheight>0.00</geoidheight><course>119.6</course><type>1</type></trkpt>
      <trkpt lat="38.51280001" lon="-6.61386014"><ele>793</ele><speed>9.39</speed><time>2019-02-23T15:51:38Z</time><pdop>6.068</pdop><geoidheight>0.00</geoidheight><course>116.5</course><type>1</type></trkpt>
      <trkpt lat="38.51272303" lon="-6.61365677"><ele>794</ele><speed>9.70</speed><time>2019-02-23T15:51:40Z</time><pdop>6.068</pdop><geoidheight>0.00</geoidheight><course>114.9</course><type>1</type></trkpt>
      <trkpt lat="38.51264442" lon="-6.61346141"><ele>797</ele><speed>9.25</speed><time>2019-02-23T15:51:42Z</time><pdop>6.068</pdop><geoidheight>0.00</geoidheight><course>116.7</course><type>1</type></trkpt>
      <trkpt lat="38.51255046" lon="-6.61324939"><ele>795</ele><speed>10.19</speed><time>2019-02-23T15:51:44Z</time><pdop>6.068</pdop><geoidheight>0.00</geoidheight><course>115.5</course><type>1</type></trkpt>
      <trkpt lat="38.51247178" lon="-6.61302878"><ele>796</ele><speed>9.93</speed><time>2019-02-23T15:51:46Z</time><pdop>6.068</pdop><geoidheight>0.00</geoidheight><course>116.7</course><type>1</type></trkpt>
      <trkpt lat="38.51240788" lon="-6.61282968"><ele>801</ele><speed>9.55</speed><time>2019-02-23T15:51:48Z</time><pdop>6.068</pdop><geoidheight>0.00</geoidheight><course>115.1</course><type>1</type></trkpt>
      <trkpt lat="38.51236134" lon="-6.61261362"><ele>803</ele><speed>10.17</speed><time>2019-02-23T15:51:50Z</time><pdop>6.068</pdop><geoidheight>0.00</geoidheight><course>113.5</course><type>1</type></trkpt>
      <trkpt lat="38.51228015" lon="-6.61239084"><ele>806</ele><speed>10.15</speed><time>2019-02-23T15:51:52Z</time><pdop>7.585</pdop><geoidheight>0.00</geoidheight><course>116.4</course><type>1</type></trkpt>
      <trkpt lat="38.51219523" lon="-6.61218147"><ele>797</ele><speed>9.77</speed><time>2019-02-23T15:51:54Z</time><pdop>7.585</pdop><geoidheight>0.00</geoidheight><course>117.1</course><type>1</type></trkpt>
      <trkpt lat="38.51211164" lon="-6.61198476"><ele>799</ele><speed>10.22</speed><time>2019-02-23T15:51:56Z</time><pdop>7.585</pdop><geoidheight>0.00</geoidheight><course>115.9</course><type>1</type></trkpt>
      <trkpt lat="38.51203673" lon="-6.61177112"><ele>795</ele><speed>10.22</speed><time>2019-02-23T15:51:58Z</time><pdop>7.585</pdop><geoidheight>0.00</geoidheight><course>116.2</course><type>1</type></trkpt>
      <trkpt lat="38.51192557" lon="-6.61157102"><ele>798</ele><speed>10.60</speed><time>2019-02-23T15:52:00Z</time><pdop>6.068</pdop><geoidheight>0.00</geoidheight><course>119.2</course><type>1</type></trkpt>
      <trkpt lat="38.51183833" lon="-6.61134939"><ele>798</ele><speed>11.31</speed><time>2019-02-23T15:52:02Z</time><pdop>6.068</pdop><geoidheight>0.00</geoidheight><course>115.5</course><type>1</type></trkpt>
      <trkpt lat="38.51176581" lon="-6.61112206"><ele>797</ele><speed>11.14</speed><time>2019-02-23T15:52:04Z</time><pdop>6.068</pdop><geoidheight>0.00</geoidheight><course>115.4</course><type>1</type></trkpt>
      <trkpt lat="38.51165838" lon="-6.61091328"><ele>798</ele><speed>11.13</speed><time>2019-02-23T15:52:06Z</time><pdop>6.068</pdop><geoidheight>0.00</geoidheight><course>124.6</course><type>1</type></trkpt>
      <trkpt lat="38.51153974" lon="-6.61069666"><ele>797</ele><speed>11.00</speed><time>2019-02-23T15:52:08Z</time><pdop>6.068</pdop><geoidheight>0.00</geoidheight><course>127.1</course><type>1</type></trkpt>
      <trkpt lat="38.51144032" lon="-6.61050672"><ele>798</ele><speed>10.12</speed><time>2019-02-23T15:52:10Z</time><pdop>6.068</pdop><geoidheight>0.00</geoidheight><course>119.2</course><type>1</type></trkpt>
      <trkpt lat="38.51131936" lon="-6.61032785"><ele>797</ele><speed>11.23</speed><time>2019-02-23T15:52:12Z</time><pdop>6.068</pdop><geoidheight>0.00</geoidheight><course>125.0</course><type>1</type></trkpt>
      <trkpt lat="38.51120584" lon="-6.61011089"><ele>799</ele><speed>11.20</speed><time>2019-02-23T15:52:14Z</time><pdop>6.068</pdop><geoidheight>0.00</geoidheight><course>119.1</course><type>1</type></trkpt>
      <trkpt lat="38.51111962" lon="-6.60989499"><ele>779</ele><speed>9.52</speed><time>2019-02-23T15:52:16Z</time><pdop>7.585</pdop><geoidheight>0.00</geoidheight><course>112.2</course><type>1</type></trkpt>
      <trkpt lat="38.51104048" lon="-6.60969933"><ele>795</ele><speed>10.31</speed><time>2019-02-23T15:52:18Z</time><pdop>6.068</pdop><geoidheight>0.00</geoidheight><course>118.9</course><type>1</type></trkpt>
      <trkpt lat="38.51095944" lon="-6.60950006"><ele>804</ele><speed>10.31</speed><time>2019-02-23T15:52:20Z</time><pdop>6.068</pdop><geoidheight>0.00</geoidheight><course>116.3</course><type>1</type></trkpt>
      <trkpt lat="38.5109066" lon="-6.60928766"><ele>791</ele><speed>9.27</speed><time>2019-02-23T15:52:22Z</time><pdop>6.068</pdop><geoidheight>0.00</geoidheight><course>111.1</course><type>1</type></trkpt>
      <trkpt lat="38.51083939" lon="-6.60908992"><ele>784</ele><speed>9.48</speed><time>2019-02-23T15:52:24Z</time><pdop>6.068</pdop><geoidheight>0.00</geoidheight><course>111.7</course><type>1</type></trkpt>
      <trkpt lat="38.51080003" lon="-6.60888744"><ele>794</ele><speed>8.13</speed><time>2019-02-23T15:52:26Z</time><pdop>6.068</pdop><geoidheight>0.00</geoidheight><course>103.9</course><type>1</type></trkpt>
      <trkpt lat="38.51079076" lon="-6.60871213"><ele>796</ele><speed>6.35</speed><time>2019-02-23T15:52:28Z</time><pdop>6.068</pdop><geoidheight>0.00</geoidheight><course>88.7</course><type>1</type></trkpt>
      <trkpt lat="38.51083218" lon="-6.60857646"><ele>813</ele><speed>2.74</speed><time>2019-02-23T15:52:31Z</time><pdop>6.068</pdop><geoidheight>0.00</geoidheight><course>40.6</course><type>1</type></trkpt>
      <trkpt lat="38.51095458" lon="-6.60858323"><ele>828</ele><speed>1.88</speed><time>2019-02-23T15:52:37Z</time><pdop>6.068</pdop><geoidheight>0.00</geoidheight><course>0.0</course><type>1</type></trkpt>
      <trkpt lat="38.5110728" lon="-6.6086109"><ele>828</ele><speed>1.82</speed><time>2019-02-23T15:52:42Z</time><pdop>7.585</pdop><geoidheight>0.00</geoidheight><course>347.8</course><type>1</type></trkpt>
      <trkpt lat="38.51117062" lon="-6.60874145"><ele>832</ele><speed>2.62</speed><time>2019-02-23T15:52:49Z</time><pdop>7.585</pdop><geoidheight>0.00</geoidheight><course>280.1</course><type>1</type></trkpt>
      <trkpt lat="38.51116749" lon="-6.60891448"><ele>809</ele><speed>3.98</speed><time>2019-02-23T15:52:53Z</time><pdop>7.585</pdop><geoidheight>0.00</geoidheight><course>265.5</course><type>1</type></trkpt>
      <trkpt lat="38.51117088" lon="-6.60907731"><ele>824</ele><speed>3.35</speed><time>2019-02-23T15:52:57Z</time><pdop>7.585</pdop><geoidheight>0.00</geoidheight><course>276.2</course><type>1</type></trkpt>
      <trkpt lat="38.51120758" lon="-6.60925054"><ele>811</ele><speed>3.16</speed><time>2019-02-23T15:53:01Z</time><pdop>7.585</pdop><geoidheight>0.00</geoidheight><course>276.9</course><type>1</type></trkpt>
      <trkpt lat="38.51125419" lon="-6.60940329"><ele>787</ele><speed>2.79</speed><time>2019-02-23T15:53:06Z</time><pdop>6.068</pdop><geoidheight>0.00</geoidheight><course>299.8</course><type>1</type></trkpt>
      <trkpt lat="38.51136809" lon="-6.60942444"><ele>808</ele><speed>2.60</speed><time>2019-02-23T15:53:13Z</time><pdop>6.068</pdop><geoidheight>0.00</geoidheight><course>52.5</course><type>1</type></trkpt>
      <trkpt lat="38.51139036" lon="-6.60923242"><ele>824</ele><speed>5.67</speed><time>2019-02-23T15:53:17Z</time><pdop>6.068</pdop><geoidheight>0.00</geoidheight><course>83.0</course><type>1</type></trkpt>
      <trkpt lat="38.51137422" lon="-6.60907855"><ele>830</ele><speed>7.30</speed><time>2019-02-23T15:53:19Z</time><pdop>6.068</pdop><geoidheight>0.00</geoidheight><course>101.4</course><type>1</type></trkpt>
      <trkpt lat="38.51131589" lon="-6.60888693"><ele>832</ele><speed>9.48</speed><time>2019-02-23T15:53:21Z</time><pdop>7.585</pdop><geoidheight>0.00</geoidheight><course>114.7</course><type>1</type></trkpt>
      <trkpt lat="38.51118463" lon="-6.60868619"><ele>834</ele><speed>11.20</speed><time>2019-02-23T15:53:23Z</time><pdop>7.585</pdop><geoidheight>0.00</geoidheight><course>125.7</course><type>1</type></trkpt>
      <trkpt lat="38.51102799" lon="-6.60849216"><ele>837</ele><speed>11.46</speed><time>2019-02-23T15:53:25Z</time><pdop>6.068</pdop><geoidheight>0.00</geoidheight><course>133.0</course><type>1</type></trkpt>
      <trkpt lat="38.51088883" lon="-6.60829697"><ele>839</ele><speed>11.82</speed><time>2019-02-23T15:53:27Z</time><pdop>6.068</pdop><geoidheight>0.00</geoidheight><course>128.4</course><type>1</type></trkpt>
      <trkpt lat="38.51075323" lon="-6.60807842"><ele>845</ele><speed>11.14</speed><time>2019-02-23T15:53:29Z</time><pdop>6.068</pdop><geoidheight>0.00</geoidheight><course>127.3</course><type>1</type></trkpt>
      <trkpt lat="38.51063051" lon="-6.60787839"><ele>846</ele><speed>10.70</speed><time>2019-02-23T15:53:31Z</time><pdop>6.068</pdop><geoidheight>0.00</geoidheight><course>127.2</course><type>1</type></trkpt>
      <trkpt lat="38.51050971" lon="-6.60768338"><ele>848</ele><speed>10.84</speed><time>2019-02-23T15:53:33Z</time><pdop>6.068</pdop><geoidheight>0.00</geoidheight><course>126.0</course><type>1</type></trkpt>
      <trkpt lat="38.51039965" lon="-6.60748789"><ele>849</ele><speed>10.70</speed><time>2019-02-23T15:53:35Z</time><pdop>6.068</pdop><geoidheight>0.00</geoidheight><course>120.5</course><type>1</type></trkpt>
      <trkpt lat="38.510347" lon="-6.60727285"><ele>847</ele><speed>8.52</speed><time>2019-02-23T15:53:37Z</time><pdop>6.068</pdop><geoidheight>0.00</geoidheight><course>110.9</course><type>1</type></trkpt>
      <trkpt lat="38.51032029" lon="-6.60711525"><ele>849</ele><speed>7.43</speed><time>2019-02-23T15:53:39Z</time><pdop>6.068</pdop><geoidheight>0.00</geoidheight><course>104.1</course><type>1</type></trkpt>
      <trkpt lat="38.51030541" lon="-6.60694964"><ele>846</ele><speed>7.70</speed><time>2019-02-23T15:53:41Z</time><pdop>6.068</pdop><geoidheight>0.00</geoidheight><course>95.4</course><type>1</type></trkpt>
      <trkpt lat="38.51029554" lon="-6.6067814"><ele>846</ele><speed>6.33</speed><time>2019-02-23T15:53:43Z</time><pdop>6.068</pdop><geoidheight>0.00</geoidheight><course>93.1</course><type>1</type></trkpt>
      <trkpt lat="38.5103048" lon="-6.60657579"><ele>856</ele><speed>6.57</speed><time>2019-02-23T15:53:46Z</time><pdop>7.585</pdop><geoidheight>0.00</geoidheight><course>86.3</course><type>1</type></trkpt>
      <trkpt lat="38.51035155" lon="-6.60637727"><ele>849</ele><speed>5.22</speed><time>2019-02-23T15:53:49Z</time><pdop>7.585</pdop><geoidheight>0.00</geoidheight><course>77.8</course><type>1</type></trkpt>
      <trkpt lat="38.51041308" lon="-6.60617963"><ele>854</ele><speed>4.65</speed><time>2019-02-23T15:53:53Z</time><pdop>7.585</pdop><geoidheight>0.00</geoidheight><course>66.1</course><type>1</type></trkpt>
      <trkpt lat="38.5104723" lon="-6.60601074"><ele>856</ele><speed>4.52</speed><time>2019-02-23T15:53:56Z</time><pdop>7.585</pdop><geoidheight>0.00</geoidheight><course>65.2</course><type>1</type></trkpt>
      <trkpt lat="38.51053622" lon="-6.60586789"><ele>853</ele><speed>4.32</speed><time>2019-02-23T15:53:59Z</time><pdop>7.585</pdop><geoidheight>0.00</geoidheight><course>66.8</course><type>1</type></trkpt>
      <trkpt lat="38.5106331" lon="-6.60600086"><ele>842</ele><speed>4.97</speed><time>2019-02-23T15:54:09Z</time><pdop>7.585</pdop><geoidheight>0.00</geoidheight><course>263.0</course><type>1</type></trkpt>
      <trkpt lat="38.51058648" lon="-6.60617531"><ele>842</ele><speed>5.16</speed><time>2019-02-23T15:54:12Z</time><pdop>7.585</pdop><geoidheight>0.00</geoidheight><course>252.3</course><type>1</type></trkpt>
      <trkpt lat="38.51050645" lon="-6.60631857"><ele>841</ele><speed>6.29</speed><time>2019-02-23T15:54:14Z</time><pdop>7.585</pdop><geoidheight>0.00</geoidheight><course>245.0</course><type>1</type></trkpt>
      <trkpt lat="38.51042933" lon="-6.60651054"><ele>841</ele><speed>6.28</speed><time>2019-02-23T15:54:17Z</time><pdop>7.585</pdop><geoidheight>0.00</geoidheight><course>243.9</course><type>1</type></trkpt>
      <trkpt lat="38.51037933" lon="-6.60666249"><ele>842</ele><speed>4.53</speed><time>2019-02-23T15:54:20Z</time><pdop>7.585</pdop><geoidheight>0.00</geoidheight><course>260.8</course><type>1</type></trkpt>
      <trkpt lat="38.51040565" lon="-6.6068249"><ele>828</ele><speed>1.90</speed><time>2019-02-23T15:54:24Z</time><pdop>7.585</pdop><geoidheight>0.00</geoidheight><course>309.8</course><type>1</type></trkpt>
      <trkpt lat="38.51051795" lon="-6.60666124"><ele>826</ele><speed>5.73</speed><time>2019-02-23T15:54:30Z</time><pdop>7.585</pdop><geoidheight>0.00</geoidheight><course>80.1</course><type>1</type></trkpt>
      <trkpt lat="38.51052776" lon="-6.60642899"><ele>827</ele><speed>8.18</speed><time>2019-02-23T15:54:33Z</time><pdop>7.585</pdop><geoidheight>0.00</geoidheight><course>94.9</course><type>1</type></trkpt>
      <trkpt lat="38.51049814" lon="-6.60623071"><ele>832</ele><speed>9.97</speed><time>2019-02-23T15:54:35Z</time><pdop>7.585</pdop><geoidheight>0.00</geoidheight><course>106.5</course><type>1</type></trkpt>
      <trkpt lat="38.51039504" lon="-6.60602823"><ele>829</ele><speed>10.77</speed><time>2019-02-23T15:54:37Z</time><pdop>7.585</pdop><geoidheight>0.00</geoidheight><course>118.4</course><type>1</type></trkpt>
      <trkpt lat="38.51026688" lon="-6.60582417"><ele>814</ele><speed>12.20</speed><time>2019-02-23T15:54:39Z</time><pdop>6.068</pdop><geoidheight>0.00</geoidheight><course>130.4</course><type>1</type></trkpt>
      <trkpt lat="38.51019127" lon="-6.6057083"><ele>820</ele><speed>13.05</speed><time>2019-02-23T15:54:40Z</time><pdop>6.068</pdop><geoidheight>0.00</geoidheight><course>134.5</course><type>1</type></trkpt>
      <trkpt lat="38.5100896" lon="-6.60559416"><ele>824</ele><speed>13.55</speed><time>2019-02-23T15:54:41Z</time><pdop>7.585</pdop><geoidheight>0.00</geoidheight><course>141.9</course><type>1</type></trkpt>
      <trkpt lat="38.50998143" lon="-6.60550578"><ele>829</ele><speed>13.36</speed><time>2019-02-23T15:54:42Z</time><pdop>6.068</pdop><geoidheight>0.00</geoidheight><course>154.5</course><type>1</type></trkpt>
      <trkpt lat="38.50976824" lon="-6.60544989"><ele>822</ele><speed>12.67</speed><time>2019-02-23T15:54:44Z</time><pdop>6.068</pdop><geoidheight>0.00</geoidheight><course>186.6</course><type>1</type></trkpt>
      <trkpt lat="38.50965988" lon="-6.60547465"><ele>817</ele><speed>11.39</speed><time>2019-02-23T15:54:45Z</time><pdop>6.068</pdop><geoidheight>0.00</geoidheight><course>202.5</course><type>1</type></trkpt>
      <trkpt lat="38.50953146" lon="-6.60562175"><ele>822</ele><speed>8.74</speed><time>2019-02-23T15:54:47Z</time><pdop>6.068</pdop><geoidheight>0.00</geoidheight><course>231.4</course><type>1</type></trkpt>
      <trkpt lat="38.50948554" lon="-6.60577897"><ele>833</ele><speed>5.46</speed><time>2019-02-23T15:54:49Z</time><pdop>7.585</pdop><geoidheight>0.00</geoidheight><course>263.1</course><type>1</type></trkpt>
      <trkpt lat="38.50950403" lon="-6.60597925"><ele>845</ele><speed>4.04</speed><time>2019-02-23T15:54:54Z</time><pdop>7.585</pdop><geoidheight>0.00</geoidheight><course>269.0</course><type>1</type></trkpt>
      <trkpt lat="38.5095585" lon="-6.60613932"><ele>851</ele><speed>3.00</speed><time>2019-02-23T15:54:58Z</time><pdop>7.585</pdop><geoidheight>0.00</geoidheight><course>291.5</course><type>1</type></trkpt>
      <trkpt lat="38.50960774" lon="-6.60629696"><ele>838</ele><speed>3.62</speed><time>2019-02-23T15:55:02Z</time><pdop>7.585</pdop><geoidheight>0.00</geoidheight><course>287.8</course><type>1</type></trkpt>
      <trkpt lat="38.50969625" lon="-6.60644396"><ele>831</ele><speed>4.22</speed><time>2019-02-23T15:55:07Z</time><pdop>7.585</pdop><geoidheight>0.00</geoidheight><course>312.3</course><type>1</type></trkpt>
      <trkpt lat="38.50980699" lon="-6.60657527"><ele>832</ele><speed>3.24</speed><time>2019-02-23T15:55:12Z</time><pdop>7.585</pdop><geoidheight>0.00</geoidheight><course>311.7</course><type>1</type></trkpt>
      <trkpt lat="38.509911" lon="-6.60672091"><ele>837</ele><speed>3.36</speed><time>2019-02-23T15:55:16Z</time><pdop>7.585</pdop><geoidheight>0.00</geoidheight><course>307.7</course><type>1</type></trkpt>
      <trkpt lat="38.5099973" lon="-6.60686909"><ele>868</ele><speed>3.90</speed><time>2019-02-23T15:55:20Z</time><pdop>7.585</pdop><geoidheight>0.00</geoidheight><course>303.2</course><type>1</type></trkpt>
      <trkpt lat="38.51006038" lon="-6.60702602"><ele>802</ele><speed>3.85</speed><time>2019-02-23T15:55:24Z</time><pdop>7.585</pdop><geoidheight>0.00</geoidheight><course>285.7</course><type>1</type></trkpt>
      <trkpt lat="38.51009614" lon="-6.60719173"><ele>806</ele><speed>2.69</speed><time>2019-02-23T15:55:28Z</time><pdop>7.585</pdop><geoidheight>0.00</geoidheight><course>280.5</course><type>1</type></trkpt>
      <trkpt lat="38.5101637" lon="-6.60732876"><ele>853</ele><speed>1.63</speed><time>2019-02-23T15:55:35Z</time><pdop>7.585</pdop><geoidheight>0.00</geoidheight><course>23.2</course><type>1</type></trkpt>
      <trkpt lat="38.51019538" lon="-6.60712783"><ele>792</ele><speed>6.50</speed><time>2019-02-23T15:55:40Z</time><pdop>7.585</pdop><geoidheight>0.00</geoidheight><course>93.9</course><type>1</type></trkpt>
      <trkpt lat="38.51017097" lon="-6.60694932"><ele>818</ele><speed>7.86</speed><time>2019-02-23T15:55:42Z</time><pdop>7.585</pdop><geoidheight>0.00</geoidheight><course>102.5</course><type>1</type></trkpt>
      <trkpt lat="38.51012228" lon="-6.60675669"><ele>807</ele><speed>9.43</speed><time>2019-02-23T15:55:44Z</time><pdop>7.585</pdop><geoidheight>0.00</geoidheight><course>111.7</course><type>1</type></trkpt>
      <trkpt lat="38.51002005" lon="-6.60657178"><ele>809</ele><speed>10.50</speed><time>2019-02-23T15:55:46Z</time><pdop>7.585</pdop><geoidheight>0.00</geoidheight><course>117.9</course><type>1</type></trkpt>
      <trkpt lat="38.50991229" lon="-6.60637301"><ele>796</ele><speed>10.60</speed><time>2019-02-23T15:55:48Z</time><pdop>7.585</pdop><geoidheight>0.00</geoidheight><course>120.1</course><type>1</type></trkpt>
      <trkpt lat="38.50983863" lon="-6.60614393"><ele>822</ele><speed>10.17</speed><time>2019-02-23T15:55:50Z</time><pdop>7.585</pdop><geoidheight>0.00</geoidheight><course>118.4</course><type>1</type></trkpt>
      <trkpt lat="38.50976179" lon="-6.60595819"><ele>795</ele><speed>9.02</speed><time>2019-02-23T15:55:52Z</time><pdop>7.585</pdop><geoidheight>0.00</geoidheight><course>113.8</course><type>1</type></trkpt>
      <trkpt lat="38.50974079" lon="-6.6057718"><ele>820</ele><speed>6.43</speed><time>2019-02-23T15:55:54Z</time><pdop>6.068</pdop><geoidheight>0.00</geoidheight><course>92.6</course><type>1</type></trkpt>
      <trkpt lat="38.50983213" lon="-6.60585221"><ele>843</ele><speed>3.53</speed><time>2019-02-23T15:56:05Z</time><pdop>6.068</pdop><geoidheight>0.00</geoidheight><course>282.9</course><type>1</type></trkpt>
      <trkpt lat="38.50985006" lon="-6.60600182"><ele>849</ele><speed>4.18</speed><time>2019-02-23T15:56:08Z</time><pdop>6.068</pdop><geoidheight>0.00</geoidheight><course>276.1</course><type>1</type></trkpt>
      <trkpt lat="38.50985678" lon="-6.60618183"><ele>850</ele><speed>4.02</speed><time>2019-02-23T15:56:12Z</time><pdop>6.068</pdop><geoidheight>0.00</geoidheight><course>271.5</course><type>1</type></trkpt>
      <trkpt lat="38.50986492" lon="-6.60631416"><ele>851</ele><speed>3.98</speed><time>2019-02-23T15:56:15Z</time><pdop>4.5509996</pdop><geoidheight>0.00</geoidheight><course>282.7</course><type>1</type></trkpt>
      <trkpt lat="38.50989199" lon="-6.60643386"><ele>854</ele><speed>2.88</speed><time>2019-02-23T15:56:18Z</time><pdop>6.068</pdop><geoidheight>0.00</geoidheight><course>285.7</course><type>1</type></trkpt>
      <trkpt lat="38.50994168" lon="-6.60656186"><ele>832</ele><speed>2.99</speed><time>2019-02-23T15:56:22Z</time><pdop>6.068</pdop><geoidheight>0.00</geoidheight><course>297.7</course><type>1</type></trkpt>
      <trkpt lat="38.51000345" lon="-6.60671103"><ele>822</ele><speed>2.81</speed><time>2019-02-23T15:56:27Z</time><pdop>6.068</pdop><geoidheight>0.00</geoidheight><course>299.3</course><type>1</type></trkpt>
      <trkpt lat="38.51009654" lon="-6.60684288"><ele>809</ele><speed>3.78</speed><time>2019-02-23T15:56:32Z</time><pdop>6.068</pdop><geoidheight>0.00</geoidheight><course>306.5</course><type>1</type></trkpt>
      <trkpt lat="38.51018406" lon="-6.6069717"><ele>826</ele><speed>2.68</speed><time>2019-02-23T15:56:37Z</time><pdop>6.068</pdop><geoidheight>0.00</geoidheight><course>325.9</course><type>1</type></trkpt>
      <trkpt lat="38.51028059" lon="-6.60704134"><ele>808</ele><speed>1.87</speed><time>2019-02-23T15:56:41Z</time><pdop>6.068</pdop><geoidheight>0.00</geoidheight><course>335.7</course><type>1</type></trkpt>
      <trkpt lat="38.51040944" lon="-6.60706008"><ele>816</ele><speed>2.77</speed><time>2019-02-23T15:56:49Z</time><pdop>7.585</pdop><geoidheight>0.00</geoidheight><course>20.8</course><type>1</type></trkpt>
      <trkpt lat="38.51050422" lon="-6.60692436"><ele>842</ele><speed>4.86</speed><time>2019-02-23T15:56:53Z</time><pdop>6.068</pdop><geoidheight>0.00</geoidheight><course>70.6</course><type>1</type></trkpt>
      <trkpt lat="38.5105385" lon="-6.60677497"><ele>843</ele><speed>5.61</speed><time>2019-02-23T15:56:55Z</time><pdop>7.585</pdop><geoidheight>0.00</geoidheight><course>77.1</course><type>1</type></trkpt>
      <trkpt lat="38.51054285" lon="-6.6065561"><ele>844</ele><speed>7.07</speed><time>2019-02-23T15:56:58Z</time><pdop>7.585</pdop><geoidheight>0.00</geoidheight><course>87.8</course><type>1</type></trkpt>
      <trkpt lat="38.51054032" lon="-6.60631225"><ele>811</ele><speed>6.86</speed><time>2019-02-23T15:57:01Z</time><pdop>7.585</pdop><geoidheight>0.00</geoidheight><course>86.9</course><type>1</type></trkpt>
      <trkpt lat="38.51055695" lon="-6.60611332"><ele>830</ele><speed>5.14</speed><time>2019-02-23T15:57:04Z</time><pdop>7.585</pdop><geoidheight>0.00</geoidheight><course>69.2</course><type>1</type></trkpt>
      <trkpt lat="38.51063654" lon="-6.60597607"><ele>822</ele><speed>3.01</speed><time>2019-02-23T15:57:08Z</time><pdop>7.585</pdop><geoidheight>0.00</geoidheight><course>42.2</course><type>1</type></trkpt>
      <trkpt lat="38.51074296" lon="-6.6058408"><ele>816</ele><speed>3.95</speed><time>2019-02-23T15:57:13Z</time><pdop>6.068</pdop><geoidheight>0.00</geoidheight><course>62.8</course><type>1</type></trkpt>
      <trkpt lat="38.51079092" lon="-6.60566807"><ele>834</ele><speed>5.87</speed><time>2019-02-23T15:57:16Z</time><pdop>6.068</pdop><geoidheight>0.00</geoidheight><course>75.9</course><type>1</type></trkpt>
      <trkpt lat="38.51080515" lon="-6.60546594"><ele>812</ele><speed>6.77</speed><time>2019-02-23T15:57:19Z</time><pdop>6.068</pdop><geoidheight>0.00</geoidheight><course>89.1</course><type>1</type></trkpt>
      <trkpt lat="38.5108167" lon="-6.60531682"><ele>822</ele><speed>6.04</speed><time>2019-02-23T15:57:21Z</time><pdop>7.585</pdop><geoidheight>0.00</geoidheight><course>80.2</course><type>1</type></trkpt>
      <trkpt lat="38.51083994" lon="-6.60549072"><ele>817</ele><speed>7.20</speed><time>2019-02-23T15:57:30Z</time><pdop>6.068</pdop><geoidheight>0.00</geoidheight><course>236.6</course><type>1</type></trkpt>
      <trkpt lat="38.51074892" lon="-6.60564178"><ele>815</ele><speed>9.69</speed><time>2019-02-23T15:57:32Z</time><pdop>6.068</pdop><geoidheight>0.00</geoidheight><course>231.0</course><type>1</type></trkpt>
      <trkpt lat="38.51061755" lon="-6.60580325"><ele>824</ele><speed>9.73</speed><time>2019-02-23T15:57:34Z</time><pdop>6.068</pdop><geoidheight>0.00</geoidheight><course>227.4</course><type>1</type></trkpt>
      <trkpt lat="38.51051733" lon="-6.60595717"><ele>826</ele><speed>8.35</speed><time>2019-02-23T15:57:36Z</time><pdop>6.068</pdop><geoidheight>0.00</geoidheight><course>236.8</course><type>1</type></trkpt>
      <trkpt lat="38.51042954" lon="-6.60611989"><ele>828</ele><speed>8.63</speed><time>2019-02-23T15:57:38Z</time><pdop>6.068</pdop><geoidheight>0.00</geoidheight><course>239.3</course><type>1</type></trkpt>
      <trkpt lat="38.51036762" lon="-6.60628257"><ele>830</ele><speed>7.49</speed><time>2019-02-23T15:57:40Z</time><pdop>6.068</pdop><geoidheight>0.00</geoidheight><course>242.8</course><type>1</type></trkpt>
      <trkpt lat="38.51030942" lon="-6.60642551"><ele>808</ele><speed>6.66</speed><time>2019-02-23T15:57:42Z</time><pdop>6.068</pdop><geoidheight>0.00</geoidheight><course>247.6</course><type>1</type></trkpt>
      <trkpt lat="38.51027579" lon="-6.60657934"><ele>809</ele><speed>6.05</speed><time>2019-02-23T15:57:44Z</time><pdop>6.068</pdop><geoidheight>0.00</geoidheight><course>258.1</course><type>1</type></trkpt>
      <trkpt lat="38.51028219" lon="-6.60674207"><ele>808</ele><speed>4.63</speed><time>2019-02-23T15:57:47Z</time><pdop>6.068</pdop><geoidheight>0.00</geoidheight><course>274.3</course><type>1</type></trkpt>
      <trkpt lat="38.51034682" lon="-6.6069009"><ele>816</ele><speed>3.41</speed><time>2019-02-23T15:57:51Z</time><pdop>7.585</pdop><geoidheight>0.00</geoidheight><course>302.7</course><type>1</type></trkpt>
      <trkpt lat="38.51040124" lon="-6.60706341"><ele>832</ele><speed>3.12</speed><time>2019-02-23T15:57:56Z</time><pdop>7.585</pdop><geoidheight>0.00</geoidheight><course>307.8</course><type>1</type></trkpt>
      <trkpt lat="38.51053814" lon="-6.60715046"><ele>837</ele><speed>2.98</speed><time>2019-02-23T15:58:02Z</time><pdop>7.585</pdop><geoidheight>0.00</geoidheight><course>330.9</course><type>1</type></trkpt>
      <trkpt lat="38.51063889" lon="-6.60729516"><ele>840</ele><speed>3.43</speed><time>2019-02-23T15:58:07Z</time><pdop>7.585</pdop><geoidheight>0.00</geoidheight><course>305.8</course><type>1</type></trkpt>
      <trkpt lat="38.51069309" lon="-6.60746134"><ele>844</ele><speed>4.88</speed><time>2019-02-23T15:58:11Z</time><pdop>6.068</pdop><geoidheight>0.00</geoidheight><course>281.7</course><type>1</type></trkpt>
      <trkpt lat="38.51066868" lon="-6.60765715"><ele>842</ele><speed>5.70</speed><time>2019-02-23T15:58:14Z</time><pdop>6.068</pdop><geoidheight>0.00</geoidheight><course>266.7</course><type>1</type></trkpt>
      <trkpt lat="38.51063842" lon="-6.60785058"><ele>841</ele><speed>5.89</speed><time>2019-02-23T15:58:17Z</time><pdop>7.585</pdop><geoidheight>0.00</geoidheight><course>263.4</course><type>1</type></trkpt>
      <trkpt lat="38.51062855" lon="-6.60801771"><ele>840</ele><speed>5.47</speed><time>2019-02-23T15:58:20Z</time><pdop>6.068</pdop><geoidheight>0.00</geoidheight><course>269.5</course><type>1</type></trkpt>
      <trkpt lat="38.5106598" lon="-6.60819974"><ele>840</ele><speed>4.62</speed><time>2019-02-23T15:58:23Z</time><pdop>7.585</pdop><geoidheight>0.00</geoidheight><course>274.4</course><type>1</type></trkpt>
      <trkpt lat="38.51073645" lon="-6.60836422"><ele>827</ele><speed>3.12</speed><time>2019-02-23T15:58:27Z</time><pdop>7.585</pdop><geoidheight>0.00</geoidheight><course>318.4</course><type>1</type></trkpt>
      <trkpt lat="38.51086323" lon="-6.60840205"><ele>838</ele><speed>3.03</speed><time>2019-02-23T15:58:33Z</time><pdop>6.068</pdop><geoidheight>0.00</geoidheight><course>5.9</course><type>1</type></trkpt>
      <trkpt lat="38.51097927" lon="-6.60833715"><ele>830</ele><speed>3.66</speed><time>2019-02-23T15:58:37Z</time><pdop>6.068</pdop><geoidheight>0.00</geoidheight><course>34.6</course><type>1</type></trkpt>
      <trkpt lat="38.51106415" lon="-6.60824527"><ele>832</ele><speed>3.97</speed><time>2019-02-23T15:58:40Z</time><pdop>6.068</pdop><geoidheight>0.00</geoidheight><course>44.4</course><type>1</type></trkpt>
      <trkpt lat="38.51110048" lon="-6.60807503"><ele>826</ele><speed>5.89</speed><time>2019-02-23T15:58:43Z</time><pdop>6.068</pdop><geoidheight>0.00</geoidheight><course>77.0</course><type>1</type></trkpt>
      <trkpt lat="38.51110005" lon="-6.60791723"><ele>830</ele><speed>8.02</speed><time>2019-02-23T15:58:45Z</time><pdop>7.585</pdop><geoidheight>0.00</geoidheight><course>91.2</course><type>1</type></trkpt>
      <trkpt lat="38.51107725" lon="-6.60771336"><ele>833</ele><speed>9.83</speed><time>2019-02-23T15:58:47Z</time><pdop>7.585</pdop><geoidheight>0.00</geoidheight><course>106.8</course><type>1</type></trkpt>
      <trkpt lat="38.51100464" lon="-6.60750498"><ele>836</ele><speed>10.54</speed><time>2019-02-23T15:58:49Z</time><pdop>6.068</pdop><geoidheight>0.00</geoidheight><course>121.7</course><type>1</type></trkpt>
      <trkpt lat="38.51086777" lon="-6.60730231"><ele>830</ele><speed>12.54</speed><time>2019-02-23T15:58:51Z</time><pdop>6.068</pdop><geoidheight>0.00</geoidheight><course>136.8</course><type>1</type></trkpt>
      <trkpt lat="38.51077726" lon="-6.60721608"><ele>832</ele><speed>13.02</speed><time>2019-02-23T15:58:52Z</time><pdop>6.068</pdop><geoidheight>0.00</geoidheight><course>147.3</course><type>1</type></trkpt>
      <trkpt lat="38.51065862" lon="-6.60714572"><ele>833</ele><speed>13.13</speed><time>2019-02-23T15:58:53Z</time><pdop>6.068</pdop><geoidheight>0.00</geoidheight><course>161.5</course><type>1</type></trkpt>
      <trkpt lat="38.51054658" lon="-6.60710925"><ele>833</ele><speed>13.37</speed><time>2019-02-23T15:58:54Z</time><pdop>6.068</pdop><geoidheight>0.00</geoidheight><course>178.9</course><type>1</type></trkpt>
      <trkpt lat="38.51042765" lon="-6.60714343"><ele>833</ele><speed>13.44</speed><time>2019-02-23T15:58:55Z</time><pdop>6.068</pdop><geoidheight>0.00</geoidheight><course>199.9</course><type>1</type></trkpt>
      <trkpt lat="38.51033883" lon="-6.60723448"><ele>825</ele><speed>11.83</speed><time>2019-02-23T15:58:56Z</time><pdop>6.068</pdop><geoidheight>0.00</geoidheight><course>224.7</course><type>1</type></trkpt>
      <trkpt lat="38.51028738" lon="-6.60740907"><ele>826</ele><speed>6.80</speed><time>2019-02-23T15:58:58Z</time><pdop>6.068</pdop><geoidheight>0.00</geoidheight><course>268.6</course><type>1</type></trkpt>
      <trkpt lat="38.51023241" lon="-6.60757753"><ele>835</ele><speed>5.13</speed><time>2019-02-23T15:59:01Z</time><pdop>6.068</pdop><geoidheight>0.00</geoidheight><course>235.7</course><type>1</type></trkpt>
      <trkpt lat="38.51023413" lon="-6.60773878"><ele>827</ele><speed>5.58</speed><time>2019-02-23T15:59:04Z</time><pdop>6.068</pdop><geoidheight>0.00</geoidheight><course>289.7</course><type>1</type></trkpt>
      <trkpt lat="38.51030573" lon="-6.60788472"><ele>825</ele><speed>3.48</speed><time>2019-02-23T15:59:07Z</time><pdop>7.585</pdop><geoidheight>0.00</geoidheight><course>271.5</course><type>1</type></trkpt>
      <trkpt lat="38.51032974" lon="-6.60807151"><ele>830</ele><speed>4.06</speed><time>2019-02-23T15:59:11Z</time><pdop>9.101999</pdop><geoidheight>0.00</geoidheight><course>302.6</course><type>1</type></trkpt>
      <trkpt lat="38.5104241" lon="-6.60827593"><ele>832</ele><speed>2.81</speed><time>2019-02-23T15:59:16Z</time><pdop>9.101999</pdop><geoidheight>0.00</geoidheight><course>311.1</course><type>1</type></trkpt>
      <trkpt lat="38.5105669" lon="-6.6084067"><ele>843</ele><speed>2.50</speed><time>2019-02-23T15:59:23Z</time><pdop>9.101999</pdop><geoidheight>0.00</geoidheight><course>322.2</course><type>1</type></trkpt>
      <trkpt lat="38.51072511" lon="-6.608501"><ele>841</ele><speed>2.72</speed><time>2019-02-23T15:59:31Z</time><pdop>9.101999</pdop><geoidheight>0.00</geoidheight><course>316.8</course><type>1</type></trkpt>
      <trkpt lat="38.51084375" lon="-6.60863662"><ele>824</ele><speed>4.48</speed><time>2019-02-23T15:59:36Z</time><pdop>7.585</pdop><geoidheight>0.00</geoidheight><course>316.2</course><type>1</type></trkpt>
      <trkpt lat="38.51094777" lon="-6.60877253"><ele>831</ele><speed>3.41</speed><time>2019-02-23T15:59:40Z</time><pdop>7.585</pdop><geoidheight>0.00</geoidheight><course>314.0</course><type>1</type></trkpt>
      <trkpt lat="38.51101511" lon="-6.60891906"><ele>841</ele><speed>3.87</speed><time>2019-02-23T15:59:45Z</time><pdop>6.068</pdop><geoidheight>0.00</geoidheight><course>300.8</course><type>1</type></trkpt>
      <trkpt lat="38.5110791" lon="-6.60907447"><ele>832</ele><speed>3.50</speed><time>2019-02-23T15:59:49Z</time><pdop>6.068</pdop><geoidheight>0.00</geoidheight><course>300.6</course><type>1</type></trkpt>
      <trkpt lat="38.51114594" lon="-6.60923682"><ele>840</ele><speed>4.03</speed><time>2019-02-23T15:59:53Z</time><pdop>6.068</pdop><geoidheight>0.00</geoidheight><course>296.0</course><type>1</type></trkpt>
      <trkpt lat="38.51118394" lon="-6.60941398"><ele>860</ele><speed>4.95</speed><time>2019-02-23T15:59:57Z</time><pdop>6.068</pdop><geoidheight>0.00</geoidheight><course>306.1</course><type>1</type></trkpt>
      <trkpt lat="38.51124609" lon="-6.6095701"><ele>839</ele><speed>4.47</speed><time>2019-02-23T16:00:01Z</time><pdop>6.068</pdop><geoidheight>0.00</geoidheight><course>268.7</course><type>1</type></trkpt>
      <trkpt lat="38.51121015" lon="-6.60976127"><ele>844</ele><speed>6.31</speed><time>2019-02-23T16:00:04Z</time><pdop>6.068</pdop><geoidheight>0.00</geoidheight><course>269.0</course><type>1</type></trkpt>
      <trkpt lat="38.5111415" lon="-6.60991128"><ele>847</ele><speed>7.36</speed><time>2019-02-23T16:00:06Z</time><pdop>6.068</pdop><geoidheight>0.00</geoidheight><course>243.4</course><type>1</type></trkpt>
      <trkpt lat="38.51108326" lon="-6.61006696"><ele>834</ele><speed>7.80</speed><time>2019-02-23T16:00:08Z</time><pdop>6.068</pdop><geoidheight>0.00</geoidheight><course>247.1</course><type>1</type></trkpt>
      <trkpt lat="38.51105296" lon="-6.61022674"><ele>833</ele><speed>6.70</speed><time>2019-02-23T16:00:10Z</time><pdop>7.585</pdop><geoidheight>0.00</geoidheight><course>254.8</course><type>1</type></trkpt>
      <trkpt lat="38.51104911" lon="-6.61042087"><ele>839</ele><speed>5.02</speed><time>2019-02-23T16:00:13Z</time><pdop>6.068</pdop><geoidheight>0.00</geoidheight><course>272.1</course><type>1</type></trkpt>
      <trkpt lat="38.51111539" lon="-6.61055819"><ele>835</ele><speed>3.19</speed><time>2019-02-23T16:00:17Z</time><pdop>7.585</pdop><geoidheight>0.00</geoidheight><course>325.5</course><type>1</type></trkpt>
      <trkpt lat="38.51124374" lon="-6.61067272"><ele>826</ele><speed>2.75</speed><time>2019-02-23T16:00:23Z</time><pdop>7.585</pdop><geoidheight>0.00</geoidheight><course>325.0</course><type>1</type></trkpt>
      <trkpt lat="38.51133545" lon="-6.61078584"><ele>835</ele><speed>2.82</speed><time>2019-02-23T16:00:28Z</time><pdop>7.585</pdop><geoidheight>0.00</geoidheight><course>315.4</course><type>1</type></trkpt>
      <trkpt lat="38.5114551" lon="-6.61086644"><ele>791</ele><speed>3.17</speed><time>2019-02-23T16:00:32Z</time><pdop>7.585</pdop><geoidheight>0.00</geoidheight><course>327.0</course><type>1</type></trkpt>
      <trkpt lat="38.51158295" lon="-6.61096956"><ele>805</ele><speed>3.57</speed><time>2019-02-23T16:00:37Z</time><pdop>7.585</pdop><geoidheight>0.00</geoidheight><course>326.2</course><type>1</type></trkpt>
      <trkpt lat="38.51168428" lon="-6.61108913"><ele>824</ele><speed>3.85</speed><time>2019-02-23T16:00:41Z</time><pdop>7.585</pdop><geoidheight>0.00</geoidheight><course>310.7</course><type>1</type></trkpt>
      <trkpt lat="38.51179822" lon="-6.61122503"><ele>832</ele><speed>4.10</speed><time>2019-02-23T16:00:45Z</time><pdop>9.101999</pdop><geoidheight>0.00</geoidheight><course>313.1</course><type>1</type></trkpt>
      <trkpt lat="38.51191044" lon="-6.61138585"><ele>806</ele><speed>3.41</speed><time>2019-02-23T16:00:50Z</time><pdop>7.585</pdop><geoidheight>0.00</geoidheight><course>304.3</course><type>1</type></trkpt>
      <trkpt lat="38.51201862" lon="-6.61153038"><ele>828</ele><speed>3.63</speed><time>2019-02-23T16:00:55Z</time><pdop>9.101999</pdop><geoidheight>0.00</geoidheight><course>319.0</course><type>1</type></trkpt>
      <trkpt lat="38.51215849" lon="-6.61159576"><ele>844</ele><speed>3.61</speed><time>2019-02-23T16:00:59Z</time><pdop>7.585</pdop><geoidheight>0.00</geoidheight><course>336.5</course><type>1</type></trkpt>
      <trkpt lat="38.51229408" lon="-6.61165188"><ele>834</ele><speed>3.58</speed><time>2019-02-23T16:01:06Z</time><pdop>6.068</pdop><geoidheight>0.00</geoidheight><course>8.4</course><type>1</type></trkpt>
      <trkpt lat="38.51232719" lon="-6.61150504"><ele>793</ele><speed>5.24</speed><time>2019-02-23T16:01:10Z</time><pdop>6.068</pdop><geoidheight>0.00</geoidheight><course>69.5</course><type>1</type></trkpt>
      <trkpt lat="38.51234062" lon="-6.61134332"><ele>793</ele><speed>7.73</speed><time>2019-02-23T16:01:12Z</time><pdop>6.068</pdop><geoidheight>0.00</geoidheight><course>86.4</course><type>1</type></trkpt>
      <trkpt lat="38.51232974" lon="-6.61113351"><ele>808</ele><speed>9.68</speed><time>2019-02-23T16:01:14Z</time><pdop>6.068</pdop><geoidheight>0.00</geoidheight><course>104.5</course><type>1</type></trkpt>
      <trkpt lat="38.51225262" lon="-6.61091139"><ele>795</ele><speed>10.45</speed><time>2019-02-23T16:01:16Z</time><pdop>6.068</pdop><geoidheight>0.00</geoidheight><course>114.6</course><type>1</type></trkpt>
      <trkpt lat="38.51214072" lon="-6.610713"><ele>799</ele><speed>11.29</speed><time>2019-02-23T16:01:18Z</time><pdop>6.068</pdop><geoidheight>0.00</geoidheight><course>124.3</course><type>1</type></trkpt>
      <trkpt lat="38.51201903" lon="-6.61048596"><ele>828</ele><speed>12.91</speed><time>2019-02-23T16:01:20Z</time><pdop>6.068</pdop><geoidheight>0.00</geoidheight><course>131.3</course><type>1</type></trkpt>
      <trkpt lat="38.51193854" lon="-6.61037337"><ele>835</ele><speed>12.96</speed><time>2019-02-23T16:01:21Z</time><pdop>6.068</pdop><geoidheight>0.00</geoidheight><course>134.0</course><type>1</type></trkpt>
      <trkpt lat="38.5118472" lon="-6.61027589"><ele>840</ele><speed>12.32</speed><time>2019-02-23T16:01:22Z</time><pdop>6.068</pdop><geoidheight>0.00</geoidheight><course>136.1</course><type>1</type></trkpt>
      <trkpt lat="38.51169442" lon="-6.61009559"><ele>832</ele><speed>11.59</speed><time>2019-02-23T16:01:24Z</time><pdop>6.068</pdop><geoidheight>0.00</geoidheight><course>138.6</course><type>1</type></trkpt>
      <trkpt lat="38.51155671" lon="-6.60987908"><ele>838</ele><speed>11.97</speed><time>2019-02-23T16:01:26Z</time><pdop>6.068</pdop><geoidheight>0.00</geoidheight><course>125.3</course><type>1</type></trkpt>
      <trkpt lat="38.51143752" lon="-6.6096487"><ele>840</ele><speed>11.32</speed><time>2019-02-23T16:01:28Z</time><pdop>6.068</pdop><geoidheight>0.00</geoidheight><course>117.5</course><type>1</type></trkpt>
      <trkpt lat="38.51133567" lon="-6.60947148"><ele>841</ele><speed>8.86</speed><time>2019-02-23T16:01:30Z</time><pdop>6.068</pdop><geoidheight>0.00</geoidheight><course>115.6</course><type>1</type></trkpt>
      <trkpt lat="38.51128588" lon="-6.60927561"><ele>852</ele><speed>8.25</speed><time>2019-02-23T16:01:32Z</time><pdop>6.068</pdop><geoidheight>0.00</geoidheight><course>106.1</course><type>1</type></trkpt>
      <trkpt lat="38.51128134" lon="-6.60910159"><ele>861</ele><speed>7.43</speed><time>2019-02-23T16:01:34Z</time><pdop>6.068</pdop><geoidheight>0.00</geoidheight><course>90.5</course><type>1</type></trkpt>
      <trkpt lat="38.5112945" lon="-6.60894372"><ele>818</ele><speed>5.29</speed><time>2019-02-23T16:01:36Z</time><pdop>6.068</pdop><geoidheight>0.00</geoidheight><course>74.1</course><type>1</type></trkpt>
      <trkpt lat="38.51139961" lon="-6.60887673"><ele>801</ele><speed>2.53</speed><time>2019-02-23T16:01:41Z</time><pdop>6.068</pdop><geoidheight>0.00</geoidheight><course>332.3</course><type>1</type></trkpt>
      <trkpt lat="38.51146399" lon="-6.60900815"><ele>789</ele><speed>2.89</speed><time>2019-02-23T16:01:45Z</time><pdop>7.585</pdop><geoidheight>0.00</geoidheight><course>290.8</course><type>1</type></trkpt>
      <trkpt lat="38.51150074" lon="-6.60917978"><ele>805</ele><speed>4.64</speed><time>2019-02-23T16:01:49Z</time><pdop>7.585</pdop><geoidheight>0.00</geoidheight><course>266.2</course><type>1</type></trkpt>
      <trkpt lat="38.51149094" lon="-6.60936961"><ele>804</ele><speed>5.58</speed><time>2019-02-23T16:01:52Z</time><pdop>7.585</pdop><geoidheight>0.00</geoidheight><course>273.8</course><type>1</type></trkpt>
      <trkpt lat="38.51150427" lon="-6.60957532"><ele>798</ele><speed>5.17</speed><time>2019-02-23T16:01:56Z</time><pdop>7.585</pdop><geoidheight>0.00</geoidheight><course>270.3</course><type>1</type></trkpt>
      <trkpt lat="38.51150134" lon="-6.60976459"><ele>832</ele><speed>5.40</speed><time>2019-02-23T16:01:59Z</time><pdop>7.585</pdop><geoidheight>0.00</geoidheight><course>278.3</course><type>1</type></trkpt>
      <trkpt lat="38.51149332" lon="-6.609965"><ele>845</ele><speed>4.33</speed><time>2019-02-23T16:02:02Z</time><pdop>7.585</pdop><geoidheight>0.00</geoidheight><course>274.4</course><type>1</type></trkpt>
      <trkpt lat="38.51158743" lon="-6.61009942"><ele>853</ele><speed>3.23</speed><time>2019-02-23T16:02:06Z</time><pdop>7.585</pdop><geoidheight>0.00</geoidheight><course>326.8</course><type>1</type></trkpt>
      <trkpt lat="38.51168111" lon="-6.61025545"><ele>793</ele><speed>3.83</speed><time>2019-02-23T16:02:11Z</time><pdop>7.585</pdop><geoidheight>0.00</geoidheight><course>303.5</course><type>1</type></trkpt>
      <trkpt lat="38.51175064" lon="-6.61040222"><ele>819</ele><speed>4.08</speed><time>2019-02-23T16:02:15Z</time><pdop>7.585</pdop><geoidheight>0.00</geoidheight><course>295.1</course><type>1</type></trkpt>
      <trkpt lat="38.51183524" lon="-6.6105805"><ele>832</ele><speed>4.92</speed><time>2019-02-23T16:02:19Z</time><pdop>7.585</pdop><geoidheight>0.00</geoidheight><course>298.4</course><type>1</type></trkpt>
      <trkpt lat="38.51188763" lon="-6.61072127"><ele>861</ele><speed>3.33</speed><time>2019-02-23T16:02:23Z</time><pdop>6.068</pdop><geoidheight>0.00</geoidheight><course>297.4</course><type>1</type></trkpt>
      <trkpt lat="38.51198019" lon="-6.6108332"><ele>871</ele><speed>3.37</speed><time>2019-02-23T16:02:27Z</time><pdop>6.068</pdop><geoidheight>0.00</geoidheight><course>331.3</course><type>1</type></trkpt>
      <trkpt lat="38.51210813" lon="-6.61084154"><ele>808</ele><speed>4.20</speed><time>2019-02-23T16:02:31Z</time><pdop>6.068</pdop><geoidheight>0.00</geoidheight><course>6.3</course><type>1</type></trkpt>
      <trkpt lat="38.51219257" lon="-6.61067518"><ele>808</ele><speed>5.85</speed><time>2019-02-23T16:02:34Z</time><pdop>6.068</pdop><geoidheight>0.00</geoidheight><course>60.2</course><type>1</type></trkpt>
      <trkpt lat="38.51224745" lon="-6.61052451"><ele>835</ele><speed>6.73</speed><time>2019-02-23T16:02:36Z</time><pdop>6.068</pdop><geoidheight>0.00</geoidheight><course>73.5</course><type>1</type></trkpt>
      <trkpt lat="38.51228198" lon="-6.61034157"><ele>848</ele><speed>8.12</speed><time>2019-02-23T16:02:38Z</time><pdop>6.068</pdop><geoidheight>0.00</geoidheight><course>85.6</course><type>1</type></trkpt>
      <trkpt lat="38.51228537" lon="-6.61014219"><ele>809</ele><speed>8.86</speed><time>2019-02-23T16:02:40Z</time><pdop>6.068</pdop><geoidheight>0.00</geoidheight><course>94.6</course><type>1</type></trkpt>
      <trkpt lat="38.51224648" lon="-6.6099318"><ele>812</ele><speed>9.45</speed><time>2019-02-23T16:02:42Z</time><pdop>6.068</pdop><geoidheight>0.00</geoidheight><course>110.3</course><type>1</type></trkpt>
      <trkpt lat="38.51213774" lon="-6.60973347"><ele>813</ele><speed>10.24</speed><time>2019-02-23T16:02:44Z</time><pdop>6.068</pdop><geoidheight>0.00</geoidheight><course>124.9</course><type>1</type></trkpt>
      <trkpt lat="38.51200342" lon="-6.60955475"><ele>840</ele><speed>11.45</speed><time>2019-02-23T16:02:46Z</time><pdop>6.068</pdop><geoidheight>0.00</geoidheight><course>142.0</course><type>1</type></trkpt>
      <trkpt lat="38.51179124" lon="-6.60946268"><ele>853</ele><speed>12.49</speed><time>2019-02-23T16:02:48Z</time><pdop>6.068</pdop><geoidheight>0.00</geoidheight><course>169.9</course><type>1</type></trkpt>
      <trkpt lat="38.5116812" lon="-6.60947451"><ele>859</ele><speed>12.72</speed><time>2019-02-23T16:02:49Z</time><pdop>6.068</pdop><geoidheight>0.00</geoidheight><course>185.4</course><type>1</type></trkpt>
      <trkpt lat="38.51156138" lon="-6.60951332"><ele>812</ele><speed>12.58</speed><time>2019-02-23T16:02:50Z</time><pdop>6.068</pdop><geoidheight>0.00</geoidheight><course>199.9</course><type>1</type></trkpt>
      <trkpt lat="38.51145735" lon="-6.60959"><ele>828</ele><speed>11.77</speed><time>2019-02-23T16:02:51Z</time><pdop>6.068</pdop><geoidheight>0.00</geoidheight><course>212.9</course><type>1</type></trkpt>
      <trkpt lat="38.51132448" lon="-6.60974363"><ele>850</ele><speed>8.41</speed><time>2019-02-23T16:02:53Z</time><pdop>6.068</pdop><geoidheight>0.00</geoidheight><course>237.1</course><type>1</type></trkpt>
      <trkpt lat="38.51128569" lon="-6.60991278"><ele>867</ele><speed>6.80</speed><time>2019-02-23T16:02:55Z</time><pdop>4.5509996</pdop><geoidheight>0.00</geoidheight><course>260.2</course><type>1</type></trkpt>
      <trkpt lat="38.51128057" lon="-6.61005806"><ele>869</ele><speed>5.38</speed><time>2019-02-23T16:02:57Z</time><pdop>6.068</pdop><geoidheight>0.00</geoidheight><course>275.2</course><type>1</type></trkpt>
      <trkpt lat="38.51133533" lon="-6.61023284"><ele>873</ele><speed>4.94</speed><time>2019-02-23T16:03:00Z</time><pdop>6.068</pdop><geoidheight>0.00</geoidheight><course>299.2</course><type>1</type></trkpt>
      <trkpt lat="38.51139835" lon="-6.61038151"><ele>831</ele><speed>3.09</speed><time>2019-02-23T16:03:04Z</time><pdop>7.585</pdop><geoidheight>0.00</geoidheight><course>288.0</course><type>1</type></trkpt>
      <trkpt lat="38.51145947" lon="-6.61054491"><ele>803</ele><speed>3.00</speed><time>2019-02-23T16:03:09Z</time><pdop>7.585</pdop><geoidheight>0.00</geoidheight><course>297.6</course><type>1</type></trkpt>
      <trkpt lat="38.51154907" lon="-6.61067854"><ele>814</ele><speed>3.60</speed><time>2019-02-23T16:03:14Z</time><pdop>7.585</pdop><geoidheight>0.00</geoidheight><course>310.5</course><type>1</type></trkpt>
      <trkpt lat="38.51168705" lon="-6.61072936"><ele>800</ele><speed>3.23</speed><time>2019-02-23T16:03:20Z</time><pdop>7.585</pdop><geoidheight>0.00</geoidheight><course>351.2</course><type>1</type></trkpt>
      <trkpt lat="38.51181299" lon="-6.61070222"><ele>820</ele><speed>4.03</speed><time>2019-02-23T16:03:24Z</time><pdop>6.068</pdop><geoidheight>0.00</geoidheight><course>24.1</course><type>1</type></trkpt>
      <trkpt lat="38.51190793" lon="-6.61060443"><ele>849</ele><speed>4.33</speed><time>2019-02-23T16:03:27Z</time><pdop>6.068</pdop><geoidheight>0.00</geoidheight><course>42.4</course><type>1</type></trkpt>
      <trkpt lat="38.51199381" lon="-6.61045833"><ele>864</ele><speed>5.01</speed><time>2019-02-23T16:03:30Z</time><pdop>6.068</pdop><geoidheight>0.00</geoidheight><course>56.0</course><type>1</type></trkpt>
      <trkpt lat="38.51204956" lon="-6.61034722"><ele>873</ele><speed>5.67</speed><time>2019-02-23T16:03:32Z</time><pdop>4.5509996</pdop><geoidheight>0.00</geoidheight><course>59.8</course><type>1</type></trkpt>
      <trkpt lat="38.51209268" lon="-6.6102259"><ele>875</ele><speed>5.97</speed><time>2019-02-23T16:03:34Z</time><pdop>6.068</pdop><geoidheight>0.00</geoidheight><course>65.1</course><type>1</type></trkpt>
      <trkpt lat="38.51213" lon="-6.61008548"><ele>876</ele><speed>6.24</speed><time>2019-02-23T16:03:36Z</time><pdop>4.5509996</pdop><geoidheight>0.00</geoidheight><course>73.5</course><type>1</type></trkpt>
      <trkpt lat="38.51216084" lon="-6.6099519"><ele>875</ele><speed>6.57</speed><time>2019-02-23T16:03:38Z</time><pdop>6.068</pdop><geoidheight>0.00</geoidheight><course>68.4</course><type>1</type></trkpt>
      <trkpt lat="38.51219578" lon="-6.60978965"><ele>875</ele><speed>7.25</speed><time>2019-02-23T16:03:40Z</time><pdop>6.068</pdop><geoidheight>0.00</geoidheight><course>78.4</course><type>1</type></trkpt>
      <trkpt lat="38.51221954" lon="-6.60961883"><ele>874</ele><speed>7.95</speed><time>2019-02-23T16:03:42Z</time><pdop>6.068</pdop><geoidheight>0.00</geoidheight><course>89.9</course><type>1</type></trkpt>
      <trkpt lat="38.51220073" lon="-6.60941961"><ele>813</ele><speed>9.10</speed><time>2019-02-23T16:03:44Z</time><pdop>6.068</pdop><geoidheight>0.00</geoidheight><course>99.1</course><type>1</type></trkpt>
      <trkpt lat="38.51214866" lon="-6.60920469"><ele>841</ele><speed>10.52</speed><time>2019-02-23T16:03:46Z</time><pdop>6.068</pdop><geoidheight>0.00</geoidheight><course>115.4</course><type>1</type></trkpt>
      <trkpt lat="38.5120332" lon="-6.60899991"><ele>830</ele><speed>11.92</speed><time>2019-02-23T16:03:48Z</time><pdop>6.068</pdop><geoidheight>0.00</geoidheight><course>134.3</course><type>1</type></trkpt>
      <trkpt lat="38.51184681" lon="-6.60886276"><ele>853</ele><speed>12.77</speed><time>2019-02-23T16:03:50Z</time><pdop>6.068</pdop><geoidheight>0.00</geoidheight><course>158.2</course><type>1</type></trkpt>
      <trkpt lat="38.51173264" lon="-6.60883654"><ele>859</ele><speed>12.88</speed><time>2019-02-23T16:03:51Z</time><pdop>6.068</pdop><geoidheight>0.00</geoidheight><course>171.5</course><type>1</type></trkpt>
      <trkpt lat="38.51161502" lon="-6.60883801"><ele>854</ele><speed>12.61</speed><time>2019-02-23T16:03:52Z</time><pdop>6.068</pdop><geoidheight>0.00</geoidheight><course>185.7</course><type>1</type></trkpt>
      <trkpt lat="38.51141308" lon="-6.60895977"><ele>810</ele><speed>10.90</speed><time>2019-02-23T16:03:54Z</time><pdop>6.068</pdop><geoidheight>0.00</geoidheight><course>213.5</course><type>1</type></trkpt>
      <trkpt lat="38.51128423" lon="-6.60911315"><ele>835</ele><speed>8.64</speed><time>2019-02-23T16:03:56Z</time><pdop>6.068</pdop><geoidheight>0.00</geoidheight><course>238.0</course><type>1</type></trkpt>
      <trkpt lat="38.51123678" lon="-6.60927"><ele>850</ele><speed>6.91</speed><time>2019-02-23T16:03:58Z</time><pdop>6.068</pdop><geoidheight>0.00</geoidheight><course>258.4</course><type>1</type></trkpt>
      <trkpt lat="38.5112506" lon="-6.6094264"><ele>855</ele><speed>6.34</speed><time>2019-02-23T16:04:00Z</time><pdop>7.585</pdop><geoidheight>0.00</geoidheight><course>281.2</course><type>1</type></trkpt>
      <trkpt lat="38.51126775" lon="-6.60962606"><ele>850</ele><speed>3.68</speed><time>2019-02-23T16:04:04Z</time><pdop>7.585</pdop><geoidheight>0.00</geoidheight><course>265.5</course><type>1</type></trkpt>
      <trkpt lat="38.51130908" lon="-6.60979112"><ele>825</ele><speed>3.57</speed><time>2019-02-23T16:04:08Z</time><pdop>7.585</pdop><geoidheight>0.00</geoidheight><course>301.2</course><type>1</type></trkpt>
      <trkpt lat="38.51139521" lon="-6.60991971"><ele>854</ele><speed>3.81</speed><time>2019-02-23T16:04:13Z</time><pdop>7.585</pdop><geoidheight>0.00</geoidheight><course>321.2</course><type>1</type></trkpt>
      <trkpt lat="38.51152691" lon="-6.61000872"><ele>824</ele><speed>3.59</speed><time>2019-02-23T16:04:18Z</time><pdop>7.585</pdop><geoidheight>0.00</geoidheight><course>335.5</course><type>1</type></trkpt>
      <trkpt lat="38.51165622" lon="-6.61008172"><ele>854</ele><speed>3.91</speed><time>2019-02-23T16:04:22Z</time><pdop>7.585</pdop><geoidheight>0.00</geoidheight><course>327.3</course><type>1</type></trkpt>
      <trkpt lat="38.5117913" lon="-6.61020394"><ele>837</ele><speed>4.50</speed><time>2019-02-23T16:04:27Z</time><pdop>9.101999</pdop><geoidheight>0.00</geoidheight><course>305.0</course><type>1</type></trkpt>
      <trkpt lat="38.51188848" lon="-6.61041287"><ele>860</ele><speed>4.14</speed><time>2019-02-23T16:04:32Z</time><pdop>9.101999</pdop><geoidheight>0.00</geoidheight><course>298.3</course><type>1</type></trkpt>
      <trkpt lat="38.51196546" lon="-6.61060228"><ele>817</ele><speed>4.56</speed><time>2019-02-23T16:04:36Z</time><pdop>7.585</pdop><geoidheight>0.00</geoidheight><course>296.9</course><type>1</type></trkpt>
      <trkpt lat="38.51201498" lon="-6.61077829"><ele>838</ele><speed>4.19</speed><time>2019-02-23T16:04:40Z</time><pdop>9.101999</pdop><geoidheight>0.00</geoidheight><course>278.6</course><type>1</type></trkpt>
      <trkpt lat="38.51207372" lon="-6.61100728"><ele>853</ele><speed>4.85</speed><time>2019-02-23T16:04:44Z</time><pdop>9.101999</pdop><geoidheight>0.00</geoidheight><course>285.5</course><type>1</type></trkpt>
      <trkpt lat="38.51209041" lon="-6.61121809"><ele>859</ele><speed>4.23</speed><time>2019-02-23T16:04:48Z</time><pdop>7.585</pdop><geoidheight>0.00</geoidheight><course>281.7</course><type>1</type></trkpt>
      <trkpt lat="38.51214893" lon="-6.61137079"><ele>864</ele><speed>4.19</speed><time>2019-02-23T16:04:51Z</time><pdop>7.585</pdop><geoidheight>0.00</geoidheight><course>293.7</course><type>1</type></trkpt>
      <trkpt lat="38.51224085" lon="-6.61149186"><ele>866</ele><speed>2.08</speed><time>2019-02-23T16:04:55Z</time><pdop>7.585</pdop><geoidheight>0.00</geoidheight><course>336.8</course><type>1</type></trkpt>
      <trkpt lat="38.51235555" lon="-6.61155847"><ele>869</ele><speed>3.72</speed><time>2019-02-23T16:04:59Z</time><pdop>7.585</pdop><geoidheight>0.00</geoidheight><course>336.7</course><type>1</type></trkpt>
      <trkpt lat="38.51250864" lon="-6.61167471"><ele>873</ele><speed>4.01</speed><time>2019-02-23T16:05:05Z</time><pdop>9.101999</pdop><geoidheight>0.00</geoidheight><course>321.2</course><type>1</type></trkpt>
      <trkpt lat="38.51255599" lon="-6.61187061"><ele>870</ele><speed>5.20</speed><time>2019-02-23T16:05:09Z</time><pdop>6.068</pdop><geoidheight>0.00</geoidheight><course>282.8</course><type>1</type></trkpt>
      <trkpt lat="38.51257478" lon="-6.61206066"><ele>874</ele><speed>5.71</speed><time>2019-02-23T16:05:12Z</time><pdop>7.585</pdop><geoidheight>0.00</geoidheight><course>272.9</course><type>1</type></trkpt>
      <trkpt lat="38.51261469" lon="-6.6122303"><ele>871</ele><speed>3.57</speed><time>2019-02-23T16:05:15Z</time><pdop>6.068</pdop><geoidheight>0.00</geoidheight><course>300.9</course><type>1</type></trkpt>
      <trkpt lat="38.51273894" lon="-6.61214761"><ele>872</ele><speed>5.11</speed><time>2019-02-23T16:05:21Z</time><pdop>7.585</pdop><geoidheight>0.00</geoidheight><course>80.1</course><type>1</type></trkpt>
      <trkpt lat="38.5126981" lon="-6.61190143"><ele>870</ele><speed>8.34</speed><time>2019-02-23T16:05:24Z</time><pdop>7.585</pdop><geoidheight>0.00</geoidheight><course>103.3</course><type>1</type></trkpt>
      <trkpt lat="38.51264067" lon="-6.61173623"><ele>870</ele><speed>8.85</speed><time>2019-02-23T16:05:26Z</time><pdop>7.585</pdop><geoidheight>0.00</geoidheight><course>116.4</course><type>1</type></trkpt>
      <trkpt lat="38.51253559" lon="-6.61154155"><ele>869</ele><speed>10.62</speed><time>2019-02-23T16:05:28Z</time><pdop>7.585</pdop><geoidheight>0.00</geoidheight><course>122.6</course><type>1</type></trkpt>
      <trkpt lat="38.5124049" lon="-6.61134584"><ele>869</ele><speed>11.71</speed><time>2019-02-23T16:05:30Z</time><pdop>7.585</pdop><geoidheight>0.00</geoidheight><course>133.5</course><type>1</type></trkpt>
      <trkpt lat="38.51225964" lon="-6.6111704"><ele>869</ele><speed>11.13</speed><time>2019-02-23T16:05:32Z</time><pdop>7.585</pdop><geoidheight>0.00</geoidheight><course>134.3</course><type>1</type></trkpt>
      <trkpt lat="38.51212372" lon="-6.61096165"><ele>871</ele><speed>11.02</speed><time>2019-02-23T16:05:34Z</time><pdop>7.585</pdop><geoidheight>0.00</geoidheight><course>126.7</course><type>1</type></trkpt>
      <trkpt lat="38.51197467" lon="-6.61075646"><ele>840</ele><speed>11.45</speed><time>2019-02-23T16:05:36Z</time><pdop>7.585</pdop><geoidheight>0.00</geoidheight><course>135.3</course><type>1</type></trkpt>
      <trkpt lat="38.51183235" lon="-6.61057663"><ele>850</ele><speed>11.81</speed><time>2019-02-23T16:05:38Z</time><pdop>7.585</pdop><geoidheight>0.00</geoidheight><course>139.7</course><type>1</type></trkpt>
      <trkpt lat="38.51167788" lon="-6.61036803"><ele>841</ele><speed>11.68</speed><time>2019-02-23T16:05:40Z</time><pdop>7.585</pdop><geoidheight>0.00</geoidheight><course>129.5</course><type>1</type></trkpt>
      <trkpt lat="38.51153032" lon="-6.61016996"><ele>853</ele><speed>11.05</speed><time>2019-02-23T16:05:42Z</time><pdop>7.585</pdop><geoidheight>0.00</geoidheight><course>129.8</course><type>1</type></trkpt>
      <trkpt lat="38.51139515" lon="-6.60999434"><ele>844</ele><speed>10.64</speed><time>2019-02-23T16:05:44Z</time><pdop>7.585</pdop><geoidheight>0.00</geoidheight><course>132.1</course><type>1</type></trkpt>
      <trkpt lat="38.51127144" lon="-6.60980459"><ele>860</ele><speed>10.46</speed><time>2019-02-23T16:05:46Z</time><pdop>6.068</pdop><geoidheight>0.00</geoidheight><course>117.5</course><type>1</type></trkpt>
      <trkpt lat="38.51117804" lon="-6.60959657"><ele>864</ele><speed>9.66</speed><time>2019-02-23T16:05:48Z</time><pdop>6.068</pdop><geoidheight>0.00</geoidheight><course>116.2</course><type>1</type></trkpt>
      <trkpt lat="38.51110184" lon="-6.60940832"><ele>866</ele><speed>9.71</speed><time>2019-02-23T16:05:50Z</time><pdop>6.068</pdop><geoidheight>0.00</geoidheight><course>124.2</course><type>1</type></trkpt>
      <trkpt lat="38.51101373" lon="-6.60920776"><ele>865</ele><speed>10.52</speed><time>2019-02-23T16:05:52Z</time><pdop>6.068</pdop><geoidheight>0.00</geoidheight><course>113.5</course><type>1</type></trkpt>
      <trkpt lat="38.51095735" lon="-6.60900076"><ele>867</ele><speed>9.59</speed><time>2019-02-23T16:05:54Z</time><pdop>7.585</pdop><geoidheight>0.00</geoidheight><course>107.4</course><type>1</type></trkpt>
      <trkpt lat="38.51090585" lon="-6.60877814"><ele>857</ele><speed>9.91</speed><time>2019-02-23T16:05:56Z</time><pdop>7.585</pdop><geoidheight>0.00</geoidheight><course>109.8</course><type>1</type></trkpt>
      <trkpt lat="38.51083277" lon="-6.60856204"><ele>858</ele><speed>9.74</speed><time>2019-02-23T16:05:58Z</time><pdop>7.585</pdop><geoidheight>0.00</geoidheight><course>111.8</course><type>1</type></trkpt>
      <trkpt lat="38.510787" lon="-6.60835391"><ele>866</ele><speed>9.39</speed><time>2019-02-23T16:06:00Z</time><pdop>7.585</pdop><geoidheight>0.00</geoidheight><course>112.0</course><type>1</type></trkpt>
      <trkpt lat="38.51074274" lon="-6.60814172"><ele>859</ele><speed>9.58</speed><time>2019-02-23T16:06:02Z</time><pdop>7.585</pdop><geoidheight>0.00</geoidheight><course>104.3</course><type>1</type></trkpt>
      <trkpt lat="38.51071752" lon="-6.60792316"><ele>865</ele><speed>8.14</speed><time>2019-02-23T16:06:04Z</time><pdop>7.585</pdop><geoidheight>0.00</geoidheight><course>96.4</course><type>1</type></trkpt>
      <trkpt lat="38.51071993" lon="-6.6077381"><ele>868</ele><speed>8.14</speed><time>2019-02-23T16:06:06Z</time><pdop>7.585</pdop><geoidheight>0.00</geoidheight><course>87.9</course><type>1</type></trkpt>
      <trkpt lat="38.51073285" lon="-6.60755069"><ele>869</ele><speed>9.16</speed><time>2019-02-23T16:06:08Z</time><pdop>6.068</pdop><geoidheight>0.00</geoidheight><course>86.7</course><type>1</type></trkpt>
      <trkpt lat="38.51073758" lon="-6.6073481"><ele>870</ele><speed>7.18</speed><time>2019-02-23T16:06:10Z</time><pdop>6.068</pdop><geoidheight>0.00</geoidheight><course>77.5</course><type>1</type></trkpt>
      <trkpt lat="38.51080274" lon="-6.60721539"><ele>872</ele><speed>3.80</speed><time>2019-02-23T16:06:13Z</time><pdop>6.068</pdop><geoidheight>0.00</geoidheight><course>27.3</course><type>1</type></trkpt>
      <trkpt lat="38.51090937" lon="-6.60717616"><ele>874</ele><speed>3.71</speed><time>2019-02-23T16:06:16Z</time><pdop>6.068</pdop><geoidheight>0.00</geoidheight><course>5.8</course><type>1</type></trkpt>
      <trkpt lat="38.5110198" lon="-6.60723668"><ele>866</ele><speed>3.85</speed><time>2019-02-23T16:06:21Z</time><pdop>7.585</pdop><geoidheight>0.00</geoidheight><course>325.3</course><type>1</type></trkpt>
      <trkpt lat="38.51108595" lon="-6.60740688"><ele>866</ele><speed>5.13</speed><time>2019-02-23T16:06:25Z</time><pdop>7.585</pdop><geoidheight>0.00</geoidheight><course>289.3</course><type>1</type></trkpt>
      <trkpt lat="38.51112385" lon="-6.60759774"><ele>841</ele><speed>5.19</speed><time>2019-02-23T16:06:28Z</time><pdop>7.585</pdop><geoidheight>0.00</geoidheight><course>283.7</course><type>1</type></trkpt>
      <trkpt lat="38.51118141" lon="-6.60779831"><ele>852</ele><speed>5.64</speed><time>2019-02-23T16:06:31Z</time><pdop>7.585</pdop><geoidheight>0.00</geoidheight><course>286.0</course><type>1</type></trkpt>
      <trkpt lat="38.51121865" lon="-6.60800182"><ele>861</ele><speed>5.66</speed><time>2019-02-23T16:06:34Z</time><pdop>7.585</pdop><geoidheight>0.00</geoidheight><course>275.1</course><type>1</type></trkpt>
      <trkpt lat="38.51124751" lon="-6.60821678"><ele>865</ele><speed>6.24</speed><time>2019-02-23T16:06:37Z</time><pdop>6.068</pdop><geoidheight>0.00</geoidheight><course>279.3</course><type>1</type></trkpt>
      <trkpt lat="38.51125423" lon="-6.60836138"><ele>866</ele><speed>6.01</speed><time>2019-02-23T16:06:39Z</time><pdop>6.068</pdop><geoidheight>0.00</geoidheight><course>274.3</course><type>1</type></trkpt>
      <trkpt lat="38.51123938" lon="-6.60855132"><ele>867</ele><speed>6.48</speed><time>2019-02-23T16:06:42Z</time><pdop>6.068</pdop><geoidheight>0.00</geoidheight><course>268.6</course><type>1</type></trkpt>
      <trkpt lat="38.51123492" lon="-6.60870445"><ele>866</ele><speed>6.62</speed><time>2019-02-23T16:06:44Z</time><pdop>6.068</pdop><geoidheight>0.00</geoidheight><course>267.9</course><type>1</type></trkpt>
      <trkpt lat="38.51120942" lon="-6.60885929"><ele>866</ele><speed>7.09</speed><time>2019-02-23T16:06:46Z</time><pdop>6.068</pdop><geoidheight>0.00</geoidheight><course>261.2</course><type>1</type></trkpt>
      <trkpt lat="38.5111921" lon="-6.60899642"><ele>865</ele><speed>6.67</speed><time>2019-02-23T16:06:48Z</time><pdop>6.068</pdop><geoidheight>0.00</geoidheight><course>265.1</course><type>1</type></trkpt>
      <trkpt lat="38.51120455" lon="-6.60917993"><ele>862</ele><speed>6.00</speed><time>2019-02-23T16:06:51Z</time><pdop>6.068</pdop><geoidheight>0.00</geoidheight><course>278.9</course><type>1</type></trkpt>
      <trkpt lat="38.51123111" lon="-6.60937759"><ele>861</ele><speed>5.29</speed><time>2019-02-23T16:06:54Z</time><pdop>7.585</pdop><geoidheight>0.00</geoidheight><course>288.1</course><type>1</type></trkpt>
      <trkpt lat="38.51131467" lon="-6.60953349"><ele>862</ele><speed>5.65</speed><time>2019-02-23T16:06:57Z</time><pdop>7.585</pdop><geoidheight>0.00</geoidheight><course>303.5</course><type>1</type></trkpt>
      <trkpt lat="38.5113994" lon="-6.6097133"><ele>865</ele><speed>5.59</speed><time>2019-02-23T16:07:00Z</time><pdop>6.068</pdop><geoidheight>0.00</geoidheight><course>297.0</course><type>1</type></trkpt>
      <trkpt lat="38.511483" lon="-6.60986697"><ele>866</ele><speed>5.75</speed><time>2019-02-23T16:07:03Z</time><pdop>6.068</pdop><geoidheight>0.00</geoidheight><course>302.5</course><type>1</type></trkpt>
      <trkpt lat="38.51150901" lon="-6.61003986"><ele>866</ele><speed>4.77</speed><time>2019-02-23T16:07:06Z</time><pdop>7.585</pdop><geoidheight>0.00</geoidheight><course>279.6</course><type>1</type></trkpt>
      <trkpt lat="38.51154445" lon="-6.6102367"><ele>871</ele><speed>4.27</speed><time>2019-02-23T16:07:10Z</time><pdop>7.585</pdop><geoidheight>0.00</geoidheight><course>280.3</course><type>1</type></trkpt>
      <trkpt lat="38.51154674" lon="-6.61040317"><ele>876</ele><speed>2.75</speed><time>2019-02-23T16:07:14Z</time><pdop>7.585</pdop><geoidheight>0.00</geoidheight><course>282.3</course><type>1</type></trkpt>
      <trkpt lat="38.51165441" lon="-6.61054626"><ele>876</ele><speed>2.27</speed><time>2019-02-23T16:07:20Z</time><pdop>9.101999</pdop><geoidheight>0.00</geoidheight><course>330.3</course><type>1</type></trkpt>
      <trkpt lat="38.51174867" lon="-6.61069478"><ele>864</ele><speed>3.27</speed><time>2019-02-23T16:07:27Z</time><pdop>7.585</pdop><geoidheight>0.00</geoidheight><course>303.2</course><type>1</type></trkpt>
      <trkpt lat="38.51178419" lon="-6.61085534"><ele>860</ele><speed>3.42</speed><time>2019-02-23T16:07:31Z</time><pdop>7.585</pdop><geoidheight>0.00</geoidheight><course>278.4</course><type>1</type></trkpt>
      <trkpt lat="38.51179422" lon="-6.61103845"><ele>854</ele><speed>4.37</speed><time>2019-02-23T16:07:35Z</time><pdop>7.585</pdop><geoidheight>0.00</geoidheight><course>270.6</course><type>1</type></trkpt>
      <trkpt lat="38.51179437" lon="-6.61118891"><ele>852</ele><speed>4.20</speed><time>2019-02-23T16:07:38Z</time><pdop>6.068</pdop><geoidheight>0.00</geoidheight><course>267.9</course><type>1</type></trkpt>
      <trkpt lat="38.51180638" lon="-6.61135863"><ele>853</ele><speed>4.50</speed><time>2019-02-23T16:07:41Z</time><pdop>6.068</pdop><geoidheight>0.00</geoidheight><course>275.9</course><type>1</type></trkpt>
      <trkpt lat="38.51183582" lon="-6.61149274"><ele>851</ele><speed>3.25</speed><time>2019-02-23T16:07:44Z</time><pdop>6.068</pdop><geoidheight>0.00</geoidheight><course>285.5</course><type>1</type></trkpt>
      <trkpt lat="38.51195383" lon="-6.61149539"><ele>855</ele><speed>3.86</speed><time>2019-02-23T16:07:49Z</time><pdop>7.585</pdop><geoidheight>0.00</geoidheight><course>39.6</course><type>1</type></trkpt>
      <trkpt lat="38.51201309" lon="-6.61127944"><ele>855</ele><speed>6.86</speed><time>2019-02-23T16:07:52Z</time><pdop>7.585</pdop><geoidheight>0.00</geoidheight><course>86.8</course><type>1</type></trkpt>
      <trkpt lat="38.51200598" lon="-6.61107145"><ele>852</ele><speed>9.18</speed><time>2019-02-23T16:07:54Z</time><pdop>6.068</pdop><geoidheight>0.00</geoidheight><course>102.6</course><type>1</type></trkpt>
      <trkpt lat="38.51193782" lon="-6.61085426"><ele>856</ele><speed>10.58</speed><time>2019-02-23T16:07:56Z</time><pdop>6.068</pdop><geoidheight>0.00</geoidheight><course>114.8</course><type>1</type></trkpt>
      <trkpt lat="38.51184135" lon="-6.61063847"><ele>855</ele><speed>11.69</speed><time>2019-02-23T16:07:58Z</time><pdop>6.068</pdop><geoidheight>0.00</geoidheight><course>122.2</course><type>1</type></trkpt>
      <trkpt lat="38.51173376" lon="-6.61041876"><ele>855</ele><speed>11.50</speed><time>2019-02-23T16:08:00Z</time><pdop>6.068</pdop><geoidheight>0.00</geoidheight><course>122.7</course><type>1</type></trkpt>
      <trkpt lat="38.5116266" lon="-6.6102004"><ele>855</ele><speed>11.12</speed><time>2019-02-23T16:08:02Z</time><pdop>6.068</pdop><geoidheight>0.00</geoidheight><course>123.1</course><type>1</type></trkpt>
      <trkpt lat="38.51152972" lon="-6.60998494"><ele>855</ele><speed>11.68</speed><time>2019-02-23T16:08:04Z</time><pdop>6.068</pdop><geoidheight>0.00</geoidheight><course>123.1</course><type>1</type></trkpt>
      <trkpt lat="38.51141595" lon="-6.60975831"><ele>857</ele><speed>11.39</speed><time>2019-02-23T16:08:06Z</time><pdop>6.068</pdop><geoidheight>0.00</geoidheight><course>121.2</course><type>1</type></trkpt>
      <trkpt lat="38.51130482" lon="-6.60953854"><ele>857</ele><speed>10.51</speed><time>2019-02-23T16:08:08Z</time><pdop>6.068</pdop><geoidheight>0.00</geoidheight><course>116.3</course><type>1</type></trkpt>
      <trkpt lat="38.51122517" lon="-6.60932452"><ele>858</ele><speed>10.92</speed><time>2019-02-23T16:08:10Z</time><pdop>6.068</pdop><geoidheight>0.00</geoidheight><course>116.0</course><type>1</type></trkpt>
      <trkpt lat="38.51114283" lon="-6.60907782"><ele>858</ele><speed>11.48</speed><time>2019-02-23T16:08:12Z</time><pdop>6.068</pdop><geoidheight>0.00</geoidheight><course>115.1</course><type>1</type></trkpt>
      <trkpt lat="38.51103439" lon="-6.60886065"><ele>856</ele><speed>10.42</speed><time>2019-02-23T16:08:14Z</time><pdop>6.068</pdop><geoidheight>0.00</geoidheight><course>117.7</course><type>1</type></trkpt>
      <trkpt lat="38.51094674" lon="-6.6086324"><ele>855</ele><speed>10.12</speed><time>2019-02-23T16:08:16Z</time><pdop>6.068</pdop><geoidheight>0.00</geoidheight><course>117.6</course><type>1</type></trkpt>
      <trkpt lat="38.5108739" lon="-6.60841149"><ele>856</ele><speed>10.70</speed><time>2019-02-23T16:08:18Z</time><pdop>6.068</pdop><geoidheight>0.00</geoidheight><course>113.9</course><type>1</type></trkpt>
      <trkpt lat="38.51078674" lon="-6.60819919"><ele>858</ele><speed>10.42</speed><time>2019-02-23T16:08:20Z</time><pdop>6.068</pdop><geoidheight>0.00</geoidheight><course>116.3</course><type>1</type></trkpt>
      <trkpt lat="38.51069924" lon="-6.60799982"><ele>860</ele><speed>10.76</speed><time>2019-02-23T16:08:22Z</time><pdop>6.068</pdop><geoidheight>0.00</geoidheight><course>118.8</course><type>1</type></trkpt>
      <trkpt lat="38.51061995" lon="-6.60778174"><ele>860</ele><speed>10.42</speed><time>2019-02-23T16:08:24Z</time><pdop>6.068</pdop><geoidheight>0.00</geoidheight><course>116.1</course><type>1</type></trkpt>
      <trkpt lat="38.51057342" lon="-6.60759245"><ele>862</ele><speed>8.26</speed><time>2019-02-23T16:08:26Z</time><pdop>6.068</pdop><geoidheight>0.00</geoidheight><course>105.9</course><type>1</type></trkpt>
      <trkpt lat="38.51055244" lon="-6.60741642"><ele>864</ele><speed>7.84</speed><time>2019-02-23T16:08:28Z</time><pdop>6.068</pdop><geoidheight>0.00</geoidheight><course>90.5</course><type>1</type></trkpt>
      <trkpt lat="38.51056911" lon="-6.60725184"><ele>867</ele><speed>6.63</speed><time>2019-02-23T16:08:30Z</time><pdop>6.068</pdop><geoidheight>0.00</geoidheight><course>79.6</course><type>1</type></trkpt>
      <trkpt lat="38.51066189" lon="-6.60715734"><ele>872</ele><speed>3.02</speed><time>2019-02-23T16:08:34Z</time><pdop>6.068</pdop><geoidheight>0.00</geoidheight><course>355.9</course><type>1</type></trkpt>
      <trkpt lat="38.51070494" lon="-6.60731289"><ele>879</ele><speed>3.60</speed><time>2019-02-23T16:08:39Z</time><pdop>6.068</pdop><geoidheight>0.00</geoidheight><course>271.3</course><type>1</type></trkpt>
      <trkpt lat="38.51075521" lon="-6.607455"><ele>880</ele><speed>4.01</speed><time>2019-02-23T16:08:43Z</time><pdop>6.068</pdop><geoidheight>0.00</geoidheight><course>313.8</course><type>1</type></trkpt>
      <trkpt lat="38.51078894" lon="-6.60756589"><ele>885</ele><speed>3.27</speed><time>2019-02-23T16:08:46Z</time><pdop>4.5509996</pdop><geoidheight>0.00</geoidheight><course>246.6</course><type>1</type></trkpt>
      <trkpt lat="38.51077091" lon="-6.60769917"><ele>882</ele><speed>4.10</speed><time>2019-02-23T16:08:49Z</time><pdop>6.068</pdop><geoidheight>0.00</geoidheight><course>269.5</course><type>1</type></trkpt>
      <trkpt lat="38.51079352" lon="-6.60784382"><ele>882</ele><speed>2.31</speed><time>2019-02-23T16:08:53Z</time><pdop>6.068</pdop><geoidheight>0.00</geoidheight><course>285.4</course><type>1</type></trkpt>
      <trkpt lat="38.51092449" lon="-6.60778227"><ele>881</ele><speed>4.77</speed><time>2019-02-23T16:09:01Z</time><pdop>7.585</pdop><geoidheight>0.00</geoidheight><course>67.9</course><type>1</type></trkpt>
      <trkpt lat="38.51094972" lon="-6.60762076"><ele>882</ele><speed>6.66</speed><time>2019-02-23T16:09:03Z</time><pdop>7.585</pdop><geoidheight>0.00</geoidheight><course>81.2</course><type>1</type></trkpt>
      <trkpt lat="38.51095816" lon="-6.60744267"><ele>882</ele><speed>8.19</speed><time>2019-02-23T16:09:05Z</time><pdop>6.068</pdop><geoidheight>0.00</geoidheight><course>93.6</course><type>1</type></trkpt>
      <trkpt lat="38.51090699" lon="-6.60723674"><ele>881</ele><speed>9.40</speed><time>2019-02-23T16:09:07Z</time><pdop>6.068</pdop><geoidheight>0.00</geoidheight><course>104.3</course><type>1</type></trkpt>
      <trkpt lat="38.51081606" lon="-6.60702749"><ele>879</ele><speed>11.13</speed><time>2019-02-23T16:09:09Z</time><pdop>6.068</pdop><geoidheight>0.00</geoidheight><course>120.1</course><type>1</type></trkpt>
      <trkpt lat="38.51068707" lon="-6.60682378"><ele>879</ele><speed>11.97</speed><time>2019-02-23T16:09:11Z</time><pdop>6.068</pdop><geoidheight>0.00</geoidheight><course>134.8</course><type>1</type></trkpt>
      <trkpt lat="38.5105967" lon="-6.60674567"><ele>879</ele><speed>12.47</speed><time>2019-02-23T16:09:12Z</time><pdop>6.068</pdop><geoidheight>0.00</geoidheight><course>147.5</course><type>1</type></trkpt>
      <trkpt lat="38.51048512" lon="-6.60669107"><ele>878</ele><speed>13.38</speed><time>2019-02-23T16:09:13Z</time><pdop>6.068</pdop><geoidheight>0.00</geoidheight><course>163.1</course><type>1</type></trkpt>
      <trkpt lat="38.51036517" lon="-6.60667568"><ele>877</ele><speed>14.21</speed><time>2019-02-23T16:09:14Z</time><pdop>6.068</pdop><geoidheight>0.00</geoidheight><course>180.4</course><type>1</type></trkpt>
      <trkpt lat="38.51025286" lon="-6.60671416"><ele>877</ele><speed>13.70</speed><time>2019-02-23T16:09:15Z</time><pdop>6.068</pdop><geoidheight>0.00</geoidheight><course>199.8</course><type>1</type></trkpt>
      <trkpt lat="38.51011382" lon="-6.60687205"><ele>879</ele><speed>8.12</speed><time>2019-02-23T16:09:17Z</time><pdop>6.068</pdop><geoidheight>0.00</geoidheight><course>243.6</course><type>1</type></trkpt>
      <trkpt lat="38.51010156" lon="-6.60701838"><ele>882</ele><speed>3.38</speed><time>2019-02-23T16:09:20Z</time><pdop>6.068</pdop><geoidheight>0.00</geoidheight><course>263.5</course><type>1</type></trkpt>
      <trkpt lat="38.5100982" lon="-6.60720321"><ele>882</ele><speed>3.96</speed><time>2019-02-23T16:09:24Z</time><pdop>6.068</pdop><geoidheight>0.00</geoidheight><course>297.9</course><type>1</type></trkpt>
      <trkpt lat="38.51012685" lon="-6.6073542"><ele>887</ele><speed>3.60</speed><time>2019-02-23T16:09:29Z</time><pdop>6.068</pdop><geoidheight>0.00</geoidheight><course>287.1</course><type>1</type></trkpt>
      <trkpt lat="38.51018111" lon="-6.60748822"><ele>891</ele><speed>2.37</speed><time>2019-02-23T16:09:33Z</time><pdop>6.068</pdop><geoidheight>0.00</geoidheight><course>293.4</course><type>1</type></trkpt>
      <trkpt lat="38.51025459" lon="-6.60760693"><ele>886</ele><speed>2.81</speed><time>2019-02-23T16:09:38Z</time><pdop>7.585</pdop><geoidheight>0.00</geoidheight><course>11.9</course><type>1</type></trkpt>
      <trkpt lat="38.5103776" lon="-6.6075226"><ele>883</ele><speed>3.31</speed><time>2019-02-23T16:09:43Z</time><pdop>7.585</pdop><geoidheight>0.00</geoidheight><course>35.6</course><type>1</type></trkpt>
      <trkpt lat="38.51048256" lon="-6.60740483"><ele>879</ele><speed>3.46</speed><time>2019-02-23T16:09:47Z</time><pdop>7.585</pdop><geoidheight>0.00</geoidheight><course>50.1</course><type>1</type></trkpt>
      <trkpt lat="38.51056731" lon="-6.60725863"><ele>879</ele><speed>3.98</speed><time>2019-02-23T16:09:51Z</time><pdop>6.068</pdop><geoidheight>0.00</geoidheight><course>53.0</course><type>1</type></trkpt>
      <trkpt lat="38.51062443" lon="-6.60712572"><ele>879</ele><speed>4.54</speed><time>2019-02-23T16:09:54Z</time><pdop>6.068</pdop><geoidheight>0.00</geoidheight><course>62.3</course><type>1</type></trkpt>
      <trkpt lat="38.51068938" lon="-6.60695714"><ele>877</ele><speed>5.19</speed><time>2019-02-23T16:09:57Z</time><pdop>6.068</pdop><geoidheight>0.00</geoidheight><course>67.1</course><type>1</type></trkpt>
      <trkpt lat="38.51073568" lon="-6.60678732"><ele>876</ele><speed>5.13</speed><time>2019-02-23T16:10:00Z</time><pdop>6.068</pdop><geoidheight>0.00</geoidheight><course>68.6</course><type>1</type></trkpt>
      <trkpt lat="38.51077666" lon="-6.60664962"><ele>875</ele><speed>5.06</speed><time>2019-02-23T16:10:02Z</time><pdop>6.068</pdop><geoidheight>0.00</geoidheight><course>65.5</course><type>1</type></trkpt>
      <trkpt lat="38.51082332" lon="-6.60650367"><ele>875</ele><speed>4.04</speed><time>2019-02-23T16:10:05Z</time><pdop>6.068</pdop><geoidheight>0.00</geoidheight><course>46.2</course><type>1</type></trkpt>
      <trkpt lat="38.51092876" lon="-6.6063784"><ele>872</ele><speed>4.18</speed><time>2019-02-23T16:10:09Z</time><pdop>6.068</pdop><geoidheight>0.00</geoidheight><course>43.7</course><type>1</type></trkpt>
      <trkpt lat="38.5110297" lon="-6.60627996"><ele>870</ele><speed>3.58</speed><time>2019-02-23T16:10:12Z</time><pdop>6.068</pdop><geoidheight>0.00</geoidheight><course>27.3</course><type>1</type></trkpt>
      <trkpt lat="38.51115244" lon="-6.60622446"><ele>867</ele><speed>3.43</speed><time>2019-02-23T16:10:16Z</time><pdop>6.068</pdop><geoidheight>0.00</geoidheight><course>16.2</course><type>1</type></trkpt>
      <trkpt lat="38.5112681" lon="-6.60627608"><ele>864</ele><speed>3.15</speed><time>2019-02-23T16:10:21Z</time><pdop>7.585</pdop><geoidheight>0.00</geoidheight><course>325.3</course><type>1</type></trkpt>
      <trkpt lat="38.51133567" lon="-6.60640016"><ele>863</ele><speed>3.68</speed><time>2019-02-23T16:10:25Z</time><pdop>6.068</pdop><geoidheight>0.00</geoidheight><course>294.5</course><type>1</type></trkpt>
      <trkpt lat="38.5113626" lon="-6.60654559"><ele>859</ele><speed>4.59</speed><time>2019-02-23T16:10:28Z</time><pdop>6.068</pdop><geoidheight>0.00</geoidheight><course>283.8</course><type>1</type></trkpt>
      <trkpt lat="38.51136391" lon="-6.60673398"><ele>858</ele><speed>5.10</speed><time>2019-02-23T16:10:31Z</time><pdop>6.068</pdop><geoidheight>0.00</geoidheight><course>270.5</course><type>1</type></trkpt>
      <trkpt lat="38.51135556" lon="-6.60692909"><ele>856</ele><speed>5.65</speed><time>2019-02-23T16:10:34Z</time><pdop>7.585</pdop><geoidheight>0.00</geoidheight><course>270.8</course><type>1</type></trkpt>
      <trkpt lat="38.51134514" lon="-6.6070945"><ele>855</ele><speed>4.38</speed><time>2019-02-23T16:10:37Z</time><pdop>7.585</pdop><geoidheight>0.00</geoidheight><course>265.6</course><type>1</type></trkpt>
      <trkpt lat="38.51136163" lon="-6.60725794"><ele>852</ele><speed>4.52</speed><time>2019-02-23T16:10:40Z</time><pdop>7.585</pdop><geoidheight>0.00</geoidheight><course>280.1</course><type>1</type></trkpt>
      <trkpt lat="38.51144909" lon="-6.60740608"><ele>850</ele><speed>3.31</speed><time>2019-02-23T16:10:45Z</time><pdop>6.068</pdop><geoidheight>0.00</geoidheight><course>318.1</course><type>1</type></trkpt>
      <trkpt lat="38.51155236" lon="-6.60749369"><ele>849</ele><speed>3.18</speed><time>2019-02-23T16:10:49Z</time><pdop>6.068</pdop><geoidheight>0.00</geoidheight><course>328.1</course><type>1</type></trkpt>
      <trkpt lat="38.51165711" lon="-6.60753083"><ele>853</ele><speed>2.83</speed><time>2019-02-23T16:10:53Z</time><pdop>6.068</pdop><geoidheight>0.00</geoidheight><course>351.5</course><type>1</type></trkpt>
      <trkpt lat="38.51176077" lon="-6.60757101"><ele>854</ele><speed>3.25</speed><time>2019-02-23T16:10:57Z</time><pdop>6.068</pdop><geoidheight>0.00</geoidheight><course>323.4</course><type>1</type></trkpt>
      <trkpt lat="38.51182182" lon="-6.6077284"><ele>854</ele><speed>3.67</speed><time>2019-02-23T16:11:01Z</time><pdop>6.068</pdop><geoidheight>0.00</geoidheight><course>296.6</course><type>1</type></trkpt>
      <trkpt lat="38.51195955" lon="-6.60767787"><ele>852</ele><speed>5.19</speed><time>2019-02-23T16:11:07Z</time><pdop>6.068</pdop><geoidheight>0.00</geoidheight><course>54.4</course><type>1</type></trkpt>
      <trkpt lat="38.51198347" lon="-6.60745418"><ele>852</ele><speed>7.95</speed><time>2019-02-23T16:11:10Z</time><pdop>6.068</pdop><geoidheight>0.00</geoidheight><course>100.1</course><type>1</type></trkpt>
      <trkpt lat="38.5119376" lon="-6.60726781"><ele>807</ele><speed>9.76</speed><time>2019-02-23T16:11:12Z</time><pdop>6.068</pdop><geoidheight>0.00</geoidheight><course>116.8</course><type>1</type></trkpt>
      <trkpt lat="38.51181458" lon="-6.60706911"><ele>827</ele><speed>11.98</speed><time>2019-02-23T16:11:14Z</time><pdop>6.068</pdop><geoidheight>0.00</geoidheight><course>135.7</course><type>1</type></trkpt>
      <trkpt lat="38.51173402" lon="-6.60696252"><ele>830</ele><speed>12.74</speed><time>2019-02-23T16:11:15Z</time><pdop>6.068</pdop><geoidheight>0.00</geoidheight><course>142.0</course><type>1</type></trkpt>
      <trkpt lat="38.51163236" lon="-6.60688153"><ele>833</ele><speed>13.14</speed><time>2019-02-23T16:11:16Z</time><pdop>6.068</pdop><geoidheight>0.00</geoidheight><course>146.4</course><type>1</type></trkpt>
      <trkpt lat="38.51153163" lon="-6.60682265"><ele>835</ele><speed>12.99</speed><time>2019-02-23T16:11:17Z</time><pdop>6.068</pdop><geoidheight>0.00</geoidheight><course>147.3</course><type>1</type></trkpt>
      <trkpt lat="38.51132612" lon="-6.60670843"><ele>838</ele><speed>12.60</speed><time>2019-02-23T16:11:19Z</time><pdop>6.068</pdop><geoidheight>0.00</geoidheight><course>146.3</course><type>1</type></trkpt>
      <trkpt lat="38.51116104" lon="-6.60652733"><ele>839</ele><speed>12.28</speed><time>2019-02-23T16:11:21Z</time><pdop>7.585</pdop><geoidheight>0.00</geoidheight><course>139.4</course><type>1</type></trkpt>
      <trkpt lat="38.51101335" lon="-6.60632988"><ele>841</ele><speed>11.53</speed><time>2019-02-23T16:11:23Z</time><pdop>7.585</pdop><geoidheight>0.00</geoidheight><course>128.4</course><type>1</type></trkpt>
      <trkpt lat="38.51088397" lon="-6.6061254"><ele>843</ele><speed>10.99</speed><time>2019-02-23T16:11:25Z</time><pdop>6.068</pdop><geoidheight>0.00</geoidheight><course>126.8</course><type>1</type></trkpt>
      <trkpt lat="38.51077994" lon="-6.60594563"><ele>843</ele><speed>9.66</speed><time>2019-02-23T16:11:27Z</time><pdop>6.068</pdop><geoidheight>0.00</geoidheight><course>121.8</course><type>1</type></trkpt>
      <trkpt lat="38.5107325" lon="-6.60575525"><ele>841</ele><speed>8.79</speed><time>2019-02-23T16:11:29Z</time><pdop>6.068</pdop><geoidheight>0.00</geoidheight><course>94.4</course><type>1</type></trkpt>
      <trkpt lat="38.51074046" lon="-6.60558568"><ele>841</ele><speed>6.04</speed><time>2019-02-23T16:11:31Z</time><pdop>7.585</pdop><geoidheight>0.00</geoidheight><course>61.1</course><type>1</type></trkpt>
      <trkpt lat="38.51086032" lon="-6.60563486"><ele>841</ele><speed>2.97</speed><time>2019-02-23T16:11:36Z</time><pdop>7.585</pdop><geoidheight>0.00</geoidheight><course>295.0</course><type>1</type></trkpt>
      <trkpt lat="38.5108803" lon="-6.6058281"><ele>839</ele><speed>5.06</speed><time>2019-02-23T16:11:40Z</time><pdop>6.068</pdop><geoidheight>0.00</geoidheight><course>270.8</course><type>1</type></trkpt>
      <trkpt lat="38.51088685" lon="-6.60598743"><ele>840</ele><speed>4.69</speed><time>2019-02-23T16:11:43Z</time><pdop>6.068</pdop><geoidheight>0.00</geoidheight><course>269.0</course><type>1</type></trkpt>
      <trkpt lat="38.51088391" lon="-6.60613862"><ele>819</ele><speed>5.51</speed><time>2019-02-23T16:11:46Z</time><pdop>6.068</pdop><geoidheight>0.00</geoidheight><course>262.7</course><type>1</type></trkpt>
      <trkpt lat="38.51084584" lon="-6.60631936"><ele>826</ele><speed>6.04</speed><time>2019-02-23T16:11:49Z</time><pdop>6.068</pdop><geoidheight>0.00</geoidheight><course>260.8</course><type>1</type></trkpt>
      <trkpt lat="38.51080521" lon="-6.60649386"><ele>829</ele><speed>6.02</speed><time>2019-02-23T16:11:52Z</time><pdop>6.068</pdop><geoidheight>0.00</geoidheight><course>252.4</course><type>1</type></trkpt>
      <trkpt lat="38.51075287" lon="-6.60668646"><ele>811</ele><speed>5.66</speed><time>2019-02-23T16:11:55Z</time><pdop>6.068</pdop><geoidheight>0.00</geoidheight><course>255.6</course><type>1</type></trkpt>
      <trkpt lat="38.51072384" lon="-6.60682118"><ele>821</ele><speed>5.74</speed><time>2019-02-23T16:11:57Z</time><pdop>6.068</pdop><geoidheight>0.00</geoidheight><course>254.6</course><type>1</type></trkpt>
      <trkpt lat="38.51065947" lon="-6.60694582"><ele>824</ele><speed>5.95</speed><time>2019-02-23T16:11:59Z</time><pdop>6.068</pdop><geoidheight>0.00</geoidheight><course>253.7</course><type>1</type></trkpt>
      <trkpt lat="38.51063523" lon="-6.60708348"><ele>827</ele><speed>5.77</speed><time>2019-02-23T16:12:01Z</time><pdop>6.068</pdop><geoidheight>0.00</geoidheight><course>256.9</course><type>1</type></trkpt>
      <trkpt lat="38.51062487" lon="-6.60726453"><ele>827</ele><speed>5.35</speed><time>2019-02-23T16:12:04Z</time><pdop>6.068</pdop><geoidheight>0.00</geoidheight><course>261.9</course><type>1</type></trkpt>
      <trkpt lat="38.51062364" lon="-6.60742933"><ele>825</ele><speed>4.98</speed><time>2019-02-23T16:12:07Z</time><pdop>6.068</pdop><geoidheight>0.00</geoidheight><course>269.4</course><type>1</type></trkpt>
      <trkpt lat="38.51063052" lon="-6.6075936"><ele>826</ele><speed>4.35</speed><time>2019-02-23T16:12:10Z</time><pdop>6.068</pdop><geoidheight>0.00</geoidheight><course>272.9</course><type>1</type></trkpt>
      <trkpt lat="38.51065443" lon="-6.60773358"><ele>825</ele><speed>4.34</speed><time>2019-02-23T16:12:13Z</time><pdop>6.068</pdop><geoidheight>0.00</geoidheight><course>285.9</course><type>1</type></trkpt>
      <trkpt lat="38.51070344" lon="-6.60790553"><ele>825</ele><speed>4.05</speed><time>2019-02-23T16:12:17Z</time><pdop>7.585</pdop><geoidheight>0.00</geoidheight><course>296.1</course><type>1</type></trkpt>
      <trkpt lat="38.51076344" lon="-6.60808254"><ele>828</ele><speed>4.19</speed><time>2019-02-23T16:12:21Z</time><pdop>7.585</pdop><geoidheight>0.00</geoidheight><course>290.4</course><type>1</type></trkpt>
      <trkpt lat="38.51081126" lon="-6.60823577"><ele>831</ele><speed>3.82</speed><time>2019-02-23T16:12:25Z</time><pdop>7.585</pdop><geoidheight>0.00</geoidheight><course>285.3</course><type>1</type></trkpt>
      <trkpt lat="38.51086462" lon="-6.60843914"><ele>831</ele><speed>4.76</speed><time>2019-02-23T16:12:29Z</time><pdop>7.585</pdop><geoidheight>0.00</geoidheight><course>288.5</course><type>1</type></trkpt>
      <trkpt lat="38.51090252" lon="-6.60860156"><ele>830</ele><speed>4.32</speed><time>2019-02-23T16:12:32Z</time><pdop>7.585</pdop><geoidheight>0.00</geoidheight><course>281.2</course><type>1</type></trkpt>
      <trkpt lat="38.51092239" lon="-6.60876192"><ele>830</ele><speed>4.51</speed><time>2019-02-23T16:12:35Z</time><pdop>7.585</pdop><geoidheight>0.00</geoidheight><course>280.6</course><type>1</type></trkpt>
      <trkpt lat="38.51095791" lon="-6.60893871"><ele>824</ele><speed>5.17</speed><time>2019-02-23T16:12:38Z</time><pdop>7.585</pdop><geoidheight>0.00</geoidheight><course>288.7</course><type>1</type></trkpt>
      <trkpt lat="38.51097377" lon="-6.60910512"><ele>827</ele><speed>4.08</speed><time>2019-02-23T16:12:41Z</time><pdop>7.585</pdop><geoidheight>0.00</geoidheight><course>277.5</course><type>1</type></trkpt>
      <trkpt lat="38.511006" lon="-6.6093034"><ele>771</ele><speed>5.76</speed><time>2019-02-23T16:12:45Z</time><pdop>6.068</pdop><geoidheight>0.00</geoidheight><course>290.8</course><type>1</type></trkpt>
      <trkpt lat="38.51104351" lon="-6.60946069"><ele>809</ele><speed>2.61</speed><time>2019-02-23T16:12:49Z</time><pdop>6.068</pdop><geoidheight>0.00</geoidheight><course>282.7</course><type>1</type></trkpt>
      <trkpt lat="38.51109337" lon="-6.60959134"><ele>820</ele><speed>3.45</speed><time>2019-02-23T16:12:53Z</time><pdop>6.068</pdop><geoidheight>0.00</geoidheight><course>303.2</course><type>1</type></trkpt>
      <trkpt lat="38.5111301" lon="-6.60972151"><ele>807</ele><speed>3.70</speed><time>2019-02-23T16:12:57Z</time><pdop>6.068</pdop><geoidheight>0.00</geoidheight><course>299.4</course><type>1</type></trkpt>
      <trkpt lat="38.51119916" lon="-6.60986793"><ele>815</ele><speed>4.01</speed><time>2019-02-23T16:13:01Z</time><pdop>6.068</pdop><geoidheight>0.00</geoidheight><course>300.4</course><type>1</type></trkpt>
      <trkpt lat="38.51126079" lon="-6.61001518"><ele>812</ele><speed>4.80</speed><time>2019-02-23T16:13:04Z</time><pdop>6.068</pdop><geoidheight>0.00</geoidheight><course>290.6</course><type>1</type></trkpt>
      <trkpt lat="38.51130388" lon="-6.61016414"><ele>817</ele><speed>4.26</speed><time>2019-02-23T16:13:07Z</time><pdop>6.068</pdop><geoidheight>0.00</geoidheight><course>287.8</course><type>1</type></trkpt>
      <trkpt lat="38.51134364" lon="-6.61030769"><ele>822</ele><speed>4.28</speed><time>2019-02-23T16:13:10Z</time><pdop>6.068</pdop><geoidheight>0.00</geoidheight><course>291.9</course><type>1</type></trkpt>
      <trkpt lat="38.51138232" lon="-6.61045613"><ele>825</ele><speed>4.88</speed><time>2019-02-23T16:13:13Z</time><pdop>6.068</pdop><geoidheight>0.00</geoidheight><course>283.2</course><type>1</type></trkpt>
      <trkpt lat="38.51143342" lon="-6.61062781"><ele>826</ele><speed>4.30</speed><time>2019-02-23T16:13:16Z</time><pdop>6.068</pdop><geoidheight>0.00</geoidheight><course>289.6</course><type>1</type></trkpt>
      <trkpt lat="38.51147399" lon="-6.61075985"><ele>826</ele><speed>4.95</speed><time>2019-02-23T16:13:19Z</time><pdop>6.068</pdop><geoidheight>0.00</geoidheight><course>283.0</course><type>1</type></trkpt>
      <trkpt lat="38.51150681" lon="-6.61093379"><ele>826</ele><speed>5.20</speed><time>2019-02-23T16:13:22Z</time><pdop>6.068</pdop><geoidheight>0.00</geoidheight><course>280.1</course><type>1</type></trkpt>
      <trkpt lat="38.51151888" lon="-6.61111034"><ele>825</ele><speed>5.33</speed><time>2019-02-23T16:13:25Z</time><pdop>6.068</pdop><geoidheight>0.00</geoidheight><course>275.3</course><type>1</type></trkpt>
      <trkpt lat="38.51154697" lon="-6.61127862"><ele>823</ele><speed>5.32</speed><time>2019-02-23T16:13:28Z</time><pdop>7.585</pdop><geoidheight>0.00</geoidheight><course>285.1</course><type>1</type></trkpt>
      <trkpt lat="38.51158297" lon="-6.61146848"><ele>824</ele><speed>5.21</speed><time>2019-02-23T16:13:31Z</time><pdop>7.585</pdop><geoidheight>0.00</geoidheight><course>282.4</course><type>1</type></trkpt>
      <trkpt lat="38.51162412" lon="-6.61165319"><ele>824</ele><speed>4.81</speed><time>2019-02-23T16:13:34Z</time><pdop>6.068</pdop><geoidheight>0.00</geoidheight><course>287.1</course><type>1</type></trkpt>
      <trkpt lat="38.51167922" lon="-6.6118184"><ele>826</ele><speed>5.65</speed><time>2019-02-23T16:13:37Z</time><pdop>6.068</pdop><geoidheight>0.00</geoidheight><course>296.4</course><type>1</type></trkpt>
      <trkpt lat="38.511751" lon="-6.61195748"><ele>828</ele><speed>4.39</speed><time>2019-02-23T16:13:40Z</time><pdop>7.585</pdop><geoidheight>0.00</geoidheight><course>314.8</course><type>1</type></trkpt>
      <trkpt lat="38.51183115" lon="-6.61207724"><ele>832</ele><speed>4.43</speed><time>2019-02-23T16:13:43Z</time><pdop>6.068</pdop><geoidheight>0.00</geoidheight><course>289.0</course><type>1</type></trkpt>
      <trkpt lat="38.51187534" lon="-6.61220759"><ele>835</ele><speed>3.54</speed><time>2019-02-23T16:13:46Z</time><pdop>6.068</pdop><geoidheight>0.00</geoidheight><course>298.4</course><type>1</type></trkpt>
      <trkpt lat="38.51193417" lon="-6.61235427"><ele>836</ele><speed>3.84</speed><time>2019-02-23T16:13:50Z</time><pdop>6.068</pdop><geoidheight>0.00</geoidheight><course>303.9</course><type>1</type></trkpt>
      <trkpt lat="38.51201947" lon="-6.61247673"><ele>833</ele><speed>3.85</speed><time>2019-02-23T16:13:54Z</time><pdop>6.068</pdop><geoidheight>0.00</geoidheight><course>309.7</course><type>1</type></trkpt>
      <trkpt lat="38.51208407" lon="-6.6125885"><ele>831</ele><speed>4.36</speed><time>2019-02-23T16:13:57Z</time><pdop>6.068</pdop><geoidheight>0.00</geoidheight><course>305.7</course><type>1</type></trkpt>
      <trkpt lat="38.51214782" lon="-6.61271014"><ele>829</ele><speed>4.05</speed><time>2019-02-23T16:14:00Z</time><pdop>6.068</pdop><geoidheight>0.00</geoidheight><course>305.8</course><type>1</type></trkpt>
      <trkpt lat="38.51222626" lon="-6.61286191"><ele>830</ele><speed>4.04</speed><time>2019-02-23T16:14:04Z</time><pdop>6.068</pdop><geoidheight>0.00</geoidheight><course>305.2</course><type>1</type></trkpt>
      <trkpt lat="38.51231366" lon="-6.61300372"><ele>831</ele><speed>3.63</speed><time>2019-02-23T16:14:08Z</time><pdop>6.068</pdop><geoidheight>0.00</geoidheight><course>309.0</course><type>1</type></trkpt>
      <trkpt lat="38.51239602" lon="-6.61314169"><ele>833</ele><speed>3.96</speed><time>2019-02-23T16:14:12Z</time><pdop>6.068</pdop><geoidheight>0.00</geoidheight><course>305.6</course><type>1</type></trkpt>
      <trkpt lat="38.51246498" lon="-6.61328719"><ele>834</ele><speed>4.02</speed><time>2019-02-23T16:14:16Z</time><pdop>6.068</pdop><geoidheight>0.00</geoidheight><course>304.8</course><type>1</type></trkpt>
      <trkpt lat="38.51252274" lon="-6.61345089"><ele>834</ele><speed>3.71</speed><time>2019-02-23T16:14:20Z</time><pdop>6.068</pdop><geoidheight>0.00</geoidheight><course>294.4</course><type>1</type></trkpt>
      <trkpt lat="38.51256084" lon="-6.61358895"><ele>830</ele><speed>4.54</speed><time>2019-02-23T16:14:23Z</time><pdop>6.068</pdop><geoidheight>0.00</geoidheight><course>298.5</course><type>1</type></trkpt>
      <trkpt lat="38.51261693" lon="-6.61371647"><ele>829</ele><speed>4.14</speed><time>2019-02-23T16:14:26Z</time><pdop>6.068</pdop><geoidheight>0.00</geoidheight><course>303.8</course><type>1</type></trkpt>
      <trkpt lat="38.51269384" lon="-6.61386399"><ele>799</ele><speed>3.67</speed><time>2019-02-23T16:14:30Z</time><pdop>6.068</pdop><geoidheight>0.00</geoidheight><course>305.4</course><type>1</type></trkpt>
      <trkpt lat="38.51276631" lon="-6.61399282"><ele>820</ele><speed>3.56</speed><time>2019-02-23T16:14:34Z</time><pdop>6.068</pdop><geoidheight>0.00</geoidheight><course>306.2</course><type>1</type></trkpt>
      <trkpt lat="38.51283542" lon="-6.61410929"><ele>822</ele><speed>2.44</speed><time>2019-02-23T16:14:38Z</time><pdop>6.068</pdop><geoidheight>0.00</geoidheight><course>318.4</course><type>1</type></trkpt>
      <trkpt lat="38.51290817" lon="-6.61419567"><ele>821</ele><speed>3.86</speed><time>2019-02-23T16:14:41Z</time><pdop>4.5509996</pdop><geoidheight>0.00</geoidheight><course>315.0</course><type>1</type></trkpt>
      <trkpt lat="38.51296839" lon="-6.61428722"><ele>821</ele><speed>3.14</speed><time>2019-02-23T16:14:44Z</time><pdop>4.5509996</pdop><geoidheight>0.00</geoidheight><course>310.7</course><type>1</type></trkpt>
      <trkpt lat="38.51304282" lon="-6.61438161"><ele>817</ele><speed>4.27</speed><time>2019-02-23T16:14:47Z</time><pdop>6.068</pdop><geoidheight>0.00</geoidheight><course>313.3</course><type>1</type></trkpt>
      <trkpt lat="38.5131083" lon="-6.61453236"><ele>817</ele><speed>3.85</speed><time>2019-02-23T16:14:51Z</time><pdop>6.068</pdop><geoidheight>0.00</geoidheight><course>285.7</course><type>1</type></trkpt>
      <trkpt lat="38.51312188" lon="-6.61467822"><ele>817</ele><speed>4.25</speed><time>2019-02-23T16:14:54Z</time><pdop>6.068</pdop><geoidheight>0.00</geoidheight><course>275.1</course><type>1</type></trkpt>
      <trkpt lat="38.51313078" lon="-6.61482968"><ele>815</ele><speed>4.63</speed><time>2019-02-23T16:14:57Z</time><pdop>4.5509996</pdop><geoidheight>0.00</geoidheight><course>279.5</course><type>1</type></trkpt>
      <trkpt lat="38.51315226" lon="-6.61499526"><ele>814</ele><speed>4.88</speed><time>2019-02-23T16:15:00Z</time><pdop>4.5509996</pdop><geoidheight>0.00</geoidheight><course>276.7</course><type>1</type></trkpt>
      <trkpt lat="38.51316329" lon="-6.61510168"><ele>814</ele><speed>4.60</speed><time>2019-02-23T16:15:02Z</time><pdop>4.5509996</pdop><geoidheight>0.00</geoidheight><course>277.2</course><type>1</type></trkpt>
      <trkpt lat="38.5131744" lon="-6.61520081"><ele>814</ele><speed>4.46</speed><time>2019-02-23T16:15:04Z</time><pdop>4.5509996</pdop><geoidheight>0.00</geoidheight><course>274.9</course><type>1</type></trkpt>
      <trkpt lat="38.51318076" lon="-6.61530232"><ele>812</ele><speed>4.85</speed><time>2019-02-23T16:15:06Z</time><pdop>4.5509996</pdop><geoidheight>0.00</geoidheight><course>266.4</course><type>1</type></trkpt>
      <trkpt lat="38.51316358" lon="-6.61541646"><ele>812</ele><speed>5.29</speed><time>2019-02-23T16:15:08Z</time><pdop>4.5509996</pdop><geoidheight>0.00</geoidheight><course>261.2</course><type>1</type></trkpt>
      <trkpt lat="38.51313576" lon="-6.6155677"><ele>812</ele><speed>4.23</speed><time>2019-02-23T16:15:11Z</time><pdop>6.068</pdop><geoidheight>0.00</geoidheight><course>258.8</course><type>1</type></trkpt>
      <trkpt lat="38.51320476" lon="-6.61569128"><ele>812</ele><speed>3.62</speed><time>2019-02-23T16:15:15Z</time><pdop>4.5509996</pdop><geoidheight>0.00</geoidheight><course>327.7</course><type>1</type></trkpt>
      <trkpt lat="38.51328772" lon="-6.61575409"><ele>812</ele><speed>2.98</speed><time>2019-02-23T16:15:18Z</time><pdop>6.068</pdop><geoidheight>0.00</geoidheight><course>336.9</course><type>1</type></trkpt>
      <trkpt lat="38.51341737" lon="-6.61577862"><ele>810</ele><speed>3.47</speed><time>2019-02-23T16:15:22Z</time><pdop>6.068</pdop><geoidheight>0.00</geoidheight><course>355.6</course><type>1</type></trkpt>
      <trkpt lat="38.51353042" lon="-6.61578604"><ele>808</ele><speed>3.44</speed><time>2019-02-23T16:15:26Z</time><pdop>6.068</pdop><geoidheight>0.00</geoidheight><course>352.1</course><type>1</type></trkpt>
      <trkpt lat="38.51364101" lon="-6.61577008"><ele>803</ele><speed>4.26</speed><time>2019-02-23T16:15:29Z</time><pdop>6.068</pdop><geoidheight>0.00</geoidheight><course>12.1</course><type>1</type></trkpt>
      <trkpt lat="38.51375022" lon="-6.61564942"><ele>804</ele><speed>5.21</speed><time>2019-02-23T16:15:32Z</time><pdop>6.068</pdop><geoidheight>0.00</geoidheight><course>41.0</course><type>1</type></trkpt>
      <trkpt lat="38.51385408" lon="-6.61554726"><ele>806</ele><speed>4.92</speed><time>2019-02-23T16:15:35Z</time><pdop>6.068</pdop><geoidheight>0.00</geoidheight><course>52.6</course><type>1</type></trkpt>
      <trkpt lat="38.51390013" lon="-6.61536393"><ele>805</ele><speed>6.69</speed><time>2019-02-23T16:15:38Z</time><pdop>6.068</pdop><geoidheight>0.00</geoidheight><course>73.1</course><type>1</type></trkpt>
      <trkpt lat="38.51392872" lon="-6.61519491"><ele>804</ele><speed>7.21</speed><time>2019-02-23T16:15:40Z</time><pdop>6.068</pdop><geoidheight>0.00</geoidheight><course>86.5</course><type>1</type></trkpt>
      <trkpt lat="38.51392306" lon="-6.61499337"><ele>801</ele><speed>9.47</speed><time>2019-02-23T16:15:42Z</time><pdop>6.068</pdop><geoidheight>0.00</geoidheight><course>99.0</course><type>1</type></trkpt>
      <trkpt lat="38.51386282" lon="-6.61476623"><ele>799</ele><speed>11.20</speed><time>2019-02-23T16:15:44Z</time><pdop>6.068</pdop><geoidheight>0.00</geoidheight><course>113.9</course><type>1</type></trkpt>
      <trkpt lat="38.51374134" lon="-6.61454226"><ele>800</ele><speed>11.86</speed><time>2019-02-23T16:15:46Z</time><pdop>6.068</pdop><geoidheight>0.00</geoidheight><course>124.2</course><type>1</type></trkpt>
      <trkpt lat="38.51362404" lon="-6.61433427"><ele>799</ele><speed>11.20</speed><time>2019-02-23T16:15:48Z</time><pdop>4.5509996</pdop><geoidheight>0.00</geoidheight><course>125.5</course><type>1</type></trkpt>
      <trkpt lat="38.51355958" lon="-6.6142345"><ele>799</ele><speed>11.29</speed><time>2019-02-23T16:15:49Z</time><pdop>4.5509996</pdop><geoidheight>0.00</geoidheight><course>126.6</course><type>1</type></trkpt>
      <trkpt lat="38.5134985" lon="-6.61411605"><ele>798</ele><speed>11.95</speed><time>2019-02-23T16:15:50Z</time><pdop>4.5509996</pdop><geoidheight>0.00</geoidheight><course>127.7</course><type>1</type></trkpt>
      <trkpt lat="38.51342966" lon="-6.61400483"><ele>797</ele><speed>12.15</speed><time>2019-02-23T16:15:51Z</time><pdop>6.068</pdop><geoidheight>0.00</geoidheight><course>126.5</course><type>1</type></trkpt>
      <trkpt lat="38.51331513" lon="-6.61379085"><ele>796</ele><speed>11.48</speed><time>2019-02-23T16:15:53Z</time><pdop>6.068</pdop><geoidheight>0.00</geoidheight><course>126.5</course><type>1</type></trkpt>
      <trkpt lat="38.51317184" lon="-6.6135976"><ele>796</ele><speed>11.94</speed><time>2019-02-23T16:15:55Z</time><pdop>4.5509996</pdop><geoidheight>0.00</geoidheight><course>131.7</course><type>1</type></trkpt>
      <trkpt lat="38.51309693" lon="-6.61349688"><ele>796</ele><speed>12.49</speed><time>2019-02-23T16:15:56Z</time><pdop>6.068</pdop><geoidheight>0.00</geoidheight><course>131.8</course><type>1</type></trkpt>
      <trkpt lat="38.51302172" lon="-6.61339076"><ele>796</ele><speed>12.63</speed><time>2019-02-23T16:15:57Z</time><pdop>6.068</pdop><geoidheight>0.00</geoidheight><course>131.8</course><type>1</type></trkpt>
      <trkpt lat="38.512937" lon="-6.61328764"><ele>796</ele><speed>12.34</speed><time>2019-02-23T16:15:58Z</time><pdop>6.068</pdop><geoidheight>0.00</geoidheight><course>128.3</course><type>1</type></trkpt>
      <trkpt lat="38.51286491" lon="-6.61317791"><ele>796</ele><speed>12.22</speed><time>2019-02-23T16:15:59Z</time><pdop>4.5509996</pdop><geoidheight>0.00</geoidheight><course>123.5</course><type>1</type></trkpt>
      <trkpt lat="38.51281044" lon="-6.61305871"><ele>797</ele><speed>11.76</speed><time>2019-02-23T16:16:00Z</time><pdop>4.5509996</pdop><geoidheight>0.00</geoidheight><course>121.1</course><type>1</type></trkpt>
      <trkpt lat="38.51276119" lon="-6.61294566"><ele>797</ele><speed>10.58</speed><time>2019-02-23T16:16:01Z</time><pdop>4.5509996</pdop><geoidheight>0.00</geoidheight><course>118.5</course><type>1</type></trkpt>
      <trkpt lat="38.51271422" lon="-6.61284081"><ele>795</ele><speed>9.48</speed><time>2019-02-23T16:16:02Z</time><pdop>4.5509996</pdop><geoidheight>0.00</geoidheight><course>113.7</course><type>1</type></trkpt>
      <trkpt lat="38.51267861" lon="-6.61274078"><ele>795</ele><speed>8.88</speed><time>2019-02-23T16:16:03Z</time><pdop>4.5509996</pdop><geoidheight>0.00</geoidheight><course>106.5</course><type>1</type></trkpt>
      <trkpt lat="38.51267747" lon="-6.61264795"><ele>794</ele><speed>9.05</speed><time>2019-02-23T16:16:04Z</time><pdop>4.5509996</pdop><geoidheight>0.00</geoidheight><course>98.1</course><type>1</type></trkpt>
      <trkpt lat="38.51266587" lon="-6.61252915"><ele>794</ele><speed>9.10</speed><time>2019-02-23T16:16:05Z</time><pdop>6.068</pdop><geoidheight>0.00</geoidheight><course>89.6</course><type>1</type></trkpt>
      <trkpt lat="38.51267905" lon="-6.61235449"><ele>794</ele><speed>6.57</speed><time>2019-02-23T16:16:07Z</time><pdop>6.068</pdop><geoidheight>0.00</geoidheight><course>71.4</course><type>1</type></trkpt>
      <trkpt lat="38.51275305" lon="-6.61225198"><ele>793</ele><speed>4.40</speed><time>2019-02-23T16:16:09Z</time><pdop>6.068</pdop><geoidheight>0.00</geoidheight><course>37.6</course><type>1</type></trkpt>
      <trkpt lat="38.51286072" lon="-6.6121896"><ele>792</ele><speed>3.21</speed><time>2019-02-23T16:16:12Z</time><pdop>6.068</pdop><geoidheight>0.00</geoidheight><course>344.3</course><type>1</type></trkpt>
      <trkpt lat="38.51295326" lon="-6.61229265"><ele>792</ele><speed>3.43</speed><time>2019-02-23T16:16:16Z</time><pdop>7.585</pdop><geoidheight>0.00</geoidheight><course>305.9</course><type>1</type></trkpt>
      <trkpt lat="38.51301725" lon="-6.6124567"><ele>786</ele><speed>4.40</speed><time>2019-02-23T16:16:20Z</time><pdop>7.585</pdop><geoidheight>0.00</geoidheight><course>298.9</course><type>1</type></trkpt>
      <trkpt lat="38.51307069" lon="-6.61263427"><ele>786</ele><speed>3.61</speed><time>2019-02-23T16:16:24Z</time><pdop>6.068</pdop><geoidheight>0.00</geoidheight><course>284.9</course><type>1</type></trkpt>
      <trkpt lat="38.51310812" lon="-6.61279676"><ele>786</ele><speed>3.54</speed><time>2019-02-23T16:16:28Z</time><pdop>6.068</pdop><geoidheight>0.00</geoidheight><course>287.9</course><type>1</type></trkpt>
      <trkpt lat="38.51314268" lon="-6.61296949"><ele>786</ele><speed>3.92</speed><time>2019-02-23T16:16:32Z</time><pdop>7.585</pdop><geoidheight>0.00</geoidheight><course>281.3</course><type>1</type></trkpt>
      <trkpt lat="38.51315561" lon="-6.61312014"><ele>785</ele><speed>5.02</speed><time>2019-02-23T16:16:35Z</time><pdop>6.068</pdop><geoidheight>0.00</geoidheight><course>270.7</course><type>1</type></trkpt>
      <trkpt lat="38.51313616" lon="-6.61329522"><ele>785</ele><speed>5.84</speed><time>2019-02-23T16:16:38Z</time><pdop>6.068</pdop><geoidheight>0.00</geoidheight><course>250.0</course><type>1</type></trkpt>
      <trkpt lat="38.51305134" lon="-6.61343786"><ele>780</ele><speed>8.69</speed><time>2019-02-23T16:16:40Z</time><pdop>6.068</pdop><geoidheight>0.00</geoidheight><course>223.2</course><type>1</type></trkpt>
      <trkpt lat="38.5128672" lon="-6.61353785"><ele>780</ele><speed>12.24</speed><time>2019-02-23T16:16:42Z</time><pdop>6.068</pdop><geoidheight>0.00</geoidheight><course>195.0</course><type>1</type></trkpt>
      <trkpt lat="38.51274562" lon="-6.61356714"><ele>781</ele><speed>13.43</speed><time>2019-02-23T16:16:43Z</time><pdop>6.068</pdop><geoidheight>0.00</geoidheight><course>182.9</course><type>1</type></trkpt>
      <trkpt lat="38.51262625" lon="-6.61356641"><ele>781</ele><speed>13.70</speed><time>2019-02-23T16:16:44Z</time><pdop>6.068</pdop><geoidheight>0.00</geoidheight><course>172.1</course><type>1</type></trkpt>
      <trkpt lat="38.51249883" lon="-6.61355983"><ele>781</ele><speed>13.79</speed><time>2019-02-23T16:16:45Z</time><pdop>6.068</pdop><geoidheight>0.00</geoidheight><course>164.4</course><type>1</type></trkpt>
      <trkpt lat="38.51238525" lon="-6.61351184"><ele>782</ele><speed>13.69</speed><time>2019-02-23T16:16:46Z</time><pdop>6.068</pdop><geoidheight>0.00</geoidheight><course>159.6</course><type>1</type></trkpt>
      <trkpt lat="38.51227033" lon="-6.61345283"><ele>784</ele><speed>13.38</speed><time>2019-02-23T16:16:47Z</time><pdop>6.068</pdop><geoidheight>0.00</geoidheight><course>152.7</course><type>1</type></trkpt>
      <trkpt lat="38.51217335" lon="-6.61337848"><ele>783</ele><speed>13.18</speed><time>2019-02-23T16:16:48Z</time><pdop>6.068</pdop><geoidheight>0.00</geoidheight><course>144.0</course><type>1</type></trkpt>
      <trkpt lat="38.51208414" lon="-6.61328161"><ele>784</ele><speed>13.03</speed><time>2019-02-23T16:16:49Z</time><pdop>6.068</pdop><geoidheight>0.00</geoidheight><course>133.5</course><type>1</type></trkpt>
      <trkpt lat="38.51201454" lon="-6.61316779"><ele>785</ele><speed>12.58</speed><time>2019-02-23T16:16:50Z</time><pdop>6.068</pdop><geoidheight>0.00</geoidheight><course>127.7</course><type>1</type></trkpt>
      <trkpt lat="38.51194259" lon="-6.61305262"><ele>786</ele><speed>11.63</speed><time>2019-02-23T16:16:51Z</time><pdop>6.068</pdop><geoidheight>0.00</geoidheight><course>124.7</course><type>1</type></trkpt>
      <trkpt lat="38.5118815" lon="-6.6129356"><ele>786</ele><speed>10.63</speed><time>2019-02-23T16:16:52Z</time><pdop>6.068</pdop><geoidheight>0.00</geoidheight><course>124.6</course><type>1</type></trkpt>
      <trkpt lat="38.51178041" lon="-6.61274832"><ele>787</ele><speed>9.99</speed><time>2019-02-23T16:16:54Z</time><pdop>6.068</pdop><geoidheight>0.00</geoidheight><course>119.4</course><type>1</type></trkpt>
      <trkpt lat="38.51171134" lon="-6.61252259"><ele>787</ele><speed>10.26</speed><time>2019-02-23T16:16:56Z</time><pdop>6.068</pdop><geoidheight>0.00</geoidheight><course>106.2</course><type>1</type></trkpt>
      <trkpt lat="38.51165928" lon="-6.61230216"><ele>789</ele><speed>8.85</speed><time>2019-02-23T16:16:58Z</time><pdop>6.068</pdop><geoidheight>0.00</geoidheight><course>109.2</course><type>1</type></trkpt>
      <trkpt lat="38.51160652" lon="-6.61212871"><ele>790</ele><speed>7.96</speed><time>2019-02-23T16:17:00Z</time><pdop>6.068</pdop><geoidheight>0.00</geoidheight><course>103.1</course><type>1</type></trkpt>
      <trkpt lat="38.51160052" lon="-6.61193263"><ele>789</ele><speed>8.82</speed><time>2019-02-23T16:17:02Z</time><pdop>6.068</pdop><geoidheight>0.00</geoidheight><course>96.1</course><type>1</type></trkpt>
      <trkpt lat="38.51157633" lon="-6.61172642"><ele>788</ele><speed>8.75</speed><time>2019-02-23T16:17:04Z</time><pdop>6.068</pdop><geoidheight>0.00</geoidheight><course>104.0</course><type>1</type></trkpt>
      <trkpt lat="38.51152647" lon="-6.61154638"><ele>790</ele><speed>8.52</speed><time>2019-02-23T16:17:06Z</time><pdop>6.068</pdop><geoidheight>0.00</geoidheight><course>98.9</course><type>1</type></trkpt>
      <trkpt lat="38.51150215" lon="-6.61134703"><ele>789</ele><speed>8.82</speed><time>2019-02-23T16:17:08Z</time><pdop>4.5509996</pdop><geoidheight>0.00</geoidheight><course>99.8</course><type>1</type></trkpt>
      <trkpt lat="38.51146926" lon="-6.61114012"><ele>789</ele><speed>9.21</speed><time>2019-02-23T16:17:10Z</time><pdop>6.068</pdop><geoidheight>0.00</geoidheight><course>102.6</course><type>1</type></trkpt>
      <trkpt lat="38.51143547" lon="-6.61093068"><ele>789</ele><speed>9.57</speed><time>2019-02-23T16:17:12Z</time><pdop>6.068</pdop><geoidheight>0.00</geoidheight><course>100.1</course><type>1</type></trkpt>
      <trkpt lat="38.51140707" lon="-6.6107064"><ele>789</ele><speed>9.02</speed><time>2019-02-23T16:17:14Z</time><pdop>6.068</pdop><geoidheight>0.00</geoidheight><course>96.5</course><type>1</type></trkpt>
      <trkpt lat="38.51139846" lon="-6.61050352"><ele>790</ele><speed>9.05</speed><time>2019-02-23T16:17:16Z</time><pdop>6.068</pdop><geoidheight>0.00</geoidheight><course>94.2</course><type>1</type></trkpt>
      <trkpt lat="38.51140053" lon="-6.61029497"><ele>790</ele><speed>9.44</speed><time>2019-02-23T16:17:18Z</time><pdop>6.068</pdop><geoidheight>0.00</geoidheight><course>98.0</course><type>1</type></trkpt>
      <trkpt lat="38.51137136" lon="-6.61009493"><ele>791</ele><speed>9.99</speed><time>2019-02-23T16:17:20Z</time><pdop>6.068</pdop><geoidheight>0.00</geoidheight><course>100.4</course><type>1</type></trkpt>
      <trkpt lat="38.51135081" lon="-6.60985035"><ele>793</ele><speed>10.83</speed><time>2019-02-23T16:17:22Z</time><pdop>6.068</pdop><geoidheight>0.00</geoidheight><course>99.6</course><type>1</type></trkpt>
      <trkpt lat="38.51132447" lon="-6.6097077"><ele>794</ele><speed>10.79</speed><time>2019-02-23T16:17:23Z</time><pdop>6.068</pdop><geoidheight>0.00</geoidheight><course>102.1</course><type>1</type></trkpt>
      <trkpt lat="38.51126781" lon="-6.60949608"><ele>795</ele><speed>10.12</speed><time>2019-02-23T16:17:25Z</time><pdop>4.5509996</pdop><geoidheight>0.00</geoidheight><course>116.0</course><type>1</type></trkpt>
      <trkpt lat="38.51122674" lon="-6.60939619"><ele>795</ele><speed>10.74</speed><time>2019-02-23T16:17:26Z</time><pdop>4.5509996</pdop><geoidheight>0.00</geoidheight><course>117.3</course><type>1</type></trkpt>
      <trkpt lat="38.51117803" lon="-6.60928444"><ele>795</ele><speed>12.09</speed><time>2019-02-23T16:17:27Z</time><pdop>4.5509996</pdop><geoidheight>0.00</geoidheight><course>115.1</course><type>1</type></trkpt>
      <trkpt lat="38.51112279" lon="-6.60915398"><ele>794</ele><speed>12.59</speed><time>2019-02-23T16:17:28Z</time><pdop>4.5509996</pdop><geoidheight>0.00</geoidheight><course>116.0</course><type>1</type></trkpt>
      <trkpt lat="38.51106518" lon="-6.60902382"><ele>794</ele><speed>11.56</speed><time>2019-02-23T16:17:29Z</time><pdop>4.5509996</pdop><geoidheight>0.00</geoidheight><course>118.4</course><type>1</type></trkpt>
      <trkpt lat="38.51102109" lon="-6.60891327"><ele>794</ele><speed>10.33</speed><time>2019-02-23T16:17:30Z</time><pdop>4.5509996</pdop><geoidheight>0.00</geoidheight><course>119.2</course><type>1</type></trkpt>
      <trkpt lat="38.51098068" lon="-6.60880785"><ele>794</ele><speed>9.89</speed><time>2019-02-23T16:17:31Z</time><pdop>4.5509996</pdop><geoidheight>0.00</geoidheight><course>115.2</course><type>1</type></trkpt>
      <trkpt lat="38.51094377" lon="-6.6087121"><ele>795</ele><speed>9.75</speed><time>2019-02-23T16:17:32Z</time><pdop>4.5509996</pdop><geoidheight>0.00</geoidheight><course>106.5</course><type>1</type></trkpt>
      <trkpt lat="38.51094156" lon="-6.60860278"><ele>794</ele><speed>8.65</speed><time>2019-02-23T16:17:33Z</time><pdop>4.5509996</pdop><geoidheight>0.00</geoidheight><course>91.1</course><type>1</type></trkpt>
      <trkpt lat="38.51099348" lon="-6.60848263"><ele>795</ele><speed>4.70</speed><time>2019-02-23T16:17:35Z</time><pdop>6.068</pdop><geoidheight>0.00</geoidheight><course>38.2</course><type>1</type></trkpt>
      <trkpt lat="38.51111453" lon="-6.60850384"><ele>792</ele><speed>4.25</speed><time>2019-02-23T16:17:38Z</time><pdop>6.068</pdop><geoidheight>0.00</geoidheight><course>309.7</course><type>1</type></trkpt>
      <trkpt lat="38.51116063" lon="-6.60864474"><ele>795</ele><speed>4.00</speed><time>2019-02-23T16:17:41Z</time><pdop>6.068</pdop><geoidheight>0.00</geoidheight><course>280.6</course><type>1</type></trkpt>
      <trkpt lat="38.51117235" lon="-6.60878565"><ele>774</ele><speed>4.41</speed><time>2019-02-23T16:17:44Z</time><pdop>6.068</pdop><geoidheight>0.00</geoidheight><course>286.5</course><type>1</type></trkpt>
      <trkpt lat="38.51122123" lon="-6.60893226"><ele>787</ele><speed>4.71</speed><time>2019-02-23T16:17:47Z</time><pdop>6.068</pdop><geoidheight>0.00</geoidheight><course>291.1</course><type>1</type></trkpt>
      <trkpt lat="38.5112612" lon="-6.60907971"><ele>795</ele><speed>4.87</speed><time>2019-02-23T16:17:50Z</time><pdop>6.068</pdop><geoidheight>0.00</geoidheight><course>276.1</course><type>1</type></trkpt>
      <trkpt lat="38.51127144" lon="-6.60924833"><ele>797</ele><speed>5.56</speed><time>2019-02-23T16:17:53Z</time><pdop>6.068</pdop><geoidheight>0.00</geoidheight><course>271.5</course><type>1</type></trkpt>
      <trkpt lat="38.51125289" lon="-6.60945986"><ele>798</ele><speed>6.04</speed><time>2019-02-23T16:17:56Z</time><pdop>6.068</pdop><geoidheight>0.00</geoidheight><course>264.2</course><type>1</type></trkpt>
      <trkpt lat="38.51124593" lon="-6.6096431"><ele>801</ele><speed>4.79</speed><time>2019-02-23T16:17:59Z</time><pdop>6.068</pdop><geoidheight>0.00</geoidheight><course>283.8</course><type>1</type></trkpt>
      <trkpt lat="38.51127502" lon="-6.60980474"><ele>804</ele><speed>4.07</speed><time>2019-02-23T16:18:02Z</time><pdop>6.068</pdop><geoidheight>0.00</geoidheight><course>278.3</course><type>1</type></trkpt>
      <trkpt lat="38.51131233" lon="-6.60994162"><ele>805</ele><speed>4.91</speed><time>2019-02-23T16:18:05Z</time><pdop>6.068</pdop><geoidheight>0.00</geoidheight><course>297.9</course><type>1</type></trkpt>
      <trkpt lat="38.51137353" lon="-6.61008913"><ele>807</ele><speed>3.83</speed><time>2019-02-23T16:18:08Z</time><pdop>4.5509996</pdop><geoidheight>0.00</geoidheight><course>284.2</course><type>1</type></trkpt>
      <trkpt lat="38.51140007" lon="-6.61021611"><ele>807</ele><speed>3.86</speed><time>2019-02-23T16:18:11Z</time><pdop>6.068</pdop><geoidheight>0.00</geoidheight><course>294.9</course><type>1</type></trkpt>
      <trkpt lat="38.5114781" lon="-6.61035499"><ele>811</ele><speed>3.46</speed><time>2019-02-23T16:18:15Z</time><pdop>6.068</pdop><geoidheight>0.00</geoidheight><course>308.2</course><type>1</type></trkpt>
      <trkpt lat="38.51156918" lon="-6.61045462"><ele>815</ele><speed>2.83</speed><time>2019-02-23T16:18:19Z</time><pdop>7.585</pdop><geoidheight>0.00</geoidheight><course>338.6</course><type>1</type></trkpt>
      <trkpt lat="38.51170938" lon="-6.61044684"><ele>817</ele><speed>2.67</speed><time>2019-02-23T16:18:25Z</time><pdop>7.585</pdop><geoidheight>0.00</geoidheight><course>12.4</course><type>1</type></trkpt>
      <trkpt lat="38.51182309" lon="-6.61040456"><ele>818</ele><speed>3.07</speed><time>2019-02-23T16:18:29Z</time><pdop>6.068</pdop><geoidheight>0.00</geoidheight><course>24.7</course><type>1</type></trkpt>
      <trkpt lat="38.51189827" lon="-6.61026052"><ele>817</ele><speed>3.90</speed><time>2019-02-23T16:18:33Z</time><pdop>6.068</pdop><geoidheight>0.00</geoidheight><course>59.4</course><type>1</type></trkpt>
      <trkpt lat="38.51196553" lon="-6.61013922"><ele>805</ele><speed>4.94</speed><time>2019-02-23T16:18:36Z</time><pdop>6.068</pdop><geoidheight>0.00</geoidheight><course>64.7</course><type>1</type></trkpt>
      <trkpt lat="38.51201557" lon="-6.60992903"><ele>812</ele><speed>6.06</speed><time>2019-02-23T16:18:39Z</time><pdop>6.068</pdop><geoidheight>0.00</geoidheight><course>72.9</course><type>1</type></trkpt>
      <trkpt lat="38.51203322" lon="-6.60978313"><ele>816</ele><speed>6.05</speed><time>2019-02-23T16:18:41Z</time><pdop>6.068</pdop><geoidheight>0.00</geoidheight><course>82.7</course><type>1</type></trkpt>
      <trkpt lat="38.5120252" lon="-6.60962456"><ele>818</ele><speed>7.23</speed><time>2019-02-23T16:18:43Z</time><pdop>6.068</pdop><geoidheight>0.00</geoidheight><course>96.5</course><type>1</type></trkpt>
      <trkpt lat="38.5120097" lon="-6.60946751"><ele>819</ele><speed>7.30</speed><time>2019-02-23T16:18:45Z</time><pdop>6.068</pdop><geoidheight>0.00</geoidheight><course>95.0</course><type>1</type></trkpt>
      <trkpt lat="38.51201917" lon="-6.6093154"><ele>815</ele><speed>6.35</speed><time>2019-02-23T16:18:47Z</time><pdop>6.068</pdop><geoidheight>0.00</geoidheight><course>83.9</course><type>1</type></trkpt>
      <trkpt lat="38.51202574" lon="-6.60915493"><ele>814</ele><speed>8.01</speed><time>2019-02-23T16:18:49Z</time><pdop>6.068</pdop><geoidheight>0.00</geoidheight><course>91.4</course><type>1</type></trkpt>
      <trkpt lat="38.51197832" lon="-6.60894311"><ele>812</ele><speed>8.83</speed><time>2019-02-23T16:18:51Z</time><pdop>7.585</pdop><geoidheight>0.00</geoidheight><course>98.1</course><type>1</type></trkpt>
      <trkpt lat="38.51195617" lon="-6.60876992"><ele>813</ele><speed>7.28</speed><time>2019-02-23T16:18:53Z</time><pdop>7.585</pdop><geoidheight>0.00</geoidheight><course>98.4</course><type>1</type></trkpt>
      <trkpt lat="38.51194209" lon="-6.6085839"><ele>812</ele><speed>9.05</speed><time>2019-02-23T16:18:55Z</time><pdop>6.068</pdop><geoidheight>0.00</geoidheight><course>101.2</course><type>1</type></trkpt>
      <trkpt lat="38.51188724" lon="-6.60837977"><ele>814</ele><speed>9.61</speed><time>2019-02-23T16:18:57Z</time><pdop>6.068</pdop><geoidheight>0.00</geoidheight><course>112.7</course><type>1</type></trkpt>
      <trkpt lat="38.51177883" lon="-6.60821336"><ele>814</ele><speed>10.77</speed><time>2019-02-23T16:18:59Z</time><pdop>6.068</pdop><geoidheight>0.00</geoidheight><course>136.5</course><type>1</type></trkpt>
      <trkpt lat="38.51159643" lon="-6.60807263"><ele>812</ele><speed>13.18</speed><time>2019-02-23T16:19:01Z</time><pdop>6.068</pdop><geoidheight>0.00</geoidheight><course>157.7</course><type>1</type></trkpt>
      <trkpt lat="38.51147137" lon="-6.60803815"><ele>812</ele><speed>13.55</speed><time>2019-02-23T16:19:02Z</time><pdop>6.068</pdop><geoidheight>0.00</geoidheight><course>170.3</course><type>1</type></trkpt>
      <trkpt lat="38.51135749" lon="-6.60804161"><ele>812</ele><speed>13.27</speed><time>2019-02-23T16:19:03Z</time><pdop>4.5509996</pdop><geoidheight>0.00</geoidheight><course>185.8</course><type>1</type></trkpt>
      <trkpt lat="38.51124418" lon="-6.60807956"><ele>811</ele><speed>12.46</speed><time>2019-02-23T16:19:04Z</time><pdop>4.5509996</pdop><geoidheight>0.00</geoidheight><course>203.4</course><type>1</type></trkpt>
      <trkpt lat="38.51116772" lon="-6.60816829"><ele>810</ele><speed>11.16</speed><time>2019-02-23T16:19:05Z</time><pdop>4.5509996</pdop><geoidheight>0.00</geoidheight><course>222.3</course><type>1</type></trkpt>
      <trkpt lat="38.51107164" lon="-6.6083441"><ele>812</ele><speed>8.08</speed><time>2019-02-23T16:19:07Z</time><pdop>6.068</pdop><geoidheight>0.00</geoidheight><course>242.4</course><type>1</type></trkpt>
      <trkpt lat="38.51101897" lon="-6.60848712"><ele>813</ele><speed>6.79</speed><time>2019-02-23T16:19:09Z</time><pdop>4.5509996</pdop><geoidheight>0.00</geoidheight><course>247.7</course><type>1</type></trkpt>
      <trkpt lat="38.5109884" lon="-6.60865128"><ele>814</ele><speed>7.26</speed><time>2019-02-23T16:19:11Z</time><pdop>6.068</pdop><geoidheight>0.00</geoidheight><course>263.6</course><type>1</type></trkpt>
      <trkpt lat="38.51098757" lon="-6.60879316"><ele>816</ele><speed>5.34</speed><time>2019-02-23T16:19:13Z</time><pdop>4.5509996</pdop><geoidheight>0.00</geoidheight><course>270.7</course><type>1</type></trkpt>
      <trkpt lat="38.51097968" lon="-6.60896144"><ele>816</ele><speed>5.14</speed><time>2019-02-23T16:19:16Z</time><pdop>6.068</pdop><geoidheight>0.00</geoidheight><course>273.3</course><type>1</type></trkpt>
      <trkpt lat="38.51100477" lon="-6.60909635"><ele>816</ele><speed>6.83</speed><time>2019-02-23T16:19:18Z</time><pdop>4.5509996</pdop><geoidheight>0.00</geoidheight><course>287.0</course><type>1</type></trkpt>
      <trkpt lat="38.51101855" lon="-6.60923679"><ele>817</ele><speed>5.37</speed><time>2019-02-23T16:19:20Z</time><pdop>4.5509996</pdop><geoidheight>0.00</geoidheight><course>275.8</course><type>1</type></trkpt>
      <trkpt lat="38.5110193" lon="-6.60934699"><ele>817</ele><speed>4.99</speed><time>2019-02-23T16:19:22Z</time><pdop>4.5509996</pdop><geoidheight>0.00</geoidheight><course>269.9</course><type>1</type></trkpt>
      <trkpt lat="38.51103626" lon="-6.60948421"><ele>818</ele><speed>6.58</speed><time>2019-02-23T16:19:24Z</time><pdop>4.5509996</pdop><geoidheight>0.00</geoidheight><course>285.5</course><type>1</type></trkpt>
      <trkpt lat="38.51105372" lon="-6.6096064"><ele>821</ele><speed>5.27</speed><time>2019-02-23T16:19:26Z</time><pdop>4.5509996</pdop><geoidheight>0.00</geoidheight><course>279.2</course><type>1</type></trkpt>
      <trkpt lat="38.51105906" lon="-6.60972572"><ele>823</ele><speed>4.78</speed><time>2019-02-23T16:19:28Z</time><pdop>6.068</pdop><geoidheight>0.00</geoidheight><course>277.7</course><type>1</type></trkpt>
      <trkpt lat="38.51108251" lon="-6.60986799"><ele>823</ele><speed>4.81</speed><time>2019-02-23T16:19:31Z</time><pdop>6.068</pdop><geoidheight>0.00</geoidheight><course>277.3</course><type>1</type></trkpt>
      <trkpt lat="38.51109923" lon="-6.61004424"><ele>825</ele><speed>5.59</speed><time>2019-02-23T16:19:34Z</time><pdop>6.068</pdop><geoidheight>0.00</geoidheight><course>276.0</course><type>1</type></trkpt>
      <trkpt lat="38.51111973" lon="-6.6101834"><ele>826</ele><speed>4.39</speed><time>2019-02-23T16:19:37Z</time><pdop>6.068</pdop><geoidheight>0.00</geoidheight><course>278.2</course><type>1</type></trkpt>
      <trkpt lat="38.51115828" lon="-6.61034905"><ele>825</ele><speed>5.34</speed><time>2019-02-23T16:19:40Z</time><pdop>6.068</pdop><geoidheight>0.00</geoidheight><course>302.0</course><type>1</type></trkpt>
      <trkpt lat="38.51121879" lon="-6.61048099"><ele>828</ele><speed>3.57</speed><time>2019-02-23T16:19:43Z</time><pdop>6.068</pdop><geoidheight>0.00</geoidheight><course>293.2</course><type>1</type></trkpt>
      <trkpt lat="38.51127979" lon="-6.61060803"><ele>815</ele><speed>4.47</speed><time>2019-02-23T16:19:46Z</time><pdop>6.068</pdop><geoidheight>0.00</geoidheight><course>315.8</course><type>1</type></trkpt>
      <trkpt lat="38.51138421" lon="-6.61068972"><ele>821</ele><speed>4.02</speed><time>2019-02-23T16:19:49Z</time><pdop>7.585</pdop><geoidheight>0.00</geoidheight><course>331.9</course><type>1</type></trkpt>
      <trkpt lat="38.51148383" lon="-6.6107978"><ele>824</ele><speed>3.68</speed><time>2019-02-23T16:19:53Z</time><pdop>7.585</pdop><geoidheight>0.00</geoidheight><course>328.1</course><type>1</type></trkpt>
      <trkpt lat="38.51157865" lon="-6.61092911"><ele>828</ele><speed>4.17</speed><time>2019-02-23T16:19:57Z</time><pdop>7.585</pdop><geoidheight>0.00</geoidheight><course>294.7</course><type>1</type></trkpt>
      <trkpt lat="38.51167375" lon="-6.61106022"><ele>833</ele><speed>3.88</speed><time>2019-02-23T16:20:02Z</time><pdop>7.585</pdop><geoidheight>0.00</geoidheight><course>323.3</course><type>1</type></trkpt>
      <trkpt lat="38.51178785" lon="-6.61113742"><ele>840</ele><speed>1.29</speed><time>2019-02-23T16:20:09Z</time><pdop>7.585</pdop><geoidheight>0.00</geoidheight><course>348.1</course><type>1</type></trkpt>
      <trkpt lat="38.51190255" lon="-6.61104395"><ele>848</ele><speed>2.27</speed><time>2019-02-23T16:20:16Z</time><pdop>6.068</pdop><geoidheight>0.00</geoidheight><course>40.9</course><type>1</type></trkpt>
      <trkpt lat="38.51201043" lon="-6.61094283"><ele>852</ele><speed>2.90</speed><time>2019-02-23T16:20:21Z</time><pdop>7.585</pdop><geoidheight>0.00</geoidheight><course>41.5</course><type>1</type></trkpt>
      <trkpt lat="38.51209817" lon="-6.61083056"><ele>852</ele><speed>3.47</speed><time>2019-02-23T16:20:25Z</time><pdop>6.068</pdop><geoidheight>0.00</geoidheight><course>34.2</course><type>1</type></trkpt>
      <trkpt lat="38.51219827" lon="-6.61075973"><ele>855</ele><speed>3.48</speed><time>2019-02-23T16:20:29Z</time><pdop>6.068</pdop><geoidheight>0.00</geoidheight><course>16.1</course><type>1</type></trkpt>
      <trkpt lat="38.51231551" lon="-6.61076421"><ele>856</ele><speed>3.24</speed><time>2019-02-23T16:20:33Z</time><pdop>6.068</pdop><geoidheight>0.00</geoidheight><course>336.6</course><type>1</type></trkpt>
      <trkpt lat="38.51241842" lon="-6.61083254"><ele>857</ele><speed>2.48</speed><time>2019-02-23T16:20:37Z</time><pdop>6.068</pdop><geoidheight>0.00</geoidheight><course>343.3</course><type>1</type></trkpt>
      <trkpt lat="38.51256581" lon="-6.6108342"><ele>833</ele><speed>3.04</speed><time>2019-02-23T16:20:42Z</time><pdop>7.585</pdop><geoidheight>0.00</geoidheight><course>5.9</course><type>1</type></trkpt>
      <trkpt lat="38.51270084" lon="-6.61079256"><ele>854</ele><speed>2.76</speed><time>2019-02-23T16:20:47Z</time><pdop>6.068</pdop><geoidheight>0.00</geoidheight><course>357.0</course><type>1</type></trkpt>
      <trkpt lat="38.51279775" lon="-6.61087308"><ele>857</ele><speed>3.76</speed><time>2019-02-23T16:20:51Z</time><pdop>6.068</pdop><geoidheight>0.00</geoidheight><course>297.4</course><type>1</type></trkpt>
      <trkpt lat="38.5128075" lon="-6.61103806"><ele>861</ele><speed>4.44</speed><time>2019-02-23T16:20:54Z</time><pdop>6.068</pdop><geoidheight>0.00</geoidheight><course>276.1</course><type>1</type></trkpt>
      <trkpt lat="38.51280416" lon="-6.61119687"><ele>861</ele><speed>4.81</speed><time>2019-02-23T16:20:57Z</time><pdop>6.068</pdop><geoidheight>0.00</geoidheight><course>263.8</course><type>1</type></trkpt>
      <trkpt lat="38.51276275" lon="-6.61138984"><ele>864</ele><speed>5.65</speed><time>2019-02-23T16:21:00Z</time><pdop>4.5509996</pdop><geoidheight>0.00</geoidheight><course>260.5</course><type>1</type></trkpt>
      <trkpt lat="38.51270797" lon="-6.61152388"><ele>866</ele><speed>6.83</speed><time>2019-02-23T16:21:02Z</time><pdop>4.5509996</pdop><geoidheight>0.00</geoidheight><course>238.2</course><type>1</type></trkpt>
      <trkpt lat="38.51260419" lon="-6.61166408"><ele>867</ele><speed>8.78</speed><time>2019-02-23T16:21:04Z</time><pdop>4.5509996</pdop><geoidheight>0.00</geoidheight><course>223.6</course><type>1</type></trkpt>
      <trkpt lat="38.51252072" lon="-6.61172602"><ele>867</ele><speed>10.34</speed><time>2019-02-23T16:21:05Z</time><pdop>4.5509996</pdop><geoidheight>0.00</geoidheight><course>210.0</course><type>1</type></trkpt>
      <trkpt lat="38.51240888" lon="-6.61176657"><ele>868</ele><speed>12.45</speed><time>2019-02-23T16:21:06Z</time><pdop>4.5509996</pdop><geoidheight>0.00</geoidheight><course>196.4</course><type>1</type></trkpt>
      <trkpt lat="38.51228374" lon="-6.61177266"><ele>868</ele><speed>13.86</speed><time>2019-02-23T16:21:07Z</time><pdop>4.5509996</pdop><geoidheight>0.00</geoidheight><course>184.0</course><type>1</type></trkpt>
      <trkpt lat="38.51215313" lon="-6.61174474"><ele>868</ele><speed>14.55</speed><time>2019-02-23T16:21:08Z</time><pdop>4.5509996</pdop><geoidheight>0.00</geoidheight><course>171.1</course><type>1</type></trkpt>
      <trkpt lat="38.51203407" lon="-6.61169259"><ele>869</ele><speed>14.05</speed><time>2019-02-23T16:21:09Z</time><pdop>4.5509996</pdop><geoidheight>0.00</geoidheight><course>160.7</course><type>1</type></trkpt>
      <trkpt lat="38.51192977" lon="-6.61162435"><ele>870</ele><speed>13.25</speed><time>2019-02-23T16:21:10Z</time><pdop>4.5509996</pdop><geoidheight>0.00</geoidheight><course>152.8</course><type>1</type></trkpt>
      <trkpt lat="38.51183564" lon="-6.61154791"><ele>871</ele><speed>12.73</speed><time>2019-02-23T16:21:11Z</time><pdop>4.5509996</pdop><geoidheight>0.00</geoidheight><course>147.5</course><type>1</type></trkpt>
      <trkpt lat="38.51175194" lon="-6.61146378"><ele>871</ele><speed>12.46</speed><time>2019-02-23T16:21:12Z</time><pdop>4.5509996</pdop><geoidheight>0.00</geoidheight><course>141.4</course><type>1</type></trkpt>
      <trkpt lat="38.51167609" lon="-6.6113635"><ele>870</ele><speed>12.78</speed><time>2019-02-23T16:21:13Z</time><pdop>4.5509996</pdop><geoidheight>0.00</geoidheight><course>134.3</course><type>1</type></trkpt>
      <trkpt lat="38.5116071" lon="-6.61124412"><ele>869</ele><speed>12.76</speed><time>2019-02-23T16:21:14Z</time><pdop>4.5509996</pdop><geoidheight>0.00</geoidheight><course>126.2</course><type>1</type></trkpt>
      <trkpt lat="38.51154667" lon="-6.61113407"><ele>870</ele><speed>11.69</speed><time>2019-02-23T16:21:15Z</time><pdop>4.5509996</pdop><geoidheight>0.00</geoidheight><course>121.2</course><type>1</type></trkpt>
      <trkpt lat="38.5115016" lon="-6.61103348"><ele>870</ele><speed>10.56</speed><time>2019-02-23T16:21:16Z</time><pdop>4.5509996</pdop><geoidheight>0.00</geoidheight><course>115.8</course><type>1</type></trkpt>
      <trkpt lat="38.51147102" lon="-6.61092719"><ele>870</ele><speed>9.89</speed><time>2019-02-23T16:21:17Z</time><pdop>4.5509996</pdop><geoidheight>0.00</geoidheight><course>111.4</course><type>1</type></trkpt>
      <trkpt lat="38.51144071" lon="-6.6108266"><ele>871</ele><speed>9.75</speed><time>2019-02-23T16:21:18Z</time><pdop>4.5509996</pdop><geoidheight>0.00</geoidheight><course>107.8</course><type>1</type></trkpt>
      <trkpt lat="38.51141743" lon="-6.61071327"><ele>870</ele><speed>9.81</speed><time>2019-02-23T16:21:19Z</time><pdop>4.5509996</pdop><geoidheight>0.00</geoidheight><course>106.1</course><type>1</type></trkpt>
      <trkpt lat="38.51138921" lon="-6.61059907"><ele>870</ele><speed>9.83</speed><time>2019-02-23T16:21:20Z</time><pdop>6.068</pdop><geoidheight>0.00</geoidheight><course>106.0</course><type>1</type></trkpt>
      <trkpt lat="38.5113631" lon="-6.61038791"><ele>869</ele><speed>9.09</speed><time>2019-02-23T16:21:22Z</time><pdop>6.068</pdop><geoidheight>0.00</geoidheight><course>100.7</course><type>1</type></trkpt>
      <trkpt lat="38.51134588" lon="-6.61018454"><ele>871</ele><speed>8.42</speed><time>2019-02-23T16:21:24Z</time><pdop>6.068</pdop><geoidheight>0.00</geoidheight><course>95.9</course><type>1</type></trkpt>
      <trkpt lat="38.51134376" lon="-6.61000912"><ele>871</ele><speed>6.80</speed><time>2019-02-23T16:21:26Z</time><pdop>6.068</pdop><geoidheight>0.00</geoidheight><course>84.1</course><type>1</type></trkpt>
      <trkpt lat="38.51141071" lon="-6.60990079"><ele>871</ele><speed>3.42</speed><time>2019-02-23T16:21:30Z</time><pdop>6.068</pdop><geoidheight>0.00</geoidheight><course>329.4</course><type>1</type></trkpt>
      <trkpt lat="38.5114547" lon="-6.61003885"><ele>873</ele><speed>4.57</speed><time>2019-02-23T16:21:33Z</time><pdop>6.068</pdop><geoidheight>0.00</geoidheight><course>263.0</course><type>1</type></trkpt>
      <trkpt lat="38.51143614" lon="-6.61020563"><ele>874</ele><speed>5.07</speed><time>2019-02-23T16:21:36Z</time><pdop>6.068</pdop><geoidheight>0.00</geoidheight><course>255.7</course><type>1</type></trkpt>
      <trkpt lat="38.51139993" lon="-6.61034416"><ele>876</ele><speed>5.46</speed><time>2019-02-23T16:21:38Z</time><pdop>6.068</pdop><geoidheight>0.00</geoidheight><course>249.1</course><type>1</type></trkpt>
      <trkpt lat="38.51138599" lon="-6.61051165"><ele>873</ele><speed>5.42</speed><time>2019-02-23T16:21:41Z</time><pdop>6.068</pdop><geoidheight>0.00</geoidheight><course>266.2</course><type>1</type></trkpt>
      <trkpt lat="38.51137489" lon="-6.61067428"><ele>874</ele><speed>3.83</speed><time>2019-02-23T16:21:44Z</time><pdop>6.068</pdop><geoidheight>0.00</geoidheight><course>268.0</course><type>1</type></trkpt>
      <trkpt lat="38.5113997" lon="-6.6108419"><ele>875</ele><speed>4.01</speed><time>2019-02-23T16:21:48Z</time><pdop>7.585</pdop><geoidheight>0.00</geoidheight><course>285.5</course><type>1</type></trkpt>
      <trkpt lat="38.51143989" lon="-6.6110166"><ele>875</ele><speed>3.23</speed><time>2019-02-23T16:21:53Z</time><pdop>7.585</pdop><geoidheight>0.00</geoidheight><course>293.4</course><type>1</type></trkpt>
      <trkpt lat="38.51152187" lon="-6.61115285"><ele>875</ele><speed>2.20</speed><time>2019-02-23T16:21:58Z</time><pdop>7.585</pdop><geoidheight>0.00</geoidheight><course>309.0</course><type>1</type></trkpt>
      <trkpt lat="38.5115815" lon="-6.61129676"><ele>877</ele><speed>2.41</speed><time>2019-02-23T16:22:03Z</time><pdop>7.585</pdop><geoidheight>0.00</geoidheight><course>295.9</course><type>1</type></trkpt>
      <trkpt lat="38.51162445" lon="-6.61144784"><ele>874</ele><speed>2.34</speed><time>2019-02-23T16:22:09Z</time><pdop>6.068</pdop><geoidheight>0.00</geoidheight><course>323.9</course><type>1</type></trkpt>
      <trkpt lat="38.51172999" lon="-6.61147979"><ele>867</ele><speed>1.33</speed><time>2019-02-23T16:22:15Z</time><pdop>6.068</pdop><geoidheight>0.00</geoidheight><course>350.2</course><type>1</type></trkpt>
      <trkpt lat="38.51181695" lon="-6.61131016"><ele>866</ele><speed>6.22</speed><time>2019-02-23T16:22:21Z</time><pdop>6.068</pdop><geoidheight>0.00</geoidheight><course>78.8</course><type>1</type></trkpt>
      <trkpt lat="38.51184158" lon="-6.61114231"><ele>861</ele><speed>6.63</speed><time>2019-02-23T16:22:23Z</time><pdop>7.585</pdop><geoidheight>0.00</geoidheight><course>84.9</course><type>1</type></trkpt>
      <trkpt lat="38.51182258" lon="-6.61097188"><ele>861</ele><speed>8.06</speed><time>2019-02-23T16:22:25Z</time><pdop>6.068</pdop><geoidheight>0.00</geoidheight><course>93.3</course><type>1</type></trkpt>
      <trkpt lat="38.51180765" lon="-6.61076651"><ele>859</ele><speed>10.03</speed><time>2019-02-23T16:22:27Z</time><pdop>6.068</pdop><geoidheight>0.00</geoidheight><course>100.9</course><type>1</type></trkpt>
      <trkpt lat="38.51175391" lon="-6.6105437"><ele>858</ele><speed>9.75</speed><time>2019-02-23T16:22:29Z</time><pdop>6.068</pdop><geoidheight>0.00</geoidheight><course>110.3</course><type>1</type></trkpt>
      <trkpt lat="38.51168232" lon="-6.6103368"><ele>857</ele><speed>10.67</speed><time>2019-02-23T16:22:31Z</time><pdop>6.068</pdop><geoidheight>0.00</geoidheight><course>115.3</course><type>1</type></trkpt>
      <trkpt lat="38.51160304" lon="-6.61010315"><ele>856</ele><speed>11.09</speed><time>2019-02-23T16:22:33Z</time><pdop>6.068</pdop><geoidheight>0.00</geoidheight><course>113.1</course><type>1</type></trkpt>
      <trkpt lat="38.51155599" lon="-6.60997778"><ele>856</ele><speed>10.28</speed><time>2019-02-23T16:22:34Z</time><pdop>6.068</pdop><geoidheight>0.00</geoidheight><course>115.7</course><type>1</type></trkpt>
      <trkpt lat="38.51146793" lon="-6.60977772"><ele>857</ele><speed>9.99</speed><time>2019-02-23T16:22:36Z</time><pdop>6.068</pdop><geoidheight>0.00</geoidheight><course>117.4</course><type>1</type></trkpt>
      <trkpt lat="38.51139894" lon="-6.60957362"><ele>857</ele><speed>10.32</speed><time>2019-02-23T16:22:38Z</time><pdop>6.068</pdop><geoidheight>0.00</geoidheight><course>114.0</course><type>1</type></trkpt>
      <trkpt lat="38.51133355" lon="-6.6093706"><ele>857</ele><speed>9.27</speed><time>2019-02-23T16:22:40Z</time><pdop>6.068</pdop><geoidheight>0.00</geoidheight><course>113.8</course><type>1</type></trkpt>
      <trkpt lat="38.51126919" lon="-6.60916266"><ele>855</ele><speed>9.38</speed><time>2019-02-23T16:22:42Z</time><pdop>6.068</pdop><geoidheight>0.00</geoidheight><course>109.5</course><type>1</type></trkpt>
      <trkpt lat="38.51122693" lon="-6.60895533"><ele>853</ele><speed>8.05</speed><time>2019-02-23T16:22:44Z</time><pdop>6.068</pdop><geoidheight>0.00</geoidheight><course>93.7</course><type>1</type></trkpt>
      <trkpt lat="38.51126258" lon="-6.60881017"><ele>855</ele><speed>5.72</speed><time>2019-02-23T16:22:46Z</time><pdop>7.585</pdop><geoidheight>0.00</geoidheight><course>67.9</course><type>1</type></trkpt>
      <trkpt lat="38.51135939" lon="-6.60871626"><ele>858</ele><speed>2.01</speed><time>2019-02-23T16:22:51Z</time><pdop>6.068</pdop><geoidheight>0.00</geoidheight><course>331.1</course><type>1</type></trkpt>
      <trkpt lat="38.51145735" lon="-6.60879814"><ele>855</ele><speed>2.80</speed><time>2019-02-23T16:22:56Z</time><pdop>6.068</pdop><geoidheight>0.00</geoidheight><course>330.3</course><type>1</type></trkpt>
      <trkpt lat="38.51156099" lon="-6.60890109"><ele>852</ele><speed>2.78</speed><time>2019-02-23T16:23:01Z</time><pdop>7.585</pdop><geoidheight>0.00</geoidheight><course>314.6</course><type>1</type></trkpt>
      <trkpt lat="38.51160775" lon="-6.60904189"><ele>850</ele><speed>4.81</speed><time>2019-02-23T16:23:05Z</time><pdop>6.068</pdop><geoidheight>0.00</geoidheight><course>270.8</course><type>1</type></trkpt>
      <trkpt lat="38.51160052" lon="-6.60919086"><ele>850</ele><speed>4.21</speed><time>2019-02-23T16:23:08Z</time><pdop>6.068</pdop><geoidheight>0.00</geoidheight><course>263.7</course><type>1</type></trkpt>
      <trkpt lat="38.51158663" lon="-6.60938378"><ele>843</ele><speed>5.56</speed><time>2019-02-23T16:23:11Z</time><pdop>6.068</pdop><geoidheight>0.00</geoidheight><course>271.0</course><type>1</type></trkpt>
      <trkpt lat="38.51160905" lon="-6.60953245"><ele>846</ele><speed>2.91</speed><time>2019-02-23T16:23:14Z</time><pdop>6.068</pdop><geoidheight>0.00</geoidheight><course>296.7</course><type>1</type></trkpt>
      <trkpt lat="38.51166886" lon="-6.60967645"><ele>851</ele><speed>3.75</speed><time>2019-02-23T16:23:18Z</time><pdop>6.068</pdop><geoidheight>0.00</geoidheight><course>298.0</course><type>1</type></trkpt>
      <trkpt lat="38.5117274" lon="-6.60979231"><ele>857</ele><speed>3.30</speed><time>2019-02-23T16:23:22Z</time><pdop>6.068</pdop><geoidheight>0.00</geoidheight><course>298.1</course><type>1</type></trkpt>
      <trkpt lat="38.51178997" lon="-6.60992227"><ele>859</ele><speed>3.20</speed><time>2019-02-23T16:23:26Z</time><pdop>6.068</pdop><geoidheight>0.00</geoidheight><course>306.0</course><type>1</type></trkpt>
      <trkpt lat="38.51186545" lon="-6.61003199"><ele>864</ele><speed>2.19</speed><time>2019-02-23T16:23:31Z</time><pdop>6.068</pdop><geoidheight>0.00</geoidheight><course>318.5</course><type>1</type></trkpt>
      <trkpt lat="38.51196777" lon="-6.61008432"><ele>867</ele><speed>1.98</speed><time>2019-02-23T16:23:37Z</time><pdop>4.5509996</pdop><geoidheight>0.00</geoidheight><course>1.5</course><type>1</type></trkpt>
      <trkpt lat="38.51206948" lon="-6.61008883"><ele>863</ele><speed>2.33</speed><time>2019-02-23T16:23:43Z</time><pdop>6.068</pdop><geoidheight>0.00</geoidheight><course>345.2</course><type>1</type></trkpt>
      <trkpt lat="38.51217274" lon="-6.61001398"><ele>860</ele><speed>4.69</speed><time>2019-02-23T16:23:48Z</time><pdop>6.068</pdop><geoidheight>0.00</geoidheight><course>63.7</course><type>1</type></trkpt>
      <trkpt lat="38.5122057" lon="-6.60979379"><ele>864</ele><speed>6.78</speed><time>2019-02-23T16:23:51Z</time><pdop>6.068</pdop><geoidheight>0.00</geoidheight><course>81.0</course><type>1</type></trkpt>
      <trkpt lat="38.51222412" lon="-6.60962678"><ele>859</ele><speed>7.11</speed><time>2019-02-23T16:23:53Z</time><pdop>6.068</pdop><geoidheight>0.00</geoidheight><course>84.4</course><type>1</type></trkpt>
      <trkpt lat="38.51223005" lon="-6.60944118"><ele>857</ele><speed>7.81</speed><time>2019-02-23T16:23:55Z</time><pdop>6.068</pdop><geoidheight>0.00</geoidheight><course>92.2</course><type>1</type></trkpt>
      <trkpt lat="38.51221639" lon="-6.60924906"><ele>854</ele><speed>9.18</speed><time>2019-02-23T16:23:57Z</time><pdop>6.068</pdop><geoidheight>0.00</geoidheight><course>96.1</course><type>1</type></trkpt>
      <trkpt lat="38.51218152" lon="-6.60902404"><ele>851</ele><speed>10.10</speed><time>2019-02-23T16:23:59Z</time><pdop>6.068</pdop><geoidheight>0.00</geoidheight><course>103.1</course><type>1</type></trkpt>
      <trkpt lat="38.51211725" lon="-6.6088025"><ele>850</ele><speed>10.46</speed><time>2019-02-23T16:24:01Z</time><pdop>6.068</pdop><geoidheight>0.00</geoidheight><course>114.4</course><type>1</type></trkpt>
      <trkpt lat="38.51202754" lon="-6.60857288"><ele>848</ele><speed>10.97</speed><time>2019-02-23T16:24:03Z</time><pdop>6.068</pdop><geoidheight>0.00</geoidheight><course>115.7</course><type>1</type></trkpt>
      <trkpt lat="38.51194051" lon="-6.60834758"><ele>846</ele><speed>11.54</speed><time>2019-02-23T16:24:05Z</time><pdop>6.068</pdop><geoidheight>0.00</geoidheight><course>112.1</course><type>1</type></trkpt>
      <trkpt lat="38.51189775" lon="-6.60821667"><ele>846</ele><speed>12.31</speed><time>2019-02-23T16:24:06Z</time><pdop>6.068</pdop><geoidheight>0.00</geoidheight><course>110.5</course><type>1</type></trkpt>
      <trkpt lat="38.51185662" lon="-6.60808499"><ele>846</ele><speed>12.72</speed><time>2019-02-23T16:24:07Z</time><pdop>6.068</pdop><geoidheight>0.00</geoidheight><course>109.7</course><type>1</type></trkpt>
      <trkpt lat="38.5118233" lon="-6.60794273"><ele>846</ele><speed>12.49</speed><time>2019-02-23T16:24:08Z</time><pdop>6.068</pdop><geoidheight>0.00</geoidheight><course>110.5</course><type>1</type></trkpt>
      <trkpt lat="38.51177889" lon="-6.60781179"><ele>845</ele><speed>11.75</speed><time>2019-02-23T16:24:09Z</time><pdop>6.068</pdop><geoidheight>0.00</geoidheight><course>110.2</course><type>1</type></trkpt>
      <trkpt lat="38.51172038" lon="-6.60755729"><ele>846</ele><speed>11.32</speed><time>2019-02-23T16:24:11Z</time><pdop>6.068</pdop><geoidheight>0.00</geoidheight><course>108.4</course><type>1</type></trkpt>
      <trkpt lat="38.51164623" lon="-6.6073088"><ele>846</ele><speed>11.61</speed><time>2019-02-23T16:24:13Z</time><pdop>6.068</pdop><geoidheight>0.00</geoidheight><course>108.5</course><type>1</type></trkpt>
      <trkpt lat="38.5115734" lon="-6.60706096"><ele>845</ele><speed>11.99</speed><time>2019-02-23T16:24:15Z</time><pdop>4.5509996</pdop><geoidheight>0.00</geoidheight><course>109.8</course><type>1</type></trkpt>
      <trkpt lat="38.51153498" lon="-6.60693073"><ele>846</ele><speed>11.93</speed><time>2019-02-23T16:24:16Z</time><pdop>6.068</pdop><geoidheight>0.00</geoidheight><course>108.9</course><type>1</type></trkpt>
      <trkpt lat="38.511476" lon="-6.60669078"><ele>847</ele><speed>9.10</speed><time>2019-02-23T16:24:18Z</time><pdop>6.068</pdop><geoidheight>0.00</geoidheight><course>105.0</course><type>1</type></trkpt>
      <trkpt lat="38.51147446" lon="-6.60653178"><ele>848</ele><speed>6.38</speed><time>2019-02-23T16:24:20Z</time><pdop>6.068</pdop><geoidheight>0.00</geoidheight><course>78.7</course><type>1</type></trkpt>
      <trkpt lat="38.51154285" lon="-6.60639255"><ele>825</ele><speed>4.03</speed><time>2019-02-23T16:24:23Z</time><pdop>6.068</pdop><geoidheight>0.00</geoidheight><course>42.1</course><type>1</type></trkpt>
      <trkpt lat="38.51164834" lon="-6.60630626"><ele>841</ele><speed>3.47</speed><time>2019-02-23T16:24:27Z</time><pdop>6.068</pdop><geoidheight>0.00</geoidheight><course>26.7</course><type>1</type></trkpt>
      <trkpt lat="38.5117817" lon="-6.60631396"><ele>847</ele><speed>2.89</speed><time>2019-02-23T16:24:33Z</time><pdop>7.585</pdop><geoidheight>0.00</geoidheight><course>347.8</course><type>1</type></trkpt>
      <trkpt lat="38.51190526" lon="-6.606391"><ele>849</ele><speed>2.88</speed><time>2019-02-23T16:24:38Z</time><pdop>7.585</pdop><geoidheight>0.00</geoidheight><course>302.5</course><type>1</type></trkpt>
      <trkpt lat="38.51200521" lon="-6.60648426"><ele>839</ele><speed>1.40</speed><time>2019-02-23T16:24:43Z</time><pdop>6.068</pdop><geoidheight>0.00</geoidheight><course>342.6</course><type>1</type></trkpt>
      <trkpt lat="38.5121097" lon="-6.60644275"><ele>846</ele><speed>3.88</speed><time>2019-02-23T16:24:47Z</time><pdop>6.068</pdop><geoidheight>0.00</geoidheight><course>18.8</course><type>1</type></trkpt>
      <trkpt lat="38.51219592" lon="-6.60632209"><ele>849</ele><speed>4.78</speed><time>2019-02-23T16:24:51Z</time><pdop>6.068</pdop><geoidheight>0.00</geoidheight><course>62.3</course><type>1</type></trkpt>
      <trkpt lat="38.51221831" lon="-6.60618163"><ele>848</ele><speed>6.00</speed><time>2019-02-23T16:24:53Z</time><pdop>6.068</pdop><geoidheight>0.00</geoidheight><course>71.7</course><type>1</type></trkpt>
      <trkpt lat="38.51225009" lon="-6.60602084"><ele>847</ele><speed>7.54</speed><time>2019-02-23T16:24:55Z</time><pdop>6.068</pdop><geoidheight>0.00</geoidheight><course>80.2</course><type>1</type></trkpt>
      <trkpt lat="38.51226655" lon="-6.60584013"><ele>837</ele><speed>7.59</speed><time>2019-02-23T16:24:57Z</time><pdop>6.068</pdop><geoidheight>0.00</geoidheight><course>84.9</course><type>1</type></trkpt>
      <trkpt lat="38.51227613" lon="-6.60568071"><ele>843</ele><speed>5.93</speed><time>2019-02-23T16:24:59Z</time><pdop>6.068</pdop><geoidheight>0.00</geoidheight><course>86.3</course><type>1</type></trkpt>
      <trkpt lat="38.51233744" lon="-6.60548344"><ele>845</ele><speed>6.46</speed><time>2019-02-23T16:25:02Z</time><pdop>7.585</pdop><geoidheight>0.00</geoidheight><course>66.7</course><type>1</type></trkpt>
      <trkpt lat="38.51237194" lon="-6.60531915"><ele>848</ele><speed>4.12</speed><time>2019-02-23T16:25:05Z</time><pdop>6.068</pdop><geoidheight>0.00</geoidheight><course>68.9</course><type>1</type></trkpt>
      <trkpt lat="38.51246454" lon="-6.60521021"><ele>848</ele><speed>3.63</speed><time>2019-02-23T16:25:08Z</time><pdop>7.585</pdop><geoidheight>0.00</geoidheight><course>25.9</course><type>1</type></trkpt>
      <trkpt lat="38.51254254" lon="-6.60537121"><ele>840</ele><speed>3.52</speed><time>2019-02-23T16:25:14Z</time><pdop>7.585</pdop><geoidheight>0.00</geoidheight><course>282.4</course><type>1</type></trkpt>
      <trkpt lat="38.51250473" lon="-6.60555055"><ele>845</ele><speed>5.35</speed><time>2019-02-23T16:25:18Z</time><pdop>6.068</pdop><geoidheight>0.00</geoidheight><course>255.7</course><type>1</type></trkpt>
      <trkpt lat="38.51246471" lon="-6.60573801"><ele>845</ele><speed>4.98</speed><time>2019-02-23T16:25:21Z</time><pdop>6.068</pdop><geoidheight>0.00</geoidheight><course>259.6</course><type>1</type></trkpt>
      <trkpt lat="38.51245566" lon="-6.60588453"><ele>843</ele><speed>3.97</speed><time>2019-02-23T16:25:24Z</time><pdop>6.068</pdop><geoidheight>0.00</geoidheight><course>280.0</course><type>1</type></trkpt>
      <trkpt lat="38.51249651" lon="-6.60598828"><ele>841</ele><speed>2.70</speed><time>2019-02-23T16:25:27Z</time><pdop>4.5509996</pdop><geoidheight>0.00</geoidheight><course>306.6</course><type>1</type></trkpt>
      <trkpt lat="38.51259456" lon="-6.60603267"><ele>836</ele><speed>3.31</speed><time>2019-02-23T16:25:31Z</time><pdop>6.068</pdop><geoidheight>0.00</geoidheight><course>358.7</course><type>1</type></trkpt>
      <trkpt lat="38.51270258" lon="-6.60600075"><ele>834</ele><speed>2.62</speed><time>2019-02-23T16:25:36Z</time><pdop>6.068</pdop><geoidheight>0.00</geoidheight><course>335.6</course><type>1</type></trkpt>
      <trkpt lat="38.51275261" lon="-6.60614096"><ele>828</ele><speed>4.14</speed><time>2019-02-23T16:25:40Z</time><pdop>6.068</pdop><geoidheight>0.00</geoidheight><course>270.2</course><type>1</type></trkpt>
      <trkpt lat="38.51267804" lon="-6.60628419"><ele>827</ele><speed>6.59</speed><time>2019-02-23T16:25:42Z</time><pdop>6.068</pdop><geoidheight>0.00</geoidheight><course>246.4</course><type>1</type></trkpt>
      <trkpt lat="38.51262809" lon="-6.60643415"><ele>828</ele><speed>8.20</speed><time>2019-02-23T16:25:44Z</time><pdop>6.068</pdop><geoidheight>0.00</geoidheight><course>241.7</course><type>1</type></trkpt>
      <trkpt lat="38.51255136" lon="-6.60658307"><ele>831</ele><speed>7.13</speed><time>2019-02-23T16:25:46Z</time><pdop>6.068</pdop><geoidheight>0.00</geoidheight><course>236.3</course><type>1</type></trkpt>
      <trkpt lat="38.51247989" lon="-6.60670912"><ele>829</ele><speed>7.02</speed><time>2019-02-23T16:25:48Z</time><pdop>6.068</pdop><geoidheight>0.00</geoidheight><course>235.9</course><type>1</type></trkpt>
      <trkpt lat="38.51239741" lon="-6.60686383"><ele>829</ele><speed>8.08</speed><time>2019-02-23T16:25:50Z</time><pdop>6.068</pdop><geoidheight>0.00</geoidheight><course>237.8</course><type>1</type></trkpt>
      <trkpt lat="38.51230611" lon="-6.60705295"><ele>830</ele><speed>8.23</speed><time>2019-02-23T16:25:52Z</time><pdop>6.068</pdop><geoidheight>0.00</geoidheight><course>233.1</course><type>1</type></trkpt>
      <trkpt lat="38.5122295" lon="-6.60718313"><ele>829</ele><speed>7.15</speed><time>2019-02-23T16:25:54Z</time><pdop>6.068</pdop><geoidheight>0.00</geoidheight><course>233.5</course><type>1</type></trkpt>
      <trkpt lat="38.51214972" lon="-6.60730363"><ele>829</ele><speed>7.28</speed><time>2019-02-23T16:25:56Z</time><pdop>6.068</pdop><geoidheight>0.00</geoidheight><course>233.0</course><type>1</type></trkpt>
      <trkpt lat="38.51208031" lon="-6.60744776"><ele>828</ele><speed>7.73</speed><time>2019-02-23T16:25:58Z</time><pdop>6.068</pdop><geoidheight>0.00</geoidheight><course>239.9</course><type>1</type></trkpt>
      <trkpt lat="38.51200839" lon="-6.60758518"><ele>827</ele><speed>7.63</speed><time>2019-02-23T16:26:00Z</time><pdop>6.068</pdop><geoidheight>0.00</geoidheight><course>236.3</course><type>1</type></trkpt>
      <trkpt lat="38.51193013" lon="-6.60772482"><ele>825</ele><speed>8.08</speed><time>2019-02-23T16:26:02Z</time><pdop>6.068</pdop><geoidheight>0.00</geoidheight><course>238.5</course><type>1</type></trkpt>
      <trkpt lat="38.51185535" lon="-6.60787992"><ele>828</ele><speed>8.41</speed><time>2019-02-23T16:26:04Z</time><pdop>6.068</pdop><geoidheight>0.00</geoidheight><course>240.4</course><type>1</type></trkpt>
      <trkpt lat="38.51178576" lon="-6.60803854"><ele>810</ele><speed>7.38</speed><time>2019-02-23T16:26:06Z</time><pdop>6.068</pdop><geoidheight>0.00</geoidheight><course>243.9</course><type>1</type></trkpt>
      <trkpt lat="38.51174356" lon="-6.60818546"><ele>820</ele><speed>7.05</speed><time>2019-02-23T16:26:08Z</time><pdop>6.068</pdop><geoidheight>0.00</geoidheight><course>255.4</course><type>1</type></trkpt>
      <trkpt lat="38.51172016" lon="-6.60834234"><ele>826</ele><speed>6.91</speed><time>2019-02-23T16:26:10Z</time><pdop>6.068</pdop><geoidheight>0.00</geoidheight><course>259.9</course><type>1</type></trkpt>
      <trkpt lat="38.51166059" lon="-6.6085237"><ele>830</ele><speed>4.71</speed><time>2019-02-23T16:26:13Z</time><pdop>6.068</pdop><geoidheight>0.00</geoidheight><course>240.1</course><type>1</type></trkpt>
      <trkpt lat="38.51162064" lon="-6.60868161"><ele>827</ele><speed>5.72</speed><time>2019-02-23T16:26:16Z</time><pdop>6.068</pdop><geoidheight>0.00</geoidheight><course>268.2</course><type>1</type></trkpt>
      <trkpt lat="38.51165217" lon="-6.60885203"><ele>826</ele><speed>3.70</speed><time>2019-02-23T16:26:19Z</time><pdop>6.068</pdop><geoidheight>0.00</geoidheight><course>274.4</course><type>1</type></trkpt>
      <trkpt lat="38.51167729" lon="-6.60899342"><ele>826</ele><speed>4.17</speed><time>2019-02-23T16:26:22Z</time><pdop>6.068</pdop><geoidheight>0.00</geoidheight><course>291.1</course><type>1</type></trkpt>
      <trkpt lat="38.51181373" lon="-6.60904087"><ele>825</ele><speed>3.69</speed><time>2019-02-23T16:26:28Z</time><pdop>7.585</pdop><geoidheight>0.00</geoidheight><course>18.2</course><type>1</type></trkpt>
      <trkpt lat="38.51189887" lon="-6.60890995"><ele>827</ele><speed>4.66</speed><time>2019-02-23T16:26:32Z</time><pdop>6.068</pdop><geoidheight>0.00</geoidheight><course>77.3</course><type>1</type></trkpt>
      <trkpt lat="38.51191083" lon="-6.60875585"><ele>825</ele><speed>6.30</speed><time>2019-02-23T16:26:34Z</time><pdop>6.068</pdop><geoidheight>0.00</geoidheight><course>67.8</course><type>1</type></trkpt>
      <trkpt lat="38.51193526" lon="-6.60858862"><ele>825</ele><speed>7.40</speed><time>2019-02-23T16:26:36Z</time><pdop>6.068</pdop><geoidheight>0.00</geoidheight><course>84.4</course><type>1</type></trkpt>
      <trkpt lat="38.51193637" lon="-6.60842472"><ele>775</ele><speed>7.74</speed><time>2019-02-23T16:26:38Z</time><pdop>7.585</pdop><geoidheight>0.00</geoidheight><course>95.5</course><type>1</type></trkpt>
      <trkpt lat="38.51192524" lon="-6.60823707"><ele>795</ele><speed>8.08</speed><time>2019-02-23T16:26:40Z</time><pdop>7.585</pdop><geoidheight>0.00</geoidheight><course>89.5</course><type>1</type></trkpt>
      <trkpt lat="38.51193106" lon="-6.6080504"><ele>805</ele><speed>8.57</speed><time>2019-02-23T16:26:42Z</time><pdop>7.585</pdop><geoidheight>0.00</geoidheight><course>98.4</course><type>1</type></trkpt>
      <trkpt lat="38.51191617" lon="-6.6078593"><ele>813</ele><speed>8.45</speed><time>2019-02-23T16:26:44Z</time><pdop>7.585</pdop><geoidheight>0.00</geoidheight><course>95.0</course><type>1</type></trkpt>
      <trkpt lat="38.51193169" lon="-6.60768214"><ele>815</ele><speed>7.32</speed><time>2019-02-23T16:26:46Z</time><pdop>6.068</pdop><geoidheight>0.00</geoidheight><course>73.3</course><type>1</type></trkpt>
      <trkpt lat="38.51198703" lon="-6.60756261"><ele>816</ele><speed>5.40</speed><time>2019-02-23T16:26:48Z</time><pdop>6.068</pdop><geoidheight>0.00</geoidheight><course>46.0</course><type>1</type></trkpt>
      <trkpt lat="38.5120967" lon="-6.60761546"><ele>813</ele><speed>4.42</speed><time>2019-02-23T16:26:54Z</time><pdop>6.068</pdop><geoidheight>0.00</geoidheight><course>287.2</course><type>1</type></trkpt>
      <trkpt lat="38.51210679" lon="-6.60782285"><ele>812</ele><speed>6.25</speed><time>2019-02-23T16:26:57Z</time><pdop>6.068</pdop><geoidheight>0.00</geoidheight><course>261.0</course><type>1</type></trkpt>
      <trkpt lat="38.51208775" lon="-6.60797961"><ele>811</ele><speed>6.68</speed><time>2019-02-23T16:26:59Z</time><pdop>6.068</pdop><geoidheight>0.00</geoidheight><course>243.3</course><type>1</type></trkpt>
      <trkpt lat="38.51202333" lon="-6.60814123"><ele>811</ele><speed>8.37</speed><time>2019-02-23T16:27:01Z</time><pdop>6.068</pdop><geoidheight>0.00</geoidheight><course>242.0</course><type>1</type></trkpt>
      <trkpt lat="38.5119557" lon="-6.60830513"><ele>810</ele><speed>8.05</speed><time>2019-02-23T16:27:03Z</time><pdop>6.068</pdop><geoidheight>0.00</geoidheight><course>241.0</course><type>1</type></trkpt>
      <trkpt lat="38.51188184" lon="-6.60846085"><ele>812</ele><speed>7.77</speed><time>2019-02-23T16:27:05Z</time><pdop>7.585</pdop><geoidheight>0.00</geoidheight><course>238.2</course><type>1</type></trkpt>
      <trkpt lat="38.51181051" lon="-6.60861081"><ele>801</ele><speed>8.01</speed><time>2019-02-23T16:27:07Z</time><pdop>6.068</pdop><geoidheight>0.00</geoidheight><course>239.0</course><type>1</type></trkpt>
      <trkpt lat="38.51174189" lon="-6.60877383"><ele>807</ele><speed>8.14</speed><time>2019-02-23T16:27:09Z</time><pdop>6.068</pdop><geoidheight>0.00</geoidheight><course>239.9</course><type>1</type></trkpt>
      <trkpt lat="38.51167627" lon="-6.60892931"><ele>809</ele><speed>6.83</speed><time>2019-02-23T16:27:11Z</time><pdop>6.068</pdop><geoidheight>0.00</geoidheight><course>239.7</course><type>1</type></trkpt>
      <trkpt lat="38.51163373" lon="-6.60906035"><ele>810</ele><speed>7.04</speed><time>2019-02-23T16:27:13Z</time><pdop>6.068</pdop><geoidheight>0.00</geoidheight><course>250.0</course><type>1</type></trkpt>
      <trkpt lat="38.51158609" lon="-6.60923664"><ele>812</ele><speed>7.28</speed><time>2019-02-23T16:27:15Z</time><pdop>6.068</pdop><geoidheight>0.00</geoidheight><course>250.7</course><type>1</type></trkpt>
      <trkpt lat="38.51153344" lon="-6.60938071"><ele>816</ele><speed>5.67</speed><time>2019-02-23T16:27:17Z</time><pdop>7.585</pdop><geoidheight>0.00</geoidheight><course>245.8</course><type>1</type></trkpt>
      <trkpt lat="38.5114715" lon="-6.60958049"><ele>818</ele><speed>6.93</speed><time>2019-02-23T16:27:20Z</time><pdop>6.068</pdop><geoidheight>0.00</geoidheight><course>239.4</course><type>1</type></trkpt>
      <trkpt lat="38.51139732" lon="-6.60970294"><ele>820</ele><speed>5.84</speed><time>2019-02-23T16:27:22Z</time><pdop>6.068</pdop><geoidheight>0.00</geoidheight><course>225.2</course><type>1</type></trkpt>
      <trkpt lat="38.5113515" lon="-6.60987142"><ele>819</ele><speed>5.94</speed><time>2019-02-23T16:27:25Z</time><pdop>6.068</pdop><geoidheight>0.00</geoidheight><course>272.6</course><type>1</type></trkpt>
      <trkpt lat="38.51134069" lon="-6.61001864"><ele>821</ele><speed>2.94</speed><time>2019-02-23T16:27:28Z</time><pdop>6.068</pdop><geoidheight>0.00</geoidheight><course>248.7</course><type>1</type></trkpt>
      <trkpt lat="38.51139487" lon="-6.61015044"><ele>821</ele><speed>2.51</speed><time>2019-02-23T16:27:33Z</time><pdop>6.068</pdop><geoidheight>0.00</geoidheight><course>299.6</course><type>1</type></trkpt>
      <trkpt lat="38.51144121" lon="-6.61027622"><ele>821</ele><speed>2.45</speed><time>2019-02-23T16:27:38Z</time><pdop>6.068</pdop><geoidheight>0.00</geoidheight><course>325.7</course><type>1</type></trkpt>
      <trkpt lat="38.51155061" lon="-6.61033556"><ele>821</ele><speed>1.99</speed><time>2019-02-23T16:27:44Z</time><pdop>6.068</pdop><geoidheight>0.00</geoidheight><course>331.3</course><type>1</type></trkpt>
      <trkpt lat="38.511656" lon="-6.61037182"><ele>821</ele><speed>2.33</speed><time>2019-02-23T16:27:49Z</time><pdop>6.068</pdop><geoidheight>0.00</geoidheight><course>342.5</course><type>1</type></trkpt>
      <trkpt lat="38.51176686" lon="-6.61041196"><ele>822</ele><speed>2.64</speed><time>2019-02-23T16:27:54Z</time><pdop>6.068</pdop><geoidheight>0.00</geoidheight><course>348.9</course><type>1</type></trkpt>
      <trkpt lat="38.51189041" lon="-6.61041436"><ele>820</ele><speed>3.20</speed><time>2019-02-23T16:27:59Z</time><pdop>6.068</pdop><geoidheight>0.00</geoidheight><course>3.3</course><type>1</type></trkpt>
      <trkpt lat="38.51201021" lon="-6.61038805"><ele>819</ele><speed>3.79</speed><time>2019-02-23T16:28:03Z</time><pdop>6.068</pdop><geoidheight>0.00</geoidheight><course>19.2</course><type>1</type></trkpt>
      <trkpt lat="38.51210731" lon="-6.61027475"><ele>843</ele><speed>4.57</speed><time>2019-02-23T16:28:07Z</time><pdop>6.068</pdop><geoidheight>0.00</geoidheight><course>73.7</course><type>1</type></trkpt>
      <trkpt lat="38.51209033" lon="-6.61012289"><ele>832</ele><speed>7.06</speed><time>2019-02-23T16:28:09Z</time><pdop>6.068</pdop><geoidheight>0.00</geoidheight><course>81.5</course><type>1</type></trkpt>
      <trkpt lat="38.51210224" lon="-6.60995509"><ele>826</ele><speed>8.25</speed><time>2019-02-23T16:28:11Z</time><pdop>6.068</pdop><geoidheight>0.00</geoidheight><course>91.0</course><type>1</type></trkpt>
      <trkpt lat="38.5120798" lon="-6.60976981"><ele>823</ele><speed>8.25</speed><time>2019-02-23T16:28:13Z</time><pdop>6.068</pdop><geoidheight>0.00</geoidheight><course>102.1</course><type>1</type></trkpt>
      <trkpt lat="38.51203673" lon="-6.60954496"><ele>819</ele><speed>10.18</speed><time>2019-02-23T16:28:15Z</time><pdop>6.068</pdop><geoidheight>0.00</geoidheight><course>104.3</course><type>1</type></trkpt>
      <trkpt lat="38.51197595" lon="-6.60929887"><ele>818</ele><speed>11.25</speed><time>2019-02-23T16:28:17Z</time><pdop>6.068</pdop><geoidheight>0.00</geoidheight><course>113.0</course><type>1</type></trkpt>
      <trkpt lat="38.51185623" lon="-6.60907106"><ele>819</ele><speed>11.80</speed><time>2019-02-23T16:28:19Z</time><pdop>6.068</pdop><geoidheight>0.00</geoidheight><course>123.7</course><type>1</type></trkpt>
      <trkpt lat="38.51178934" lon="-6.60894761"><ele>820</ele><speed>12.34</speed><time>2019-02-23T16:28:20Z</time><pdop>6.068</pdop><geoidheight>0.00</geoidheight><course>126.5</course><type>1</type></trkpt>
      <trkpt lat="38.51172464" lon="-6.60883722"><ele>820</ele><speed>12.92</speed><time>2019-02-23T16:28:21Z</time><pdop>6.068</pdop><geoidheight>0.00</geoidheight><course>128.2</course><type>1</type></trkpt>
      <trkpt lat="38.51163469" lon="-6.60872581"><ele>820</ele><speed>12.96</speed><time>2019-02-23T16:28:22Z</time><pdop>6.068</pdop><geoidheight>0.00</geoidheight><course>131.2</course><type>1</type></trkpt>
      <trkpt lat="38.51153889" lon="-6.60862569"><ele>821</ele><speed>12.88</speed><time>2019-02-23T16:28:23Z</time><pdop>4.5509996</pdop><geoidheight>0.00</geoidheight><course>135.6</course><type>1</type></trkpt>
      <trkpt lat="38.51145524" lon="-6.60852118"><ele>822</ele><speed>12.89</speed><time>2019-02-23T16:28:24Z</time><pdop>6.068</pdop><geoidheight>0.00</geoidheight><course>137.8</course><type>1</type></trkpt>
      <trkpt lat="38.51137053" lon="-6.60842142"><ele>822</ele><speed>12.55</speed><time>2019-02-23T16:28:25Z</time><pdop>6.068</pdop><geoidheight>0.00</geoidheight><course>137.6</course><type>1</type></trkpt>
      <trkpt lat="38.5112875" lon="-6.60832505"><ele>823</ele><speed>12.65</speed><time>2019-02-23T16:28:26Z</time><pdop>6.068</pdop><geoidheight>0.00</geoidheight><course>135.9</course><type>1</type></trkpt>
      <trkpt lat="38.51121336" lon="-6.60822478"><ele>824</ele><speed>12.57</speed><time>2019-02-23T16:28:27Z</time><pdop>6.068</pdop><geoidheight>0.00</geoidheight><course>133.5</course><type>1</type></trkpt>
      <trkpt lat="38.51112935" lon="-6.60811202"><ele>824</ele><speed>12.37</speed><time>2019-02-23T16:28:28Z</time><pdop>6.068</pdop><geoidheight>0.00</geoidheight><course>132.0</course><type>1</type></trkpt>
      <trkpt lat="38.51105856" lon="-6.60799785"><ele>825</ele><speed>12.22</speed><time>2019-02-23T16:28:29Z</time><pdop>6.068</pdop><geoidheight>0.00</geoidheight><course>130.6</course><type>1</type></trkpt>
      <trkpt lat="38.51097852" lon="-6.60790264"><ele>825</ele><speed>12.26</speed><time>2019-02-23T16:28:30Z</time><pdop>6.068</pdop><geoidheight>0.00</geoidheight><course>131.8</course><type>1</type></trkpt>
      <trkpt lat="38.51090777" lon="-6.60779467"><ele>826</ele><speed>12.49</speed><time>2019-02-23T16:28:31Z</time><pdop>6.068</pdop><geoidheight>0.00</geoidheight><course>132.8</course><type>1</type></trkpt>
      <trkpt lat="38.51080582" lon="-6.60770167"><ele>826</ele><speed>12.45</speed><time>2019-02-23T16:28:32Z</time><pdop>6.068</pdop><geoidheight>0.00</geoidheight><course>133.5</course><type>1</type></trkpt>
      <trkpt lat="38.51073824" lon="-6.60758257"><ele>826</ele><speed>11.74</speed><time>2019-02-23T16:28:33Z</time><pdop>6.068</pdop><geoidheight>0.00</geoidheight><course>127.9</course><type>1</type></trkpt>
      <trkpt lat="38.51065856" lon="-6.60737805"><ele>828</ele><speed>10.37</speed><time>2019-02-23T16:28:35Z</time><pdop>6.068</pdop><geoidheight>0.00</geoidheight><course>110.8</course><type>1</type></trkpt>
      <trkpt lat="38.51062862" lon="-6.60718724"><ele>828</ele><speed>7.69</speed><time>2019-02-23T16:28:37Z</time><pdop>6.068</pdop><geoidheight>0.00</geoidheight><course>88.0</course><type>1</type></trkpt>
      <trkpt lat="38.5106744" lon="-6.60704705"><ele>828</ele><speed>5.63</speed><time>2019-02-23T16:28:39Z</time><pdop>6.068</pdop><geoidheight>0.00</geoidheight><course>52.0</course><type>1</type></trkpt>
      <trkpt lat="38.51080189" lon="-6.60703212"><ele>830</ele><speed>3.92</speed><time>2019-02-23T16:28:43Z</time><pdop>6.068</pdop><geoidheight>0.00</geoidheight><course>307.1</course><type>1</type></trkpt>
      <trkpt lat="38.51086556" lon="-6.60715583"><ele>832</ele><speed>4.35</speed><time>2019-02-23T16:28:46Z</time><pdop>6.068</pdop><geoidheight>0.00</geoidheight><course>287.4</course><type>1</type></trkpt>
      <trkpt lat="38.51090944" lon="-6.60731341"><ele>834</ele><speed>4.19</speed><time>2019-02-23T16:28:50Z</time><pdop>6.068</pdop><geoidheight>0.00</geoidheight><course>274.8</course><type>1</type></trkpt>
      <trkpt lat="38.51090746" lon="-6.60746709"><ele>834</ele><speed>3.59</speed><time>2019-02-23T16:28:53Z</time><pdop>7.585</pdop><geoidheight>0.00</geoidheight><course>272.9</course><type>1</type></trkpt>
      <trkpt lat="38.51088649" lon="-6.60763567"><ele>834</ele><speed>4.74</speed><time>2019-02-23T16:28:58Z</time><pdop>7.585</pdop><geoidheight>0.00</geoidheight><course>289.7</course><type>1</type></trkpt>
      <trkpt lat="38.51089855" lon="-6.60778659"><ele>843</ele><speed>1.39</speed><time>2019-02-23T16:29:02Z</time><pdop>6.068</pdop><geoidheight>0.00</geoidheight><course>227.2</course><type>1</type></trkpt>
      <trkpt lat="38.51091344" lon="-6.60793372"><ele>849</ele><speed>0.53</speed><time>2019-02-23T16:29:07Z</time><pdop>6.068</pdop><geoidheight>0.00</geoidheight><course>287.9</course><type>1</type></trkpt>
      <trkpt lat="38.51103555" lon="-6.60786941"><ele>853</ele><speed>2.41</speed><time>2019-02-23T16:29:14Z</time><pdop>6.068</pdop><geoidheight>0.00</geoidheight><course>62.9</course><type>1</type></trkpt>
      <trkpt lat="38.51107599" lon="-6.60773573"><ele>853</ele><speed>5.37</speed><time>2019-02-23T16:29:17Z</time><pdop>6.068</pdop><geoidheight>0.00</geoidheight><course>55.1</course><type>1</type></trkpt>
      <trkpt lat="38.51112713" lon="-6.60760541"><ele>854</ele><speed>6.91</speed><time>2019-02-23T16:29:19Z</time><pdop>6.068</pdop><geoidheight>0.00</geoidheight><course>73.1</course><type>1</type></trkpt>
      <trkpt lat="38.51114001" lon="-6.60743445"><ele>853</ele><speed>7.54</speed><time>2019-02-23T16:29:21Z</time><pdop>6.068</pdop><geoidheight>0.00</geoidheight><course>85.4</course><type>1</type></trkpt>
      <trkpt lat="38.51113896" lon="-6.60724789"><ele>852</ele><speed>8.08</speed><time>2019-02-23T16:29:23Z</time><pdop>7.585</pdop><geoidheight>0.00</geoidheight><course>90.0</course><type>1</type></trkpt>
      <trkpt lat="38.51113316" lon="-6.6070382"><ele>853</ele><speed>8.90</speed><time>2019-02-23T16:29:25Z</time><pdop>6.068</pdop><geoidheight>0.00</geoidheight><course>95.6</course><type>1</type></trkpt>
      <trkpt lat="38.5110941" lon="-6.60681275"><ele>841</ele><speed>10.48</speed><time>2019-02-23T16:29:27Z</time><pdop>6.068</pdop><geoidheight>0.00</geoidheight><course>101.2</course><type>1</type></trkpt>
      <trkpt lat="38.51102992" lon="-6.60657019"><ele>848</ele><speed>11.83</speed><time>2019-02-23T16:29:29Z</time><pdop>6.068</pdop><geoidheight>0.00</geoidheight><course>113.1</course><type>1</type></trkpt>
      <trkpt lat="38.51090614" lon="-6.60634858"><ele>854</ele><speed>12.17</speed><time>2019-02-23T16:29:31Z</time><pdop>6.068</pdop><geoidheight>0.00</geoidheight><course>135.0</course><type>1</type></trkpt>
      <trkpt lat="38.51081014" lon="-6.60627328"><ele>856</ele><speed>12.95</speed><time>2019-02-23T16:29:32Z</time><pdop>6.068</pdop><geoidheight>0.00</geoidheight><course>150.4</course><type>1</type></trkpt>
      <trkpt lat="38.51069058" lon="-6.6062254"><ele>857</ele><speed>13.33</speed><time>2019-02-23T16:29:33Z</time><pdop>6.068</pdop><geoidheight>0.00</geoidheight><course>164.4</course><type>1</type></trkpt>
      <trkpt lat="38.51057706" lon="-6.60621651"><ele>859</ele><speed>12.70</speed><time>2019-02-23T16:29:34Z</time><pdop>6.068</pdop><geoidheight>0.00</geoidheight><course>179.6</course><type>1</type></trkpt>
      <trkpt lat="38.51038622" lon="-6.60629051"><ele>864</ele><speed>10.24</speed><time>2019-02-23T16:29:36Z</time><pdop>6.068</pdop><geoidheight>0.00</geoidheight><course>206.0</course><type>1</type></trkpt>
      <trkpt lat="38.51027084" lon="-6.60641518"><ele>867</ele><speed>7.62</speed><time>2019-02-23T16:29:38Z</time><pdop>6.068</pdop><geoidheight>0.00</geoidheight><course>229.0</course><type>1</type></trkpt>
      <trkpt lat="38.51024469" lon="-6.60655982"><ele>871</ele><speed>5.75</speed><time>2019-02-23T16:29:40Z</time><pdop>6.068</pdop><geoidheight>0.00</geoidheight><course>264.3</course><type>1</type></trkpt>
      <trkpt lat="38.51030448" lon="-6.60668293"><ele>877</ele><speed>3.22</speed><time>2019-02-23T16:29:46Z</time><pdop>6.068</pdop><geoidheight>0.00</geoidheight><course>326.3</course><type>1</type></trkpt>
      <trkpt lat="38.51042211" lon="-6.60667142"><ele>877</ele><speed>2.02</speed><time>2019-02-23T16:29:51Z</time><pdop>6.068</pdop><geoidheight>0.00</geoidheight><course>10.0</course><type>1</type></trkpt>
      <trkpt lat="38.51054343" lon="-6.60669183"><ele>879</ele><speed>3.09</speed><time>2019-02-23T16:29:56Z</time><pdop>6.068</pdop><geoidheight>0.00</geoidheight><course>352.7</course><type>1</type></trkpt>
      <trkpt lat="38.51066407" lon="-6.60670119"><ele>882</ele><speed>2.07</speed><time>2019-02-23T16:30:01Z</time><pdop>6.068</pdop><geoidheight>0.00</geoidheight><course>349.5</course><type>1</type></trkpt>
      <trkpt lat="38.51077472" lon="-6.60670864"><ele>872</ele><speed>3.31</speed><time>2019-02-23T16:30:07Z</time><pdop>6.068</pdop><geoidheight>0.00</geoidheight><course>27.7</course><type>1</type></trkpt>
      <trkpt lat="38.51085516" lon="-6.60659349"><ele>856</ele><speed>5.25</speed><time>2019-02-23T16:30:10Z</time><pdop>6.068</pdop><geoidheight>0.00</geoidheight><course>62.0</course><type>1</type></trkpt>
      <trkpt lat="38.51089309" lon="-6.60640868"><ele>869</ele><speed>6.10</speed><time>2019-02-23T16:30:13Z</time><pdop>6.068</pdop><geoidheight>0.00</geoidheight><course>76.3</course><type>1</type></trkpt>
      <trkpt lat="38.51092645" lon="-6.60625605"><ele>873</ele><speed>8.40</speed><time>2019-02-23T16:30:15Z</time><pdop>6.068</pdop><geoidheight>0.00</geoidheight><course>82.9</course><type>1</type></trkpt>
      <trkpt lat="38.51094394" lon="-6.60605952"><ele>872</ele><speed>9.67</speed><time>2019-02-23T16:30:17Z</time><pdop>7.585</pdop><geoidheight>0.00</geoidheight><course>95.7</course><type>1</type></trkpt>
      <trkpt lat="38.51091839" lon="-6.60583005"><ele>874</ele><speed>10.54</speed><time>2019-02-23T16:30:19Z</time><pdop>7.585</pdop><geoidheight>0.00</geoidheight><course>101.5</course><type>1</type></trkpt>
      <trkpt lat="38.51087638" lon="-6.60558078"><ele>875</ele><speed>10.16</speed><time>2019-02-23T16:30:21Z</time><pdop>7.585</pdop><geoidheight>0.00</geoidheight><course>101.6</course><type>1</type></trkpt>
      <trkpt lat="38.5108629" lon="-6.60537881"><ele>880</ele><speed>8.52</speed><time>2019-02-23T16:30:23Z</time><pdop>6.068</pdop><geoidheight>0.00</geoidheight><course>89.1</course><type>1</type></trkpt>
      <trkpt lat="38.51088131" lon="-6.60520341"><ele>882</ele><speed>7.27</speed><time>2019-02-23T16:30:25Z</time><pdop>6.068</pdop><geoidheight>0.00</geoidheight><course>80.1</course><type>1</type></trkpt>
      <trkpt lat="38.51090374" lon="-6.6050518"><ele>885</ele><speed>5.95</speed><time>2019-02-23T16:30:27Z</time><pdop>7.585</pdop><geoidheight>0.00</geoidheight><course>76.1</course><type>1</type></trkpt>
      <trkpt lat="38.51098969" lon="-6.60491622"><ele>885</ele><speed>3.17</speed><time>2019-02-23T16:30:31Z</time><pdop>6.068</pdop><geoidheight>0.00</geoidheight><course>24.2</course><type>1</type></trkpt>
      <trkpt lat="38.51108078" lon="-6.60483671"><ele>889</ele><speed>2.18</speed><time>2019-02-23T16:30:36Z</time><pdop>6.068</pdop><geoidheight>0.00</geoidheight><course>0.1</course><type>1</type></trkpt>
      <trkpt lat="38.51119201" lon="-6.60488601"><ele>891</ele><speed>1.69</speed><time>2019-02-23T16:30:43Z</time><pdop>6.068</pdop><geoidheight>0.00</geoidheight><course>326.7</course><type>1</type></trkpt>
      <trkpt lat="38.51126748" lon="-6.60498438"><ele>892</ele><speed>1.95</speed><time>2019-02-23T16:30:49Z</time><pdop>6.068</pdop><geoidheight>0.00</geoidheight><course>302.8</course><type>1</type></trkpt>
      <trkpt lat="38.51131325" lon="-6.60513609"><ele>890</ele><speed>2.66</speed><time>2019-02-23T16:30:55Z</time><pdop>6.068</pdop><geoidheight>0.00</geoidheight><course>311.3</course><type>1</type></trkpt>
      <trkpt lat="38.51137875" lon="-6.60527966"><ele>887</ele><speed>3.18</speed><time>2019-02-23T16:31:00Z</time><pdop>6.068</pdop><geoidheight>0.00</geoidheight><course>296.5</course><type>1</type></trkpt>
      <trkpt lat="38.51142054" lon="-6.60538348"><ele>886</ele><speed>3.35</speed><time>2019-02-23T16:31:03Z</time><pdop>4.5509996</pdop><geoidheight>0.00</geoidheight><course>299.3</course><type>1</type></trkpt>
      <trkpt lat="38.5114653" lon="-6.60551832"><ele>883</ele><speed>3.56</speed><time>2019-02-23T16:31:07Z</time><pdop>6.068</pdop><geoidheight>0.00</geoidheight><course>289.2</course><type>1</type></trkpt>
      <trkpt lat="38.51149662" lon="-6.60566166"><ele>883</ele><speed>3.11</speed><time>2019-02-23T16:31:11Z</time><pdop>6.068</pdop><geoidheight>0.00</geoidheight><course>284.0</course><type>1</type></trkpt>
      <trkpt lat="38.51151409" lon="-6.60580973"><ele>883</ele><speed>3.63</speed><time>2019-02-23T16:31:15Z</time><pdop>6.068</pdop><geoidheight>0.00</geoidheight><course>274.0</course><type>1</type></trkpt>
      <trkpt lat="38.51151757" lon="-6.6059533"><ele>882</ele><speed>3.23</speed><time>2019-02-23T16:31:19Z</time><pdop>6.068</pdop><geoidheight>0.00</geoidheight><course>270.9</course><type>1</type></trkpt>
      <trkpt lat="38.51153436" lon="-6.60610075"><ele>882</ele><speed>2.33</speed><time>2019-02-23T16:31:23Z</time><pdop>6.068</pdop><geoidheight>0.00</geoidheight><course>281.7</course><type>1</type></trkpt>
      <trkpt lat="38.51158271" lon="-6.60622394"><ele>879</ele><speed>2.24</speed><time>2019-02-23T16:31:28Z</time><pdop>4.5509996</pdop><geoidheight>0.00</geoidheight><course>305.7</course><type>1</type></trkpt>
      <trkpt lat="38.51161938" lon="-6.60630598"><ele>875</ele><speed>2.75</speed><time>2019-02-23T16:31:32Z</time><pdop>4.5509996</pdop><geoidheight>0.00</geoidheight><course>310.8</course><type>1</type></trkpt>
      <trkpt lat="38.51167087" lon="-6.60640961"><ele>873</ele><speed>2.09</speed><time>2019-02-23T16:31:36Z</time><pdop>6.068</pdop><geoidheight>0.00</geoidheight><course>290.5</course><type>1</type></trkpt>
      <trkpt lat="38.51174746" lon="-6.60651324"><ele>866</ele><speed>1.77</speed><time>2019-02-23T16:31:42Z</time><pdop>6.068</pdop><geoidheight>0.00</geoidheight><course>338.3</course><type>1</type></trkpt>
      <trkpt lat="38.51184844" lon="-6.60659248"><ele>865</ele><speed>2.75</speed><time>2019-02-23T16:31:48Z</time><pdop>6.068</pdop><geoidheight>0.00</geoidheight><course>308.1</course><type>1</type></trkpt>
      <trkpt lat="38.51191405" lon="-6.60670545"><ele>867</ele><speed>2.79</speed><time>2019-02-23T16:31:53Z</time><pdop>6.068</pdop><geoidheight>0.00</geoidheight><course>288.2</course><type>1</type></trkpt>
      <trkpt lat="38.51195772" lon="-6.60685415"><ele>862</ele><speed>3.32</speed><time>2019-02-23T16:31:57Z</time><pdop>6.068</pdop><geoidheight>0.00</geoidheight><course>289.1</course><type>1</type></trkpt>
      <trkpt lat="38.51198983" lon="-6.60700351"><ele>863</ele><speed>2.80</speed><time>2019-02-23T16:32:01Z</time><pdop>6.068</pdop><geoidheight>0.00</geoidheight><course>269.5</course><type>1</type></trkpt>
      <trkpt lat="38.51200157" lon="-6.60715921"><ele>862</ele><speed>3.67</speed><time>2019-02-23T16:32:05Z</time><pdop>6.068</pdop><geoidheight>0.00</geoidheight><course>286.3</course><type>1</type></trkpt>
      <trkpt lat="38.51205814" lon="-6.6073198"><ele>861</ele><speed>3.72</speed><time>2019-02-23T16:32:10Z</time><pdop>6.068</pdop><geoidheight>0.00</geoidheight><course>306.2</course><type>1</type></trkpt>
      <trkpt lat="38.51209979" lon="-6.60745497"><ele>863</ele><speed>2.52</speed><time>2019-02-23T16:32:14Z</time><pdop>6.068</pdop><geoidheight>0.00</geoidheight><course>285.0</course><type>1</type></trkpt>
      <trkpt lat="38.51214401" lon="-6.60761016"><ele>854</ele><speed>2.46</speed><time>2019-02-23T16:32:19Z</time><pdop>6.068</pdop><geoidheight>0.00</geoidheight><course>288.2</course><type>1</type></trkpt>
      <trkpt lat="38.51218466" lon="-6.60774654"><ele>856</ele><speed>3.83</speed><time>2019-02-23T16:32:23Z</time><pdop>6.068</pdop><geoidheight>0.00</geoidheight><course>294.4</course><type>1</type></trkpt>
      <trkpt lat="38.5122376" lon="-6.60788497"><ele>858</ele><speed>3.14</speed><time>2019-02-23T16:32:27Z</time><pdop>6.068</pdop><geoidheight>0.00</geoidheight><course>299.6</course><type>1</type></trkpt>
      <trkpt lat="38.51228992" lon="-6.60800191"><ele>860</ele><speed>2.99</speed><time>2019-02-23T16:32:31Z</time><pdop>4.5509996</pdop><geoidheight>0.00</geoidheight><course>292.8</course><type>1</type></trkpt>
      <trkpt lat="38.51230569" lon="-6.60810994"><ele>859</ele><speed>3.39</speed><time>2019-02-23T16:32:35Z</time><pdop>4.5509996</pdop><geoidheight>0.00</geoidheight><course>280.5</course><type>1</type></trkpt>
      <trkpt lat="38.51231632" lon="-6.60823985"><ele>859</ele><speed>3.48</speed><time>2019-02-23T16:32:38Z</time><pdop>6.068</pdop><geoidheight>0.00</geoidheight><course>273.5</course><type>1</type></trkpt>
      <trkpt lat="38.51232038" lon="-6.60839948"><ele>859</ele><speed>3.81</speed><time>2019-02-23T16:32:42Z</time><pdop>7.585</pdop><geoidheight>0.00</geoidheight><course>275.3</course><type>1</type></trkpt>
      <trkpt lat="38.51233482" lon="-6.60855701"><ele>855</ele><speed>2.97</speed><time>2019-02-23T16:32:46Z</time><pdop>6.068</pdop><geoidheight>0.00</geoidheight><course>288.9</course><type>1</type></trkpt>
      <trkpt lat="38.51240756" lon="-6.60866183"><ele>855</ele><speed>2.26</speed><time>2019-02-23T16:32:51Z</time><pdop>4.5509996</pdop><geoidheight>0.00</geoidheight><course>345.5</course><type>1</type></trkpt>
      <trkpt lat="38.51248311" lon="-6.6086687"><ele>856</ele><speed>2.05</speed><time>2019-02-23T16:32:55Z</time><pdop>4.5509996</pdop><geoidheight>0.00</geoidheight><course>15.8</course><type>1</type></trkpt>
      <trkpt lat="38.5125712" lon="-6.60861677"><ele>851</ele><speed>2.32</speed><time>2019-02-23T16:33:00Z</time><pdop>6.068</pdop><geoidheight>0.00</geoidheight><course>32.0</course><type>1</type></trkpt>
      <trkpt lat="38.51259855" lon="-6.60876147"><ele>842</ele><speed>4.57</speed><time>2019-02-23T16:33:08Z</time><pdop>6.068</pdop><geoidheight>0.00</geoidheight><course>250.4</course><type>1</type></trkpt>
      <trkpt lat="38.51255416" lon="-6.608916"><ele>843</ele><speed>3.87</speed><time>2019-02-23T16:33:11Z</time><pdop>6.068</pdop><geoidheight>0.00</geoidheight><course>264.3</course><type>1</type></trkpt>
      <trkpt lat="38.51254228" lon="-6.6090777"><ele>839</ele><speed>3.38</speed><time>2019-02-23T16:33:15Z</time><pdop>4.5509996</pdop><geoidheight>0.00</geoidheight><course>269.3</course><type>1</type></trkpt>
      <trkpt lat="38.5126039" lon="-6.60917612"><ele>839</ele><speed>3.96</speed><time>2019-02-23T16:33:19Z</time><pdop>6.068</pdop><geoidheight>0.00</geoidheight><course>5.3</course><type>1</type></trkpt>
      <trkpt lat="38.51268644" lon="-6.60905096"><ele>843</ele><speed>5.06</speed><time>2019-02-23T16:33:22Z</time><pdop>4.5509996</pdop><geoidheight>0.00</geoidheight><course>77.2</course><type>1</type></trkpt>
      <trkpt lat="38.51269736" lon="-6.60891197"><ele>842</ele><speed>7.67</speed><time>2019-02-23T16:33:24Z</time><pdop>6.068</pdop><geoidheight>0.00</geoidheight><course>92.6</course><type>1</type></trkpt>
      <trkpt lat="38.51266186" lon="-6.60869533"><ele>840</ele><speed>10.93</speed><time>2019-02-23T16:33:26Z</time><pdop>6.068</pdop><geoidheight>0.00</geoidheight><course>110.8</course><type>1</type></trkpt>
      <trkpt lat="38.51258512" lon="-6.60847145"><ele>837</ele><speed>10.69</speed><time>2019-02-23T16:33:28Z</time><pdop>6.068</pdop><geoidheight>0.00</geoidheight><course>117.8</course><type>1</type></trkpt>
      <trkpt lat="38.51252629" lon="-6.60824545"><ele>837</ele><speed>9.68</speed><time>2019-02-23T16:33:30Z</time><pdop>6.068</pdop><geoidheight>0.00</geoidheight><course>110.6</course><type>1</type></trkpt>
      <trkpt lat="38.51248744" lon="-6.60813021"><ele>837</ele><speed>10.60</speed><time>2019-02-23T16:33:31Z</time><pdop>4.5509996</pdop><geoidheight>0.00</geoidheight><course>114.2</course><type>1</type></trkpt>
      <trkpt lat="38.51242905" lon="-6.60801219"><ele>837</ele><speed>11.97</speed><time>2019-02-23T16:33:32Z</time><pdop>4.5509996</pdop><geoidheight>0.00</geoidheight><course>122.8</course><type>1</type></trkpt>
      <trkpt lat="38.51235128" lon="-6.60789474"><ele>838</ele><speed>12.70</speed><time>2019-02-23T16:33:33Z</time><pdop>4.5509996</pdop><geoidheight>0.00</geoidheight><course>129.4</course><type>1</type></trkpt>
      <trkpt lat="38.51227628" lon="-6.60778352"><ele>839</ele><speed>12.62</speed><time>2019-02-23T16:33:34Z</time><pdop>6.068</pdop><geoidheight>0.00</geoidheight><course>129.3</course><type>1</type></trkpt>
      <trkpt lat="38.51216993" lon="-6.60759983"><ele>839</ele><speed>10.40</speed><time>2019-02-23T16:33:36Z</time><pdop>4.5509996</pdop><geoidheight>0.00</geoidheight><course>122.9</course><type>1</type></trkpt>
      <trkpt lat="38.51211372" lon="-6.60749315"><ele>838</ele><speed>11.19</speed><time>2019-02-23T16:33:37Z</time><pdop>4.5509996</pdop><geoidheight>0.00</geoidheight><course>124.9</course><type>1</type></trkpt>
      <trkpt lat="38.51204563" lon="-6.6073869"><ele>838</ele><speed>12.08</speed><time>2019-02-23T16:33:38Z</time><pdop>4.5509996</pdop><geoidheight>0.00</geoidheight><course>127.6</course><type>1</type></trkpt>
      <trkpt lat="38.51199868" lon="-6.60727376"><ele>838</ele><speed>11.29</speed><time>2019-02-23T16:33:39Z</time><pdop>4.5509996</pdop><geoidheight>0.00</geoidheight><course>125.1</course><type>1</type></trkpt>
      <trkpt lat="38.51195807" lon="-6.60716664"><ele>839</ele><speed>10.13</speed><time>2019-02-23T16:33:40Z</time><pdop>4.5509996</pdop><geoidheight>0.00</geoidheight><course>118.0</course><type>1</type></trkpt>
      <trkpt lat="38.51192485" lon="-6.60706289"><ele>839</ele><speed>9.53</speed><time>2019-02-23T16:33:41Z</time><pdop>4.5509996</pdop><geoidheight>0.00</geoidheight><course>112.4</course><type>1</type></trkpt>
      <trkpt lat="38.51188408" lon="-6.60695953"><ele>839</ele><speed>9.87</speed><time>2019-02-23T16:33:42Z</time><pdop>4.5509996</pdop><geoidheight>0.00</geoidheight><course>115.6</course><type>1</type></trkpt>
      <trkpt lat="38.51177463" lon="-6.60675238"><ele>838</ele><speed>10.67</speed><time>2019-02-23T16:33:44Z</time><pdop>6.068</pdop><geoidheight>0.00</geoidheight><course>124.2</course><type>1</type></trkpt>
      <trkpt lat="38.51173078" lon="-6.60654104"><ele>835</ele><speed>10.18</speed><time>2019-02-23T16:33:46Z</time><pdop>6.068</pdop><geoidheight>0.00</geoidheight><course>102.4</course><type>1</type></trkpt>
      <trkpt lat="38.51168843" lon="-6.60629074"><ele>834</ele><speed>10.98</speed><time>2019-02-23T16:33:48Z</time><pdop>6.068</pdop><geoidheight>0.00</geoidheight><course>110.0</course><type>1</type></trkpt>
      <trkpt lat="38.51160724" lon="-6.60606692"><ele>830</ele><speed>10.66</speed><time>2019-02-23T16:33:50Z</time><pdop>6.068</pdop><geoidheight>0.00</geoidheight><course>114.6</course><type>1</type></trkpt>
      <trkpt lat="38.51154212" lon="-6.60584511"><ele>826</ele><speed>10.40</speed><time>2019-02-23T16:33:52Z</time><pdop>6.068</pdop><geoidheight>0.00</geoidheight><course>105.4</course><type>1</type></trkpt>
      <trkpt lat="38.51150994" lon="-6.60559974"><ele>823</ele><speed>10.67</speed><time>2019-02-23T16:33:54Z</time><pdop>6.068</pdop><geoidheight>0.00</geoidheight><course>107.0</course><type>1</type></trkpt>
      <trkpt lat="38.51147782" lon="-6.6053894"><ele>819</ele><speed>10.03</speed><time>2019-02-23T16:33:56Z</time><pdop>7.585</pdop><geoidheight>0.00</geoidheight><course>104.6</course><type>1</type></trkpt>
      <trkpt lat="38.51144195" lon="-6.60516104"><ele>818</ele><speed>9.98</speed><time>2019-02-23T16:33:58Z</time><pdop>7.585</pdop><geoidheight>0.00</geoidheight><course>96.8</course><type>1</type></trkpt>
      <trkpt lat="38.51143053" lon="-6.60492865"><ele>816</ele><speed>8.83</speed><time>2019-02-23T16:34:00Z</time><pdop>6.068</pdop><geoidheight>0.00</geoidheight><course>84.7</course><type>1</type></trkpt>
      <trkpt lat="38.51148824" lon="-6.60476533"><ele>815</ele><speed>7.02</speed><time>2019-02-23T16:34:02Z</time><pdop>7.585</pdop><geoidheight>0.00</geoidheight><course>61.7</course><type>1</type></trkpt>
      <trkpt lat="38.51156956" lon="-6.60457818"><ele>813</ele><speed>4.75</speed><time>2019-02-23T16:34:05Z</time><pdop>7.585</pdop><geoidheight>0.00</geoidheight><course>60.9</course><type>1</type></trkpt>
      <trkpt lat="38.5116756" lon="-6.60446882"><ele>811</ele><speed>4.03</speed><time>2019-02-23T16:34:09Z</time><pdop>7.585</pdop><geoidheight>0.00</geoidheight><course>22.0</course><type>1</type></trkpt>
      <trkpt lat="38.51180285" lon="-6.60439955"><ele>806</ele><speed>3.76</speed><time>2019-02-23T16:34:13Z</time><pdop>7.585</pdop><geoidheight>0.00</geoidheight><course>16.6</course><type>1</type></trkpt>
      <trkpt lat="38.51193063" lon="-6.60435295"><ele>808</ele><speed>2.50</speed><time>2019-02-23T16:34:17Z</time><pdop>7.585</pdop><geoidheight>0.00</geoidheight><course>17.7</course><type>1</type></trkpt>
      <trkpt lat="38.51205769" lon="-6.60431573"><ele>804</ele><speed>3.87</speed><time>2019-02-23T16:34:21Z</time><pdop>7.585</pdop><geoidheight>0.00</geoidheight><course>11.7</course><type>1</type></trkpt>
      <trkpt lat="38.51218392" lon="-6.6042835"><ele>799</ele><speed>3.71</speed><time>2019-02-23T16:34:25Z</time><pdop>7.585</pdop><geoidheight>0.00</geoidheight><course>14.8</course><type>1</type></trkpt>
      <trkpt lat="38.51231191" lon="-6.60430928"><ele>795</ele><speed>4.47</speed><time>2019-02-23T16:34:30Z</time><pdop>7.585</pdop><geoidheight>0.00</geoidheight><course>296.6</course><type>1</type></trkpt>
      <trkpt lat="38.5122456" lon="-6.60446573"><ele>801</ele><speed>5.94</speed><time>2019-02-23T16:34:32Z</time><pdop>6.068</pdop><geoidheight>0.00</geoidheight><course>254.6</course><type>1</type></trkpt>
      <trkpt lat="38.5121872" lon="-6.6046124"><ele>796</ele><speed>6.65</speed><time>2019-02-23T16:34:34Z</time><pdop>6.068</pdop><geoidheight>0.00</geoidheight><course>239.8</course><type>1</type></trkpt>
      <trkpt lat="38.5121197" lon="-6.60478561"><ele>793</ele><speed>5.37</speed><time>2019-02-23T16:34:37Z</time><pdop>6.068</pdop><geoidheight>0.00</geoidheight><course>251.4</course><type>1</type></trkpt>
      <trkpt lat="38.51211727" lon="-6.60492911"><ele>788</ele><speed>2.82</speed><time>2019-02-23T16:34:41Z</time><pdop>6.068</pdop><geoidheight>0.00</geoidheight><course>321.1</course><type>1</type></trkpt>
      <trkpt lat="38.51224448" lon="-6.60485477"><ele>783</ele><speed>5.10</speed><time>2019-02-23T16:34:45Z</time><pdop>6.068</pdop><geoidheight>0.00</geoidheight><course>66.0</course><type>1</type></trkpt>
      <trkpt lat="38.51229189" lon="-6.60464689"><ele>778</ele><speed>7.63</speed><time>2019-02-23T16:34:48Z</time><pdop>6.068</pdop><geoidheight>0.00</geoidheight><course>73.6</course><type>1</type></trkpt>
      <trkpt lat="38.51231735" lon="-6.60445933"><ele>778</ele><speed>8.74</speed><time>2019-02-23T16:34:50Z</time><pdop>6.068</pdop><geoidheight>0.00</geoidheight><course>78.8</course><type>1</type></trkpt>
      <trkpt lat="38.51233304" lon="-6.60429591"><ele>780</ele><speed>6.20</speed><time>2019-02-23T16:34:52Z</time><pdop>6.068</pdop><geoidheight>0.00</geoidheight><course>87.0</course><type>1</type></trkpt>
      <trkpt lat="38.51236446" lon="-6.60408455"><ele>834</ele><speed>7.17</speed><time>2019-02-23T16:34:55Z</time><pdop>7.585</pdop><geoidheight>0.00</geoidheight><course>70.7</course><type>1</type></trkpt>
      <trkpt lat="38.51243033" lon="-6.6039279"><ele>811</ele><speed>6.88</speed><time>2019-02-23T16:34:57Z</time><pdop>7.585</pdop><geoidheight>0.00</geoidheight><course>66.7</course><type>1</type></trkpt>
      <trkpt lat="38.51248464" lon="-6.60371856"><ele>793</ele><speed>6.26</speed><time>2019-02-23T16:35:00Z</time><pdop>7.585</pdop><geoidheight>0.00</geoidheight><course>71.8</course><type>1</type></trkpt>
      <trkpt lat="38.51254231" lon="-6.60356919"><ele>786</ele><speed>7.30</speed><time>2019-02-23T16:35:02Z</time><pdop>7.585</pdop><geoidheight>0.00</geoidheight><course>68.7</course><type>1</type></trkpt>
      <trkpt lat="38.51256914" lon="-6.60339061"><ele>783</ele><speed>7.01</speed><time>2019-02-23T16:35:04Z</time><pdop>7.585</pdop><geoidheight>0.00</geoidheight><course>78.4</course><type>1</type></trkpt>
      <trkpt lat="38.51261097" lon="-6.60322832"><ele>778</ele><speed>7.07</speed><time>2019-02-23T16:35:06Z</time><pdop>7.585</pdop><geoidheight>0.00</geoidheight><course>80.2</course><type>1</type></trkpt>
      <trkpt lat="38.51265347" lon="-6.60306999"><ele>774</ele><speed>7.22</speed><time>2019-02-23T16:35:08Z</time><pdop>6.068</pdop><geoidheight>0.00</geoidheight><course>65.6</course><type>1</type></trkpt>
      <trkpt lat="38.51270827" lon="-6.60291196"><ele>773</ele><speed>6.30</speed><time>2019-02-23T16:35:10Z</time><pdop>6.068</pdop><geoidheight>0.00</geoidheight><course>65.0</course><type>1</type></trkpt>
      <trkpt lat="38.51274013" lon="-6.60272957"><ele>773</ele><speed>6.38</speed><time>2019-02-23T16:35:13Z</time><pdop>6.068</pdop><geoidheight>0.00</geoidheight><course>69.6</course><type>1</type></trkpt>
      <trkpt lat="38.5127752" lon="-6.60257978"><ele>772</ele><speed>7.43</speed><time>2019-02-23T16:35:15Z</time><pdop>6.068</pdop><geoidheight>0.00</geoidheight><course>73.9</course><type>1</type></trkpt>
      <trkpt lat="38.5127958" lon="-6.60240673"><ele>772</ele><speed>8.38</speed><time>2019-02-23T16:35:17Z</time><pdop>7.585</pdop><geoidheight>0.00</geoidheight><course>86.4</course><type>1</type></trkpt>
      <trkpt lat="38.51278539" lon="-6.60219514"><ele>770</ele><speed>10.71</speed><time>2019-02-23T16:35:19Z</time><pdop>7.585</pdop><geoidheight>0.00</geoidheight><course>100.5</course><type>1</type></trkpt>
      <trkpt lat="38.51273537" lon="-6.60194861"><ele>770</ele><speed>11.29</speed><time>2019-02-23T16:35:21Z</time><pdop>7.585</pdop><geoidheight>0.00</geoidheight><course>109.1</course><type>1</type></trkpt>
      <trkpt lat="38.51266336" lon="-6.60170946"><ele>768</ele><speed>10.37</speed><time>2019-02-23T16:35:23Z</time><pdop>7.585</pdop><geoidheight>0.00</geoidheight><course>109.1</course><type>1</type></trkpt>
      <trkpt lat="38.51261122" lon="-6.60147965"><ele>768</ele><speed>10.06</speed><time>2019-02-23T16:35:25Z</time><pdop>7.585</pdop><geoidheight>0.00</geoidheight><course>99.9</course><type>1</type></trkpt>
      <trkpt lat="38.51256509" lon="-6.6012452"><ele>769</ele><speed>10.44</speed><time>2019-02-23T16:35:27Z</time><pdop>7.585</pdop><geoidheight>0.00</geoidheight><course>106.7</course><type>1</type></trkpt>
      <trkpt lat="38.51249123" lon="-6.60102123"><ele>768</ele><speed>11.32</speed><time>2019-02-23T16:35:29Z</time><pdop>6.068</pdop><geoidheight>0.00</geoidheight><course>111.1</course><type>1</type></trkpt>
      <trkpt lat="38.51242786" lon="-6.60078133"><ele>767</ele><speed>10.94</speed><time>2019-02-23T16:35:31Z</time><pdop>6.068</pdop><geoidheight>0.00</geoidheight><course>103.5</course><type>1</type></trkpt>
      <trkpt lat="38.51236845" lon="-6.6005596"><ele>765</ele><speed>9.93</speed><time>2019-02-23T16:35:33Z</time><pdop>6.068</pdop><geoidheight>0.00</geoidheight><course>100.5</course><type>1</type></trkpt>
      <trkpt lat="38.51234751" lon="-6.60034846"><ele>764</ele><speed>9.58</speed><time>2019-02-23T16:35:35Z</time><pdop>7.585</pdop><geoidheight>0.00</geoidheight><course>95.1</course><type>1</type></trkpt>
      <trkpt lat="38.51235455" lon="-6.60011561"><ele>763</ele><speed>9.35</speed><time>2019-02-23T16:35:37Z</time><pdop>7.585</pdop><geoidheight>0.00</geoidheight><course>78.0</course><type>1</type></trkpt>
      <trkpt lat="38.5124213" lon="-6.59995817"><ele>763</ele><speed>6.75</speed><time>2019-02-23T16:35:39Z</time><pdop>7.585</pdop><geoidheight>0.00</geoidheight><course>69.0</course><type>1</type></trkpt>
      <trkpt lat="38.51248882" lon="-6.59979065"><ele>761</ele><speed>5.08</speed><time>2019-02-23T16:35:42Z</time><pdop>7.585</pdop><geoidheight>0.00</geoidheight><course>53.4</course><type>1</type></trkpt>
      <trkpt lat="38.5125775" lon="-6.59960943"><ele>761</ele><speed>5.41</speed><time>2019-02-23T16:35:45Z</time><pdop>7.585</pdop><geoidheight>0.00</geoidheight><course>55.4</course><type>1</type></trkpt>
      <trkpt lat="38.51267691" lon="-6.59946476"><ele>754</ele><speed>5.14</speed><time>2019-02-23T16:35:49Z</time><pdop>7.585</pdop><geoidheight>0.00</geoidheight><course>39.0</course><type>1</type></trkpt>
      <trkpt lat="38.51280647" lon="-6.59933587"><ele>751</ele><speed>5.72</speed><time>2019-02-23T16:35:52Z</time><pdop>9.101999</pdop><geoidheight>0.00</geoidheight><course>40.8</course><type>1</type></trkpt>
      <trkpt lat="38.51291281" lon="-6.59915157"><ele>746</ele><speed>6.89</speed><time>2019-02-23T16:35:56Z</time><pdop>7.585</pdop><geoidheight>0.00</geoidheight><course>66.2</course><type>1</type></trkpt>
      <trkpt lat="38.51298758" lon="-6.59893369"><ele>743</ele><speed>6.93</speed><time>2019-02-23T16:35:59Z</time><pdop>7.585</pdop><geoidheight>0.00</geoidheight><course>59.4</course><type>1</type></trkpt>
      <trkpt lat="38.51303867" lon="-6.59873372"><ele>743</ele><speed>7.33</speed><time>2019-02-23T16:36:02Z</time><pdop>9.101999</pdop><geoidheight>0.00</geoidheight><course>80.7</course><type>1</type></trkpt>
      <trkpt lat="38.51309316" lon="-6.59851976"><ele>739</ele><speed>5.35</speed><time>2019-02-23T16:36:06Z</time><pdop>6.068</pdop><geoidheight>0.00</geoidheight><course>54.8</course><type>1</type></trkpt>
      <trkpt lat="38.51316059" lon="-6.59834825"><ele>738</ele><speed>5.32</speed><time>2019-02-23T16:36:09Z</time><pdop>6.068</pdop><geoidheight>0.00</geoidheight><course>67.8</course><type>1</type></trkpt>
      <trkpt lat="38.51324602" lon="-6.59826039"><ele>733</ele><speed>4.41</speed><time>2019-02-23T16:36:12Z</time><pdop>6.068</pdop><geoidheight>0.00</geoidheight><course>40.4</course><type>1</type></trkpt>
      <trkpt lat="38.51334933" lon="-6.59815246"><ele>728</ele><speed>3.33</speed><time>2019-02-23T16:36:16Z</time><pdop>6.068</pdop><geoidheight>0.00</geoidheight><course>22.1</course><type>1</type></trkpt>
      <trkpt lat="38.51348375" lon="-6.59812526"><ele>724</ele><speed>3.63</speed><time>2019-02-23T16:36:21Z</time><pdop>6.068</pdop><geoidheight>0.00</geoidheight><course>11.4</course><type>1</type></trkpt>
      <trkpt lat="38.51361818" lon="-6.5980835"><ele>717</ele><speed>4.11</speed><time>2019-02-23T16:36:26Z</time><pdop>6.068</pdop><geoidheight>0.00</geoidheight><course>9.0</course><type>1</type></trkpt>
      <trkpt lat="38.5137613" lon="-6.59807572"><ele>711</ele><speed>2.90</speed><time>2019-02-23T16:36:30Z</time><pdop>7.585</pdop><geoidheight>0.00</geoidheight><course>345.4</course><type>1</type></trkpt>
      <trkpt lat="38.51388155" lon="-6.59814048"><ele>724</ele><speed>3.30</speed><time>2019-02-23T16:36:34Z</time><pdop>6.068</pdop><geoidheight>0.00</geoidheight><course>339.7</course><type>1</type></trkpt>
      <trkpt lat="38.51400096" lon="-6.59822549"><ele>714</ele><speed>4.12</speed><time>2019-02-23T16:36:38Z</time><pdop>7.585</pdop><geoidheight>0.00</geoidheight><course>332.4</course><type>1</type></trkpt>
      <trkpt lat="38.51412705" lon="-6.59829928"><ele>729</ele><speed>4.02</speed><time>2019-02-23T16:36:43Z</time><pdop>7.585</pdop><geoidheight>0.00</geoidheight><course>337.7</course><type>1</type></trkpt>
      <trkpt lat="38.51427251" lon="-6.59836499"><ele>736</ele><speed>3.41</speed><time>2019-02-23T16:36:49Z</time><pdop>7.585</pdop><geoidheight>0.00</geoidheight><course>341.2</course><type>1</type></trkpt>
      <trkpt lat="38.51441276" lon="-6.59843517"><ele>706</ele><speed>3.19</speed><time>2019-02-23T16:36:54Z</time><pdop>7.585</pdop><geoidheight>0.00</geoidheight><course>336.1</course><type>1</type></trkpt>
      <trkpt lat="38.51451678" lon="-6.59857359"><ele>712</ele><speed>3.65</speed><time>2019-02-23T16:36:59Z</time><pdop>7.585</pdop><geoidheight>0.00</geoidheight><course>302.3</course><type>1</type></trkpt>
      <trkpt lat="38.51457714" lon="-6.59874836"><ele>701</ele><speed>4.47</speed><time>2019-02-23T16:37:03Z</time><pdop>6.068</pdop><geoidheight>0.00</geoidheight><course>294.7</course><type>1</type></trkpt>
      <trkpt lat="38.51462427" lon="-6.59890937"><ele>685</ele><speed>4.92</speed><time>2019-02-23T16:37:06Z</time><pdop>6.068</pdop><geoidheight>0.00</geoidheight><course>280.1</course><type>1</type></trkpt>
      <trkpt lat="38.51465318" lon="-6.59910088"><ele>718</ele><speed>5.18</speed><time>2019-02-23T16:37:09Z</time><pdop>6.068</pdop><geoidheight>0.00</geoidheight><course>289.9</course><type>1</type></trkpt>
      <trkpt lat="38.51473232" lon="-6.59922531"><ele>689</ele><speed>2.94</speed><time>2019-02-23T16:37:13Z</time><pdop>6.068</pdop><geoidheight>0.00</geoidheight><course>334.8</course><type>1</type></trkpt>
      <trkpt lat="38.51487349" lon="-6.59928985"><ele>719</ele><speed>3.00</speed><time>2019-02-23T16:37:18Z</time><pdop>7.585</pdop><geoidheight>0.00</geoidheight><course>344.7</course><type>1</type></trkpt>
      <trkpt lat="38.51500197" lon="-6.59929201"><ele>715</ele><speed>3.45</speed><time>2019-02-23T16:37:22Z</time><pdop>6.068</pdop><geoidheight>0.00</geoidheight><course>354.9</course><type>1</type></trkpt>
      <trkpt lat="38.51512465" lon="-6.59931892"><ele>713</ele><speed>3.92</speed><time>2019-02-23T16:37:26Z</time><pdop>7.585</pdop><geoidheight>0.00</geoidheight><course>349.6</course><type>1</type></trkpt>
      <trkpt lat="38.51524122" lon="-6.59933787"><ele>707</ele><speed>4.07</speed><time>2019-02-23T16:37:30Z</time><pdop>6.068</pdop><geoidheight>0.00</geoidheight><course>1.7</course><type>1</type></trkpt>
      <trkpt lat="38.51537074" lon="-6.59930319"><ele>673</ele><speed>3.07</speed><time>2019-02-23T16:37:34Z</time><pdop>6.068</pdop><geoidheight>0.00</geoidheight><course>13.4</course><type>1</type></trkpt>
      <trkpt lat="38.51551398" lon="-6.59928948"><ele>684</ele><speed>4.35</speed><time>2019-02-23T16:37:38Z</time><pdop>6.068</pdop><geoidheight>0.00</geoidheight><course>350.0</course><type>1</type></trkpt>
      <trkpt lat="38.51564428" lon="-6.59928749"><ele>666</ele><speed>3.21</speed><time>2019-02-23T16:37:42Z</time><pdop>6.068</pdop><geoidheight>0.00</geoidheight><course>356.8</course><type>1</type></trkpt>
      <trkpt lat="38.5157528" lon="-6.59936602"><ele>668</ele><speed>3.71</speed><time>2019-02-23T16:37:46Z</time><pdop>4.5509996</pdop><geoidheight>0.00</geoidheight><course>319.0</course><type>1</type></trkpt>
      <trkpt lat="38.51581578" lon="-6.59944329"><ele>623</ele><speed>2.96</speed><time>2019-02-23T16:37:49Z</time><pdop>4.5509996</pdop><geoidheight>0.00</geoidheight><course>321.4</course><type>1</type></trkpt>
      <trkpt lat="38.51588071" lon="-6.59949778"><ele>613</ele><speed>3.34</speed><time>2019-02-23T16:37:52Z</time><pdop>4.5509996</pdop><geoidheight>0.00</geoidheight><course>331.6</course><type>1</type></trkpt>
      <trkpt lat="38.51594734" lon="-6.59953422"><ele>612</ele><speed>4.00</speed><time>2019-02-23T16:37:54Z</time><pdop>4.5509996</pdop><geoidheight>0.00</geoidheight><course>339.9</course><type>1</type></trkpt>
      <trkpt lat="38.51603287" lon="-6.59956108"><ele>609</ele><speed>2.90</speed><time>2019-02-23T16:37:57Z</time><pdop>4.5509996</pdop><geoidheight>0.00</geoidheight><course>340.5</course><type>1</type></trkpt>
      <trkpt lat="38.5161123" lon="-6.59960409"><ele>604</ele><speed>3.61</speed><time>2019-02-23T16:38:00Z</time><pdop>4.5509996</pdop><geoidheight>0.00</geoidheight><course>334.3</course><type>1</type></trkpt>
      <trkpt lat="38.51619629" lon="-6.59965831"><ele>600</ele><speed>3.40</speed><time>2019-02-23T16:38:03Z</time><pdop>4.5509996</pdop><geoidheight>0.00</geoidheight><course>336.8</course><type>1</type></trkpt>
      <trkpt lat="38.51626963" lon="-6.59971734"><ele>598</ele><speed>2.95</speed><time>2019-02-23T16:38:06Z</time><pdop>4.5509996</pdop><geoidheight>0.00</geoidheight><course>327.9</course><type>1</type></trkpt>
      <trkpt lat="38.51635094" lon="-6.59975711"><ele>595</ele><speed>3.29</speed><time>2019-02-23T16:38:09Z</time><pdop>4.5509996</pdop><geoidheight>0.00</geoidheight><course>347.2</course><type>1</type></trkpt>
      <trkpt lat="38.51643627" lon="-6.59978653"><ele>594</ele><speed>3.25</speed><time>2019-02-23T16:38:12Z</time><pdop>4.5509996</pdop><geoidheight>0.00</geoidheight><course>333.3</course><type>1</type></trkpt>
      <trkpt lat="38.51650076" lon="-6.59982952"><ele>591</ele><speed>2.20</speed><time>2019-02-23T16:38:15Z</time><pdop>4.5509996</pdop><geoidheight>0.00</geoidheight><course>342.5</course><type>1</type></trkpt>
      <trkpt lat="38.5165687" lon="-6.59987192"><ele>586</ele><speed>4.06</speed><time>2019-02-23T16:38:18Z</time><pdop>4.5509996</pdop><geoidheight>0.00</geoidheight><course>332.0</course><type>1</type></trkpt>
      <trkpt lat="38.51665665" lon="-6.59991776"><ele>582</ele><speed>3.18</speed><time>2019-02-23T16:38:21Z</time><pdop>4.5509996</pdop><geoidheight>0.00</geoidheight><course>357.5</course><type>1</type></trkpt>
      <trkpt lat="38.516742" lon="-6.59990528"><ele>578</ele><speed>3.29</speed><time>2019-02-23T16:38:24Z</time><pdop>4.5509996</pdop><geoidheight>0.00</geoidheight><course>350.0</course><type>1</type></trkpt>
      <trkpt lat="38.51682196" lon="-6.59995685"><ele>576</ele><speed>2.84</speed><time>2019-02-23T16:38:27Z</time><pdop>4.5509996</pdop><geoidheight>0.00</geoidheight><course>346.9</course><type>1</type></trkpt>
      <trkpt lat="38.51689244" lon="-6.59999982"><ele>570</ele><speed>3.69</speed><time>2019-02-23T16:38:30Z</time><pdop>4.5509996</pdop><geoidheight>0.00</geoidheight><course>330.6</course><type>1</type></trkpt>
      <trkpt lat="38.51694563" lon="-6.60006622"><ele>567</ele><speed>1.18</speed><time>2019-02-23T16:38:33Z</time><pdop>4.5509996</pdop><geoidheight>0.00</geoidheight><course>295.9</course><type>1</type></trkpt>
      <trkpt lat="38.51702286" lon="-6.60005443"><ele>573</ele><speed>1.25</speed><time>2019-02-23T16:39:08Z</time><pdop>4.5509996</pdop><geoidheight>0.00</geoidheight><course>358.3</course><type>1</type></trkpt>
      <trkpt lat="38.51709367" lon="-6.60009365"><ele>573</ele><speed>0.65</speed><time>2019-02-23T16:39:18Z</time><pdop>4.5509996</pdop><geoidheight>0.00</geoidheight><course>327.7</course><type>1</type></trkpt>
      <trkpt lat="38.51715935" lon="-6.60014566"><ele>571</ele><speed>1.55</speed><time>2019-02-23T16:39:26Z</time><pdop>4.5509996</pdop><geoidheight>0.00</geoidheight><course>312.4</course><type>1</type></trkpt>
      <trkpt lat="38.51722507" lon="-6.60021286"><ele>569</ele><speed>1.67</speed><time>2019-02-23T16:39:31Z</time><pdop>4.5509996</pdop><geoidheight>0.00</geoidheight><course>333.2</course><type>1</type></trkpt>
      <trkpt lat="38.51729225" lon="-6.60024695"><ele>567</ele><speed>1.08</speed><time>2019-02-23T16:39:40Z</time><pdop>4.5509996</pdop><geoidheight>0.00</geoidheight><course>315.5</course><type>1</type></trkpt>
      <trkpt lat="38.51736622" lon="-6.60026876"><ele>568</ele><speed>0.64</speed><time>2019-02-23T16:39:54Z</time><pdop>4.5509996</pdop><geoidheight>0.00</geoidheight><course>342.9</course><type>1</type></trkpt>
      <trkpt lat="38.51742686" lon="-6.60032443"><ele>567</ele><speed>0.35</speed><time>2019-02-23T16:40:05Z</time><pdop>4.5509996</pdop><geoidheight>0.00</geoidheight><course>332.9</course><type>1</type></trkpt>
      <trkpt lat="38.51749587" lon="-6.60036387"><ele>568</ele><speed>0.72</speed><time>2019-02-23T16:40:17Z</time><pdop>4.5509996</pdop><geoidheight>0.00</geoidheight><course>10.2</course><type>1</type></trkpt>
      <trkpt lat="38.51756374" lon="-6.60039437"><ele>567</ele><speed>0.89</speed><time>2019-02-23T16:40:30Z</time><pdop>4.5509996</pdop><geoidheight>0.00</geoidheight><course>20.4</course><type>1</type></trkpt>
      <trkpt lat="38.51763274" lon="-6.60036442"><ele>568</ele><speed>0.73</speed><time>2019-02-23T16:40:43Z</time><pdop>4.5509996</pdop><geoidheight>0.00</geoidheight><course>17.8</course><type>1</type></trkpt>
      <trkpt lat="38.51770384" lon="-6.6003835"><ele>564</ele><speed>0.53</speed><time>2019-02-23T16:40:56Z</time><pdop>4.5509996</pdop><geoidheight>0.00</geoidheight><course>331.8</course><type>1</type></trkpt>
      <trkpt lat="38.51775525" lon="-6.60045929"><ele>565</ele><speed>0.94</speed><time>2019-02-23T16:41:07Z</time><pdop>4.5509996</pdop><geoidheight>0.00</geoidheight><course>313.9</course><type>1</type></trkpt>
      <trkpt lat="38.51780213" lon="-6.60053042"><ele>564</ele><speed>0.66</speed><time>2019-02-23T16:41:22Z</time><pdop>4.5509996</pdop><geoidheight>0.00</geoidheight><course>298.0</course><type>1</type></trkpt>
      <trkpt lat="38.51780808" lon="-6.60058596"><ele>562</ele><speed>0.00</speed><time>2019-02-23T16:42:22Z</time><pdop>4.5509996</pdop><geoidheight>0.00</geoidheight><course>0.0</course><type>1</type></trkpt>
      <trkpt lat="38.51781138" lon="-6.60058716"><ele>564</ele><speed>0.00</speed><time>2019-02-23T16:43:22Z</time><pdop>4.5509996</pdop><geoidheight>0.00</geoidheight><course>0.0</course><type>1</type></trkpt>
      <trkpt lat="38.51780266" lon="-6.60060794"><ele>563</ele><speed>0.00</speed><time>2019-02-23T16:44:22Z</time><pdop>4.5509996</pdop><geoidheight>0.00</geoidheight><course>0.0</course><type>1</type></trkpt>
      <trkpt lat="38.51780318" lon="-6.60060438"><ele>564</ele><speed>0.00</speed><time>2019-02-23T16:45:22Z</time><pdop>4.5509996</pdop><geoidheight>0.00</geoidheight><course>0.0</course><type>1</type></trkpt>
      <trkpt lat="38.51780925" lon="-6.60059276"><ele>561</ele><speed>0.00</speed><time>2019-02-23T16:46:22Z</time><pdop>4.5509996</pdop><geoidheight>0.00</geoidheight><course>0.0</course><type>1</type></trkpt>
      <trkpt lat="38.51780756" lon="-6.60056002"><ele>560</ele><speed>0.00</speed><time>2019-02-23T16:47:22Z</time><pdop>4.5509996</pdop><geoidheight>0.00</geoidheight><course>0.0</course><type>1</type></trkpt>
      <trkpt lat="38.51782037" lon="-6.60053519"><ele>564</ele><speed>0.00</speed><time>2019-02-23T16:48:22Z</time><pdop>4.5509996</pdop><geoidheight>0.00</geoidheight><course>0.0</course><type>1</type></trkpt>
      <trkpt lat="38.51779601" lon="-6.60054209"><ele>568</ele><speed>0.00</speed><time>2019-02-23T16:49:22Z</time><pdop>4.5509996</pdop><geoidheight>0.00</geoidheight><course>0.0</course><type>1</type></trkpt>
      <trkpt lat="38.51779554" lon="-6.60054177"><ele>568</ele><speed>0.00</speed><time>2019-02-23T16:50:22Z</time><pdop>4.5509996</pdop><geoidheight>0.00</geoidheight><course>0.0</course><type>1</type></trkpt>
      <trkpt lat="38.51779497" lon="-6.60054169"><ele>568</ele><speed>0.00</speed><time>2019-02-23T16:51:22Z</time><pdop>4.5509996</pdop><geoidheight>0.00</geoidheight><course>0.0</course><type>1</type></trkpt>
      <trkpt lat="38.51779464" lon="-6.60054168"><ele>568</ele><speed>0.00</speed><time>2019-02-23T16:52:22Z</time><pdop>4.5509996</pdop><geoidheight>0.00</geoidheight><course>0.0</course><type>1</type></trkpt>
      <trkpt lat="38.5177944" lon="-6.60054185"><ele>568</ele><speed>0.00</speed><time>2019-02-23T16:53:22Z</time><pdop>4.5509996</pdop><geoidheight>0.00</geoidheight><course>0.0</course><type>1</type></trkpt>
      <trkpt lat="38.51779396" lon="-6.6005422"><ele>568</ele><speed>0.00</speed><time>2019-02-23T16:54:22Z</time><pdop>6.068</pdop><geoidheight>0.00</geoidheight><course>0.0</course><type>1</type></trkpt>
      <trkpt lat="38.51778967" lon="-6.60053838"><ele>568</ele><speed>0.00</speed><time>2019-02-23T16:58:02Z</time><pdop>7.585</pdop><geoidheight>0.00</geoidheight><course>0.0</course><type>1</type></trkpt>
      <trkpt lat="38.51780718" lon="-6.60055129"><ele>570</ele><speed>0.00</speed><time>2019-02-23T17:02:16Z</time><pdop>4.5509996</pdop><geoidheight>0.00</geoidheight><course>0.0</course><type>1</type></trkpt>
    </trkseg>
  </trk>
</gpx>